<?xml version="1.0" encoding="UTF-8" standalone="no" ?>
<gpx xmlns="http://www.topografix.com/GPX/1/1" xmlns:xsi="http://www.w3.org/2001/XMLSchema-instance" xsi:schemaLocation="http://www.topografix.com/GPX/1/1 http://www.topografix.com/GPX/1/1/gpx.xsd" version="1.1" creator="VisuGPX - https://www.visugpx.com">
  <metadata>
    <name>Grandes Autannes - Pointe de Bron - Vallon de la Chaux</name>
    <desc><![CDATA[Parti à 8h36 du Tour pour aller jusqu'à la Pointe des Grands et redescendre sur Albert 1er, je suis arrivé à la pointe de Bron à 12h35, avec une météo qui devenait incertaine (nuages sur la Verte et le Mt Blanc), et en baskets dans la neige depuis le col des Autannes. La suite du parcours devenant plus alpine, et plus engagée, manquant de temps, et ne connaissant pas la pente d'éboulis (sans doute enneigée) qui descend au refuge, j'ai préféré faire demi tour et rentrer en faisant un petit crochet par la Suisse et le splendide vallon de la Chaux, avec ses 2 petits lacs sous le glacier des Grands. ATTENTION, j'ai quitté l'arête un peu trop tôt, pour passer au lac 2637, et j'ai dû ensuite naviguer dans un système de vires enneigées, et la sortie n'est pas simple à trouver ! Récit   détaillé et photos sur [url=http://dredanslpentu.blogspot.fr/2012/09/balade-franco-suisse.html] mon blog [/url]]]></desc>
  </metadata>
  <trk>
    <name><![CDATA[28-SEPT-12 17:52:23]]></name>
    <trkseg>
      <trkpt lat="46.00393" lon="6.94597">
        <ele>1478.65</ele>
        <time>2012-09-28T06:36:26Z</time>
      </trkpt>
      <trkpt lat="46.00394" lon="6.94598">
        <ele>1479.13</ele>
        <time>2012-09-28T06:36:28Z</time>
      </trkpt>
      <trkpt lat="46.00393" lon="6.94601">
        <ele>1480.57</ele>
        <time>2012-09-28T06:36:32Z</time>
      </trkpt>
      <trkpt lat="46.00388" lon="6.94599">
        <ele>1483.93</ele>
        <time>2012-09-28T06:36:42Z</time>
      </trkpt>
      <trkpt lat="46.00385" lon="6.94598">
        <ele>1487.3</ele>
        <time>2012-09-28T06:36:56Z</time>
      </trkpt>
      <trkpt lat="46.00392" lon="6.94594">
        <ele>1488.26</ele>
        <time>2012-09-28T06:37:18Z</time>
      </trkpt>
      <trkpt lat="46.00395" lon="6.94594">
        <ele>1487.78</ele>
        <time>2012-09-28T06:37:42Z</time>
      </trkpt>
      <trkpt lat="46.00397" lon="6.94596">
        <ele>1487.78</ele>
        <time>2012-09-28T06:38:16Z</time>
      </trkpt>
      <trkpt lat="46.00394" lon="6.94601">
        <ele>1487.78</ele>
        <time>2012-09-28T06:38:59Z</time>
      </trkpt>
      <trkpt lat="46.00388" lon="6.946">
        <ele>1487.78</ele>
        <time>2012-09-28T06:39:38Z</time>
      </trkpt>
      <trkpt lat="46.00387" lon="6.94599">
        <ele>1487.3</ele>
        <time>2012-09-28T06:40:11Z</time>
      </trkpt>
      <trkpt lat="46.00393" lon="6.94603">
        <ele>1486.82</ele>
        <time>2012-09-28T06:40:50Z</time>
      </trkpt>
      <trkpt lat="46.00391" lon="6.94602">
        <ele>1486.82</ele>
        <time>2012-09-28T06:41:20Z</time>
      </trkpt>
      <trkpt lat="46.00386" lon="6.946">
        <ele>1485.85</ele>
        <time>2012-09-28T06:41:48Z</time>
      </trkpt>
      <trkpt lat="46.0039" lon="6.94601">
        <ele>1485.85</ele>
        <time>2012-09-28T06:41:53Z</time>
      </trkpt>
      <trkpt lat="46.00393" lon="6.94601">
        <ele>1485.85</ele>
        <time>2012-09-28T06:42:03Z</time>
      </trkpt>
      <trkpt lat="46.00398" lon="6.94603">
        <ele>1485.85</ele>
        <time>2012-09-28T06:42:19Z</time>
      </trkpt>
      <trkpt lat="46.00396" lon="6.94603">
        <ele>1485.37</ele>
        <time>2012-09-28T06:42:33Z</time>
      </trkpt>
      <trkpt lat="46.00394" lon="6.94603">
        <ele>1486.82</ele>
        <time>2012-09-28T06:42:41Z</time>
      </trkpt>
      <trkpt lat="46.00392" lon="6.94601">
        <ele>1486.82</ele>
        <time>2012-09-28T06:42:57Z</time>
      </trkpt>
      <trkpt lat="46.00393" lon="6.94602">
        <ele>1486.82</ele>
        <time>2012-09-28T06:43:13Z</time>
      </trkpt>
      <trkpt lat="46.00391" lon="6.94609">
        <ele>1486.82</ele>
        <time>2012-09-28T06:43:17Z</time>
      </trkpt>
      <trkpt lat="46.00393" lon="6.94603">
        <ele>1486.82</ele>
        <time>2012-09-28T06:43:24Z</time>
      </trkpt>
      <trkpt lat="46.00389" lon="6.94619">
        <ele>1487.3</ele>
        <time>2012-09-28T06:43:33Z</time>
      </trkpt>
      <trkpt lat="46.00389" lon="6.94625">
        <ele>1488.26</ele>
        <time>2012-09-28T06:43:36Z</time>
      </trkpt>
      <trkpt lat="46.00387" lon="6.94661">
        <ele>1490.66</ele>
        <time>2012-09-28T06:43:53Z</time>
      </trkpt>
      <trkpt lat="46.0038" lon="6.94682">
        <ele>1492.58</ele>
        <time>2012-09-28T06:44:04Z</time>
      </trkpt>
      <trkpt lat="46.00378" lon="6.9472">
        <ele>1494.51</ele>
        <time>2012-09-28T06:44:21Z</time>
      </trkpt>
      <trkpt lat="46.00378" lon="6.94722">
        <ele>1494.51</ele>
        <time>2012-09-28T06:44:22Z</time>
      </trkpt>
      <trkpt lat="46.00395" lon="6.94742">
        <ele>1496.43</ele>
        <time>2012-09-28T06:44:35Z</time>
      </trkpt>
      <trkpt lat="46.00407" lon="6.94753">
        <ele>1499.79</ele>
        <time>2012-09-28T06:44:45Z</time>
      </trkpt>
      <trkpt lat="46.00408" lon="6.94754">
        <ele>1499.79</ele>
        <time>2012-09-28T06:44:46Z</time>
      </trkpt>
      <trkpt lat="46.00424" lon="6.94768">
        <ele>1501.72</ele>
        <time>2012-09-28T06:44:59Z</time>
      </trkpt>
      <trkpt lat="46.00441" lon="6.94791">
        <ele>1505.56</ele>
        <time>2012-09-28T06:45:16Z</time>
      </trkpt>
      <trkpt lat="46.00444" lon="6.94795">
        <ele>1507</ele>
        <time>2012-09-28T06:45:19Z</time>
      </trkpt>
      <trkpt lat="46.00464" lon="6.94812">
        <ele>1508.93</ele>
        <time>2012-09-28T06:45:35Z</time>
      </trkpt>
      <trkpt lat="46.00477" lon="6.94821">
        <ele>1511.81</ele>
        <time>2012-09-28T06:45:46Z</time>
      </trkpt>
      <trkpt lat="46.00498" lon="6.94831">
        <ele>1515.18</ele>
        <time>2012-09-28T06:46:02Z</time>
      </trkpt>
      <trkpt lat="46.00517" lon="6.94835">
        <ele>1518.54</ele>
        <time>2012-09-28T06:46:16Z</time>
      </trkpt>
      <trkpt lat="46.00533" lon="6.94837">
        <ele>1521.42</ele>
        <time>2012-09-28T06:46:28Z</time>
      </trkpt>
      <trkpt lat="46.00556" lon="6.94852">
        <ele>1523.35</ele>
        <time>2012-09-28T06:46:46Z</time>
      </trkpt>
      <trkpt lat="46.00567" lon="6.94864">
        <ele>1526.71</ele>
        <time>2012-09-28T06:46:58Z</time>
      </trkpt>
      <trkpt lat="46.00569" lon="6.94866">
        <ele>1527.19</ele>
        <time>2012-09-28T06:47:00Z</time>
      </trkpt>
      <trkpt lat="46.00582" lon="6.94875">
        <ele>1530.56</ele>
        <time>2012-09-28T06:47:12Z</time>
      </trkpt>
      <trkpt lat="46.00596" lon="6.94887">
        <ele>1533.92</ele>
        <time>2012-09-28T06:47:25Z</time>
      </trkpt>
      <trkpt lat="46.0061" lon="6.94895">
        <ele>1536.8</ele>
        <time>2012-09-28T06:47:38Z</time>
      </trkpt>
      <trkpt lat="46.00625" lon="6.94901">
        <ele>1540.17</ele>
        <time>2012-09-28T06:47:51Z</time>
      </trkpt>
      <trkpt lat="46.00645" lon="6.94903">
        <ele>1543.05</ele>
        <time>2012-09-28T06:48:06Z</time>
      </trkpt>
      <trkpt lat="46.00664" lon="6.94903">
        <ele>1546.42</ele>
        <time>2012-09-28T06:48:21Z</time>
      </trkpt>
      <trkpt lat="46.00682" lon="6.94903">
        <ele>1549.3</ele>
        <time>2012-09-28T06:48:35Z</time>
      </trkpt>
      <trkpt lat="46.00709" lon="6.94896">
        <ele>1552.19</ele>
        <time>2012-09-28T06:48:55Z</time>
      </trkpt>
      <trkpt lat="46.00739" lon="6.94889">
        <ele>1553.63</ele>
        <time>2012-09-28T06:49:16Z</time>
      </trkpt>
      <trkpt lat="46.00757" lon="6.94888">
        <ele>1556.99</ele>
        <time>2012-09-28T06:49:30Z</time>
      </trkpt>
      <trkpt lat="46.00758" lon="6.94888">
        <ele>1556.99</ele>
        <time>2012-09-28T06:49:31Z</time>
      </trkpt>
      <trkpt lat="46.0077" lon="6.94886">
        <ele>1559.88</ele>
        <time>2012-09-28T06:49:42Z</time>
      </trkpt>
      <trkpt lat="46.00782" lon="6.94883">
        <ele>1563.24</ele>
        <time>2012-09-28T06:49:55Z</time>
      </trkpt>
      <trkpt lat="46.00792" lon="6.94879">
        <ele>1566.61</ele>
        <time>2012-09-28T06:50:07Z</time>
      </trkpt>
      <trkpt lat="46.00804" lon="6.94878">
        <ele>1569.49</ele>
        <time>2012-09-28T06:50:20Z</time>
      </trkpt>
      <trkpt lat="46.00809" lon="6.94881">
        <ele>1570.45</ele>
        <time>2012-09-28T06:50:25Z</time>
      </trkpt>
      <trkpt lat="46.00814" lon="6.94882">
        <ele>1571.41</ele>
        <time>2012-09-28T06:50:30Z</time>
      </trkpt>
      <trkpt lat="46.00818" lon="6.94886">
        <ele>1572.37</ele>
        <time>2012-09-28T06:50:35Z</time>
      </trkpt>
      <trkpt lat="46.00824" lon="6.94892">
        <ele>1574.3</ele>
        <time>2012-09-28T06:50:43Z</time>
      </trkpt>
      <trkpt lat="46.00813" lon="6.94895">
        <ele>1577.18</ele>
        <time>2012-09-28T06:50:53Z</time>
      </trkpt>
      <trkpt lat="46.00799" lon="6.94909">
        <ele>1580.54</ele>
        <time>2012-09-28T06:51:08Z</time>
      </trkpt>
      <trkpt lat="46.00792" lon="6.94925">
        <ele>1582.95</ele>
        <time>2012-09-28T06:51:21Z</time>
      </trkpt>
      <trkpt lat="46.00792" lon="6.94927">
        <ele>1583.91</ele>
        <time>2012-09-28T06:51:22Z</time>
      </trkpt>
      <trkpt lat="46.0079" lon="6.94932">
        <ele>1584.87</ele>
        <time>2012-09-28T06:51:26Z</time>
      </trkpt>
      <trkpt lat="46.00787" lon="6.94948">
        <ele>1587.75</ele>
        <time>2012-09-28T06:51:40Z</time>
      </trkpt>
      <trkpt lat="46.00787" lon="6.94957">
        <ele>1590.16</ele>
        <time>2012-09-28T06:51:49Z</time>
      </trkpt>
      <trkpt lat="46.00786" lon="6.94969">
        <ele>1593.04</ele>
        <time>2012-09-28T06:52:02Z</time>
      </trkpt>
      <trkpt lat="46.00788" lon="6.94972">
        <ele>1594.48</ele>
        <time>2012-09-28T06:52:06Z</time>
      </trkpt>
      <trkpt lat="46.00797" lon="6.9498">
        <ele>1597.37</ele>
        <time>2012-09-28T06:52:21Z</time>
      </trkpt>
      <trkpt lat="46.00803" lon="6.94985">
        <ele>1600.73</ele>
        <time>2012-09-28T06:52:33Z</time>
      </trkpt>
      <trkpt lat="46.0081" lon="6.94986">
        <ele>1603.14</ele>
        <time>2012-09-28T06:52:45Z</time>
      </trkpt>
      <trkpt lat="46.00819" lon="6.94984">
        <ele>1606.5</ele>
        <time>2012-09-28T06:52:58Z</time>
      </trkpt>
      <trkpt lat="46.00821" lon="6.94982">
        <ele>1607.46</ele>
        <time>2012-09-28T06:53:02Z</time>
      </trkpt>
      <trkpt lat="46.00825" lon="6.94982">
        <ele>1608.42</ele>
        <time>2012-09-28T06:53:06Z</time>
      </trkpt>
      <trkpt lat="46.0083" lon="6.94983">
        <ele>1610.35</ele>
        <time>2012-09-28T06:53:16Z</time>
      </trkpt>
      <trkpt lat="46.00829" lon="6.94986">
        <ele>1610.83</ele>
        <time>2012-09-28T06:53:18Z</time>
      </trkpt>
      <trkpt lat="46.00828" lon="6.95007">
        <ele>1614.19</ele>
        <time>2012-09-28T06:53:31Z</time>
      </trkpt>
      <trkpt lat="46.00827" lon="6.95027">
        <ele>1617.07</ele>
        <time>2012-09-28T06:53:45Z</time>
      </trkpt>
      <trkpt lat="46.00827" lon="6.9503">
        <ele>1617.56</ele>
        <time>2012-09-28T06:53:48Z</time>
      </trkpt>
      <trkpt lat="46.00826" lon="6.95033">
        <ele>1617.56</ele>
        <time>2012-09-28T06:53:50Z</time>
      </trkpt>
      <trkpt lat="46.00825" lon="6.95036">
        <ele>1618.52</ele>
        <time>2012-09-28T06:53:52Z</time>
      </trkpt>
      <trkpt lat="46.00823" lon="6.95043">
        <ele>1619.96</ele>
        <time>2012-09-28T06:53:58Z</time>
      </trkpt>
      <trkpt lat="46.00821" lon="6.95048">
        <ele>1619.96</ele>
        <time>2012-09-28T06:54:02Z</time>
      </trkpt>
      <trkpt lat="46.00821" lon="6.95067">
        <ele>1623.32</ele>
        <time>2012-09-28T06:54:16Z</time>
      </trkpt>
      <trkpt lat="46.00823" lon="6.95076">
        <ele>1624.77</ele>
        <time>2012-09-28T06:54:22Z</time>
      </trkpt>
      <trkpt lat="46.00821" lon="6.95089">
        <ele>1627.17</ele>
        <time>2012-09-28T06:54:35Z</time>
      </trkpt>
      <trkpt lat="46.0081" lon="6.95094">
        <ele>1630.05</ele>
        <time>2012-09-28T06:54:48Z</time>
      </trkpt>
      <trkpt lat="46.00804" lon="6.95102">
        <ele>1631.49</ele>
        <time>2012-09-28T06:54:56Z</time>
      </trkpt>
      <trkpt lat="46.00803" lon="6.95106">
        <ele>1632.46</ele>
        <time>2012-09-28T06:54:59Z</time>
      </trkpt>
      <trkpt lat="46.00806" lon="6.95113">
        <ele>1634.38</ele>
        <time>2012-09-28T06:55:08Z</time>
      </trkpt>
      <trkpt lat="46.00814" lon="6.9511">
        <ele>1636.78</ele>
        <time>2012-09-28T06:55:18Z</time>
      </trkpt>
      <trkpt lat="46.00819" lon="6.9511">
        <ele>1638.22</ele>
        <time>2012-09-28T06:55:25Z</time>
      </trkpt>
      <trkpt lat="46.00814" lon="6.95127">
        <ele>1641.59</ele>
        <time>2012-09-28T06:55:37Z</time>
      </trkpt>
      <trkpt lat="46.00815" lon="6.95141">
        <ele>1643.99</ele>
        <time>2012-09-28T06:55:48Z</time>
      </trkpt>
      <trkpt lat="46.00812" lon="6.95145">
        <ele>1644.47</ele>
        <time>2012-09-28T06:55:51Z</time>
      </trkpt>
      <trkpt lat="46.00812" lon="6.95147">
        <ele>1644.95</ele>
        <time>2012-09-28T06:55:53Z</time>
      </trkpt>
      <trkpt lat="46.00812" lon="6.95155">
        <ele>1645.91</ele>
        <time>2012-09-28T06:56:00Z</time>
      </trkpt>
      <trkpt lat="46.00823" lon="6.9515">
        <ele>1649.76</ele>
        <time>2012-09-28T06:56:14Z</time>
      </trkpt>
      <trkpt lat="46.00824" lon="6.95149">
        <ele>1649.76</ele>
        <time>2012-09-28T06:56:16Z</time>
      </trkpt>
      <trkpt lat="46.00834" lon="6.95133">
        <ele>1653.6</ele>
        <time>2012-09-28T06:56:31Z</time>
      </trkpt>
      <trkpt lat="46.00838" lon="6.95134">
        <ele>1655.53</ele>
        <time>2012-09-28T06:56:39Z</time>
      </trkpt>
      <trkpt lat="46.00838" lon="6.95137">
        <ele>1656.01</ele>
        <time>2012-09-28T06:56:41Z</time>
      </trkpt>
      <trkpt lat="46.00839" lon="6.9514">
        <ele>1656.49</ele>
        <time>2012-09-28T06:56:43Z</time>
      </trkpt>
      <trkpt lat="46.00839" lon="6.95148">
        <ele>1658.41</ele>
        <time>2012-09-28T06:56:48Z</time>
      </trkpt>
      <trkpt lat="46.00837" lon="6.95164">
        <ele>1661.3</ele>
        <time>2012-09-28T06:56:59Z</time>
      </trkpt>
      <trkpt lat="46.00831" lon="6.95178">
        <ele>1664.66</ele>
        <time>2012-09-28T06:57:11Z</time>
      </trkpt>
      <trkpt lat="46.0083" lon="6.9518">
        <ele>1665.14</ele>
        <time>2012-09-28T06:57:13Z</time>
      </trkpt>
      <trkpt lat="46.00819" lon="6.95198">
        <ele>1668.51</ele>
        <time>2012-09-28T06:57:28Z</time>
      </trkpt>
      <trkpt lat="46.00819" lon="6.952">
        <ele>1668.51</ele>
        <time>2012-09-28T06:57:29Z</time>
      </trkpt>
      <trkpt lat="46.00818" lon="6.95213">
        <ele>1671.39</ele>
        <time>2012-09-28T06:57:40Z</time>
      </trkpt>
      <trkpt lat="46.0083" lon="6.95197">
        <ele>1672.83</ele>
        <time>2012-09-28T06:57:54Z</time>
      </trkpt>
      <trkpt lat="46.00835" lon="6.95195">
        <ele>1673.79</ele>
        <time>2012-09-28T06:57:58Z</time>
      </trkpt>
      <trkpt lat="46.0085" lon="6.9519">
        <ele>1677.64</ele>
        <time>2012-09-28T06:58:12Z</time>
      </trkpt>
      <trkpt lat="46.00858" lon="6.95191">
        <ele>1678.12</ele>
        <time>2012-09-28T06:58:19Z</time>
      </trkpt>
      <trkpt lat="46.00865" lon="6.95196">
        <ele>1680.52</ele>
        <time>2012-09-28T06:58:26Z</time>
      </trkpt>
      <trkpt lat="46.00872" lon="6.95202">
        <ele>1681.96</ele>
        <time>2012-09-28T06:58:34Z</time>
      </trkpt>
      <trkpt lat="46.00885" lon="6.95206">
        <ele>1685.81</ele>
        <time>2012-09-28T06:58:48Z</time>
      </trkpt>
      <trkpt lat="46.00894" lon="6.95206">
        <ele>1687.73</ele>
        <time>2012-09-28T06:58:57Z</time>
      </trkpt>
      <trkpt lat="46.00896" lon="6.95205">
        <ele>1688.21</ele>
        <time>2012-09-28T06:58:59Z</time>
      </trkpt>
      <trkpt lat="46.00908" lon="6.95206">
        <ele>1691.58</ele>
        <time>2012-09-28T06:59:12Z</time>
      </trkpt>
      <trkpt lat="46.00918" lon="6.9521">
        <ele>1693.98</ele>
        <time>2012-09-28T06:59:22Z</time>
      </trkpt>
      <trkpt lat="46.00922" lon="6.95213">
        <ele>1694.94</ele>
        <time>2012-09-28T06:59:26Z</time>
      </trkpt>
      <trkpt lat="46.00932" lon="6.95218">
        <ele>1696.38</ele>
        <time>2012-09-28T06:59:36Z</time>
      </trkpt>
      <trkpt lat="46.00948" lon="6.95232">
        <ele>1699.27</ele>
        <time>2012-09-28T06:59:52Z</time>
      </trkpt>
      <trkpt lat="46.00958" lon="6.95237">
        <ele>1702.63</ele>
        <time>2012-09-28T07:00:03Z</time>
      </trkpt>
      <trkpt lat="46.00974" lon="6.95241">
        <ele>1705.04</ele>
        <time>2012-09-28T07:00:17Z</time>
      </trkpt>
      <trkpt lat="46.00988" lon="6.95238">
        <ele>1707.44</ele>
        <time>2012-09-28T07:00:30Z</time>
      </trkpt>
      <trkpt lat="46.01" lon="6.95242">
        <ele>1710.8</ele>
        <time>2012-09-28T07:00:44Z</time>
      </trkpt>
      <trkpt lat="46.01012" lon="6.95247">
        <ele>1714.17</ele>
        <time>2012-09-28T07:00:57Z</time>
      </trkpt>
      <trkpt lat="46.01022" lon="6.95255">
        <ele>1717.53</ele>
        <time>2012-09-28T07:01:12Z</time>
      </trkpt>
      <trkpt lat="46.0103" lon="6.95262">
        <ele>1720.9</ele>
        <time>2012-09-28T07:01:25Z</time>
      </trkpt>
      <trkpt lat="46.0104" lon="6.95268">
        <ele>1723.78</ele>
        <time>2012-09-28T07:01:38Z</time>
      </trkpt>
      <trkpt lat="46.01053" lon="6.95274">
        <ele>1726.67</ele>
        <time>2012-09-28T07:01:53Z</time>
      </trkpt>
      <trkpt lat="46.01066" lon="6.95275">
        <ele>1729.55</ele>
        <time>2012-09-28T07:02:06Z</time>
      </trkpt>
      <trkpt lat="46.0108" lon="6.95274">
        <ele>1732.43</ele>
        <time>2012-09-28T07:02:20Z</time>
      </trkpt>
      <trkpt lat="46.01092" lon="6.95281">
        <ele>1735.8</ele>
        <time>2012-09-28T07:02:35Z</time>
      </trkpt>
      <trkpt lat="46.01104" lon="6.95285">
        <ele>1738.68</ele>
        <time>2012-09-28T07:02:50Z</time>
      </trkpt>
      <trkpt lat="46.01116" lon="6.95287">
        <ele>1742.05</ele>
        <time>2012-09-28T07:03:04Z</time>
      </trkpt>
      <trkpt lat="46.01121" lon="6.95287">
        <ele>1743.01</ele>
        <time>2012-09-28T07:03:10Z</time>
      </trkpt>
      <trkpt lat="46.0112" lon="6.95291">
        <ele>1743.97</ele>
        <time>2012-09-28T07:03:14Z</time>
      </trkpt>
      <trkpt lat="46.01115" lon="6.95304">
        <ele>1746.37</ele>
        <time>2012-09-28T07:03:26Z</time>
      </trkpt>
      <trkpt lat="46.01117" lon="6.95304">
        <ele>1746.85</ele>
        <time>2012-09-28T07:03:31Z</time>
      </trkpt>
      <trkpt lat="46.01132" lon="6.95297">
        <ele>1750.7</ele>
        <time>2012-09-28T07:03:47Z</time>
      </trkpt>
      <trkpt lat="46.01141" lon="6.95293">
        <ele>1753.58</ele>
        <time>2012-09-28T07:03:57Z</time>
      </trkpt>
      <trkpt lat="46.01143" lon="6.953">
        <ele>1755.5</ele>
        <time>2012-09-28T07:04:06Z</time>
      </trkpt>
      <trkpt lat="46.01144" lon="6.95305">
        <ele>1755.5</ele>
        <time>2012-09-28T07:04:10Z</time>
      </trkpt>
      <trkpt lat="46.01144" lon="6.9531">
        <ele>1756.95</ele>
        <time>2012-09-28T07:04:14Z</time>
      </trkpt>
      <trkpt lat="46.01137" lon="6.95323">
        <ele>1759.83</ele>
        <time>2012-09-28T07:04:27Z</time>
      </trkpt>
      <trkpt lat="46.01136" lon="6.95326">
        <ele>1760.79</ele>
        <time>2012-09-28T07:04:30Z</time>
      </trkpt>
      <trkpt lat="46.01134" lon="6.95345">
        <ele>1762.71</ele>
        <time>2012-09-28T07:04:45Z</time>
      </trkpt>
      <trkpt lat="46.01133" lon="6.95346">
        <ele>1763.2</ele>
        <time>2012-09-28T07:04:46Z</time>
      </trkpt>
      <trkpt lat="46.01132" lon="6.9535">
        <ele>1763.68</ele>
        <time>2012-09-28T07:04:51Z</time>
      </trkpt>
      <trkpt lat="46.01136" lon="6.95356">
        <ele>1765.6</ele>
        <time>2012-09-28T07:04:58Z</time>
      </trkpt>
      <trkpt lat="46.01138" lon="6.95357">
        <ele>1765.6</ele>
        <time>2012-09-28T07:05:00Z</time>
      </trkpt>
      <trkpt lat="46.01142" lon="6.95362">
        <ele>1766.56</ele>
        <time>2012-09-28T07:05:05Z</time>
      </trkpt>
      <trkpt lat="46.01159" lon="6.95365">
        <ele>1768.96</ele>
        <time>2012-09-28T07:05:21Z</time>
      </trkpt>
      <trkpt lat="46.01163" lon="6.95365">
        <ele>1770.41</ele>
        <time>2012-09-28T07:05:26Z</time>
      </trkpt>
      <trkpt lat="46.01173" lon="6.95372">
        <ele>1773.29</ele>
        <time>2012-09-28T07:05:38Z</time>
      </trkpt>
      <trkpt lat="46.0118" lon="6.95383">
        <ele>1776.65</ele>
        <time>2012-09-28T07:05:52Z</time>
      </trkpt>
      <trkpt lat="46.01189" lon="6.9539">
        <ele>1779.54</ele>
        <time>2012-09-28T07:06:06Z</time>
      </trkpt>
      <trkpt lat="46.01196" lon="6.95405">
        <ele>1782.42</ele>
        <time>2012-09-28T07:06:21Z</time>
      </trkpt>
      <trkpt lat="46.01198" lon="6.9541">
        <ele>1783.38</ele>
        <time>2012-09-28T07:06:26Z</time>
      </trkpt>
      <trkpt lat="46.01203" lon="6.95422">
        <ele>1785.79</ele>
        <time>2012-09-28T07:06:37Z</time>
      </trkpt>
      <trkpt lat="46.01206" lon="6.95427">
        <ele>1786.27</ele>
        <time>2012-09-28T07:06:42Z</time>
      </trkpt>
      <trkpt lat="46.01203" lon="6.95429">
        <ele>1787.23</ele>
        <time>2012-09-28T07:06:47Z</time>
      </trkpt>
      <trkpt lat="46.01189" lon="6.9543">
        <ele>1790.11</ele>
        <time>2012-09-28T07:07:02Z</time>
      </trkpt>
      <trkpt lat="46.01175" lon="6.95436">
        <ele>1793</ele>
        <time>2012-09-28T07:07:16Z</time>
      </trkpt>
      <trkpt lat="46.01173" lon="6.95438">
        <ele>1793.48</ele>
        <time>2012-09-28T07:07:18Z</time>
      </trkpt>
      <trkpt lat="46.01164" lon="6.95452">
        <ele>1796.36</ele>
        <time>2012-09-28T07:07:33Z</time>
      </trkpt>
      <trkpt lat="46.01162" lon="6.95458">
        <ele>1797.8</ele>
        <time>2012-09-28T07:07:38Z</time>
      </trkpt>
      <trkpt lat="46.01159" lon="6.95462">
        <ele>1798.76</ele>
        <time>2012-09-28T07:07:43Z</time>
      </trkpt>
      <trkpt lat="46.01159" lon="6.95464">
        <ele>1798.76</ele>
        <time>2012-09-28T07:07:45Z</time>
      </trkpt>
      <trkpt lat="46.01175" lon="6.95465">
        <ele>1802.61</ele>
        <time>2012-09-28T07:08:02Z</time>
      </trkpt>
      <trkpt lat="46.01189" lon="6.95465">
        <ele>1805.01</ele>
        <time>2012-09-28T07:08:16Z</time>
      </trkpt>
      <trkpt lat="46.012" lon="6.95463">
        <ele>1808.38</ele>
        <time>2012-09-28T07:08:29Z</time>
      </trkpt>
      <trkpt lat="46.01206" lon="6.95471">
        <ele>1810.78</ele>
        <time>2012-09-28T07:08:39Z</time>
      </trkpt>
      <trkpt lat="46.01222" lon="6.95483">
        <ele>1812.7</ele>
        <time>2012-09-28T07:08:55Z</time>
      </trkpt>
      <trkpt lat="46.01223" lon="6.95483">
        <ele>1812.7</ele>
        <time>2012-09-28T07:08:56Z</time>
      </trkpt>
      <trkpt lat="46.01228" lon="6.95485">
        <ele>1814.15</ele>
        <time>2012-09-28T07:09:01Z</time>
      </trkpt>
      <trkpt lat="46.01247" lon="6.95495">
        <ele>1814.15</ele>
        <time>2012-09-28T07:09:17Z</time>
      </trkpt>
      <trkpt lat="46.01265" lon="6.95496">
        <ele>1815.59</ele>
        <time>2012-09-28T07:09:32Z</time>
      </trkpt>
      <trkpt lat="46.01269" lon="6.95496">
        <ele>1817.03</ele>
        <time>2012-09-28T07:09:36Z</time>
      </trkpt>
      <trkpt lat="46.01289" lon="6.95501">
        <ele>1820.39</ele>
        <time>2012-09-28T07:09:54Z</time>
      </trkpt>
      <trkpt lat="46.01305" lon="6.95509">
        <ele>1823.28</ele>
        <time>2012-09-28T07:10:10Z</time>
      </trkpt>
      <trkpt lat="46.01307" lon="6.9551">
        <ele>1823.76</ele>
        <time>2012-09-28T07:10:12Z</time>
      </trkpt>
      <trkpt lat="46.01317" lon="6.95515">
        <ele>1826.16</ele>
        <time>2012-09-28T07:10:24Z</time>
      </trkpt>
      <trkpt lat="46.01312" lon="6.95523">
        <ele>1827.6</ele>
        <time>2012-09-28T07:10:32Z</time>
      </trkpt>
      <trkpt lat="46.01314" lon="6.95527">
        <ele>1828.08</ele>
        <time>2012-09-28T07:10:35Z</time>
      </trkpt>
      <trkpt lat="46.01321" lon="6.95522">
        <ele>1828.56</ele>
        <time>2012-09-28T07:10:42Z</time>
      </trkpt>
      <trkpt lat="46.01337" lon="6.95528">
        <ele>1831.45</ele>
        <time>2012-09-28T07:10:58Z</time>
      </trkpt>
      <trkpt lat="46.01345" lon="6.95533">
        <ele>1834.81</ele>
        <time>2012-09-28T07:11:10Z</time>
      </trkpt>
      <trkpt lat="46.01347" lon="6.95534">
        <ele>1835.77</ele>
        <time>2012-09-28T07:11:15Z</time>
      </trkpt>
      <trkpt lat="46.01349" lon="6.95543">
        <ele>1838.66</ele>
        <time>2012-09-28T07:11:27Z</time>
      </trkpt>
      <trkpt lat="46.01345" lon="6.95549">
        <ele>1842.02</ele>
        <time>2012-09-28T07:11:40Z</time>
      </trkpt>
      <trkpt lat="46.0134" lon="6.95553">
        <ele>1844.43</ele>
        <time>2012-09-28T07:11:51Z</time>
      </trkpt>
      <trkpt lat="46.01338" lon="6.95553">
        <ele>1844.43</ele>
        <time>2012-09-28T07:11:53Z</time>
      </trkpt>
      <trkpt lat="46.01336" lon="6.95561">
        <ele>1846.83</ele>
        <time>2012-09-28T07:12:04Z</time>
      </trkpt>
      <trkpt lat="46.01338" lon="6.95561">
        <ele>1847.31</ele>
        <time>2012-09-28T07:12:06Z</time>
      </trkpt>
      <trkpt lat="46.01348" lon="6.95565">
        <ele>1850.68</ele>
        <time>2012-09-28T07:12:19Z</time>
      </trkpt>
      <trkpt lat="46.0135" lon="6.95565">
        <ele>1851.64</ele>
        <time>2012-09-28T07:12:23Z</time>
      </trkpt>
      <trkpt lat="46.01352" lon="6.95565">
        <ele>1852.12</ele>
        <time>2012-09-28T07:12:25Z</time>
      </trkpt>
      <trkpt lat="46.01361" lon="6.95573">
        <ele>1855</ele>
        <time>2012-09-28T07:12:41Z</time>
      </trkpt>
      <trkpt lat="46.01361" lon="6.95574">
        <ele>1855.48</ele>
        <time>2012-09-28T07:12:56Z</time>
      </trkpt>
      <trkpt lat="46.01377" lon="6.95588">
        <ele>1856.92</ele>
        <time>2012-09-28T07:13:12Z</time>
      </trkpt>
      <trkpt lat="46.01392" lon="6.95602">
        <ele>1858.37</ele>
        <time>2012-09-28T07:13:28Z</time>
      </trkpt>
      <trkpt lat="46.01412" lon="6.956">
        <ele>1858.37</ele>
        <time>2012-09-28T07:13:44Z</time>
      </trkpt>
      <trkpt lat="46.01415" lon="6.95593">
        <ele>1858.37</ele>
        <time>2012-09-28T07:13:50Z</time>
      </trkpt>
      <trkpt lat="46.01416" lon="6.95588">
        <ele>1858.37</ele>
        <time>2012-09-28T07:14:03Z</time>
      </trkpt>
      <trkpt lat="46.01417" lon="6.9559">
        <ele>1858.85</ele>
        <time>2012-09-28T07:14:33Z</time>
      </trkpt>
      <trkpt lat="46.01416" lon="6.9559">
        <ele>1858.85</ele>
        <time>2012-09-28T07:14:38Z</time>
      </trkpt>
      <trkpt lat="46.01437" lon="6.95605">
        <ele>1859.33</ele>
        <time>2012-09-28T07:14:56Z</time>
      </trkpt>
      <trkpt lat="46.01448" lon="6.95609">
        <ele>1860.77</ele>
        <time>2012-09-28T07:15:05Z</time>
      </trkpt>
      <trkpt lat="46.01453" lon="6.95615">
        <ele>1862.21</ele>
        <time>2012-09-28T07:15:18Z</time>
      </trkpt>
      <trkpt lat="46.01452" lon="6.95615">
        <ele>1862.21</ele>
        <time>2012-09-28T07:15:22Z</time>
      </trkpt>
      <trkpt lat="46.01465" lon="6.95613">
        <ele>1864.13</ele>
        <time>2012-09-28T07:15:33Z</time>
      </trkpt>
      <trkpt lat="46.01484" lon="6.95618">
        <ele>1867.5</ele>
        <time>2012-09-28T07:15:46Z</time>
      </trkpt>
      <trkpt lat="46.01501" lon="6.95626">
        <ele>1870.38</ele>
        <time>2012-09-28T07:15:59Z</time>
      </trkpt>
      <trkpt lat="46.01515" lon="6.9564">
        <ele>1872.79</ele>
        <time>2012-09-28T07:16:13Z</time>
      </trkpt>
      <trkpt lat="46.01532" lon="6.9566">
        <ele>1875.67</ele>
        <time>2012-09-28T07:16:29Z</time>
      </trkpt>
      <trkpt lat="46.01541" lon="6.95679">
        <ele>1879.03</ele>
        <time>2012-09-28T07:16:42Z</time>
      </trkpt>
      <trkpt lat="46.01549" lon="6.95692">
        <ele>1881.92</ele>
        <time>2012-09-28T07:16:54Z</time>
      </trkpt>
      <trkpt lat="46.01549" lon="6.95693">
        <ele>1882.4</ele>
        <time>2012-09-28T07:16:55Z</time>
      </trkpt>
      <trkpt lat="46.01565" lon="6.95707">
        <ele>1884.32</ele>
        <time>2012-09-28T07:17:11Z</time>
      </trkpt>
      <trkpt lat="46.01586" lon="6.9572">
        <ele>1887.21</ele>
        <time>2012-09-28T07:17:28Z</time>
      </trkpt>
      <trkpt lat="46.016" lon="6.95736">
        <ele>1890.57</ele>
        <time>2012-09-28T07:17:42Z</time>
      </trkpt>
      <trkpt lat="46.01623" lon="6.9575">
        <ele>1893.93</ele>
        <time>2012-09-28T07:18:00Z</time>
      </trkpt>
      <trkpt lat="46.01636" lon="6.95749">
        <ele>1892.49</ele>
        <time>2012-09-28T07:18:10Z</time>
      </trkpt>
      <trkpt lat="46.01652" lon="6.95739">
        <ele>1894.42</ele>
        <time>2012-09-28T07:18:25Z</time>
      </trkpt>
      <trkpt lat="46.01662" lon="6.95727">
        <ele>1896.34</ele>
        <time>2012-09-28T07:18:35Z</time>
      </trkpt>
      <trkpt lat="46.01663" lon="6.95729">
        <ele>1896.82</ele>
        <time>2012-09-28T07:18:37Z</time>
      </trkpt>
      <trkpt lat="46.01661" lon="6.95736">
        <ele>1897.78</ele>
        <time>2012-09-28T07:18:42Z</time>
      </trkpt>
      <trkpt lat="46.01662" lon="6.95742">
        <ele>1898.74</ele>
        <time>2012-09-28T07:18:46Z</time>
      </trkpt>
      <trkpt lat="46.01666" lon="6.95753">
        <ele>1902.11</ele>
        <time>2012-09-28T07:18:56Z</time>
      </trkpt>
      <trkpt lat="46.01675" lon="6.95761">
        <ele>1905.47</ele>
        <time>2012-09-28T07:19:08Z</time>
      </trkpt>
      <trkpt lat="46.01684" lon="6.95768">
        <ele>1908.35</ele>
        <time>2012-09-28T07:19:21Z</time>
      </trkpt>
      <trkpt lat="46.01693" lon="6.95776">
        <ele>1911.72</ele>
        <time>2012-09-28T07:19:33Z</time>
      </trkpt>
      <trkpt lat="46.017" lon="6.95779">
        <ele>1913.16</ele>
        <time>2012-09-28T07:19:40Z</time>
      </trkpt>
      <trkpt lat="46.01706" lon="6.95783">
        <ele>1914.12</ele>
        <time>2012-09-28T07:19:46Z</time>
      </trkpt>
      <trkpt lat="46.01708" lon="6.95786">
        <ele>1915.08</ele>
        <time>2012-09-28T07:19:49Z</time>
      </trkpt>
      <trkpt lat="46.0172" lon="6.95799">
        <ele>1917.97</ele>
        <time>2012-09-28T07:20:03Z</time>
      </trkpt>
      <trkpt lat="46.01728" lon="6.95809">
        <ele>1920.37</ele>
        <time>2012-09-28T07:20:14Z</time>
      </trkpt>
      <trkpt lat="46.01733" lon="6.95812">
        <ele>1921.33</ele>
        <time>2012-09-28T07:20:20Z</time>
      </trkpt>
      <trkpt lat="46.01745" lon="6.95819">
        <ele>1924.7</ele>
        <time>2012-09-28T07:20:32Z</time>
      </trkpt>
      <trkpt lat="46.01747" lon="6.95821">
        <ele>1925.66</ele>
        <time>2012-09-28T07:20:36Z</time>
      </trkpt>
      <trkpt lat="46.01761" lon="6.9583">
        <ele>1929.02</ele>
        <time>2012-09-28T07:20:50Z</time>
      </trkpt>
      <trkpt lat="46.01778" lon="6.95839">
        <ele>1931.91</ele>
        <time>2012-09-28T07:21:06Z</time>
      </trkpt>
      <trkpt lat="46.01794" lon="6.95846">
        <ele>1933.83</ele>
        <time>2012-09-28T07:21:21Z</time>
      </trkpt>
      <trkpt lat="46.01795" lon="6.95848">
        <ele>1934.31</ele>
        <time>2012-09-28T07:21:23Z</time>
      </trkpt>
      <trkpt lat="46.01809" lon="6.9586">
        <ele>1937.19</ele>
        <time>2012-09-28T07:21:37Z</time>
      </trkpt>
      <trkpt lat="46.0181" lon="6.9586">
        <ele>1936.71</ele>
        <time>2012-09-28T07:21:38Z</time>
      </trkpt>
      <trkpt lat="46.01814" lon="6.95861">
        <ele>1937.67</ele>
        <time>2012-09-28T07:21:42Z</time>
      </trkpt>
      <trkpt lat="46.01818" lon="6.95866">
        <ele>1938.16</ele>
        <time>2012-09-28T07:21:47Z</time>
      </trkpt>
      <trkpt lat="46.01833" lon="6.95879">
        <ele>1941.04</ele>
        <time>2012-09-28T07:22:03Z</time>
      </trkpt>
      <trkpt lat="46.01837" lon="6.9588">
        <ele>1942</ele>
        <time>2012-09-28T07:22:07Z</time>
      </trkpt>
      <trkpt lat="46.01846" lon="6.95889">
        <ele>1943.92</ele>
        <time>2012-09-28T07:22:18Z</time>
      </trkpt>
      <trkpt lat="46.01857" lon="6.95899">
        <ele>1945.85</ele>
        <time>2012-09-28T07:22:30Z</time>
      </trkpt>
      <trkpt lat="46.01859" lon="6.95904">
        <ele>1946.33</ele>
        <time>2012-09-28T07:22:33Z</time>
      </trkpt>
      <trkpt lat="46.01869" lon="6.95916">
        <ele>1948.25</ele>
        <time>2012-09-28T07:22:46Z</time>
      </trkpt>
      <trkpt lat="46.01872" lon="6.95917">
        <ele>1948.73</ele>
        <time>2012-09-28T07:22:49Z</time>
      </trkpt>
      <trkpt lat="46.01873" lon="6.95919">
        <ele>1949.21</ele>
        <time>2012-09-28T07:22:51Z</time>
      </trkpt>
      <trkpt lat="46.01876" lon="6.95922">
        <ele>1950.17</ele>
        <time>2012-09-28T07:22:54Z</time>
      </trkpt>
      <trkpt lat="46.01878" lon="6.95923">
        <ele>1950.17</ele>
        <time>2012-09-28T07:22:56Z</time>
      </trkpt>
      <trkpt lat="46.01883" lon="6.95929">
        <ele>1950.65</ele>
        <time>2012-09-28T07:23:03Z</time>
      </trkpt>
      <trkpt lat="46.01892" lon="6.95936">
        <ele>1951.61</ele>
        <time>2012-09-28T07:23:11Z</time>
      </trkpt>
      <trkpt lat="46.01898" lon="6.9594">
        <ele>1951.61</ele>
        <time>2012-09-28T07:23:17Z</time>
      </trkpt>
      <trkpt lat="46.0191" lon="6.95955">
        <ele>1955.46</ele>
        <time>2012-09-28T07:23:32Z</time>
      </trkpt>
      <trkpt lat="46.01912" lon="6.95959">
        <ele>1955.94</ele>
        <time>2012-09-28T07:23:36Z</time>
      </trkpt>
      <trkpt lat="46.01927" lon="6.95977">
        <ele>1959.3</ele>
        <time>2012-09-28T07:23:53Z</time>
      </trkpt>
      <trkpt lat="46.01938" lon="6.95992">
        <ele>1961.23</ele>
        <time>2012-09-28T07:24:07Z</time>
      </trkpt>
      <trkpt lat="46.01942" lon="6.95999">
        <ele>1960.75</ele>
        <time>2012-09-28T07:24:13Z</time>
      </trkpt>
      <trkpt lat="46.01945" lon="6.96002">
        <ele>1961.71</ele>
        <time>2012-09-28T07:24:16Z</time>
      </trkpt>
      <trkpt lat="46.01956" lon="6.96013">
        <ele>1962.67</ele>
        <time>2012-09-28T07:24:28Z</time>
      </trkpt>
      <trkpt lat="46.01958" lon="6.96013">
        <ele>1962.67</ele>
        <time>2012-09-28T07:24:30Z</time>
      </trkpt>
      <trkpt lat="46.0196" lon="6.96012">
        <ele>1962.67</ele>
        <time>2012-09-28T07:24:34Z</time>
      </trkpt>
      <trkpt lat="46.01965" lon="6.96025">
        <ele>1962.67</ele>
        <time>2012-09-28T07:24:45Z</time>
      </trkpt>
      <trkpt lat="46.01972" lon="6.96026">
        <ele>1965.07</ele>
        <time>2012-09-28T07:24:57Z</time>
      </trkpt>
      <trkpt lat="46.01973" lon="6.96028">
        <ele>1965.55</ele>
        <time>2012-09-28T07:25:00Z</time>
      </trkpt>
      <trkpt lat="46.01974" lon="6.9603">
        <ele>1965.55</ele>
        <time>2012-09-28T07:25:02Z</time>
      </trkpt>
      <trkpt lat="46.01977" lon="6.9603">
        <ele>1965.55</ele>
        <time>2012-09-28T07:25:04Z</time>
      </trkpt>
      <trkpt lat="46.0198" lon="6.96032">
        <ele>1966.03</ele>
        <time>2012-09-28T07:25:16Z</time>
      </trkpt>
      <trkpt lat="46.01982" lon="6.9603">
        <ele>1965.55</ele>
        <time>2012-09-28T07:25:32Z</time>
      </trkpt>
      <trkpt lat="46.0198" lon="6.96033">
        <ele>1965.55</ele>
        <time>2012-09-28T07:25:50Z</time>
      </trkpt>
      <trkpt lat="46.01981" lon="6.96033">
        <ele>1965.55</ele>
        <time>2012-09-28T07:26:15Z</time>
      </trkpt>
      <trkpt lat="46.0198" lon="6.96034">
        <ele>1965.55</ele>
        <time>2012-09-28T07:26:41Z</time>
      </trkpt>
      <trkpt lat="46.01979" lon="6.96034">
        <ele>1966.03</ele>
        <time>2012-09-28T07:27:01Z</time>
      </trkpt>
      <trkpt lat="46.0198" lon="6.96036">
        <ele>1965.55</ele>
        <time>2012-09-28T07:27:06Z</time>
      </trkpt>
      <trkpt lat="46.01987" lon="6.96045">
        <ele>1967.96</ele>
        <time>2012-09-28T07:27:16Z</time>
      </trkpt>
      <trkpt lat="46.01991" lon="6.96054">
        <ele>1969.88</ele>
        <time>2012-09-28T07:27:23Z</time>
      </trkpt>
      <trkpt lat="46.02002" lon="6.9607">
        <ele>1970.84</ele>
        <time>2012-09-28T07:27:37Z</time>
      </trkpt>
      <trkpt lat="46.02012" lon="6.96085">
        <ele>1972.76</ele>
        <time>2012-09-28T07:27:50Z</time>
      </trkpt>
      <trkpt lat="46.02024" lon="6.96103">
        <ele>1976.13</ele>
        <time>2012-09-28T07:28:06Z</time>
      </trkpt>
      <trkpt lat="46.02026" lon="6.9611">
        <ele>1976.61</ele>
        <time>2012-09-28T07:28:12Z</time>
      </trkpt>
      <trkpt lat="46.02029" lon="6.96112">
        <ele>1977.57</ele>
        <time>2012-09-28T07:28:15Z</time>
      </trkpt>
      <trkpt lat="46.02038" lon="6.96117">
        <ele>1978.53</ele>
        <time>2012-09-28T07:28:24Z</time>
      </trkpt>
      <trkpt lat="46.02039" lon="6.96119">
        <ele>1979.01</ele>
        <time>2012-09-28T07:28:26Z</time>
      </trkpt>
      <trkpt lat="46.02044" lon="6.96125">
        <ele>1979.97</ele>
        <time>2012-09-28T07:28:32Z</time>
      </trkpt>
      <trkpt lat="46.02059" lon="6.96139">
        <ele>1983.34</ele>
        <time>2012-09-28T07:28:47Z</time>
      </trkpt>
      <trkpt lat="46.02068" lon="6.96158">
        <ele>1986.7</ele>
        <time>2012-09-28T07:29:01Z</time>
      </trkpt>
      <trkpt lat="46.02069" lon="6.96161">
        <ele>1987.18</ele>
        <time>2012-09-28T07:29:03Z</time>
      </trkpt>
      <trkpt lat="46.02078" lon="6.96172">
        <ele>1988.62</ele>
        <time>2012-09-28T07:29:15Z</time>
      </trkpt>
      <trkpt lat="46.02079" lon="6.96175">
        <ele>1989.1</ele>
        <time>2012-09-28T07:29:17Z</time>
      </trkpt>
      <trkpt lat="46.02086" lon="6.96182">
        <ele>1990.55</ele>
        <time>2012-09-28T07:29:26Z</time>
      </trkpt>
      <trkpt lat="46.02087" lon="6.96183">
        <ele>1990.55</ele>
        <time>2012-09-28T07:29:28Z</time>
      </trkpt>
      <trkpt lat="46.02095" lon="6.96182">
        <ele>1991.51</ele>
        <time>2012-09-28T07:29:37Z</time>
      </trkpt>
      <trkpt lat="46.02109" lon="6.96191">
        <ele>1993.91</ele>
        <time>2012-09-28T07:29:51Z</time>
      </trkpt>
      <trkpt lat="46.02111" lon="6.96193">
        <ele>1994.87</ele>
        <time>2012-09-28T07:29:53Z</time>
      </trkpt>
      <trkpt lat="46.02126" lon="6.96205">
        <ele>1997.76</ele>
        <time>2012-09-28T07:30:10Z</time>
      </trkpt>
      <trkpt lat="46.0214" lon="6.96219">
        <ele>1999.68</ele>
        <time>2012-09-28T07:30:25Z</time>
      </trkpt>
      <trkpt lat="46.02142" lon="6.96221">
        <ele>2000.16</ele>
        <time>2012-09-28T07:30:27Z</time>
      </trkpt>
      <trkpt lat="46.02143" lon="6.96224">
        <ele>2001.12</ele>
        <time>2012-09-28T07:30:30Z</time>
      </trkpt>
      <trkpt lat="46.02148" lon="6.96227">
        <ele>2002.08</ele>
        <time>2012-09-28T07:30:36Z</time>
      </trkpt>
      <trkpt lat="46.02159" lon="6.96239">
        <ele>2003.52</ele>
        <time>2012-09-28T07:30:49Z</time>
      </trkpt>
      <trkpt lat="46.02163" lon="6.96243">
        <ele>2004.49</ele>
        <time>2012-09-28T07:30:54Z</time>
      </trkpt>
      <trkpt lat="46.02165" lon="6.96243">
        <ele>2005.45</ele>
        <time>2012-09-28T07:30:57Z</time>
      </trkpt>
      <trkpt lat="46.02175" lon="6.96257">
        <ele>2008.33</ele>
        <time>2012-09-28T07:31:12Z</time>
      </trkpt>
      <trkpt lat="46.02187" lon="6.96272">
        <ele>2012.18</ele>
        <time>2012-09-28T07:31:28Z</time>
      </trkpt>
      <trkpt lat="46.02188" lon="6.96274">
        <ele>2012.66</ele>
        <time>2012-09-28T07:31:30Z</time>
      </trkpt>
      <trkpt lat="46.02196" lon="6.96287">
        <ele>2014.1</ele>
        <time>2012-09-28T07:31:44Z</time>
      </trkpt>
      <trkpt lat="46.02197" lon="6.96288">
        <ele>2014.1</ele>
        <time>2012-09-28T07:31:46Z</time>
      </trkpt>
      <trkpt lat="46.02201" lon="6.96292">
        <ele>2015.06</ele>
        <time>2012-09-28T07:31:51Z</time>
      </trkpt>
      <trkpt lat="46.02207" lon="6.96298">
        <ele>2016.02</ele>
        <time>2012-09-28T07:31:58Z</time>
      </trkpt>
      <trkpt lat="46.02211" lon="6.96306">
        <ele>2017.46</ele>
        <time>2012-09-28T07:32:04Z</time>
      </trkpt>
      <trkpt lat="46.02226" lon="6.96319">
        <ele>2018.91</ele>
        <time>2012-09-28T07:32:19Z</time>
      </trkpt>
      <trkpt lat="46.02228" lon="6.96321">
        <ele>2019.39</ele>
        <time>2012-09-28T07:32:21Z</time>
      </trkpt>
      <trkpt lat="46.02238" lon="6.96323">
        <ele>2019.87</ele>
        <time>2012-09-28T07:32:31Z</time>
      </trkpt>
      <trkpt lat="46.02243" lon="6.96333">
        <ele>2022.27</ele>
        <time>2012-09-28T07:32:44Z</time>
      </trkpt>
      <trkpt lat="46.02248" lon="6.96349">
        <ele>2025.64</ele>
        <time>2012-09-28T07:32:57Z</time>
      </trkpt>
      <trkpt lat="46.02252" lon="6.96352">
        <ele>2026.6</ele>
        <time>2012-09-28T07:33:03Z</time>
      </trkpt>
      <trkpt lat="46.02257" lon="6.96357">
        <ele>2028.52</ele>
        <time>2012-09-28T07:33:11Z</time>
      </trkpt>
      <trkpt lat="46.02258" lon="6.9636">
        <ele>2029</ele>
        <time>2012-09-28T07:33:13Z</time>
      </trkpt>
      <trkpt lat="46.0226" lon="6.96365">
        <ele>2029.48</ele>
        <time>2012-09-28T07:33:17Z</time>
      </trkpt>
      <trkpt lat="46.0226" lon="6.96372">
        <ele>2030.92</ele>
        <time>2012-09-28T07:33:22Z</time>
      </trkpt>
      <trkpt lat="46.02262" lon="6.96383">
        <ele>2032.36</ele>
        <time>2012-09-28T07:33:31Z</time>
      </trkpt>
      <trkpt lat="46.02263" lon="6.96392">
        <ele>2033.33</ele>
        <time>2012-09-28T07:33:37Z</time>
      </trkpt>
      <trkpt lat="46.02266" lon="6.96393">
        <ele>2034.29</ele>
        <time>2012-09-28T07:33:41Z</time>
      </trkpt>
      <trkpt lat="46.02268" lon="6.96395">
        <ele>2034.77</ele>
        <time>2012-09-28T07:33:43Z</time>
      </trkpt>
      <trkpt lat="46.02267" lon="6.964">
        <ele>2035.25</ele>
        <time>2012-09-28T07:33:46Z</time>
      </trkpt>
      <trkpt lat="46.02271" lon="6.96418">
        <ele>2039.09</ele>
        <time>2012-09-28T07:34:02Z</time>
      </trkpt>
      <trkpt lat="46.02278" lon="6.96435">
        <ele>2042.46</ele>
        <time>2012-09-28T07:34:17Z</time>
      </trkpt>
      <trkpt lat="46.02282" lon="6.96444">
        <ele>2044.38</ele>
        <time>2012-09-28T07:34:26Z</time>
      </trkpt>
      <trkpt lat="46.02289" lon="6.96457">
        <ele>2047.26</ele>
        <time>2012-09-28T07:34:39Z</time>
      </trkpt>
      <trkpt lat="46.02293" lon="6.96468">
        <ele>2049.67</ele>
        <time>2012-09-28T07:34:49Z</time>
      </trkpt>
      <trkpt lat="46.02296" lon="6.96476">
        <ele>2050.63</ele>
        <time>2012-09-28T07:34:56Z</time>
      </trkpt>
      <trkpt lat="46.02297" lon="6.96478">
        <ele>2051.11</ele>
        <time>2012-09-28T07:34:58Z</time>
      </trkpt>
      <trkpt lat="46.02303" lon="6.96497">
        <ele>2054.96</ele>
        <time>2012-09-28T07:35:13Z</time>
      </trkpt>
      <trkpt lat="46.02305" lon="6.96516">
        <ele>2057.36</ele>
        <time>2012-09-28T07:35:27Z</time>
      </trkpt>
      <trkpt lat="46.02304" lon="6.9652">
        <ele>2057.84</ele>
        <time>2012-09-28T07:35:30Z</time>
      </trkpt>
      <trkpt lat="46.02302" lon="6.96525">
        <ele>2058.8</ele>
        <time>2012-09-28T07:35:36Z</time>
      </trkpt>
      <trkpt lat="46.0229" lon="6.96528">
        <ele>2061.68</ele>
        <time>2012-09-28T07:35:48Z</time>
      </trkpt>
      <trkpt lat="46.02282" lon="6.96548">
        <ele>2064.09</ele>
        <time>2012-09-28T07:36:04Z</time>
      </trkpt>
      <trkpt lat="46.02286" lon="6.96551">
        <ele>2065.05</ele>
        <time>2012-09-28T07:36:08Z</time>
      </trkpt>
      <trkpt lat="46.02288" lon="6.96551">
        <ele>2065.05</ele>
        <time>2012-09-28T07:36:10Z</time>
      </trkpt>
      <trkpt lat="46.02294" lon="6.9656">
        <ele>2067.45</ele>
        <time>2012-09-28T07:36:19Z</time>
      </trkpt>
      <trkpt lat="46.02297" lon="6.96566">
        <ele>2068.89</ele>
        <time>2012-09-28T07:36:24Z</time>
      </trkpt>
      <trkpt lat="46.02299" lon="6.96571">
        <ele>2069.86</ele>
        <time>2012-09-28T07:36:28Z</time>
      </trkpt>
      <trkpt lat="46.023" lon="6.96576">
        <ele>2070.34</ele>
        <time>2012-09-28T07:36:31Z</time>
      </trkpt>
      <trkpt lat="46.02299" lon="6.96585">
        <ele>2072.74</ele>
        <time>2012-09-28T07:36:40Z</time>
      </trkpt>
      <trkpt lat="46.02295" lon="6.96588">
        <ele>2073.7</ele>
        <time>2012-09-28T07:36:44Z</time>
      </trkpt>
      <trkpt lat="46.02282" lon="6.966">
        <ele>2076.1</ele>
        <time>2012-09-28T07:36:59Z</time>
      </trkpt>
      <trkpt lat="46.02279" lon="6.96604">
        <ele>2076.59</ele>
        <time>2012-09-28T07:37:03Z</time>
      </trkpt>
      <trkpt lat="46.02285" lon="6.9661">
        <ele>2078.03</ele>
        <time>2012-09-28T07:37:11Z</time>
      </trkpt>
      <trkpt lat="46.0229" lon="6.96618">
        <ele>2079.47</ele>
        <time>2012-09-28T07:37:18Z</time>
      </trkpt>
      <trkpt lat="46.02292" lon="6.96621">
        <ele>2079.95</ele>
        <time>2012-09-28T07:37:21Z</time>
      </trkpt>
      <trkpt lat="46.02298" lon="6.96632">
        <ele>2082.83</ele>
        <time>2012-09-28T07:37:32Z</time>
      </trkpt>
      <trkpt lat="46.02307" lon="6.96642">
        <ele>2085.24</ele>
        <time>2012-09-28T07:37:46Z</time>
      </trkpt>
      <trkpt lat="46.02318" lon="6.96654">
        <ele>2088.6</ele>
        <time>2012-09-28T07:38:01Z</time>
      </trkpt>
      <trkpt lat="46.02321" lon="6.96657">
        <ele>2089.56</ele>
        <time>2012-09-28T07:38:05Z</time>
      </trkpt>
      <trkpt lat="46.0233" lon="6.96671">
        <ele>2091.97</ele>
        <time>2012-09-28T07:38:19Z</time>
      </trkpt>
      <trkpt lat="46.0233" lon="6.96675">
        <ele>2092.93</ele>
        <time>2012-09-28T07:38:24Z</time>
      </trkpt>
      <trkpt lat="46.02329" lon="6.96674">
        <ele>2093.89</ele>
        <time>2012-09-28T07:38:26Z</time>
      </trkpt>
      <trkpt lat="46.02309" lon="6.96674">
        <ele>2096.77</ele>
        <time>2012-09-28T07:38:42Z</time>
      </trkpt>
      <trkpt lat="46.02306" lon="6.96675">
        <ele>2097.73</ele>
        <time>2012-09-28T07:38:45Z</time>
      </trkpt>
      <trkpt lat="46.0229" lon="6.96687">
        <ele>2100.62</ele>
        <time>2012-09-28T07:39:01Z</time>
      </trkpt>
      <trkpt lat="46.02286" lon="6.96694">
        <ele>2102.06</ele>
        <time>2012-09-28T07:39:08Z</time>
      </trkpt>
      <trkpt lat="46.02295" lon="6.96697">
        <ele>2103.02</ele>
        <time>2012-09-28T07:39:17Z</time>
      </trkpt>
      <trkpt lat="46.0231" lon="6.96707">
        <ele>2105.91</ele>
        <time>2012-09-28T07:39:32Z</time>
      </trkpt>
      <trkpt lat="46.02324" lon="6.96717">
        <ele>2109.27</ele>
        <time>2012-09-28T07:39:47Z</time>
      </trkpt>
      <trkpt lat="46.02329" lon="6.96722">
        <ele>2110.71</ele>
        <time>2012-09-28T07:39:52Z</time>
      </trkpt>
      <trkpt lat="46.02346" lon="6.96733">
        <ele>2114.08</ele>
        <time>2012-09-28T07:40:08Z</time>
      </trkpt>
      <trkpt lat="46.02355" lon="6.96735">
        <ele>2114.56</ele>
        <time>2012-09-28T07:40:16Z</time>
      </trkpt>
      <trkpt lat="46.0236" lon="6.96745">
        <ele>2116.48</ele>
        <time>2012-09-28T07:40:25Z</time>
      </trkpt>
      <trkpt lat="46.02362" lon="6.96749">
        <ele>2117.44</ele>
        <time>2012-09-28T07:40:29Z</time>
      </trkpt>
      <trkpt lat="46.02373" lon="6.96765">
        <ele>2121.29</ele>
        <time>2012-09-28T07:40:45Z</time>
      </trkpt>
      <trkpt lat="46.02378" lon="6.96776">
        <ele>2123.21</ele>
        <time>2012-09-28T07:40:54Z</time>
      </trkpt>
      <trkpt lat="46.02382" lon="6.96781">
        <ele>2124.17</ele>
        <time>2012-09-28T07:40:59Z</time>
      </trkpt>
      <trkpt lat="46.02383" lon="6.96782">
        <ele>2124.17</ele>
        <time>2012-09-28T07:41:01Z</time>
      </trkpt>
      <trkpt lat="46.02392" lon="6.96797">
        <ele>2127.53</ele>
        <time>2012-09-28T07:41:16Z</time>
      </trkpt>
      <trkpt lat="46.02394" lon="6.96797">
        <ele>2128.02</ele>
        <time>2012-09-28T07:41:19Z</time>
      </trkpt>
      <trkpt lat="46.0241" lon="6.96807">
        <ele>2131.38</ele>
        <time>2012-09-28T07:41:35Z</time>
      </trkpt>
      <trkpt lat="46.02418" lon="6.96814">
        <ele>2133.3</ele>
        <time>2012-09-28T07:41:48Z</time>
      </trkpt>
      <trkpt lat="46.02423" lon="6.9682">
        <ele>2133.78</ele>
        <time>2012-09-28T07:42:03Z</time>
      </trkpt>
      <trkpt lat="46.02429" lon="6.96832">
        <ele>2136.67</ele>
        <time>2012-09-28T07:42:16Z</time>
      </trkpt>
      <trkpt lat="46.02435" lon="6.96844">
        <ele>2140.03</ele>
        <time>2012-09-28T07:42:29Z</time>
      </trkpt>
      <trkpt lat="46.02449" lon="6.96851">
        <ele>2142.44</ele>
        <time>2012-09-28T07:42:43Z</time>
      </trkpt>
      <trkpt lat="46.02459" lon="6.96855">
        <ele>2143.88</ele>
        <time>2012-09-28T07:42:53Z</time>
      </trkpt>
      <trkpt lat="46.02476" lon="6.9686">
        <ele>2147.24</ele>
        <time>2012-09-28T07:43:09Z</time>
      </trkpt>
      <trkpt lat="46.02484" lon="6.96864">
        <ele>2149.16</ele>
        <time>2012-09-28T07:43:21Z</time>
      </trkpt>
      <trkpt lat="46.02494" lon="6.96873">
        <ele>2153.01</ele>
        <time>2012-09-28T07:43:34Z</time>
      </trkpt>
      <trkpt lat="46.02495" lon="6.96874">
        <ele>2152.53</ele>
        <time>2012-09-28T07:43:35Z</time>
      </trkpt>
      <trkpt lat="46.02503" lon="6.96874">
        <ele>2154.45</ele>
        <time>2012-09-28T07:43:43Z</time>
      </trkpt>
      <trkpt lat="46.02515" lon="6.96883">
        <ele>2157.34</ele>
        <time>2012-09-28T07:43:58Z</time>
      </trkpt>
      <trkpt lat="46.02525" lon="6.96888">
        <ele>2160.22</ele>
        <time>2012-09-28T07:44:09Z</time>
      </trkpt>
      <trkpt lat="46.02527" lon="6.9689">
        <ele>2161.18</ele>
        <time>2012-09-28T07:44:12Z</time>
      </trkpt>
      <trkpt lat="46.02527" lon="6.96892">
        <ele>2161.66</ele>
        <time>2012-09-28T07:44:14Z</time>
      </trkpt>
      <trkpt lat="46.02534" lon="6.969">
        <ele>2164.06</ele>
        <time>2012-09-28T07:44:25Z</time>
      </trkpt>
      <trkpt lat="46.02538" lon="6.96904">
        <ele>2164.55</ele>
        <time>2012-09-28T07:44:37Z</time>
      </trkpt>
      <trkpt lat="46.0255" lon="6.96905">
        <ele>2166.47</ele>
        <time>2012-09-28T07:44:54Z</time>
      </trkpt>
      <trkpt lat="46.0255" lon="6.96905">
        <ele>2166.95</ele>
        <time>2012-09-28T07:45:02Z</time>
      </trkpt>
      <trkpt lat="46.02551" lon="6.96908">
        <ele>2166.95</ele>
        <time>2012-09-28T07:45:04Z</time>
      </trkpt>
      <trkpt lat="46.02551" lon="6.96915">
        <ele>2167.91</ele>
        <time>2012-09-28T07:45:09Z</time>
      </trkpt>
      <trkpt lat="46.02547" lon="6.9693">
        <ele>2171.27</ele>
        <time>2012-09-28T07:45:22Z</time>
      </trkpt>
      <trkpt lat="46.02548" lon="6.96934">
        <ele>2171.27</ele>
        <time>2012-09-28T07:45:25Z</time>
      </trkpt>
      <trkpt lat="46.02551" lon="6.96941">
        <ele>2173.68</ele>
        <time>2012-09-28T07:45:32Z</time>
      </trkpt>
      <trkpt lat="46.02553" lon="6.96942">
        <ele>2173.68</ele>
        <time>2012-09-28T07:45:35Z</time>
      </trkpt>
      <trkpt lat="46.02557" lon="6.96946">
        <ele>2175.12</ele>
        <time>2012-09-28T07:45:41Z</time>
      </trkpt>
      <trkpt lat="46.02564" lon="6.96954">
        <ele>2178</ele>
        <time>2012-09-28T07:45:54Z</time>
      </trkpt>
      <trkpt lat="46.02563" lon="6.96958">
        <ele>2178.97</ele>
        <time>2012-09-28T07:45:58Z</time>
      </trkpt>
      <trkpt lat="46.02562" lon="6.96962">
        <ele>2179.45</ele>
        <time>2012-09-28T07:46:01Z</time>
      </trkpt>
      <trkpt lat="46.02543" lon="6.96969">
        <ele>2181.85</ele>
        <time>2012-09-28T07:46:17Z</time>
      </trkpt>
      <trkpt lat="46.02536" lon="6.96972">
        <ele>2183.29</ele>
        <time>2012-09-28T07:46:23Z</time>
      </trkpt>
      <trkpt lat="46.02536" lon="6.96974">
        <ele>2183.77</ele>
        <time>2012-09-28T07:46:25Z</time>
      </trkpt>
      <trkpt lat="46.02548" lon="6.9698">
        <ele>2186.66</ele>
        <time>2012-09-28T07:46:37Z</time>
      </trkpt>
      <trkpt lat="46.02549" lon="6.96981">
        <ele>2186.66</ele>
        <time>2012-09-28T07:46:38Z</time>
      </trkpt>
      <trkpt lat="46.02559" lon="6.9699">
        <ele>2188.58</ele>
        <time>2012-09-28T07:46:48Z</time>
      </trkpt>
      <trkpt lat="46.02574" lon="6.96994">
        <ele>2191.94</ele>
        <time>2012-09-28T07:47:02Z</time>
      </trkpt>
      <trkpt lat="46.0258" lon="6.96997">
        <ele>2192.9</ele>
        <time>2012-09-28T07:47:07Z</time>
      </trkpt>
      <trkpt lat="46.02585" lon="6.97">
        <ele>2193.39</ele>
        <time>2012-09-28T07:47:12Z</time>
      </trkpt>
      <trkpt lat="46.02598" lon="6.97005">
        <ele>2196.75</ele>
        <time>2012-09-28T07:47:25Z</time>
      </trkpt>
      <trkpt lat="46.02614" lon="6.97019">
        <ele>2200.11</ele>
        <time>2012-09-28T07:47:42Z</time>
      </trkpt>
      <trkpt lat="46.02628" lon="6.97033">
        <ele>2201.08</ele>
        <time>2012-09-28T07:47:58Z</time>
      </trkpt>
      <trkpt lat="46.02629" lon="6.97035">
        <ele>2201.08</ele>
        <time>2012-09-28T07:48:11Z</time>
      </trkpt>
      <trkpt lat="46.02628" lon="6.97032">
        <ele>2201.08</ele>
        <time>2012-09-28T07:48:22Z</time>
      </trkpt>
      <trkpt lat="46.02628" lon="6.9703">
        <ele>2201.08</ele>
        <time>2012-09-28T07:48:53Z</time>
      </trkpt>
      <trkpt lat="46.02629" lon="6.97029">
        <ele>2201.08</ele>
        <time>2012-09-28T07:49:08Z</time>
      </trkpt>
      <trkpt lat="46.02629" lon="6.97031">
        <ele>2201.56</ele>
        <time>2012-09-28T07:49:16Z</time>
      </trkpt>
      <trkpt lat="46.02631" lon="6.97034">
        <ele>2201.08</ele>
        <time>2012-09-28T07:49:28Z</time>
      </trkpt>
      <trkpt lat="46.0263" lon="6.97034">
        <ele>2201.56</ele>
        <time>2012-09-28T07:49:53Z</time>
      </trkpt>
      <trkpt lat="46.02631" lon="6.97034">
        <ele>2201.08</ele>
        <time>2012-09-28T07:50:17Z</time>
      </trkpt>
      <trkpt lat="46.0263" lon="6.97033">
        <ele>2201.08</ele>
        <time>2012-09-28T07:50:37Z</time>
      </trkpt>
      <trkpt lat="46.02628" lon="6.97035">
        <ele>2201.08</ele>
        <time>2012-09-28T07:50:49Z</time>
      </trkpt>
      <trkpt lat="46.02629" lon="6.9704">
        <ele>2201.56</ele>
        <time>2012-09-28T07:51:03Z</time>
      </trkpt>
      <trkpt lat="46.02629" lon="6.97041">
        <ele>2201.56</ele>
        <time>2012-09-28T07:51:10Z</time>
      </trkpt>
      <trkpt lat="46.02628" lon="6.97047">
        <ele>2201.56</ele>
        <time>2012-09-28T07:51:14Z</time>
      </trkpt>
      <trkpt lat="46.02628" lon="6.97082">
        <ele>2203.48</ele>
        <time>2012-09-28T07:51:32Z</time>
      </trkpt>
      <trkpt lat="46.02628" lon="6.97086">
        <ele>2203.96</ele>
        <time>2012-09-28T07:51:46Z</time>
      </trkpt>
      <trkpt lat="46.02615" lon="6.97084">
        <ele>2207.32</ele>
        <time>2012-09-28T07:51:59Z</time>
      </trkpt>
      <trkpt lat="46.02608" lon="6.97081">
        <ele>2208.29</ele>
        <time>2012-09-28T07:52:06Z</time>
      </trkpt>
      <trkpt lat="46.02602" lon="6.97075">
        <ele>2210.21</ele>
        <time>2012-09-28T07:52:12Z</time>
      </trkpt>
      <trkpt lat="46.02586" lon="6.97079">
        <ele>2211.65</ele>
        <time>2012-09-28T07:52:26Z</time>
      </trkpt>
      <trkpt lat="46.02572" lon="6.97081">
        <ele>2213.57</ele>
        <time>2012-09-28T07:52:39Z</time>
      </trkpt>
      <trkpt lat="46.02561" lon="6.97082">
        <ele>2215.98</ele>
        <time>2012-09-28T07:52:52Z</time>
      </trkpt>
      <trkpt lat="46.02552" lon="6.97084">
        <ele>2218.86</ele>
        <time>2012-09-28T07:53:05Z</time>
      </trkpt>
      <trkpt lat="46.02541" lon="6.97084">
        <ele>2220.78</ele>
        <time>2012-09-28T07:53:18Z</time>
      </trkpt>
      <trkpt lat="46.02533" lon="6.97087">
        <ele>2223.67</ele>
        <time>2012-09-28T07:53:29Z</time>
      </trkpt>
      <trkpt lat="46.02533" lon="6.97089">
        <ele>2223.67</ele>
        <time>2012-09-28T07:53:32Z</time>
      </trkpt>
      <trkpt lat="46.02539" lon="6.97102">
        <ele>2226.55</ele>
        <time>2012-09-28T07:53:45Z</time>
      </trkpt>
      <trkpt lat="46.02541" lon="6.97111">
        <ele>2229.92</ele>
        <time>2012-09-28T07:53:58Z</time>
      </trkpt>
      <trkpt lat="46.0254" lon="6.97116">
        <ele>2231.84</ele>
        <time>2012-09-28T07:54:09Z</time>
      </trkpt>
      <trkpt lat="46.02543" lon="6.97126">
        <ele>2234.72</ele>
        <time>2012-09-28T07:54:22Z</time>
      </trkpt>
      <trkpt lat="46.0254" lon="6.97129">
        <ele>2237.61</ele>
        <time>2012-09-28T07:54:34Z</time>
      </trkpt>
      <trkpt lat="46.02539" lon="6.97136">
        <ele>2240.49</ele>
        <time>2012-09-28T07:54:47Z</time>
      </trkpt>
      <trkpt lat="46.0254" lon="6.97143">
        <ele>2242.89</ele>
        <time>2012-09-28T07:54:58Z</time>
      </trkpt>
      <trkpt lat="46.02534" lon="6.97144">
        <ele>2245.78</ele>
        <time>2012-09-28T07:55:09Z</time>
      </trkpt>
      <trkpt lat="46.02534" lon="6.97144">
        <ele>2246.26</ele>
        <time>2012-09-28T07:55:11Z</time>
      </trkpt>
      <trkpt lat="46.02534" lon="6.97151">
        <ele>2248.66</ele>
        <time>2012-09-28T07:55:23Z</time>
      </trkpt>
      <trkpt lat="46.02534" lon="6.97156">
        <ele>2252.03</ele>
        <time>2012-09-28T07:55:33Z</time>
      </trkpt>
      <trkpt lat="46.02535" lon="6.97165">
        <ele>2253.95</ele>
        <time>2012-09-28T07:55:43Z</time>
      </trkpt>
      <trkpt lat="46.02533" lon="6.9717">
        <ele>2256.35</ele>
        <time>2012-09-28T07:55:55Z</time>
      </trkpt>
      <trkpt lat="46.02532" lon="6.97169">
        <ele>2258.75</ele>
        <time>2012-09-28T07:56:08Z</time>
      </trkpt>
      <trkpt lat="46.02528" lon="6.97168">
        <ele>2260.68</ele>
        <time>2012-09-28T07:56:19Z</time>
      </trkpt>
      <trkpt lat="46.02525" lon="6.97171">
        <ele>2262.6</ele>
        <time>2012-09-28T07:56:34Z</time>
      </trkpt>
      <trkpt lat="46.02526" lon="6.97179">
        <ele>2266.45</ele>
        <time>2012-09-28T07:56:45Z</time>
      </trkpt>
      <trkpt lat="46.02525" lon="6.97186">
        <ele>2268.85</ele>
        <time>2012-09-28T07:56:58Z</time>
      </trkpt>
      <trkpt lat="46.02524" lon="6.97192">
        <ele>2271.25</ele>
        <time>2012-09-28T07:57:10Z</time>
      </trkpt>
      <trkpt lat="46.0252" lon="6.97192">
        <ele>2274.14</ele>
        <time>2012-09-28T07:57:21Z</time>
      </trkpt>
      <trkpt lat="46.02512" lon="6.97197">
        <ele>2277.02</ele>
        <time>2012-09-28T07:57:35Z</time>
      </trkpt>
      <trkpt lat="46.02511" lon="6.97198">
        <ele>2277.98</ele>
        <time>2012-09-28T07:57:38Z</time>
      </trkpt>
      <trkpt lat="46.0251" lon="6.972">
        <ele>2278.46</ele>
        <time>2012-09-28T07:57:55Z</time>
      </trkpt>
      <trkpt lat="46.02514" lon="6.97205">
        <ele>2281.35</ele>
        <time>2012-09-28T07:58:08Z</time>
      </trkpt>
      <trkpt lat="46.02517" lon="6.97211">
        <ele>2284.23</ele>
        <time>2012-09-28T07:58:18Z</time>
      </trkpt>
      <trkpt lat="46.02516" lon="6.97219">
        <ele>2287.59</ele>
        <time>2012-09-28T07:58:32Z</time>
      </trkpt>
      <trkpt lat="46.02513" lon="6.97229">
        <ele>2290.96</ele>
        <time>2012-09-28T07:58:43Z</time>
      </trkpt>
      <trkpt lat="46.02508" lon="6.97232">
        <ele>2293.36</ele>
        <time>2012-09-28T07:58:55Z</time>
      </trkpt>
      <trkpt lat="46.02505" lon="6.97236">
        <ele>2294.32</ele>
        <time>2012-09-28T07:59:04Z</time>
      </trkpt>
      <trkpt lat="46.02498" lon="6.97243">
        <ele>2297.69</ele>
        <time>2012-09-28T07:59:17Z</time>
      </trkpt>
      <trkpt lat="46.02493" lon="6.97252">
        <ele>2300.57</ele>
        <time>2012-09-28T07:59:29Z</time>
      </trkpt>
      <trkpt lat="46.02484" lon="6.97258">
        <ele>2302.98</ele>
        <time>2012-09-28T07:59:41Z</time>
      </trkpt>
      <trkpt lat="46.0248" lon="6.97264">
        <ele>2305.38</ele>
        <time>2012-09-28T07:59:50Z</time>
      </trkpt>
      <trkpt lat="46.02479" lon="6.97267">
        <ele>2305.86</ele>
        <time>2012-09-28T08:00:06Z</time>
      </trkpt>
      <trkpt lat="46.02471" lon="6.97274">
        <ele>2308.74</ele>
        <time>2012-09-28T08:00:19Z</time>
      </trkpt>
      <trkpt lat="46.02468" lon="6.97278">
        <ele>2312.11</ele>
        <time>2012-09-28T08:00:31Z</time>
      </trkpt>
      <trkpt lat="46.02465" lon="6.97288">
        <ele>2314.51</ele>
        <time>2012-09-28T08:00:43Z</time>
      </trkpt>
      <trkpt lat="46.0246" lon="6.97291">
        <ele>2317.88</ele>
        <time>2012-09-28T08:00:54Z</time>
      </trkpt>
      <trkpt lat="46.02457" lon="6.97294">
        <ele>2320.28</ele>
        <time>2012-09-28T08:01:07Z</time>
      </trkpt>
      <trkpt lat="46.02455" lon="6.973">
        <ele>2322.68</ele>
        <time>2012-09-28T08:01:21Z</time>
      </trkpt>
      <trkpt lat="46.02454" lon="6.97305">
        <ele>2326.05</ele>
        <time>2012-09-28T08:01:30Z</time>
      </trkpt>
      <trkpt lat="46.02452" lon="6.9731">
        <ele>2327.49</ele>
        <time>2012-09-28T08:01:38Z</time>
      </trkpt>
      <trkpt lat="46.02453" lon="6.97316">
        <ele>2328.45</ele>
        <time>2012-09-28T08:01:51Z</time>
      </trkpt>
      <trkpt lat="46.02453" lon="6.97318">
        <ele>2328.45</ele>
        <time>2012-09-28T08:01:54Z</time>
      </trkpt>
      <trkpt lat="46.02447" lon="6.97331">
        <ele>2331.81</ele>
        <time>2012-09-28T08:02:07Z</time>
      </trkpt>
      <trkpt lat="46.02444" lon="6.97336">
        <ele>2334.7</ele>
        <time>2012-09-28T08:02:18Z</time>
      </trkpt>
      <trkpt lat="46.02441" lon="6.9734">
        <ele>2337.58</ele>
        <time>2012-09-28T08:02:29Z</time>
      </trkpt>
      <trkpt lat="46.0244" lon="6.97348">
        <ele>2340.95</ele>
        <time>2012-09-28T08:02:40Z</time>
      </trkpt>
      <trkpt lat="46.02436" lon="6.97346">
        <ele>2343.83</ele>
        <time>2012-09-28T08:02:52Z</time>
      </trkpt>
      <trkpt lat="46.02434" lon="6.9735">
        <ele>2346.23</ele>
        <time>2012-09-28T08:03:04Z</time>
      </trkpt>
      <trkpt lat="46.02431" lon="6.97354">
        <ele>2348.64</ele>
        <time>2012-09-28T08:03:16Z</time>
      </trkpt>
      <trkpt lat="46.02429" lon="6.97364">
        <ele>2351.52</ele>
        <time>2012-09-28T08:03:28Z</time>
      </trkpt>
      <trkpt lat="46.02429" lon="6.97366">
        <ele>2352.48</ele>
        <time>2012-09-28T08:03:41Z</time>
      </trkpt>
      <trkpt lat="46.02429" lon="6.97367">
        <ele>2352</ele>
        <time>2012-09-28T08:04:02Z</time>
      </trkpt>
      <trkpt lat="46.02427" lon="6.97376">
        <ele>2353.93</ele>
        <time>2012-09-28T08:04:24Z</time>
      </trkpt>
      <trkpt lat="46.02426" lon="6.97385">
        <ele>2356.81</ele>
        <time>2012-09-28T08:04:35Z</time>
      </trkpt>
      <trkpt lat="46.02424" lon="6.97393">
        <ele>2359.21</ele>
        <time>2012-09-28T08:04:43Z</time>
      </trkpt>
      <trkpt lat="46.02421" lon="6.97404">
        <ele>2361.14</ele>
        <time>2012-09-28T08:04:52Z</time>
      </trkpt>
      <trkpt lat="46.02416" lon="6.97415">
        <ele>2364.5</ele>
        <time>2012-09-28T08:05:05Z</time>
      </trkpt>
      <trkpt lat="46.02412" lon="6.97424">
        <ele>2367.38</ele>
        <time>2012-09-28T08:05:16Z</time>
      </trkpt>
      <trkpt lat="46.0241" lon="6.97427">
        <ele>2368.35</ele>
        <time>2012-09-28T08:05:19Z</time>
      </trkpt>
      <trkpt lat="46.02401" lon="6.97436">
        <ele>2370.75</ele>
        <time>2012-09-28T08:05:31Z</time>
      </trkpt>
      <trkpt lat="46.0239" lon="6.97448">
        <ele>2373.15</ele>
        <time>2012-09-28T08:05:45Z</time>
      </trkpt>
      <trkpt lat="46.0238" lon="6.97462">
        <ele>2374.59</ele>
        <time>2012-09-28T08:05:59Z</time>
      </trkpt>
      <trkpt lat="46.02372" lon="6.97478">
        <ele>2376.04</ele>
        <time>2012-09-28T08:06:11Z</time>
      </trkpt>
      <trkpt lat="46.02367" lon="6.97486">
        <ele>2377.96</ele>
        <time>2012-09-28T08:06:19Z</time>
      </trkpt>
      <trkpt lat="46.02365" lon="6.97487">
        <ele>2378.92</ele>
        <time>2012-09-28T08:06:21Z</time>
      </trkpt>
      <trkpt lat="46.02363" lon="6.97488">
        <ele>2379.4</ele>
        <time>2012-09-28T08:06:24Z</time>
      </trkpt>
      <trkpt lat="46.0236" lon="6.97494">
        <ele>2381.32</ele>
        <time>2012-09-28T08:06:29Z</time>
      </trkpt>
      <trkpt lat="46.02357" lon="6.97497">
        <ele>2381.8</ele>
        <time>2012-09-28T08:06:32Z</time>
      </trkpt>
      <trkpt lat="46.02355" lon="6.97499">
        <ele>2382.76</ele>
        <time>2012-09-28T08:06:34Z</time>
      </trkpt>
      <trkpt lat="46.0235" lon="6.97513">
        <ele>2385.17</ele>
        <time>2012-09-28T08:06:47Z</time>
      </trkpt>
      <trkpt lat="46.0234" lon="6.97514">
        <ele>2388.05</ele>
        <time>2012-09-28T08:06:59Z</time>
      </trkpt>
      <trkpt lat="46.02339" lon="6.97514">
        <ele>2388.53</ele>
        <time>2012-09-28T08:07:00Z</time>
      </trkpt>
      <trkpt lat="46.02333" lon="6.97526">
        <ele>2390.94</ele>
        <time>2012-09-28T08:07:12Z</time>
      </trkpt>
      <trkpt lat="46.02326" lon="6.97544">
        <ele>2392.86</ele>
        <time>2012-09-28T08:07:25Z</time>
      </trkpt>
      <trkpt lat="46.02326" lon="6.97547">
        <ele>2393.34</ele>
        <time>2012-09-28T08:07:39Z</time>
      </trkpt>
      <trkpt lat="46.02324" lon="6.97546">
        <ele>2393.34</ele>
        <time>2012-09-28T08:08:00Z</time>
      </trkpt>
      <trkpt lat="46.02314" lon="6.97556">
        <ele>2396.7</ele>
        <time>2012-09-28T08:08:12Z</time>
      </trkpt>
      <trkpt lat="46.02305" lon="6.97564">
        <ele>2398.15</ele>
        <time>2012-09-28T08:08:22Z</time>
      </trkpt>
      <trkpt lat="46.02293" lon="6.97574">
        <ele>2400.55</ele>
        <time>2012-09-28T08:08:35Z</time>
      </trkpt>
      <trkpt lat="46.02292" lon="6.97577">
        <ele>2401.03</ele>
        <time>2012-09-28T08:08:37Z</time>
      </trkpt>
      <trkpt lat="46.0229" lon="6.97584">
        <ele>2401.99</ele>
        <time>2012-09-28T08:08:42Z</time>
      </trkpt>
      <trkpt lat="46.02275" lon="6.97596">
        <ele>2403.91</ele>
        <time>2012-09-28T08:08:57Z</time>
      </trkpt>
      <trkpt lat="46.02258" lon="6.976">
        <ele>2404.88</ele>
        <time>2012-09-28T08:09:12Z</time>
      </trkpt>
      <trkpt lat="46.02251" lon="6.97598">
        <ele>2405.36</ele>
        <time>2012-09-28T08:09:18Z</time>
      </trkpt>
      <trkpt lat="46.02241" lon="6.97601">
        <ele>2407.76</ele>
        <time>2012-09-28T08:09:31Z</time>
      </trkpt>
      <trkpt lat="46.02236" lon="6.97606">
        <ele>2410.16</ele>
        <time>2012-09-28T08:09:43Z</time>
      </trkpt>
      <trkpt lat="46.02232" lon="6.9761">
        <ele>2413.53</ele>
        <time>2012-09-28T08:09:53Z</time>
      </trkpt>
      <trkpt lat="46.02228" lon="6.97611">
        <ele>2416.89</ele>
        <time>2012-09-28T08:10:05Z</time>
      </trkpt>
      <trkpt lat="46.02223" lon="6.9762">
        <ele>2419.3</ele>
        <time>2012-09-28T08:10:19Z</time>
      </trkpt>
      <trkpt lat="46.02219" lon="6.97626">
        <ele>2420.26</ele>
        <time>2012-09-28T08:10:27Z</time>
      </trkpt>
      <trkpt lat="46.02216" lon="6.97633">
        <ele>2422.18</ele>
        <time>2012-09-28T08:10:36Z</time>
      </trkpt>
      <trkpt lat="46.02212" lon="6.97641">
        <ele>2425.06</ele>
        <time>2012-09-28T08:10:48Z</time>
      </trkpt>
      <trkpt lat="46.0221" lon="6.97641">
        <ele>2426.02</ele>
        <time>2012-09-28T08:11:00Z</time>
      </trkpt>
      <trkpt lat="46.02206" lon="6.97653">
        <ele>2428.43</ele>
        <time>2012-09-28T08:11:14Z</time>
      </trkpt>
      <trkpt lat="46.022" lon="6.9766">
        <ele>2430.83</ele>
        <time>2012-09-28T08:11:26Z</time>
      </trkpt>
      <trkpt lat="46.02196" lon="6.97667">
        <ele>2433.71</ele>
        <time>2012-09-28T08:11:39Z</time>
      </trkpt>
      <trkpt lat="46.02192" lon="6.97676">
        <ele>2437.08</ele>
        <time>2012-09-28T08:11:51Z</time>
      </trkpt>
      <trkpt lat="46.02186" lon="6.97683">
        <ele>2439.48</ele>
        <time>2012-09-28T08:12:05Z</time>
      </trkpt>
      <trkpt lat="46.02181" lon="6.97686">
        <ele>2441.89</ele>
        <time>2012-09-28T08:12:17Z</time>
      </trkpt>
      <trkpt lat="46.02178" lon="6.9769">
        <ele>2443.33</ele>
        <time>2012-09-28T08:12:30Z</time>
      </trkpt>
      <trkpt lat="46.02174" lon="6.97696">
        <ele>2445.73</ele>
        <time>2012-09-28T08:12:41Z</time>
      </trkpt>
      <trkpt lat="46.02168" lon="6.977">
        <ele>2448.13</ele>
        <time>2012-09-28T08:12:56Z</time>
      </trkpt>
      <trkpt lat="46.02166" lon="6.97702">
        <ele>2450.54</ele>
        <time>2012-09-28T08:13:05Z</time>
      </trkpt>
      <trkpt lat="46.02164" lon="6.97705">
        <ele>2453.42</ele>
        <time>2012-09-28T08:13:16Z</time>
      </trkpt>
      <trkpt lat="46.0216" lon="6.9771">
        <ele>2455.82</ele>
        <time>2012-09-28T08:13:29Z</time>
      </trkpt>
      <trkpt lat="46.02158" lon="6.9771">
        <ele>2455.82</ele>
        <time>2012-09-28T08:13:32Z</time>
      </trkpt>
      <trkpt lat="46.02157" lon="6.97715">
        <ele>2455.34</ele>
        <time>2012-09-28T08:13:37Z</time>
      </trkpt>
      <trkpt lat="46.02153" lon="6.97729">
        <ele>2457.75</ele>
        <time>2012-09-28T08:13:49Z</time>
      </trkpt>
      <trkpt lat="46.02151" lon="6.97732">
        <ele>2458.71</ele>
        <time>2012-09-28T08:14:01Z</time>
      </trkpt>
      <trkpt lat="46.02151" lon="6.97736">
        <ele>2458.23</ele>
        <time>2012-09-28T08:14:13Z</time>
      </trkpt>
      <trkpt lat="46.02153" lon="6.97735">
        <ele>2458.71</ele>
        <time>2012-09-28T08:14:49Z</time>
      </trkpt>
      <trkpt lat="46.02149" lon="6.97743">
        <ele>2460.15</ele>
        <time>2012-09-28T08:15:05Z</time>
      </trkpt>
      <trkpt lat="46.02146" lon="6.97745">
        <ele>2461.11</ele>
        <time>2012-09-28T08:15:10Z</time>
      </trkpt>
      <trkpt lat="46.02139" lon="6.97753">
        <ele>2463.04</ele>
        <time>2012-09-28T08:15:22Z</time>
      </trkpt>
      <trkpt lat="46.02139" lon="6.97757">
        <ele>2466.4</ele>
        <time>2012-09-28T08:15:34Z</time>
      </trkpt>
      <trkpt lat="46.0214" lon="6.97758">
        <ele>2466.4</ele>
        <time>2012-09-28T08:15:36Z</time>
      </trkpt>
      <trkpt lat="46.02139" lon="6.97765">
        <ele>2469.28</ele>
        <time>2012-09-28T08:15:48Z</time>
      </trkpt>
      <trkpt lat="46.02138" lon="6.97772">
        <ele>2471.21</ele>
        <time>2012-09-28T08:16:01Z</time>
      </trkpt>
      <trkpt lat="46.02138" lon="6.97775">
        <ele>2471.21</ele>
        <time>2012-09-28T08:16:05Z</time>
      </trkpt>
      <trkpt lat="46.02135" lon="6.97778">
        <ele>2474.09</ele>
        <time>2012-09-28T08:16:19Z</time>
      </trkpt>
      <trkpt lat="46.02132" lon="6.97783">
        <ele>2476.97</ele>
        <time>2012-09-28T08:16:31Z</time>
      </trkpt>
      <trkpt lat="46.02131" lon="6.97787">
        <ele>2477.94</ele>
        <time>2012-09-28T08:16:43Z</time>
      </trkpt>
      <trkpt lat="46.02128" lon="6.97791">
        <ele>2480.34</ele>
        <time>2012-09-28T08:16:57Z</time>
      </trkpt>
      <trkpt lat="46.02116" lon="6.97792">
        <ele>2478.42</ele>
        <time>2012-09-28T08:17:11Z</time>
      </trkpt>
      <trkpt lat="46.02108" lon="6.97793">
        <ele>2479.38</ele>
        <time>2012-09-28T08:17:24Z</time>
      </trkpt>
      <trkpt lat="46.02104" lon="6.97794">
        <ele>2481.78</ele>
        <time>2012-09-28T08:17:31Z</time>
      </trkpt>
      <trkpt lat="46.02102" lon="6.97796">
        <ele>2483.22</ele>
        <time>2012-09-28T08:17:34Z</time>
      </trkpt>
      <trkpt lat="46.02098" lon="6.97799">
        <ele>2483.22</ele>
        <time>2012-09-28T08:17:46Z</time>
      </trkpt>
      <trkpt lat="46.02097" lon="6.97803">
        <ele>2484.18</ele>
        <time>2012-09-28T08:17:52Z</time>
      </trkpt>
      <trkpt lat="46.02095" lon="6.97808">
        <ele>2486.59</ele>
        <time>2012-09-28T08:18:03Z</time>
      </trkpt>
      <trkpt lat="46.02093" lon="6.97814">
        <ele>2489.47</ele>
        <time>2012-09-28T08:18:14Z</time>
      </trkpt>
      <trkpt lat="46.02091" lon="6.97818">
        <ele>2491.39</ele>
        <time>2012-09-28T08:18:27Z</time>
      </trkpt>
      <trkpt lat="46.02092" lon="6.97822">
        <ele>2493.8</ele>
        <time>2012-09-28T08:18:43Z</time>
      </trkpt>
      <trkpt lat="46.02096" lon="6.97822">
        <ele>2496.68</ele>
        <time>2012-09-28T08:18:54Z</time>
      </trkpt>
      <trkpt lat="46.021" lon="6.97823">
        <ele>2499.57</ele>
        <time>2012-09-28T08:19:05Z</time>
      </trkpt>
      <trkpt lat="46.02104" lon="6.97821">
        <ele>2502.93</ele>
        <time>2012-09-28T08:19:12Z</time>
      </trkpt>
      <trkpt lat="46.02104" lon="6.97821">
        <ele>2502.45</ele>
        <time>2012-09-28T08:19:13Z</time>
      </trkpt>
      <trkpt lat="46.02109" lon="6.97824">
        <ele>2504.85</ele>
        <time>2012-09-28T08:19:26Z</time>
      </trkpt>
      <trkpt lat="46.02107" lon="6.97827">
        <ele>2506.77</ele>
        <time>2012-09-28T08:19:39Z</time>
      </trkpt>
      <trkpt lat="46.02104" lon="6.97836">
        <ele>2508.7</ele>
        <time>2012-09-28T08:19:53Z</time>
      </trkpt>
      <trkpt lat="46.02104" lon="6.97841">
        <ele>2511.1</ele>
        <time>2012-09-28T08:20:06Z</time>
      </trkpt>
      <trkpt lat="46.02101" lon="6.97846">
        <ele>2514.47</ele>
        <time>2012-09-28T08:20:18Z</time>
      </trkpt>
      <trkpt lat="46.02101" lon="6.97847">
        <ele>2514.47</ele>
        <time>2012-09-28T08:20:19Z</time>
      </trkpt>
      <trkpt lat="46.02102" lon="6.97849">
        <ele>2514.47</ele>
        <time>2012-09-28T08:20:21Z</time>
      </trkpt>
      <trkpt lat="46.02103" lon="6.97861">
        <ele>2518.31</ele>
        <time>2012-09-28T08:20:34Z</time>
      </trkpt>
      <trkpt lat="46.021" lon="6.97867">
        <ele>2518.79</ele>
        <time>2012-09-28T08:20:45Z</time>
      </trkpt>
      <trkpt lat="46.02099" lon="6.97872">
        <ele>2521.68</ele>
        <time>2012-09-28T08:20:57Z</time>
      </trkpt>
      <trkpt lat="46.02099" lon="6.97874">
        <ele>2523.12</ele>
        <time>2012-09-28T08:21:10Z</time>
      </trkpt>
      <trkpt lat="46.02097" lon="6.97877">
        <ele>2523.6</ele>
        <time>2012-09-28T08:21:21Z</time>
      </trkpt>
      <trkpt lat="46.02095" lon="6.97878">
        <ele>2525.04</ele>
        <time>2012-09-28T08:21:37Z</time>
      </trkpt>
      <trkpt lat="46.02092" lon="6.97881">
        <ele>2527.44</ele>
        <time>2012-09-28T08:21:49Z</time>
      </trkpt>
      <trkpt lat="46.02088" lon="6.97882">
        <ele>2529.37</ele>
        <time>2012-09-28T08:22:02Z</time>
      </trkpt>
      <trkpt lat="46.02089" lon="6.97886">
        <ele>2530.81</ele>
        <time>2012-09-28T08:22:10Z</time>
      </trkpt>
      <trkpt lat="46.02093" lon="6.9789">
        <ele>2534.17</ele>
        <time>2012-09-28T08:22:22Z</time>
      </trkpt>
      <trkpt lat="46.02092" lon="6.97891">
        <ele>2536.58</ele>
        <time>2012-09-28T08:22:34Z</time>
      </trkpt>
      <trkpt lat="46.02091" lon="6.97893">
        <ele>2538.02</ele>
        <time>2012-09-28T08:22:46Z</time>
      </trkpt>
      <trkpt lat="46.02088" lon="6.97898">
        <ele>2540.9</ele>
        <time>2012-09-28T08:22:57Z</time>
      </trkpt>
      <trkpt lat="46.02087" lon="6.97903">
        <ele>2543.31</ele>
        <time>2012-09-28T08:23:08Z</time>
      </trkpt>
      <trkpt lat="46.02085" lon="6.97908">
        <ele>2545.71</ele>
        <time>2012-09-28T08:23:18Z</time>
      </trkpt>
      <trkpt lat="46.02082" lon="6.97911">
        <ele>2548.11</ele>
        <time>2012-09-28T08:23:30Z</time>
      </trkpt>
      <trkpt lat="46.02079" lon="6.97913">
        <ele>2549.55</ele>
        <time>2012-09-28T08:23:44Z</time>
      </trkpt>
      <trkpt lat="46.02075" lon="6.97916">
        <ele>2551.96</ele>
        <time>2012-09-28T08:23:58Z</time>
      </trkpt>
      <trkpt lat="46.02075" lon="6.97918">
        <ele>2553.88</ele>
        <time>2012-09-28T08:24:03Z</time>
      </trkpt>
      <trkpt lat="46.02075" lon="6.97921">
        <ele>2555.32</ele>
        <time>2012-09-28T08:24:15Z</time>
      </trkpt>
      <trkpt lat="46.02076" lon="6.97926">
        <ele>2557.24</ele>
        <time>2012-09-28T08:24:25Z</time>
      </trkpt>
      <trkpt lat="46.02075" lon="6.97926">
        <ele>2560.13</ele>
        <time>2012-09-28T08:24:32Z</time>
      </trkpt>
      <trkpt lat="46.02073" lon="6.9793">
        <ele>2560.13</ele>
        <time>2012-09-28T08:24:44Z</time>
      </trkpt>
      <trkpt lat="46.02071" lon="6.97933">
        <ele>2561.09</ele>
        <time>2012-09-28T08:24:53Z</time>
      </trkpt>
      <trkpt lat="46.02071" lon="6.97937">
        <ele>2562.53</ele>
        <time>2012-09-28T08:25:05Z</time>
      </trkpt>
      <trkpt lat="46.02072" lon="6.97941">
        <ele>2565.9</ele>
        <time>2012-09-28T08:25:15Z</time>
      </trkpt>
      <trkpt lat="46.02073" lon="6.97942">
        <ele>2566.38</ele>
        <time>2012-09-28T08:25:31Z</time>
      </trkpt>
      <trkpt lat="46.02075" lon="6.97946">
        <ele>2568.78</ele>
        <time>2012-09-28T08:25:44Z</time>
      </trkpt>
      <trkpt lat="46.02074" lon="6.97952">
        <ele>2569.74</ele>
        <time>2012-09-28T08:25:58Z</time>
      </trkpt>
      <trkpt lat="46.02073" lon="6.97954">
        <ele>2570.22</ele>
        <time>2012-09-28T08:26:11Z</time>
      </trkpt>
      <trkpt lat="46.02073" lon="6.97958">
        <ele>2572.63</ele>
        <time>2012-09-28T08:26:25Z</time>
      </trkpt>
      <trkpt lat="46.02074" lon="6.97961">
        <ele>2575.03</ele>
        <time>2012-09-28T08:26:37Z</time>
      </trkpt>
      <trkpt lat="46.02073" lon="6.97966">
        <ele>2578.39</ele>
        <time>2012-09-28T08:26:47Z</time>
      </trkpt>
      <trkpt lat="46.02073" lon="6.97966">
        <ele>2578.39</ele>
        <time>2012-09-28T08:26:48Z</time>
      </trkpt>
      <trkpt lat="46.02074" lon="6.9797">
        <ele>2580.32</ele>
        <time>2012-09-28T08:27:00Z</time>
      </trkpt>
      <trkpt lat="46.02071" lon="6.9797">
        <ele>2580.8</ele>
        <time>2012-09-28T08:27:14Z</time>
      </trkpt>
      <trkpt lat="46.0207" lon="6.97971">
        <ele>2582.24</ele>
        <time>2012-09-28T08:27:17Z</time>
      </trkpt>
      <trkpt lat="46.02071" lon="6.97974">
        <ele>2584.16</ele>
        <time>2012-09-28T08:27:29Z</time>
      </trkpt>
      <trkpt lat="46.0207" lon="6.97974">
        <ele>2585.12</ele>
        <time>2012-09-28T08:27:45Z</time>
      </trkpt>
      <trkpt lat="46.0207" lon="6.97977">
        <ele>2586.08</ele>
        <time>2012-09-28T08:28:01Z</time>
      </trkpt>
      <trkpt lat="46.0207" lon="6.97977">
        <ele>2586.56</ele>
        <time>2012-09-28T08:28:16Z</time>
      </trkpt>
      <trkpt lat="46.0207" lon="6.97977">
        <ele>2586.08</ele>
        <time>2012-09-28T08:28:37Z</time>
      </trkpt>
      <trkpt lat="46.0207" lon="6.97978">
        <ele>2586.08</ele>
        <time>2012-09-28T08:28:52Z</time>
      </trkpt>
      <trkpt lat="46.02069" lon="6.97977">
        <ele>2586.56</ele>
        <time>2012-09-28T08:29:07Z</time>
      </trkpt>
      <trkpt lat="46.02068" lon="6.97977">
        <ele>2588.49</ele>
        <time>2012-09-28T08:29:24Z</time>
      </trkpt>
      <trkpt lat="46.02066" lon="6.97975">
        <ele>2591.37</ele>
        <time>2012-09-28T08:29:37Z</time>
      </trkpt>
      <trkpt lat="46.02063" lon="6.97975">
        <ele>2591.37</ele>
        <time>2012-09-28T08:29:50Z</time>
      </trkpt>
      <trkpt lat="46.02062" lon="6.97977">
        <ele>2592.81</ele>
        <time>2012-09-28T08:30:01Z</time>
      </trkpt>
      <trkpt lat="46.02061" lon="6.97977">
        <ele>2593.29</ele>
        <time>2012-09-28T08:30:02Z</time>
      </trkpt>
      <trkpt lat="46.02059" lon="6.97977">
        <ele>2594.25</ele>
        <time>2012-09-28T08:30:13Z</time>
      </trkpt>
      <trkpt lat="46.02059" lon="6.97979">
        <ele>2595.22</ele>
        <time>2012-09-28T08:30:17Z</time>
      </trkpt>
      <trkpt lat="46.0206" lon="6.97981">
        <ele>2596.18</ele>
        <time>2012-09-28T08:30:27Z</time>
      </trkpt>
      <trkpt lat="46.02058" lon="6.97979">
        <ele>2596.66</ele>
        <time>2012-09-28T08:30:31Z</time>
      </trkpt>
      <trkpt lat="46.02056" lon="6.97979">
        <ele>2598.1</ele>
        <time>2012-09-28T08:30:34Z</time>
      </trkpt>
      <trkpt lat="46.02055" lon="6.97981">
        <ele>2596.18</ele>
        <time>2012-09-28T08:30:47Z</time>
      </trkpt>
      <trkpt lat="46.02055" lon="6.9798">
        <ele>2596.66</ele>
        <time>2012-09-28T08:30:50Z</time>
      </trkpt>
      <trkpt lat="46.02053" lon="6.97983">
        <ele>2596.66</ele>
        <time>2012-09-28T08:31:03Z</time>
      </trkpt>
      <trkpt lat="46.02053" lon="6.97987">
        <ele>2597.62</ele>
        <time>2012-09-28T08:31:16Z</time>
      </trkpt>
      <trkpt lat="46.02054" lon="6.97987">
        <ele>2599.06</ele>
        <time>2012-09-28T08:31:17Z</time>
      </trkpt>
      <trkpt lat="46.02055" lon="6.9799">
        <ele>2600.98</ele>
        <time>2012-09-28T08:31:21Z</time>
      </trkpt>
      <trkpt lat="46.02055" lon="6.9799">
        <ele>2601.46</ele>
        <time>2012-09-28T08:31:23Z</time>
      </trkpt>
      <trkpt lat="46.02054" lon="6.9799">
        <ele>2601.95</ele>
        <time>2012-09-28T08:31:30Z</time>
      </trkpt>
      <trkpt lat="46.02054" lon="6.97994">
        <ele>2601.46</ele>
        <time>2012-09-28T08:31:38Z</time>
      </trkpt>
      <trkpt lat="46.02055" lon="6.97995">
        <ele>2603.87</ele>
        <time>2012-09-28T08:31:41Z</time>
      </trkpt>
      <trkpt lat="46.02055" lon="6.98">
        <ele>2604.83</ele>
        <time>2012-09-28T08:31:55Z</time>
      </trkpt>
      <trkpt lat="46.02057" lon="6.98005">
        <ele>2607.23</ele>
        <time>2012-09-28T08:32:06Z</time>
      </trkpt>
      <trkpt lat="46.02058" lon="6.98009">
        <ele>2609.16</ele>
        <time>2012-09-28T08:32:17Z</time>
      </trkpt>
      <trkpt lat="46.02058" lon="6.98009">
        <ele>2608.67</ele>
        <time>2012-09-28T08:32:19Z</time>
      </trkpt>
      <trkpt lat="46.02055" lon="6.98012">
        <ele>2609.64</ele>
        <time>2012-09-28T08:32:33Z</time>
      </trkpt>
      <trkpt lat="46.02055" lon="6.98014">
        <ele>2610.6</ele>
        <time>2012-09-28T08:32:46Z</time>
      </trkpt>
      <trkpt lat="46.02051" lon="6.98014">
        <ele>2612.52</ele>
        <time>2012-09-28T08:32:59Z</time>
      </trkpt>
      <trkpt lat="46.02051" lon="6.98017">
        <ele>2614.44</ele>
        <time>2012-09-28T08:33:13Z</time>
      </trkpt>
      <trkpt lat="46.0205" lon="6.98016">
        <ele>2615.4</ele>
        <time>2012-09-28T08:33:25Z</time>
      </trkpt>
      <trkpt lat="46.02049" lon="6.98017">
        <ele>2616.85</ele>
        <time>2012-09-28T08:33:41Z</time>
      </trkpt>
      <trkpt lat="46.02049" lon="6.98017">
        <ele>2617.33</ele>
        <time>2012-09-28T08:33:55Z</time>
      </trkpt>
      <trkpt lat="46.02049" lon="6.98016">
        <ele>2616.37</ele>
        <time>2012-09-28T08:34:14Z</time>
      </trkpt>
      <trkpt lat="46.0205" lon="6.98017">
        <ele>2614.92</ele>
        <time>2012-09-28T08:34:29Z</time>
      </trkpt>
      <trkpt lat="46.02047" lon="6.98014">
        <ele>2614.44</ele>
        <time>2012-09-28T08:34:42Z</time>
      </trkpt>
      <trkpt lat="46.02045" lon="6.98016">
        <ele>2614.92</ele>
        <time>2012-09-28T08:35:01Z</time>
      </trkpt>
      <trkpt lat="46.02045" lon="6.98016">
        <ele>2614.44</ele>
        <time>2012-09-28T08:35:21Z</time>
      </trkpt>
      <trkpt lat="46.02044" lon="6.98016">
        <ele>2613.48</ele>
        <time>2012-09-28T08:35:34Z</time>
      </trkpt>
      <trkpt lat="46.02044" lon="6.98017">
        <ele>2614.92</ele>
        <time>2012-09-28T08:35:50Z</time>
      </trkpt>
      <trkpt lat="46.02043" lon="6.98018">
        <ele>2614.92</ele>
        <time>2012-09-28T08:36:07Z</time>
      </trkpt>
      <trkpt lat="46.02043" lon="6.98016">
        <ele>2615.88</ele>
        <time>2012-09-28T08:36:28Z</time>
      </trkpt>
      <trkpt lat="46.02042" lon="6.98016">
        <ele>2615.88</ele>
        <time>2012-09-28T08:36:45Z</time>
      </trkpt>
      <trkpt lat="46.02042" lon="6.98015">
        <ele>2614.92</ele>
        <time>2012-09-28T08:37:04Z</time>
      </trkpt>
      <trkpt lat="46.02041" lon="6.98017">
        <ele>2614.92</ele>
        <time>2012-09-28T08:37:20Z</time>
      </trkpt>
      <trkpt lat="46.02037" lon="6.98016">
        <ele>2615.88</ele>
        <time>2012-09-28T08:37:36Z</time>
      </trkpt>
      <trkpt lat="46.02036" lon="6.98016">
        <ele>2617.33</ele>
        <time>2012-09-28T08:37:47Z</time>
      </trkpt>
      <trkpt lat="46.02034" lon="6.98015">
        <ele>2618.29</ele>
        <time>2012-09-28T08:38:01Z</time>
      </trkpt>
      <trkpt lat="46.02032" lon="6.98014">
        <ele>2620.21</ele>
        <time>2012-09-28T08:38:10Z</time>
      </trkpt>
      <trkpt lat="46.02031" lon="6.98013">
        <ele>2620.21</ele>
        <time>2012-09-28T08:38:24Z</time>
      </trkpt>
      <trkpt lat="46.02032" lon="6.98016">
        <ele>2621.17</ele>
        <time>2012-09-28T08:38:40Z</time>
      </trkpt>
      <trkpt lat="46.02033" lon="6.98019">
        <ele>2623.09</ele>
        <time>2012-09-28T08:38:56Z</time>
      </trkpt>
      <trkpt lat="46.02032" lon="6.98019">
        <ele>2625.5</ele>
        <time>2012-09-28T08:39:01Z</time>
      </trkpt>
      <trkpt lat="46.02031" lon="6.98021">
        <ele>2625.98</ele>
        <time>2012-09-28T08:39:13Z</time>
      </trkpt>
      <trkpt lat="46.02033" lon="6.98025">
        <ele>2629.82</ele>
        <time>2012-09-28T08:39:28Z</time>
      </trkpt>
      <trkpt lat="46.02033" lon="6.98027">
        <ele>2631.27</ele>
        <time>2012-09-28T08:39:41Z</time>
      </trkpt>
      <trkpt lat="46.02034" lon="6.98029">
        <ele>2633.19</ele>
        <time>2012-09-28T08:39:56Z</time>
      </trkpt>
      <trkpt lat="46.02035" lon="6.98032">
        <ele>2635.11</ele>
        <time>2012-09-28T08:40:01Z</time>
      </trkpt>
      <trkpt lat="46.02037" lon="6.98032">
        <ele>2633.19</ele>
        <time>2012-09-28T08:40:13Z</time>
      </trkpt>
      <trkpt lat="46.02035" lon="6.98034">
        <ele>2636.55</ele>
        <time>2012-09-28T08:40:20Z</time>
      </trkpt>
      <trkpt lat="46.02031" lon="6.98042">
        <ele>2638.48</ele>
        <time>2012-09-28T08:40:31Z</time>
      </trkpt>
      <trkpt lat="46.02025" lon="6.98047">
        <ele>2638.48</ele>
        <time>2012-09-28T08:40:43Z</time>
      </trkpt>
      <trkpt lat="46.02027" lon="6.98049">
        <ele>2640.88</ele>
        <time>2012-09-28T08:40:48Z</time>
      </trkpt>
      <trkpt lat="46.02025" lon="6.9805">
        <ele>2642.32</ele>
        <time>2012-09-28T08:41:01Z</time>
      </trkpt>
      <trkpt lat="46.02024" lon="6.98055">
        <ele>2643.76</ele>
        <time>2012-09-28T08:41:12Z</time>
      </trkpt>
      <trkpt lat="46.02022" lon="6.98057">
        <ele>2645.21</ele>
        <time>2012-09-28T08:41:25Z</time>
      </trkpt>
      <trkpt lat="46.0202" lon="6.98057">
        <ele>2647.13</ele>
        <time>2012-09-28T08:41:37Z</time>
      </trkpt>
      <trkpt lat="46.02017" lon="6.98061">
        <ele>2648.57</ele>
        <time>2012-09-28T08:41:47Z</time>
      </trkpt>
      <trkpt lat="46.02018" lon="6.98065">
        <ele>2650.49</ele>
        <time>2012-09-28T08:41:59Z</time>
      </trkpt>
      <trkpt lat="46.02017" lon="6.98069">
        <ele>2652.9</ele>
        <time>2012-09-28T08:42:08Z</time>
      </trkpt>
      <trkpt lat="46.02016" lon="6.98068">
        <ele>2654.34</ele>
        <time>2012-09-28T08:42:22Z</time>
      </trkpt>
      <trkpt lat="46.02015" lon="6.98074">
        <ele>2657.22</ele>
        <time>2012-09-28T08:42:37Z</time>
      </trkpt>
      <trkpt lat="46.02015" lon="6.98074">
        <ele>2657.22</ele>
        <time>2012-09-28T08:42:38Z</time>
      </trkpt>
      <trkpt lat="46.0201" lon="6.98075">
        <ele>2659.14</ele>
        <time>2012-09-28T08:42:50Z</time>
      </trkpt>
      <trkpt lat="46.02011" lon="6.98075">
        <ele>2656.26</ele>
        <time>2012-09-28T08:43:03Z</time>
      </trkpt>
      <trkpt lat="46.02011" lon="6.98077">
        <ele>2657.7</ele>
        <time>2012-09-28T08:43:27Z</time>
      </trkpt>
      <trkpt lat="46.02011" lon="6.98074">
        <ele>2657.7</ele>
        <time>2012-09-28T08:43:42Z</time>
      </trkpt>
      <trkpt lat="46.02012" lon="6.98071">
        <ele>2659.14</ele>
        <time>2012-09-28T08:44:01Z</time>
      </trkpt>
      <trkpt lat="46.0201" lon="6.98076">
        <ele>2658.66</ele>
        <time>2012-09-28T08:44:22Z</time>
      </trkpt>
      <trkpt lat="46.0201" lon="6.98076">
        <ele>2658.66</ele>
        <time>2012-09-28T08:44:40Z</time>
      </trkpt>
      <trkpt lat="46.02014" lon="6.98075">
        <ele>2658.66</ele>
        <time>2012-09-28T08:45:02Z</time>
      </trkpt>
      <trkpt lat="46.0201" lon="6.98076">
        <ele>2657.22</ele>
        <time>2012-09-28T08:45:23Z</time>
      </trkpt>
      <trkpt lat="46.02011" lon="6.98076">
        <ele>2657.22</ele>
        <time>2012-09-28T08:45:42Z</time>
      </trkpt>
      <trkpt lat="46.02009" lon="6.98076">
        <ele>2656.74</ele>
        <time>2012-09-28T08:45:54Z</time>
      </trkpt>
      <trkpt lat="46.02007" lon="6.98076">
        <ele>2655.3</ele>
        <time>2012-09-28T08:45:57Z</time>
      </trkpt>
      <trkpt lat="46.02001" lon="6.98079">
        <ele>2653.38</ele>
        <time>2012-09-28T08:46:11Z</time>
      </trkpt>
      <trkpt lat="46.02" lon="6.9808">
        <ele>2652.9</ele>
        <time>2012-09-28T08:46:12Z</time>
      </trkpt>
      <trkpt lat="46.01996" lon="6.98084">
        <ele>2652.42</ele>
        <time>2012-09-28T08:46:23Z</time>
      </trkpt>
      <trkpt lat="46.01993" lon="6.98093">
        <ele>2655.78</ele>
        <time>2012-09-28T08:46:33Z</time>
      </trkpt>
      <trkpt lat="46.01991" lon="6.98095">
        <ele>2659.14</ele>
        <time>2012-09-28T08:46:45Z</time>
      </trkpt>
      <trkpt lat="46.01984" lon="6.98098">
        <ele>2660.11</ele>
        <time>2012-09-28T08:46:57Z</time>
      </trkpt>
      <trkpt lat="46.0198" lon="6.98102">
        <ele>2662.51</ele>
        <time>2012-09-28T08:47:06Z</time>
      </trkpt>
      <trkpt lat="46.01978" lon="6.98106">
        <ele>2664.43</ele>
        <time>2012-09-28T08:47:11Z</time>
      </trkpt>
      <trkpt lat="46.01974" lon="6.98112">
        <ele>2665.39</ele>
        <time>2012-09-28T08:47:24Z</time>
      </trkpt>
      <trkpt lat="46.01974" lon="6.98119">
        <ele>2667.31</ele>
        <time>2012-09-28T08:47:36Z</time>
      </trkpt>
      <trkpt lat="46.01972" lon="6.98118">
        <ele>2669.24</ele>
        <time>2012-09-28T08:47:43Z</time>
      </trkpt>
      <trkpt lat="46.01971" lon="6.98123">
        <ele>2671.16</ele>
        <time>2012-09-28T08:47:57Z</time>
      </trkpt>
      <trkpt lat="46.01966" lon="6.98127">
        <ele>2674.04</ele>
        <time>2012-09-28T08:48:11Z</time>
      </trkpt>
      <trkpt lat="46.01964" lon="6.9813">
        <ele>2676.45</ele>
        <time>2012-09-28T08:48:20Z</time>
      </trkpt>
      <trkpt lat="46.01958" lon="6.98129">
        <ele>2678.85</ele>
        <time>2012-09-28T08:48:30Z</time>
      </trkpt>
      <trkpt lat="46.01955" lon="6.98131">
        <ele>2679.81</ele>
        <time>2012-09-28T08:48:41Z</time>
      </trkpt>
      <trkpt lat="46.01958" lon="6.98132">
        <ele>2679.33</ele>
        <time>2012-09-28T08:48:51Z</time>
      </trkpt>
      <trkpt lat="46.01957" lon="6.98132">
        <ele>2680.77</ele>
        <time>2012-09-28T08:49:04Z</time>
      </trkpt>
      <trkpt lat="46.01957" lon="6.98132">
        <ele>2677.89</ele>
        <time>2012-09-28T08:49:23Z</time>
      </trkpt>
      <trkpt lat="46.01957" lon="6.98131">
        <ele>2677.89</ele>
        <time>2012-09-28T08:49:48Z</time>
      </trkpt>
      <trkpt lat="46.01957" lon="6.98133">
        <ele>2679.81</ele>
        <time>2012-09-28T08:50:14Z</time>
      </trkpt>
      <trkpt lat="46.01958" lon="6.98131">
        <ele>2679.33</ele>
        <time>2012-09-28T08:50:36Z</time>
      </trkpt>
      <trkpt lat="46.01958" lon="6.98132">
        <ele>2680.77</ele>
        <time>2012-09-28T08:51:09Z</time>
      </trkpt>
      <trkpt lat="46.01958" lon="6.98133">
        <ele>2679.33</ele>
        <time>2012-09-28T08:51:39Z</time>
      </trkpt>
      <trkpt lat="46.01957" lon="6.98131">
        <ele>2679.33</ele>
        <time>2012-09-28T08:52:02Z</time>
      </trkpt>
      <trkpt lat="46.01958" lon="6.98132">
        <ele>2679.33</ele>
        <time>2012-09-28T08:52:30Z</time>
      </trkpt>
      <trkpt lat="46.01956" lon="6.98131">
        <ele>2679.81</ele>
        <time>2012-09-28T08:52:38Z</time>
      </trkpt>
      <trkpt lat="46.01951" lon="6.98126">
        <ele>2679.81</ele>
        <time>2012-09-28T08:52:45Z</time>
      </trkpt>
      <trkpt lat="46.01944" lon="6.98124">
        <ele>2679.81</ele>
        <time>2012-09-28T08:52:52Z</time>
      </trkpt>
      <trkpt lat="46.01936" lon="6.98122">
        <ele>2678.37</ele>
        <time>2012-09-28T08:53:04Z</time>
      </trkpt>
      <trkpt lat="46.01935" lon="6.98123">
        <ele>2677.89</ele>
        <time>2012-09-28T08:53:14Z</time>
      </trkpt>
      <trkpt lat="46.01934" lon="6.98122">
        <ele>2677.89</ele>
        <time>2012-09-28T08:53:23Z</time>
      </trkpt>
      <trkpt lat="46.01929" lon="6.98117">
        <ele>2676.45</ele>
        <time>2012-09-28T08:53:36Z</time>
      </trkpt>
      <trkpt lat="46.01925" lon="6.98115">
        <ele>2675.97</ele>
        <time>2012-09-28T08:53:49Z</time>
      </trkpt>
      <trkpt lat="46.01925" lon="6.98116">
        <ele>2674.52</ele>
        <time>2012-09-28T08:54:05Z</time>
      </trkpt>
      <trkpt lat="46.01921" lon="6.98115">
        <ele>2674.52</ele>
        <time>2012-09-28T08:54:19Z</time>
      </trkpt>
      <trkpt lat="46.01921" lon="6.98114">
        <ele>2676.45</ele>
        <time>2012-09-28T08:54:23Z</time>
      </trkpt>
      <trkpt lat="46.01919" lon="6.98113">
        <ele>2674.52</ele>
        <time>2012-09-28T08:54:34Z</time>
      </trkpt>
      <trkpt lat="46.01917" lon="6.98116">
        <ele>2672.12</ele>
        <time>2012-09-28T08:54:40Z</time>
      </trkpt>
      <trkpt lat="46.01914" lon="6.98113">
        <ele>2669.24</ele>
        <time>2012-09-28T08:54:47Z</time>
      </trkpt>
      <trkpt lat="46.01909" lon="6.98112">
        <ele>2669.24</ele>
        <time>2012-09-28T08:55:01Z</time>
      </trkpt>
      <trkpt lat="46.01902" lon="6.98108">
        <ele>2669.24</ele>
        <time>2012-09-28T08:55:14Z</time>
      </trkpt>
      <trkpt lat="46.019" lon="6.98108">
        <ele>2668.76</ele>
        <time>2012-09-28T08:55:26Z</time>
      </trkpt>
      <trkpt lat="46.01894" lon="6.98104">
        <ele>2668.76</ele>
        <time>2012-09-28T08:55:40Z</time>
      </trkpt>
      <trkpt lat="46.0189" lon="6.98102">
        <ele>2670.2</ele>
        <time>2012-09-28T08:55:45Z</time>
      </trkpt>
      <trkpt lat="46.01885" lon="6.98097">
        <ele>2670.68</ele>
        <time>2012-09-28T08:56:00Z</time>
      </trkpt>
      <trkpt lat="46.0188" lon="6.98095">
        <ele>2670.68</ele>
        <time>2012-09-28T08:56:15Z</time>
      </trkpt>
      <trkpt lat="46.01878" lon="6.9809">
        <ele>2673.08</ele>
        <time>2012-09-28T08:56:28Z</time>
      </trkpt>
      <trkpt lat="46.01877" lon="6.98087">
        <ele>2674.52</ele>
        <time>2012-09-28T08:56:40Z</time>
      </trkpt>
      <trkpt lat="46.01873" lon="6.98083">
        <ele>2675.01</ele>
        <time>2012-09-28T08:56:55Z</time>
      </trkpt>
      <trkpt lat="46.01872" lon="6.98082">
        <ele>2675.49</ele>
        <time>2012-09-28T08:56:59Z</time>
      </trkpt>
      <trkpt lat="46.0187" lon="6.98077">
        <ele>2675.97</ele>
        <time>2012-09-28T08:57:12Z</time>
      </trkpt>
      <trkpt lat="46.0187" lon="6.98079">
        <ele>2675.01</ele>
        <time>2012-09-28T08:57:38Z</time>
      </trkpt>
      <trkpt lat="46.01864" lon="6.98082">
        <ele>2672.12</ele>
        <time>2012-09-28T08:57:51Z</time>
      </trkpt>
      <trkpt lat="46.01859" lon="6.98083">
        <ele>2670.68</ele>
        <time>2012-09-28T08:58:04Z</time>
      </trkpt>
      <trkpt lat="46.01856" lon="6.98082">
        <ele>2670.2</ele>
        <time>2012-09-28T08:58:16Z</time>
      </trkpt>
      <trkpt lat="46.01854" lon="6.98083">
        <ele>2668.76</ele>
        <time>2012-09-28T08:58:28Z</time>
      </trkpt>
      <trkpt lat="46.0185" lon="6.98084">
        <ele>2667.31</ele>
        <time>2012-09-28T08:58:39Z</time>
      </trkpt>
      <trkpt lat="46.01844" lon="6.98086">
        <ele>2665.39</ele>
        <time>2012-09-28T08:58:50Z</time>
      </trkpt>
      <trkpt lat="46.0184" lon="6.98087">
        <ele>2663.95</ele>
        <time>2012-09-28T08:58:59Z</time>
      </trkpt>
      <trkpt lat="46.01832" lon="6.98089">
        <ele>2660.59</ele>
        <time>2012-09-28T08:59:09Z</time>
      </trkpt>
      <trkpt lat="46.01829" lon="6.98091">
        <ele>2659.62</ele>
        <time>2012-09-28T08:59:15Z</time>
      </trkpt>
      <trkpt lat="46.01823" lon="6.98091">
        <ele>2658.66</ele>
        <time>2012-09-28T08:59:20Z</time>
      </trkpt>
      <trkpt lat="46.01815" lon="6.98092">
        <ele>2658.18</ele>
        <time>2012-09-28T08:59:32Z</time>
      </trkpt>
      <trkpt lat="46.01808" lon="6.98091">
        <ele>2659.62</ele>
        <time>2012-09-28T08:59:44Z</time>
      </trkpt>
      <trkpt lat="46.01798" lon="6.98091">
        <ele>2660.11</ele>
        <time>2012-09-28T08:59:59Z</time>
      </trkpt>
      <trkpt lat="46.01789" lon="6.98088">
        <ele>2660.59</ele>
        <time>2012-09-28T09:00:12Z</time>
      </trkpt>
      <trkpt lat="46.01784" lon="6.98087">
        <ele>2661.07</ele>
        <time>2012-09-28T09:00:19Z</time>
      </trkpt>
      <trkpt lat="46.01774" lon="6.98084">
        <ele>2664.43</ele>
        <time>2012-09-28T09:00:33Z</time>
      </trkpt>
      <trkpt lat="46.01773" lon="6.98084">
        <ele>2664.43</ele>
        <time>2012-09-28T09:00:34Z</time>
      </trkpt>
      <trkpt lat="46.01767" lon="6.98082">
        <ele>2668.76</ele>
        <time>2012-09-28T09:00:44Z</time>
      </trkpt>
      <trkpt lat="46.01763" lon="6.98081">
        <ele>2670.68</ele>
        <time>2012-09-28T09:00:56Z</time>
      </trkpt>
      <trkpt lat="46.01763" lon="6.98082">
        <ele>2670.2</ele>
        <time>2012-09-28T09:01:04Z</time>
      </trkpt>
      <trkpt lat="46.01759" lon="6.9808">
        <ele>2670.2</ele>
        <time>2012-09-28T09:01:14Z</time>
      </trkpt>
      <trkpt lat="46.01754" lon="6.98082">
        <ele>2671.16</ele>
        <time>2012-09-28T09:01:25Z</time>
      </trkpt>
      <trkpt lat="46.01751" lon="6.98081">
        <ele>2670.68</ele>
        <time>2012-09-28T09:01:36Z</time>
      </trkpt>
      <trkpt lat="46.01748" lon="6.98082">
        <ele>2671.64</ele>
        <time>2012-09-28T09:01:50Z</time>
      </trkpt>
      <trkpt lat="46.01744" lon="6.98083">
        <ele>2671.64</ele>
        <time>2012-09-28T09:02:02Z</time>
      </trkpt>
      <trkpt lat="46.01743" lon="6.98086">
        <ele>2670.2</ele>
        <time>2012-09-28T09:02:11Z</time>
      </trkpt>
      <trkpt lat="46.0174" lon="6.98087">
        <ele>2670.68</ele>
        <time>2012-09-28T09:02:14Z</time>
      </trkpt>
      <trkpt lat="46.01735" lon="6.98086">
        <ele>2672.12</ele>
        <time>2012-09-28T09:02:20Z</time>
      </trkpt>
      <trkpt lat="46.01725" lon="6.9809">
        <ele>2671.64</ele>
        <time>2012-09-28T09:02:31Z</time>
      </trkpt>
      <trkpt lat="46.01721" lon="6.98092">
        <ele>2671.64</ele>
        <time>2012-09-28T09:02:43Z</time>
      </trkpt>
      <trkpt lat="46.01717" lon="6.98093">
        <ele>2672.12</ele>
        <time>2012-09-28T09:02:53Z</time>
      </trkpt>
      <trkpt lat="46.01712" lon="6.98095">
        <ele>2674.04</ele>
        <time>2012-09-28T09:03:07Z</time>
      </trkpt>
      <trkpt lat="46.01708" lon="6.98096">
        <ele>2674.04</ele>
        <time>2012-09-28T09:03:18Z</time>
      </trkpt>
      <trkpt lat="46.01705" lon="6.98097">
        <ele>2672.12</ele>
        <time>2012-09-28T09:03:29Z</time>
      </trkpt>
      <trkpt lat="46.01696" lon="6.98099">
        <ele>2670.68</ele>
        <time>2012-09-28T09:03:40Z</time>
      </trkpt>
      <trkpt lat="46.01695" lon="6.981">
        <ele>2670.68</ele>
        <time>2012-09-28T09:03:42Z</time>
      </trkpt>
      <trkpt lat="46.0169" lon="6.98106">
        <ele>2670.68</ele>
        <time>2012-09-28T09:03:54Z</time>
      </trkpt>
      <trkpt lat="46.01691" lon="6.98104">
        <ele>2670.68</ele>
        <time>2012-09-28T09:04:08Z</time>
      </trkpt>
      <trkpt lat="46.0169" lon="6.98105">
        <ele>2671.16</ele>
        <time>2012-09-28T09:04:36Z</time>
      </trkpt>
      <trkpt lat="46.01689" lon="6.98109">
        <ele>2670.2</ele>
        <time>2012-09-28T09:04:49Z</time>
      </trkpt>
      <trkpt lat="46.01686" lon="6.98113">
        <ele>2668.28</ele>
        <time>2012-09-28T09:05:01Z</time>
      </trkpt>
      <trkpt lat="46.01684" lon="6.98118">
        <ele>2667.8</ele>
        <time>2012-09-28T09:05:14Z</time>
      </trkpt>
      <trkpt lat="46.01683" lon="6.98123">
        <ele>2665.39</ele>
        <time>2012-09-28T09:05:28Z</time>
      </trkpt>
      <trkpt lat="46.01683" lon="6.98123">
        <ele>2665.39</ele>
        <time>2012-09-28T09:05:29Z</time>
      </trkpt>
      <trkpt lat="46.01679" lon="6.98131">
        <ele>2663.95</ele>
        <time>2012-09-28T09:05:40Z</time>
      </trkpt>
      <trkpt lat="46.01679" lon="6.98133">
        <ele>2662.99</ele>
        <time>2012-09-28T09:05:44Z</time>
      </trkpt>
      <trkpt lat="46.01672" lon="6.98136">
        <ele>2662.03</ele>
        <time>2012-09-28T09:05:51Z</time>
      </trkpt>
      <trkpt lat="46.01667" lon="6.98141">
        <ele>2662.03</ele>
        <time>2012-09-28T09:06:01Z</time>
      </trkpt>
      <trkpt lat="46.01665" lon="6.98146">
        <ele>2659.62</ele>
        <time>2012-09-28T09:06:15Z</time>
      </trkpt>
      <trkpt lat="46.01659" lon="6.98149">
        <ele>2660.11</ele>
        <time>2012-09-28T09:06:28Z</time>
      </trkpt>
      <trkpt lat="46.01656" lon="6.98152">
        <ele>2661.07</ele>
        <time>2012-09-28T09:06:38Z</time>
      </trkpt>
      <trkpt lat="46.01649" lon="6.98154">
        <ele>2662.03</ele>
        <time>2012-09-28T09:06:51Z</time>
      </trkpt>
      <trkpt lat="46.01643" lon="6.98158">
        <ele>2663.95</ele>
        <time>2012-09-28T09:07:01Z</time>
      </trkpt>
      <trkpt lat="46.01642" lon="6.98159">
        <ele>2664.43</ele>
        <time>2012-09-28T09:07:03Z</time>
      </trkpt>
      <trkpt lat="46.01638" lon="6.98161">
        <ele>2665.39</ele>
        <time>2012-09-28T09:07:14Z</time>
      </trkpt>
      <trkpt lat="46.01636" lon="6.98161">
        <ele>2666.35</ele>
        <time>2012-09-28T09:07:24Z</time>
      </trkpt>
      <trkpt lat="46.01633" lon="6.98164">
        <ele>2667.31</ele>
        <time>2012-09-28T09:07:34Z</time>
      </trkpt>
      <trkpt lat="46.01629" lon="6.98169">
        <ele>2666.83</ele>
        <time>2012-09-28T09:07:44Z</time>
      </trkpt>
      <trkpt lat="46.01627" lon="6.9817">
        <ele>2667.31</ele>
        <time>2012-09-28T09:07:46Z</time>
      </trkpt>
      <trkpt lat="46.01622" lon="6.98172">
        <ele>2667.31</ele>
        <time>2012-09-28T09:07:58Z</time>
      </trkpt>
      <trkpt lat="46.0162" lon="6.98176">
        <ele>2669.72</ele>
        <time>2012-09-28T09:08:09Z</time>
      </trkpt>
      <trkpt lat="46.01618" lon="6.9818">
        <ele>2672.12</ele>
        <time>2012-09-28T09:08:22Z</time>
      </trkpt>
      <trkpt lat="46.01612" lon="6.98182">
        <ele>2674.52</ele>
        <time>2012-09-28T09:08:35Z</time>
      </trkpt>
      <trkpt lat="46.01608" lon="6.98183">
        <ele>2675.49</ele>
        <time>2012-09-28T09:08:46Z</time>
      </trkpt>
      <trkpt lat="46.01604" lon="6.98187">
        <ele>2677.41</ele>
        <time>2012-09-28T09:08:59Z</time>
      </trkpt>
      <trkpt lat="46.01604" lon="6.98189">
        <ele>2678.37</ele>
        <time>2012-09-28T09:09:12Z</time>
      </trkpt>
      <trkpt lat="46.01603" lon="6.98186">
        <ele>2676.93</ele>
        <time>2012-09-28T09:09:25Z</time>
      </trkpt>
      <trkpt lat="46.01601" lon="6.98189">
        <ele>2674.52</ele>
        <time>2012-09-28T09:09:42Z</time>
      </trkpt>
      <trkpt lat="46.01601" lon="6.9819">
        <ele>2675.01</ele>
        <time>2012-09-28T09:10:00Z</time>
      </trkpt>
      <trkpt lat="46.01601" lon="6.98192">
        <ele>2674.04</ele>
        <time>2012-09-28T09:10:21Z</time>
      </trkpt>
      <trkpt lat="46.016" lon="6.98195">
        <ele>2672.6</ele>
        <time>2012-09-28T09:10:39Z</time>
      </trkpt>
      <trkpt lat="46.016" lon="6.98194">
        <ele>2671.64</ele>
        <time>2012-09-28T09:10:59Z</time>
      </trkpt>
      <trkpt lat="46.01599" lon="6.98195">
        <ele>2672.12</ele>
        <time>2012-09-28T09:11:13Z</time>
      </trkpt>
      <trkpt lat="46.01598" lon="6.98195">
        <ele>2671.64</ele>
        <time>2012-09-28T09:11:30Z</time>
      </trkpt>
      <trkpt lat="46.01597" lon="6.98195">
        <ele>2672.12</ele>
        <time>2012-09-28T09:11:43Z</time>
      </trkpt>
      <trkpt lat="46.01595" lon="6.98196">
        <ele>2673.08</ele>
        <time>2012-09-28T09:11:58Z</time>
      </trkpt>
      <trkpt lat="46.01595" lon="6.98196">
        <ele>2673.56</ele>
        <time>2012-09-28T09:12:12Z</time>
      </trkpt>
      <trkpt lat="46.01595" lon="6.98197">
        <ele>2675.01</ele>
        <time>2012-09-28T09:12:30Z</time>
      </trkpt>
      <trkpt lat="46.01593" lon="6.98196">
        <ele>2675.49</ele>
        <time>2012-09-28T09:12:42Z</time>
      </trkpt>
      <trkpt lat="46.01592" lon="6.98198">
        <ele>2676.45</ele>
        <time>2012-09-28T09:13:00Z</time>
      </trkpt>
      <trkpt lat="46.01593" lon="6.982">
        <ele>2676.93</ele>
        <time>2012-09-28T09:13:16Z</time>
      </trkpt>
      <trkpt lat="46.01593" lon="6.98201">
        <ele>2678.37</ele>
        <time>2012-09-28T09:13:28Z</time>
      </trkpt>
      <trkpt lat="46.01591" lon="6.98203">
        <ele>2681.25</ele>
        <time>2012-09-28T09:13:42Z</time>
      </trkpt>
      <trkpt lat="46.01589" lon="6.98201">
        <ele>2681.25</ele>
        <time>2012-09-28T09:14:02Z</time>
      </trkpt>
      <trkpt lat="46.01588" lon="6.98206">
        <ele>2681.25</ele>
        <time>2012-09-28T09:14:14Z</time>
      </trkpt>
      <trkpt lat="46.01585" lon="6.98209">
        <ele>2679.81</ele>
        <time>2012-09-28T09:14:26Z</time>
      </trkpt>
      <trkpt lat="46.01582" lon="6.98213">
        <ele>2679.33</ele>
        <time>2012-09-28T09:14:43Z</time>
      </trkpt>
      <trkpt lat="46.01581" lon="6.98216">
        <ele>2677.41</ele>
        <time>2012-09-28T09:14:56Z</time>
      </trkpt>
      <trkpt lat="46.01579" lon="6.98216">
        <ele>2679.81</ele>
        <time>2012-09-28T09:15:07Z</time>
      </trkpt>
      <trkpt lat="46.01578" lon="6.98219">
        <ele>2680.77</ele>
        <time>2012-09-28T09:15:19Z</time>
      </trkpt>
      <trkpt lat="46.01576" lon="6.98218">
        <ele>2682.22</ele>
        <time>2012-09-28T09:15:33Z</time>
      </trkpt>
      <trkpt lat="46.01575" lon="6.98221">
        <ele>2682.7</ele>
        <time>2012-09-28T09:15:48Z</time>
      </trkpt>
      <trkpt lat="46.01573" lon="6.9822">
        <ele>2684.62</ele>
        <time>2012-09-28T09:16:04Z</time>
      </trkpt>
      <trkpt lat="46.0157" lon="6.9822">
        <ele>2686.54</ele>
        <time>2012-09-28T09:16:09Z</time>
      </trkpt>
      <trkpt lat="46.01569" lon="6.98222">
        <ele>2687.5</ele>
        <time>2012-09-28T09:16:21Z</time>
      </trkpt>
      <trkpt lat="46.01567" lon="6.9822">
        <ele>2688.46</ele>
        <time>2012-09-28T09:16:33Z</time>
      </trkpt>
      <trkpt lat="46.01567" lon="6.9822">
        <ele>2688.94</ele>
        <time>2012-09-28T09:16:45Z</time>
      </trkpt>
      <trkpt lat="46.01559" lon="6.98224">
        <ele>2691.35</ele>
        <time>2012-09-28T09:16:59Z</time>
      </trkpt>
      <trkpt lat="46.01555" lon="6.98226">
        <ele>2693.27</ele>
        <time>2012-09-28T09:17:12Z</time>
      </trkpt>
      <trkpt lat="46.01552" lon="6.98227">
        <ele>2694.23</ele>
        <time>2012-09-28T09:17:27Z</time>
      </trkpt>
      <trkpt lat="46.0155" lon="6.98227">
        <ele>2695.67</ele>
        <time>2012-09-28T09:17:37Z</time>
      </trkpt>
      <trkpt lat="46.01548" lon="6.9823">
        <ele>2696.64</ele>
        <time>2012-09-28T09:17:49Z</time>
      </trkpt>
      <trkpt lat="46.01546" lon="6.98234">
        <ele>2696.64</ele>
        <time>2012-09-28T09:18:04Z</time>
      </trkpt>
      <trkpt lat="46.01544" lon="6.98233">
        <ele>2697.12</ele>
        <time>2012-09-28T09:18:19Z</time>
      </trkpt>
      <trkpt lat="46.01543" lon="6.98232">
        <ele>2697.6</ele>
        <time>2012-09-28T09:18:45Z</time>
      </trkpt>
      <trkpt lat="46.01544" lon="6.98233">
        <ele>2697.6</ele>
        <time>2012-09-28T09:19:08Z</time>
      </trkpt>
      <trkpt lat="46.01545" lon="6.98237">
        <ele>2696.64</ele>
        <time>2012-09-28T09:19:20Z</time>
      </trkpt>
      <trkpt lat="46.01542" lon="6.9824">
        <ele>2696.15</ele>
        <time>2012-09-28T09:19:24Z</time>
      </trkpt>
      <trkpt lat="46.01541" lon="6.98241">
        <ele>2695.67</ele>
        <time>2012-09-28T09:19:26Z</time>
      </trkpt>
      <trkpt lat="46.01537" lon="6.98242">
        <ele>2695.67</ele>
        <time>2012-09-28T09:19:40Z</time>
      </trkpt>
      <trkpt lat="46.01533" lon="6.98241">
        <ele>2696.15</ele>
        <time>2012-09-28T09:19:50Z</time>
      </trkpt>
      <trkpt lat="46.01528" lon="6.98241">
        <ele>2698.08</ele>
        <time>2012-09-28T09:20:01Z</time>
      </trkpt>
      <trkpt lat="46.01528" lon="6.98243">
        <ele>2698.08</ele>
        <time>2012-09-28T09:20:16Z</time>
      </trkpt>
      <trkpt lat="46.01527" lon="6.98245">
        <ele>2697.12</ele>
        <time>2012-09-28T09:20:23Z</time>
      </trkpt>
      <trkpt lat="46.01523" lon="6.98244">
        <ele>2697.12</ele>
        <time>2012-09-28T09:20:36Z</time>
      </trkpt>
      <trkpt lat="46.01521" lon="6.98243">
        <ele>2696.64</ele>
        <time>2012-09-28T09:20:39Z</time>
      </trkpt>
      <trkpt lat="46.01519" lon="6.98242">
        <ele>2696.15</ele>
        <time>2012-09-28T09:20:41Z</time>
      </trkpt>
      <trkpt lat="46.01518" lon="6.98239">
        <ele>2698.08</ele>
        <time>2012-09-28T09:20:53Z</time>
      </trkpt>
      <trkpt lat="46.01516" lon="6.98241">
        <ele>2699.04</ele>
        <time>2012-09-28T09:20:56Z</time>
      </trkpt>
      <trkpt lat="46.01512" lon="6.9824">
        <ele>2698.08</ele>
        <time>2012-09-28T09:21:08Z</time>
      </trkpt>
      <trkpt lat="46.01509" lon="6.9824">
        <ele>2696.64</ele>
        <time>2012-09-28T09:21:19Z</time>
      </trkpt>
      <trkpt lat="46.01508" lon="6.9824">
        <ele>2697.12</ele>
        <time>2012-09-28T09:21:21Z</time>
      </trkpt>
      <trkpt lat="46.01504" lon="6.98243">
        <ele>2697.6</ele>
        <time>2012-09-28T09:21:33Z</time>
      </trkpt>
      <trkpt lat="46.01502" lon="6.98249">
        <ele>2695.67</ele>
        <time>2012-09-28T09:21:44Z</time>
      </trkpt>
      <trkpt lat="46.01495" lon="6.98246">
        <ele>2698.56</ele>
        <time>2012-09-28T09:21:55Z</time>
      </trkpt>
      <trkpt lat="46.01494" lon="6.98247">
        <ele>2699.52</ele>
        <time>2012-09-28T09:22:08Z</time>
      </trkpt>
      <trkpt lat="46.01491" lon="6.98249">
        <ele>2698.56</ele>
        <time>2012-09-28T09:22:18Z</time>
      </trkpt>
      <trkpt lat="46.01489" lon="6.98251">
        <ele>2698.56</ele>
        <time>2012-09-28T09:22:29Z</time>
      </trkpt>
      <trkpt lat="46.01486" lon="6.98249">
        <ele>2700.96</ele>
        <time>2012-09-28T09:22:39Z</time>
      </trkpt>
      <trkpt lat="46.0148" lon="6.98251">
        <ele>2701.44</ele>
        <time>2012-09-28T09:22:51Z</time>
      </trkpt>
      <trkpt lat="46.01478" lon="6.98251">
        <ele>2700.96</ele>
        <time>2012-09-28T09:22:54Z</time>
      </trkpt>
      <trkpt lat="46.01474" lon="6.98253">
        <ele>2700.48</ele>
        <time>2012-09-28T09:23:05Z</time>
      </trkpt>
      <trkpt lat="46.01472" lon="6.98254">
        <ele>2700</ele>
        <time>2012-09-28T09:23:11Z</time>
      </trkpt>
      <trkpt lat="46.01469" lon="6.98255">
        <ele>2699.04</ele>
        <time>2012-09-28T09:23:15Z</time>
      </trkpt>
      <trkpt lat="46.01463" lon="6.98257">
        <ele>2701.92</ele>
        <time>2012-09-28T09:23:28Z</time>
      </trkpt>
      <trkpt lat="46.0146" lon="6.98259">
        <ele>2703.36</ele>
        <time>2012-09-28T09:23:38Z</time>
      </trkpt>
      <trkpt lat="46.0146" lon="6.98256">
        <ele>2704.81</ele>
        <time>2012-09-28T09:23:50Z</time>
      </trkpt>
      <trkpt lat="46.0146" lon="6.98255">
        <ele>2704.33</ele>
        <time>2012-09-28T09:23:53Z</time>
      </trkpt>
      <trkpt lat="46.01456" lon="6.98256">
        <ele>2705.77</ele>
        <time>2012-09-28T09:23:59Z</time>
      </trkpt>
      <trkpt lat="46.01454" lon="6.98258">
        <ele>2705.29</ele>
        <time>2012-09-28T09:24:03Z</time>
      </trkpt>
      <trkpt lat="46.01447" lon="6.98257">
        <ele>2704.81</ele>
        <time>2012-09-28T09:24:15Z</time>
      </trkpt>
      <trkpt lat="46.01442" lon="6.9826">
        <ele>2705.77</ele>
        <time>2012-09-28T09:24:26Z</time>
      </trkpt>
      <trkpt lat="46.01441" lon="6.98258">
        <ele>2706.25</ele>
        <time>2012-09-28T09:24:28Z</time>
      </trkpt>
      <trkpt lat="46.0144" lon="6.98259">
        <ele>2706.25</ele>
        <time>2012-09-28T09:24:30Z</time>
      </trkpt>
      <trkpt lat="46.01436" lon="6.98259">
        <ele>2705.77</ele>
        <time>2012-09-28T09:24:35Z</time>
      </trkpt>
      <trkpt lat="46.01429" lon="6.9826">
        <ele>2705.77</ele>
        <time>2012-09-28T09:24:42Z</time>
      </trkpt>
      <trkpt lat="46.01426" lon="6.98262">
        <ele>2705.77</ele>
        <time>2012-09-28T09:24:47Z</time>
      </trkpt>
      <trkpt lat="46.01421" lon="6.9826">
        <ele>2707.21</ele>
        <time>2012-09-28T09:24:55Z</time>
      </trkpt>
      <trkpt lat="46.01414" lon="6.98261">
        <ele>2709.13</ele>
        <time>2012-09-28T09:25:07Z</time>
      </trkpt>
      <trkpt lat="46.01414" lon="6.98261">
        <ele>2709.13</ele>
        <time>2012-09-28T09:25:18Z</time>
      </trkpt>
      <trkpt lat="46.01414" lon="6.98261">
        <ele>2709.13</ele>
        <time>2012-09-28T09:25:37Z</time>
      </trkpt>
      <trkpt lat="46.01412" lon="6.9826">
        <ele>2708.17</ele>
        <time>2012-09-28T09:25:52Z</time>
      </trkpt>
      <trkpt lat="46.01413" lon="6.9826">
        <ele>2708.17</ele>
        <time>2012-09-28T09:26:12Z</time>
      </trkpt>
      <trkpt lat="46.01413" lon="6.98261">
        <ele>2708.65</ele>
        <time>2012-09-28T09:26:31Z</time>
      </trkpt>
      <trkpt lat="46.01415" lon="6.98261">
        <ele>2709.61</ele>
        <time>2012-09-28T09:26:54Z</time>
      </trkpt>
      <trkpt lat="46.01414" lon="6.98261">
        <ele>2710.09</ele>
        <time>2012-09-28T09:27:05Z</time>
      </trkpt>
      <trkpt lat="46.01415" lon="6.98262">
        <ele>2710.57</ele>
        <time>2012-09-28T09:27:23Z</time>
      </trkpt>
      <trkpt lat="46.01413" lon="6.98262">
        <ele>2711.54</ele>
        <time>2012-09-28T09:27:47Z</time>
      </trkpt>
      <trkpt lat="46.01411" lon="6.9826">
        <ele>2712.02</ele>
        <time>2012-09-28T09:27:55Z</time>
      </trkpt>
      <trkpt lat="46.01407" lon="6.98263">
        <ele>2712.98</ele>
        <time>2012-09-28T09:28:07Z</time>
      </trkpt>
      <trkpt lat="46.01405" lon="6.98263">
        <ele>2714.9</ele>
        <time>2012-09-28T09:28:19Z</time>
      </trkpt>
      <trkpt lat="46.01403" lon="6.98264">
        <ele>2714.42</ele>
        <time>2012-09-28T09:28:26Z</time>
      </trkpt>
      <trkpt lat="46.014" lon="6.98266">
        <ele>2715.86</ele>
        <time>2012-09-28T09:28:35Z</time>
      </trkpt>
      <trkpt lat="46.01394" lon="6.98268">
        <ele>2717.3</ele>
        <time>2012-09-28T09:28:46Z</time>
      </trkpt>
      <trkpt lat="46.01389" lon="6.98268">
        <ele>2719.71</ele>
        <time>2012-09-28T09:28:57Z</time>
      </trkpt>
      <trkpt lat="46.01387" lon="6.98274">
        <ele>2718.75</ele>
        <time>2012-09-28T09:29:14Z</time>
      </trkpt>
      <trkpt lat="46.01382" lon="6.98283">
        <ele>2719.71</ele>
        <time>2012-09-28T09:29:27Z</time>
      </trkpt>
      <trkpt lat="46.01375" lon="6.98287">
        <ele>2721.63</ele>
        <time>2012-09-28T09:29:38Z</time>
      </trkpt>
      <trkpt lat="46.01373" lon="6.98293">
        <ele>2722.11</ele>
        <time>2012-09-28T09:29:49Z</time>
      </trkpt>
      <trkpt lat="46.01371" lon="6.98296">
        <ele>2722.11</ele>
        <time>2012-09-28T09:29:58Z</time>
      </trkpt>
      <trkpt lat="46.01368" lon="6.98299">
        <ele>2722.11</ele>
        <time>2012-09-28T09:30:09Z</time>
      </trkpt>
      <trkpt lat="46.01364" lon="6.98304">
        <ele>2722.11</ele>
        <time>2012-09-28T09:30:19Z</time>
      </trkpt>
      <trkpt lat="46.0136" lon="6.98301">
        <ele>2725.48</ele>
        <time>2012-09-28T09:30:29Z</time>
      </trkpt>
      <trkpt lat="46.01355" lon="6.98303">
        <ele>2726.44</ele>
        <time>2012-09-28T09:30:40Z</time>
      </trkpt>
      <trkpt lat="46.01354" lon="6.98305">
        <ele>2726.44</ele>
        <time>2012-09-28T09:30:43Z</time>
      </trkpt>
      <trkpt lat="46.01348" lon="6.98307">
        <ele>2728.36</ele>
        <time>2012-09-28T09:30:56Z</time>
      </trkpt>
      <trkpt lat="46.01344" lon="6.98308">
        <ele>2730.76</ele>
        <time>2012-09-28T09:31:08Z</time>
      </trkpt>
      <trkpt lat="46.01342" lon="6.98309">
        <ele>2731.24</ele>
        <time>2012-09-28T09:31:24Z</time>
      </trkpt>
      <trkpt lat="46.01339" lon="6.9831">
        <ele>2732.68</ele>
        <time>2012-09-28T09:31:30Z</time>
      </trkpt>
      <trkpt lat="46.01336" lon="6.98311">
        <ele>2733.17</ele>
        <time>2012-09-28T09:31:41Z</time>
      </trkpt>
      <trkpt lat="46.01332" lon="6.98309">
        <ele>2735.09</ele>
        <time>2012-09-28T09:31:50Z</time>
      </trkpt>
      <trkpt lat="46.01325" lon="6.98309">
        <ele>2736.05</ele>
        <time>2012-09-28T09:31:59Z</time>
      </trkpt>
      <trkpt lat="46.0132" lon="6.98311">
        <ele>2737.01</ele>
        <time>2012-09-28T09:32:10Z</time>
      </trkpt>
      <trkpt lat="46.0132" lon="6.98311">
        <ele>2737.49</ele>
        <time>2012-09-28T09:32:11Z</time>
      </trkpt>
      <trkpt lat="46.01318" lon="6.98313">
        <ele>2737.97</ele>
        <time>2012-09-28T09:32:22Z</time>
      </trkpt>
      <trkpt lat="46.01319" lon="6.98316">
        <ele>2737.97</ele>
        <time>2012-09-28T09:32:35Z</time>
      </trkpt>
      <trkpt lat="46.01321" lon="6.98318">
        <ele>2739.89</ele>
        <time>2012-09-28T09:32:48Z</time>
      </trkpt>
      <trkpt lat="46.01319" lon="6.98321">
        <ele>2741.82</ele>
        <time>2012-09-28T09:32:53Z</time>
      </trkpt>
      <trkpt lat="46.01318" lon="6.9832">
        <ele>2743.26</ele>
        <time>2012-09-28T09:33:05Z</time>
      </trkpt>
      <trkpt lat="46.01317" lon="6.9832">
        <ele>2745.18</ele>
        <time>2012-09-28T09:33:19Z</time>
      </trkpt>
      <trkpt lat="46.01315" lon="6.98322">
        <ele>2746.14</ele>
        <time>2012-09-28T09:33:30Z</time>
      </trkpt>
      <trkpt lat="46.01314" lon="6.98325">
        <ele>2746.14</ele>
        <time>2012-09-28T09:33:42Z</time>
      </trkpt>
      <trkpt lat="46.01313" lon="6.98328">
        <ele>2745.66</ele>
        <time>2012-09-28T09:33:58Z</time>
      </trkpt>
      <trkpt lat="46.01311" lon="6.98329">
        <ele>2746.62</ele>
        <time>2012-09-28T09:34:08Z</time>
      </trkpt>
      <trkpt lat="46.01309" lon="6.98331">
        <ele>2747.1</ele>
        <time>2012-09-28T09:34:20Z</time>
      </trkpt>
      <trkpt lat="46.01306" lon="6.98332">
        <ele>2748.07</ele>
        <time>2012-09-28T09:34:32Z</time>
      </trkpt>
      <trkpt lat="46.01305" lon="6.98333">
        <ele>2749.03</ele>
        <time>2012-09-28T09:34:43Z</time>
      </trkpt>
      <trkpt lat="46.01304" lon="6.98334">
        <ele>2749.51</ele>
        <time>2012-09-28T09:34:54Z</time>
      </trkpt>
      <trkpt lat="46.01302" lon="6.98334">
        <ele>2750.47</ele>
        <time>2012-09-28T09:35:04Z</time>
      </trkpt>
      <trkpt lat="46.01299" lon="6.98335">
        <ele>2749.99</ele>
        <time>2012-09-28T09:35:15Z</time>
      </trkpt>
      <trkpt lat="46.01298" lon="6.98336">
        <ele>2751.43</ele>
        <time>2012-09-28T09:35:27Z</time>
      </trkpt>
      <trkpt lat="46.01295" lon="6.9834">
        <ele>2752.87</ele>
        <time>2012-09-28T09:35:38Z</time>
      </trkpt>
      <trkpt lat="46.01289" lon="6.98344">
        <ele>2753.35</ele>
        <time>2012-09-28T09:35:51Z</time>
      </trkpt>
      <trkpt lat="46.01287" lon="6.98346">
        <ele>2753.83</ele>
        <time>2012-09-28T09:36:05Z</time>
      </trkpt>
      <trkpt lat="46.01285" lon="6.98349">
        <ele>2754.8</ele>
        <time>2012-09-28T09:36:12Z</time>
      </trkpt>
      <trkpt lat="46.01282" lon="6.98349">
        <ele>2757.2</ele>
        <time>2012-09-28T09:36:26Z</time>
      </trkpt>
      <trkpt lat="46.01278" lon="6.98351">
        <ele>2756.72</ele>
        <time>2012-09-28T09:36:33Z</time>
      </trkpt>
      <trkpt lat="46.0127" lon="6.98354">
        <ele>2758.64</ele>
        <time>2012-09-28T09:36:45Z</time>
      </trkpt>
      <trkpt lat="46.01262" lon="6.98356">
        <ele>2759.6</ele>
        <time>2012-09-28T09:36:56Z</time>
      </trkpt>
      <trkpt lat="46.01258" lon="6.98356">
        <ele>2760.08</ele>
        <time>2012-09-28T09:37:01Z</time>
      </trkpt>
      <trkpt lat="46.01249" lon="6.98357">
        <ele>2759.6</ele>
        <time>2012-09-28T09:37:15Z</time>
      </trkpt>
      <trkpt lat="46.01251" lon="6.98356">
        <ele>2761.04</ele>
        <time>2012-09-28T09:37:34Z</time>
      </trkpt>
      <trkpt lat="46.01252" lon="6.98357">
        <ele>2760.08</ele>
        <time>2012-09-28T09:38:01Z</time>
      </trkpt>
      <trkpt lat="46.01253" lon="6.98358">
        <ele>2759.6</ele>
        <time>2012-09-28T09:38:03Z</time>
      </trkpt>
      <trkpt lat="46.01256" lon="6.98357">
        <ele>2758.16</ele>
        <time>2012-09-28T09:38:16Z</time>
      </trkpt>
      <trkpt lat="46.01259" lon="6.98358">
        <ele>2758.64</ele>
        <time>2012-09-28T09:38:36Z</time>
      </trkpt>
      <trkpt lat="46.0126" lon="6.98358">
        <ele>2758.64</ele>
        <time>2012-09-28T09:38:53Z</time>
      </trkpt>
      <trkpt lat="46.01263" lon="6.98355">
        <ele>2759.6</ele>
        <time>2012-09-28T09:39:06Z</time>
      </trkpt>
      <trkpt lat="46.01263" lon="6.98357">
        <ele>2759.6</ele>
        <time>2012-09-28T09:39:23Z</time>
      </trkpt>
      <trkpt lat="46.01262" lon="6.98356">
        <ele>2760.56</ele>
        <time>2012-09-28T09:39:48Z</time>
      </trkpt>
      <trkpt lat="46.0126" lon="6.98355">
        <ele>2759.6</ele>
        <time>2012-09-28T09:40:16Z</time>
      </trkpt>
      <trkpt lat="46.0126" lon="6.98356">
        <ele>2760.08</ele>
        <time>2012-09-28T09:40:43Z</time>
      </trkpt>
      <trkpt lat="46.01258" lon="6.98357">
        <ele>2761.04</ele>
        <time>2012-09-28T09:40:52Z</time>
      </trkpt>
      <trkpt lat="46.01252" lon="6.98357">
        <ele>2761.52</ele>
        <time>2012-09-28T09:40:59Z</time>
      </trkpt>
      <trkpt lat="46.01252" lon="6.98357">
        <ele>2762</ele>
        <time>2012-09-28T09:41:00Z</time>
      </trkpt>
      <trkpt lat="46.01248" lon="6.98359">
        <ele>2761.04</ele>
        <time>2012-09-28T09:41:04Z</time>
      </trkpt>
      <trkpt lat="46.01243" lon="6.98359">
        <ele>2761.04</ele>
        <time>2012-09-28T09:41:09Z</time>
      </trkpt>
      <trkpt lat="46.01238" lon="6.98359">
        <ele>2760.56</ele>
        <time>2012-09-28T09:41:14Z</time>
      </trkpt>
      <trkpt lat="46.01233" lon="6.98359">
        <ele>2762</ele>
        <time>2012-09-28T09:41:19Z</time>
      </trkpt>
      <trkpt lat="46.0123" lon="6.98358">
        <ele>2761.52</ele>
        <time>2012-09-28T09:41:23Z</time>
      </trkpt>
      <trkpt lat="46.01224" lon="6.98359">
        <ele>2761.52</ele>
        <time>2012-09-28T09:41:27Z</time>
      </trkpt>
      <trkpt lat="46.01217" lon="6.98355">
        <ele>2762.49</ele>
        <time>2012-09-28T09:41:33Z</time>
      </trkpt>
      <trkpt lat="46.01212" lon="6.98353">
        <ele>2762</ele>
        <time>2012-09-28T09:41:37Z</time>
      </trkpt>
      <trkpt lat="46.01206" lon="6.98351">
        <ele>2762.97</ele>
        <time>2012-09-28T09:41:48Z</time>
      </trkpt>
      <trkpt lat="46.01206" lon="6.98353">
        <ele>2762</ele>
        <time>2012-09-28T09:41:52Z</time>
      </trkpt>
      <trkpt lat="46.01202" lon="6.98358">
        <ele>2762.97</ele>
        <time>2012-09-28T09:42:02Z</time>
      </trkpt>
      <trkpt lat="46.012" lon="6.98358">
        <ele>2762.97</ele>
        <time>2012-09-28T09:42:04Z</time>
      </trkpt>
      <trkpt lat="46.0119" lon="6.98356">
        <ele>2762.97</ele>
        <time>2012-09-28T09:42:13Z</time>
      </trkpt>
      <trkpt lat="46.01181" lon="6.98354">
        <ele>2763.45</ele>
        <time>2012-09-28T09:42:26Z</time>
      </trkpt>
      <trkpt lat="46.01175" lon="6.98353">
        <ele>2762.97</ele>
        <time>2012-09-28T09:42:37Z</time>
      </trkpt>
      <trkpt lat="46.0116" lon="6.98336">
        <ele>2762.49</ele>
        <time>2012-09-28T09:42:50Z</time>
      </trkpt>
      <trkpt lat="46.01156" lon="6.98329">
        <ele>2763.45</ele>
        <time>2012-09-28T09:42:54Z</time>
      </trkpt>
      <trkpt lat="46.0115" lon="6.98324">
        <ele>2764.41</ele>
        <time>2012-09-28T09:43:03Z</time>
      </trkpt>
      <trkpt lat="46.01151" lon="6.98334">
        <ele>2762.49</ele>
        <time>2012-09-28T09:43:16Z</time>
      </trkpt>
      <trkpt lat="46.01148" lon="6.98337">
        <ele>2762.97</ele>
        <time>2012-09-28T09:43:22Z</time>
      </trkpt>
      <trkpt lat="46.01145" lon="6.98338">
        <ele>2763.93</ele>
        <time>2012-09-28T09:43:29Z</time>
      </trkpt>
      <trkpt lat="46.01143" lon="6.98333">
        <ele>2765.85</ele>
        <time>2012-09-28T09:43:40Z</time>
      </trkpt>
      <trkpt lat="46.01141" lon="6.9833">
        <ele>2768.25</ele>
        <time>2012-09-28T09:43:52Z</time>
      </trkpt>
      <trkpt lat="46.0114" lon="6.98328">
        <ele>2768.25</ele>
        <time>2012-09-28T09:43:56Z</time>
      </trkpt>
      <trkpt lat="46.01136" lon="6.98329">
        <ele>2768.73</ele>
        <time>2012-09-28T09:44:06Z</time>
      </trkpt>
      <trkpt lat="46.01134" lon="6.98333">
        <ele>2769.21</ele>
        <time>2012-09-28T09:44:15Z</time>
      </trkpt>
      <trkpt lat="46.01132" lon="6.98333">
        <ele>2769.21</ele>
        <time>2012-09-28T09:44:27Z</time>
      </trkpt>
      <trkpt lat="46.01132" lon="6.98333">
        <ele>2770.18</ele>
        <time>2012-09-28T09:45:00Z</time>
      </trkpt>
      <trkpt lat="46.01131" lon="6.98332">
        <ele>2770.18</ele>
        <time>2012-09-28T09:45:34Z</time>
      </trkpt>
      <trkpt lat="46.01127" lon="6.98334">
        <ele>2769.7</ele>
        <time>2012-09-28T09:45:46Z</time>
      </trkpt>
      <trkpt lat="46.01123" lon="6.98333">
        <ele>2769.7</ele>
        <time>2012-09-28T09:45:55Z</time>
      </trkpt>
      <trkpt lat="46.01118" lon="6.98338">
        <ele>2768.73</ele>
        <time>2012-09-28T09:46:06Z</time>
      </trkpt>
      <trkpt lat="46.01113" lon="6.98337">
        <ele>2770.18</ele>
        <time>2012-09-28T09:46:19Z</time>
      </trkpt>
      <trkpt lat="46.01112" lon="6.98339">
        <ele>2772.1</ele>
        <time>2012-09-28T09:46:30Z</time>
      </trkpt>
      <trkpt lat="46.01102" lon="6.98341">
        <ele>2774.02</ele>
        <time>2012-09-28T09:46:40Z</time>
      </trkpt>
      <trkpt lat="46.011" lon="6.9834">
        <ele>2774.5</ele>
        <time>2012-09-28T09:46:43Z</time>
      </trkpt>
      <trkpt lat="46.01087" lon="6.98336">
        <ele>2775.94</ele>
        <time>2012-09-28T09:46:56Z</time>
      </trkpt>
      <trkpt lat="46.01081" lon="6.98338">
        <ele>2776.42</ele>
        <time>2012-09-28T09:47:08Z</time>
      </trkpt>
      <trkpt lat="46.01077" lon="6.98337">
        <ele>2776.91</ele>
        <time>2012-09-28T09:47:21Z</time>
      </trkpt>
      <trkpt lat="46.01075" lon="6.98336">
        <ele>2777.39</ele>
        <time>2012-09-28T09:47:39Z</time>
      </trkpt>
      <trkpt lat="46.01069" lon="6.98339">
        <ele>2775.94</ele>
        <time>2012-09-28T09:47:51Z</time>
      </trkpt>
      <trkpt lat="46.01065" lon="6.9834">
        <ele>2774.02</ele>
        <time>2012-09-28T09:48:04Z</time>
      </trkpt>
      <trkpt lat="46.01063" lon="6.98344">
        <ele>2771.62</ele>
        <time>2012-09-28T09:48:16Z</time>
      </trkpt>
      <trkpt lat="46.01062" lon="6.98343">
        <ele>2771.14</ele>
        <time>2012-09-28T09:48:27Z</time>
      </trkpt>
      <trkpt lat="46.01062" lon="6.98344">
        <ele>2770.66</ele>
        <time>2012-09-28T09:48:34Z</time>
      </trkpt>
      <trkpt lat="46.01061" lon="6.98346">
        <ele>2771.14</ele>
        <time>2012-09-28T09:48:36Z</time>
      </trkpt>
      <trkpt lat="46.01054" lon="6.98348">
        <ele>2770.18</ele>
        <time>2012-09-28T09:48:45Z</time>
      </trkpt>
      <trkpt lat="46.01052" lon="6.98344">
        <ele>2771.62</ele>
        <time>2012-09-28T09:48:49Z</time>
      </trkpt>
      <trkpt lat="46.01047" lon="6.98341">
        <ele>2772.58</ele>
        <time>2012-09-28T09:48:54Z</time>
      </trkpt>
      <trkpt lat="46.0105" lon="6.98339">
        <ele>2772.1</ele>
        <time>2012-09-28T09:49:12Z</time>
      </trkpt>
      <trkpt lat="46.01051" lon="6.98339">
        <ele>2772.58</ele>
        <time>2012-09-28T09:49:27Z</time>
      </trkpt>
      <trkpt lat="46.0105" lon="6.98341">
        <ele>2772.58</ele>
        <time>2012-09-28T09:49:37Z</time>
      </trkpt>
      <trkpt lat="46.01047" lon="6.9834">
        <ele>2772.58</ele>
        <time>2012-09-28T09:49:42Z</time>
      </trkpt>
      <trkpt lat="46.01045" lon="6.9834">
        <ele>2773.54</ele>
        <time>2012-09-28T09:49:44Z</time>
      </trkpt>
      <trkpt lat="46.01037" lon="6.98338">
        <ele>2774.02</ele>
        <time>2012-09-28T09:49:54Z</time>
      </trkpt>
      <trkpt lat="46.01034" lon="6.98338">
        <ele>2775.46</ele>
        <time>2012-09-28T09:49:56Z</time>
      </trkpt>
      <trkpt lat="46.01032" lon="6.98337">
        <ele>2775.46</ele>
        <time>2012-09-28T09:49:58Z</time>
      </trkpt>
      <trkpt lat="46.01025" lon="6.98337">
        <ele>2775.94</ele>
        <time>2012-09-28T09:50:04Z</time>
      </trkpt>
      <trkpt lat="46.01022" lon="6.98338">
        <ele>2775.94</ele>
        <time>2012-09-28T09:50:09Z</time>
      </trkpt>
      <trkpt lat="46.01018" lon="6.98337">
        <ele>2776.42</ele>
        <time>2012-09-28T09:50:13Z</time>
      </trkpt>
      <trkpt lat="46.01015" lon="6.98339">
        <ele>2774.98</ele>
        <time>2012-09-28T09:50:27Z</time>
      </trkpt>
      <trkpt lat="46.01014" lon="6.9834">
        <ele>2775.46</ele>
        <time>2012-09-28T09:50:28Z</time>
      </trkpt>
      <trkpt lat="46.01012" lon="6.9834">
        <ele>2774.5</ele>
        <time>2012-09-28T09:50:32Z</time>
      </trkpt>
      <trkpt lat="46.01008" lon="6.98338">
        <ele>2774.5</ele>
        <time>2012-09-28T09:50:37Z</time>
      </trkpt>
      <trkpt lat="46.01003" lon="6.98339">
        <ele>2773.06</ele>
        <time>2012-09-28T09:50:41Z</time>
      </trkpt>
      <trkpt lat="46.00987" lon="6.98346">
        <ele>2772.58</ele>
        <time>2012-09-28T09:50:54Z</time>
      </trkpt>
      <trkpt lat="46.00985" lon="6.98349">
        <ele>2773.54</ele>
        <time>2012-09-28T09:50:56Z</time>
      </trkpt>
      <trkpt lat="46.00971" lon="6.98358">
        <ele>2774.5</ele>
        <time>2012-09-28T09:51:09Z</time>
      </trkpt>
      <trkpt lat="46.00959" lon="6.98372">
        <ele>2776.42</ele>
        <time>2012-09-28T09:51:24Z</time>
      </trkpt>
      <trkpt lat="46.00956" lon="6.98381">
        <ele>2778.35</ele>
        <time>2012-09-28T09:51:35Z</time>
      </trkpt>
      <trkpt lat="46.00954" lon="6.98388">
        <ele>2780.27</ele>
        <time>2012-09-28T09:51:42Z</time>
      </trkpt>
      <trkpt lat="46.00951" lon="6.9839">
        <ele>2781.23</ele>
        <time>2012-09-28T09:51:54Z</time>
      </trkpt>
      <trkpt lat="46.00948" lon="6.98398">
        <ele>2782.19</ele>
        <time>2012-09-28T09:52:04Z</time>
      </trkpt>
      <trkpt lat="46.00943" lon="6.98401">
        <ele>2784.12</ele>
        <time>2012-09-28T09:52:16Z</time>
      </trkpt>
      <trkpt lat="46.00939" lon="6.98403">
        <ele>2785.56</ele>
        <time>2012-09-28T09:52:28Z</time>
      </trkpt>
      <trkpt lat="46.00936" lon="6.98409">
        <ele>2787</ele>
        <time>2012-09-28T09:52:40Z</time>
      </trkpt>
      <trkpt lat="46.00933" lon="6.98411">
        <ele>2789.4</ele>
        <time>2012-09-28T09:52:51Z</time>
      </trkpt>
      <trkpt lat="46.00932" lon="6.98409">
        <ele>2789.88</ele>
        <time>2012-09-28T09:52:58Z</time>
      </trkpt>
      <trkpt lat="46.00927" lon="6.98404">
        <ele>2790.84</ele>
        <time>2012-09-28T09:53:08Z</time>
      </trkpt>
      <trkpt lat="46.00925" lon="6.9841">
        <ele>2792.29</ele>
        <time>2012-09-28T09:53:19Z</time>
      </trkpt>
      <trkpt lat="46.00924" lon="6.9841">
        <ele>2792.29</ele>
        <time>2012-09-28T09:53:24Z</time>
      </trkpt>
      <trkpt lat="46.00919" lon="6.98412">
        <ele>2793.25</ele>
        <time>2012-09-28T09:53:35Z</time>
      </trkpt>
      <trkpt lat="46.00917" lon="6.98412">
        <ele>2793.73</ele>
        <time>2012-09-28T09:53:45Z</time>
      </trkpt>
      <trkpt lat="46.00915" lon="6.98415">
        <ele>2795.65</ele>
        <time>2012-09-28T09:54:00Z</time>
      </trkpt>
      <trkpt lat="46.00914" lon="6.98415">
        <ele>2796.61</ele>
        <time>2012-09-28T09:54:02Z</time>
      </trkpt>
      <trkpt lat="46.00908" lon="6.98418">
        <ele>2799.02</ele>
        <time>2012-09-28T09:54:14Z</time>
      </trkpt>
      <trkpt lat="46.00906" lon="6.98417">
        <ele>2798.05</ele>
        <time>2012-09-28T09:54:19Z</time>
      </trkpt>
      <trkpt lat="46.00906" lon="6.98417">
        <ele>2799.5</ele>
        <time>2012-09-28T09:54:30Z</time>
      </trkpt>
      <trkpt lat="46.00902" lon="6.98417">
        <ele>2799.98</ele>
        <time>2012-09-28T09:54:34Z</time>
      </trkpt>
      <trkpt lat="46.00899" lon="6.98418">
        <ele>2799.98</ele>
        <time>2012-09-28T09:54:37Z</time>
      </trkpt>
      <trkpt lat="46.00887" lon="6.98419">
        <ele>2800.94</ele>
        <time>2012-09-28T09:54:49Z</time>
      </trkpt>
      <trkpt lat="46.0088" lon="6.98419">
        <ele>2805.26</ele>
        <time>2012-09-28T09:54:59Z</time>
      </trkpt>
      <trkpt lat="46.00876" lon="6.98409">
        <ele>2805.75</ele>
        <time>2012-09-28T09:55:10Z</time>
      </trkpt>
      <trkpt lat="46.00875" lon="6.98409">
        <ele>2805.75</ele>
        <time>2012-09-28T09:55:12Z</time>
      </trkpt>
      <trkpt lat="46.0087" lon="6.98409">
        <ele>2807.67</ele>
        <time>2012-09-28T09:55:18Z</time>
      </trkpt>
      <trkpt lat="46.00864" lon="6.98408">
        <ele>2809.59</ele>
        <time>2012-09-28T09:55:30Z</time>
      </trkpt>
      <trkpt lat="46.00859" lon="6.98408">
        <ele>2811.03</ele>
        <time>2012-09-28T09:55:43Z</time>
      </trkpt>
      <trkpt lat="46.00853" lon="6.98404">
        <ele>2812.96</ele>
        <time>2012-09-28T09:55:56Z</time>
      </trkpt>
      <trkpt lat="46.00854" lon="6.98406">
        <ele>2812.96</ele>
        <time>2012-09-28T09:56:10Z</time>
      </trkpt>
      <trkpt lat="46.00852" lon="6.98403">
        <ele>2812.96</ele>
        <time>2012-09-28T09:56:20Z</time>
      </trkpt>
      <trkpt lat="46.00849" lon="6.98402">
        <ele>2813.92</ele>
        <time>2012-09-28T09:56:24Z</time>
      </trkpt>
      <trkpt lat="46.00841" lon="6.98399">
        <ele>2814.4</ele>
        <time>2012-09-28T09:56:36Z</time>
      </trkpt>
      <trkpt lat="46.00837" lon="6.98395">
        <ele>2815.36</ele>
        <time>2012-09-28T09:56:47Z</time>
      </trkpt>
      <trkpt lat="46.00834" lon="6.98393">
        <ele>2815.84</ele>
        <time>2012-09-28T09:56:56Z</time>
      </trkpt>
      <trkpt lat="46.00832" lon="6.98392">
        <ele>2816.8</ele>
        <time>2012-09-28T09:56:59Z</time>
      </trkpt>
      <trkpt lat="46.00825" lon="6.9839">
        <ele>2819.2</ele>
        <time>2012-09-28T09:57:12Z</time>
      </trkpt>
      <trkpt lat="46.00822" lon="6.98388">
        <ele>2819.68</ele>
        <time>2012-09-28T09:57:22Z</time>
      </trkpt>
      <trkpt lat="46.0082" lon="6.98385">
        <ele>2820.65</ele>
        <time>2012-09-28T09:57:37Z</time>
      </trkpt>
      <trkpt lat="46.00817" lon="6.98379">
        <ele>2821.61</ele>
        <time>2012-09-28T09:57:51Z</time>
      </trkpt>
      <trkpt lat="46.00814" lon="6.98373">
        <ele>2823.05</ele>
        <time>2012-09-28T09:58:02Z</time>
      </trkpt>
      <trkpt lat="46.00813" lon="6.98373">
        <ele>2822.57</ele>
        <time>2012-09-28T09:58:16Z</time>
      </trkpt>
      <trkpt lat="46.00809" lon="6.98372">
        <ele>2824.97</ele>
        <time>2012-09-28T09:58:27Z</time>
      </trkpt>
      <trkpt lat="46.00805" lon="6.98371">
        <ele>2826.89</ele>
        <time>2012-09-28T09:58:38Z</time>
      </trkpt>
      <trkpt lat="46.00798" lon="6.98369">
        <ele>2828.82</ele>
        <time>2012-09-28T09:58:52Z</time>
      </trkpt>
      <trkpt lat="46.00795" lon="6.98368">
        <ele>2830.74</ele>
        <time>2012-09-28T09:59:02Z</time>
      </trkpt>
      <trkpt lat="46.0079" lon="6.98366">
        <ele>2832.18</ele>
        <time>2012-09-28T09:59:17Z</time>
      </trkpt>
      <trkpt lat="46.00786" lon="6.98363">
        <ele>2834.1</ele>
        <time>2012-09-28T09:59:29Z</time>
      </trkpt>
      <trkpt lat="46.00784" lon="6.98364">
        <ele>2834.58</ele>
        <time>2012-09-28T09:59:42Z</time>
      </trkpt>
      <trkpt lat="46.00783" lon="6.98367">
        <ele>2835.55</ele>
        <time>2012-09-28T09:59:52Z</time>
      </trkpt>
      <trkpt lat="46.0078" lon="6.98366">
        <ele>2837.47</ele>
        <time>2012-09-28T10:00:04Z</time>
      </trkpt>
      <trkpt lat="46.00776" lon="6.98366">
        <ele>2839.39</ele>
        <time>2012-09-28T10:00:19Z</time>
      </trkpt>
      <trkpt lat="46.00774" lon="6.98367">
        <ele>2839.87</ele>
        <time>2012-09-28T10:00:31Z</time>
      </trkpt>
      <trkpt lat="46.00769" lon="6.98369">
        <ele>2841.79</ele>
        <time>2012-09-28T10:00:45Z</time>
      </trkpt>
      <trkpt lat="46.00766" lon="6.98364">
        <ele>2844.2</ele>
        <time>2012-09-28T10:00:58Z</time>
      </trkpt>
      <trkpt lat="46.00764" lon="6.98361">
        <ele>2844.68</ele>
        <time>2012-09-28T10:01:09Z</time>
      </trkpt>
      <trkpt lat="46.00761" lon="6.98357">
        <ele>2845.64</ele>
        <time>2012-09-28T10:01:22Z</time>
      </trkpt>
      <trkpt lat="46.00759" lon="6.98356">
        <ele>2846.6</ele>
        <time>2012-09-28T10:01:34Z</time>
      </trkpt>
      <trkpt lat="46.00757" lon="6.98352">
        <ele>2847.56</ele>
        <time>2012-09-28T10:01:47Z</time>
      </trkpt>
      <trkpt lat="46.00755" lon="6.9835">
        <ele>2849</ele>
        <time>2012-09-28T10:01:59Z</time>
      </trkpt>
      <trkpt lat="46.00753" lon="6.98348">
        <ele>2849</ele>
        <time>2012-09-28T10:02:18Z</time>
      </trkpt>
      <trkpt lat="46.00751" lon="6.98346">
        <ele>2849.97</ele>
        <time>2012-09-28T10:02:31Z</time>
      </trkpt>
      <trkpt lat="46.00748" lon="6.98344">
        <ele>2850.93</ele>
        <time>2012-09-28T10:02:51Z</time>
      </trkpt>
      <trkpt lat="46.00744" lon="6.98341">
        <ele>2851.89</ele>
        <time>2012-09-28T10:03:04Z</time>
      </trkpt>
      <trkpt lat="46.00742" lon="6.98338">
        <ele>2852.37</ele>
        <time>2012-09-28T10:03:17Z</time>
      </trkpt>
      <trkpt lat="46.00741" lon="6.98336">
        <ele>2853.81</ele>
        <time>2012-09-28T10:03:27Z</time>
      </trkpt>
      <trkpt lat="46.00738" lon="6.98334">
        <ele>2854.29</ele>
        <time>2012-09-28T10:03:38Z</time>
      </trkpt>
      <trkpt lat="46.00738" lon="6.98333">
        <ele>2854.29</ele>
        <time>2012-09-28T10:03:52Z</time>
      </trkpt>
      <trkpt lat="46.00736" lon="6.98331">
        <ele>2855.73</ele>
        <time>2012-09-28T10:04:04Z</time>
      </trkpt>
      <trkpt lat="46.00734" lon="6.98329">
        <ele>2856.69</ele>
        <time>2012-09-28T10:04:21Z</time>
      </trkpt>
      <trkpt lat="46.00733" lon="6.98328">
        <ele>2856.69</ele>
        <time>2012-09-28T10:04:39Z</time>
      </trkpt>
      <trkpt lat="46.00731" lon="6.98327">
        <ele>2858.62</ele>
        <time>2012-09-28T10:04:53Z</time>
      </trkpt>
      <trkpt lat="46.0073" lon="6.98328">
        <ele>2857.18</ele>
        <time>2012-09-28T10:05:18Z</time>
      </trkpt>
      <trkpt lat="46.00731" lon="6.98327">
        <ele>2858.14</ele>
        <time>2012-09-28T10:05:38Z</time>
      </trkpt>
      <trkpt lat="46.00731" lon="6.98326">
        <ele>2858.14</ele>
        <time>2012-09-28T10:06:07Z</time>
      </trkpt>
      <trkpt lat="46.00731" lon="6.98327">
        <ele>2858.14</ele>
        <time>2012-09-28T10:06:32Z</time>
      </trkpt>
      <trkpt lat="46.00731" lon="6.98328">
        <ele>2858.62</ele>
        <time>2012-09-28T10:06:56Z</time>
      </trkpt>
      <trkpt lat="46.0073" lon="6.98326">
        <ele>2858.62</ele>
        <time>2012-09-28T10:07:17Z</time>
      </trkpt>
      <trkpt lat="46.00728" lon="6.98325">
        <ele>2859.1</ele>
        <time>2012-09-28T10:07:31Z</time>
      </trkpt>
      <trkpt lat="46.00726" lon="6.98326">
        <ele>2860.06</ele>
        <time>2012-09-28T10:07:43Z</time>
      </trkpt>
      <trkpt lat="46.00724" lon="6.98327">
        <ele>2861.5</ele>
        <time>2012-09-28T10:07:58Z</time>
      </trkpt>
      <trkpt lat="46.00722" lon="6.98327">
        <ele>2862.46</ele>
        <time>2012-09-28T10:08:12Z</time>
      </trkpt>
      <trkpt lat="46.00723" lon="6.9833">
        <ele>2862.46</ele>
        <time>2012-09-28T10:08:26Z</time>
      </trkpt>
      <trkpt lat="46.00722" lon="6.98331">
        <ele>2863.42</ele>
        <time>2012-09-28T10:08:41Z</time>
      </trkpt>
      <trkpt lat="46.00723" lon="6.98331">
        <ele>2864.87</ele>
        <time>2012-09-28T10:09:00Z</time>
      </trkpt>
      <trkpt lat="46.00723" lon="6.98333">
        <ele>2864.87</ele>
        <time>2012-09-28T10:09:12Z</time>
      </trkpt>
      <trkpt lat="46.00724" lon="6.98334">
        <ele>2865.83</ele>
        <time>2012-09-28T10:09:27Z</time>
      </trkpt>
      <trkpt lat="46.00723" lon="6.98337">
        <ele>2866.79</ele>
        <time>2012-09-28T10:09:42Z</time>
      </trkpt>
      <trkpt lat="46.00721" lon="6.98338">
        <ele>2867.75</ele>
        <time>2012-09-28T10:09:58Z</time>
      </trkpt>
      <trkpt lat="46.00721" lon="6.9834">
        <ele>2868.71</ele>
        <time>2012-09-28T10:10:10Z</time>
      </trkpt>
      <trkpt lat="46.00719" lon="6.98341">
        <ele>2870.15</ele>
        <time>2012-09-28T10:10:22Z</time>
      </trkpt>
      <trkpt lat="46.00719" lon="6.98343">
        <ele>2871.6</ele>
        <time>2012-09-28T10:10:35Z</time>
      </trkpt>
      <trkpt lat="46.00719" lon="6.98344">
        <ele>2872.56</ele>
        <time>2012-09-28T10:10:49Z</time>
      </trkpt>
      <trkpt lat="46.00718" lon="6.98348">
        <ele>2874</ele>
        <time>2012-09-28T10:11:03Z</time>
      </trkpt>
      <trkpt lat="46.00717" lon="6.98351">
        <ele>2874.96</ele>
        <time>2012-09-28T10:11:18Z</time>
      </trkpt>
      <trkpt lat="46.00717" lon="6.98354">
        <ele>2876.4</ele>
        <time>2012-09-28T10:11:29Z</time>
      </trkpt>
      <trkpt lat="46.00717" lon="6.98355">
        <ele>2876.88</ele>
        <time>2012-09-28T10:11:53Z</time>
      </trkpt>
      <trkpt lat="46.00718" lon="6.98353">
        <ele>2876.88</ele>
        <time>2012-09-28T10:12:21Z</time>
      </trkpt>
      <trkpt lat="46.00714" lon="6.98358">
        <ele>2877.84</ele>
        <time>2012-09-28T10:12:44Z</time>
      </trkpt>
      <trkpt lat="46.00713" lon="6.98364">
        <ele>2879.29</ele>
        <time>2012-09-28T10:12:56Z</time>
      </trkpt>
      <trkpt lat="46.00711" lon="6.98367">
        <ele>2881.69</ele>
        <time>2012-09-28T10:13:08Z</time>
      </trkpt>
      <trkpt lat="46.00705" lon="6.98361">
        <ele>2883.61</ele>
        <time>2012-09-28T10:13:21Z</time>
      </trkpt>
      <trkpt lat="46.00699" lon="6.98357">
        <ele>2885.05</ele>
        <time>2012-09-28T10:13:35Z</time>
      </trkpt>
      <trkpt lat="46.00695" lon="6.98351">
        <ele>2886.5</ele>
        <time>2012-09-28T10:13:49Z</time>
      </trkpt>
      <trkpt lat="46.00692" lon="6.98345">
        <ele>2886.02</ele>
        <time>2012-09-28T10:14:04Z</time>
      </trkpt>
      <trkpt lat="46.00689" lon="6.98339">
        <ele>2885.05</ele>
        <time>2012-09-28T10:14:16Z</time>
      </trkpt>
      <trkpt lat="46.00689" lon="6.98338">
        <ele>2884.09</ele>
        <time>2012-09-28T10:14:17Z</time>
      </trkpt>
      <trkpt lat="46.00685" lon="6.98332">
        <ele>2884.57</ele>
        <time>2012-09-28T10:14:23Z</time>
      </trkpt>
      <trkpt lat="46.00676" lon="6.98315">
        <ele>2885.53</ele>
        <time>2012-09-28T10:14:39Z</time>
      </trkpt>
      <trkpt lat="46.00672" lon="6.98307">
        <ele>2886.02</ele>
        <time>2012-09-28T10:14:46Z</time>
      </trkpt>
      <trkpt lat="46.0067" lon="6.98299">
        <ele>2886.02</ele>
        <time>2012-09-28T10:14:52Z</time>
      </trkpt>
      <trkpt lat="46.00664" lon="6.98282">
        <ele>2888.42</ele>
        <time>2012-09-28T10:15:07Z</time>
      </trkpt>
      <trkpt lat="46.00663" lon="6.98281">
        <ele>2888.42</ele>
        <time>2012-09-28T10:15:09Z</time>
      </trkpt>
      <trkpt lat="46.00654" lon="6.98281">
        <ele>2889.86</ele>
        <time>2012-09-28T10:15:18Z</time>
      </trkpt>
      <trkpt lat="46.00645" lon="6.98276">
        <ele>2892.74</ele>
        <time>2012-09-28T10:15:31Z</time>
      </trkpt>
      <trkpt lat="46.00641" lon="6.98275">
        <ele>2893.23</ele>
        <time>2012-09-28T10:15:35Z</time>
      </trkpt>
      <trkpt lat="46.00639" lon="6.98274">
        <ele>2893.71</ele>
        <time>2012-09-28T10:15:37Z</time>
      </trkpt>
      <trkpt lat="46.00633" lon="6.98273">
        <ele>2895.15</ele>
        <time>2012-09-28T10:15:45Z</time>
      </trkpt>
      <trkpt lat="46.00625" lon="6.98276">
        <ele>2898.03</ele>
        <time>2012-09-28T10:15:56Z</time>
      </trkpt>
      <trkpt lat="46.00619" lon="6.98277">
        <ele>2900.92</ele>
        <time>2012-09-28T10:16:09Z</time>
      </trkpt>
      <trkpt lat="46.00617" lon="6.98277">
        <ele>2901.88</ele>
        <time>2012-09-28T10:16:23Z</time>
      </trkpt>
      <trkpt lat="46.00617" lon="6.98275">
        <ele>2900.92</ele>
        <time>2012-09-28T10:16:41Z</time>
      </trkpt>
      <trkpt lat="46.00617" lon="6.98273">
        <ele>2900.92</ele>
        <time>2012-09-28T10:17:01Z</time>
      </trkpt>
      <trkpt lat="46.00616" lon="6.98276">
        <ele>2900.92</ele>
        <time>2012-09-28T10:17:39Z</time>
      </trkpt>
      <trkpt lat="46.00617" lon="6.98275">
        <ele>2901.4</ele>
        <time>2012-09-28T10:18:14Z</time>
      </trkpt>
      <trkpt lat="46.00617" lon="6.98275">
        <ele>2900.92</ele>
        <time>2012-09-28T10:18:45Z</time>
      </trkpt>
      <trkpt lat="46.00616" lon="6.98274">
        <ele>2900.92</ele>
        <time>2012-09-28T10:19:17Z</time>
      </trkpt>
      <trkpt lat="46.00617" lon="6.98275">
        <ele>2901.4</ele>
        <time>2012-09-28T10:20:00Z</time>
      </trkpt>
      <trkpt lat="46.00617" lon="6.98274">
        <ele>2901.4</ele>
        <time>2012-09-28T10:20:35Z</time>
      </trkpt>
      <trkpt lat="46.00616" lon="6.98275">
        <ele>2901.4</ele>
        <time>2012-09-28T10:21:01Z</time>
      </trkpt>
      <trkpt lat="46.00618" lon="6.98279">
        <ele>2901.88</ele>
        <time>2012-09-28T10:21:15Z</time>
      </trkpt>
      <trkpt lat="46.00619" lon="6.98288">
        <ele>2903.8</ele>
        <time>2012-09-28T10:21:27Z</time>
      </trkpt>
      <trkpt lat="46.00617" lon="6.98291">
        <ele>2905.24</ele>
        <time>2012-09-28T10:21:40Z</time>
      </trkpt>
      <trkpt lat="46.00618" lon="6.98296">
        <ele>2906.68</ele>
        <time>2012-09-28T10:21:51Z</time>
      </trkpt>
      <trkpt lat="46.00618" lon="6.98299">
        <ele>2906.68</ele>
        <time>2012-09-28T10:22:03Z</time>
      </trkpt>
      <trkpt lat="46.00617" lon="6.983">
        <ele>2906.68</ele>
        <time>2012-09-28T10:22:06Z</time>
      </trkpt>
      <trkpt lat="46.00611" lon="6.98302">
        <ele>2908.61</ele>
        <time>2012-09-28T10:22:20Z</time>
      </trkpt>
      <trkpt lat="46.00608" lon="6.98304">
        <ele>2910.05</ele>
        <time>2012-09-28T10:22:31Z</time>
      </trkpt>
      <trkpt lat="46.00606" lon="6.98305">
        <ele>2911.97</ele>
        <time>2012-09-28T10:22:45Z</time>
      </trkpt>
      <trkpt lat="46.00607" lon="6.98306">
        <ele>2912.45</ele>
        <time>2012-09-28T10:23:06Z</time>
      </trkpt>
      <trkpt lat="46.00607" lon="6.98315">
        <ele>2914.37</ele>
        <time>2012-09-28T10:23:19Z</time>
      </trkpt>
      <trkpt lat="46.00605" lon="6.98318">
        <ele>2915.34</ele>
        <time>2012-09-28T10:23:28Z</time>
      </trkpt>
      <trkpt lat="46.00603" lon="6.98325">
        <ele>2917.74</ele>
        <time>2012-09-28T10:23:40Z</time>
      </trkpt>
      <trkpt lat="46.00601" lon="6.98326">
        <ele>2918.22</ele>
        <time>2012-09-28T10:23:50Z</time>
      </trkpt>
      <trkpt lat="46.00602" lon="6.98329">
        <ele>2919.66</ele>
        <time>2012-09-28T10:24:01Z</time>
      </trkpt>
      <trkpt lat="46.00603" lon="6.98329">
        <ele>2919.18</ele>
        <time>2012-09-28T10:24:16Z</time>
      </trkpt>
      <trkpt lat="46.00602" lon="6.9833">
        <ele>2920.62</ele>
        <time>2012-09-28T10:24:19Z</time>
      </trkpt>
      <trkpt lat="46.00603" lon="6.98335">
        <ele>2922.06</ele>
        <time>2012-09-28T10:24:33Z</time>
      </trkpt>
      <trkpt lat="46.006" lon="6.98336">
        <ele>2923.03</ele>
        <time>2012-09-28T10:24:46Z</time>
      </trkpt>
      <trkpt lat="46.00598" lon="6.98338">
        <ele>2922.54</ele>
        <time>2012-09-28T10:24:54Z</time>
      </trkpt>
      <trkpt lat="46.00595" lon="6.98337">
        <ele>2922.06</ele>
        <time>2012-09-28T10:25:07Z</time>
      </trkpt>
      <trkpt lat="46.00594" lon="6.98337">
        <ele>2922.06</ele>
        <time>2012-09-28T10:25:18Z</time>
      </trkpt>
      <trkpt lat="46.00596" lon="6.9834">
        <ele>2922.54</ele>
        <time>2012-09-28T10:25:24Z</time>
      </trkpt>
      <trkpt lat="46.00598" lon="6.98346">
        <ele>2923.99</ele>
        <time>2012-09-28T10:25:35Z</time>
      </trkpt>
      <trkpt lat="46.00596" lon="6.9835">
        <ele>2925.43</ele>
        <time>2012-09-28T10:25:48Z</time>
      </trkpt>
      <trkpt lat="46.00599" lon="6.98352">
        <ele>2926.87</ele>
        <time>2012-09-28T10:26:01Z</time>
      </trkpt>
      <trkpt lat="46.00599" lon="6.98355">
        <ele>2928.79</ele>
        <time>2012-09-28T10:26:12Z</time>
      </trkpt>
      <trkpt lat="46.006" lon="6.98357">
        <ele>2929.75</ele>
        <time>2012-09-28T10:26:24Z</time>
      </trkpt>
      <trkpt lat="46.00601" lon="6.9836">
        <ele>2931.68</ele>
        <time>2012-09-28T10:26:40Z</time>
      </trkpt>
      <trkpt lat="46.00603" lon="6.98364">
        <ele>2932.64</ele>
        <time>2012-09-28T10:26:53Z</time>
      </trkpt>
      <trkpt lat="46.00605" lon="6.98365">
        <ele>2932.64</ele>
        <time>2012-09-28T10:27:07Z</time>
      </trkpt>
      <trkpt lat="46.00607" lon="6.98369">
        <ele>2934.56</ele>
        <time>2012-09-28T10:27:19Z</time>
      </trkpt>
      <trkpt lat="46.00606" lon="6.98373">
        <ele>2936</ele>
        <time>2012-09-28T10:27:34Z</time>
      </trkpt>
      <trkpt lat="46.00606" lon="6.98377">
        <ele>2936.48</ele>
        <time>2012-09-28T10:27:38Z</time>
      </trkpt>
      <trkpt lat="46.00604" lon="6.98385">
        <ele>2938.41</ele>
        <time>2012-09-28T10:27:50Z</time>
      </trkpt>
      <trkpt lat="46.00602" lon="6.98386">
        <ele>2938.89</ele>
        <time>2012-09-28T10:28:01Z</time>
      </trkpt>
      <trkpt lat="46.00603" lon="6.98389">
        <ele>2939.37</ele>
        <time>2012-09-28T10:28:15Z</time>
      </trkpt>
      <trkpt lat="46.00604" lon="6.9839">
        <ele>2940.81</ele>
        <time>2012-09-28T10:28:32Z</time>
      </trkpt>
      <trkpt lat="46.00606" lon="6.98391">
        <ele>2941.77</ele>
        <time>2012-09-28T10:28:45Z</time>
      </trkpt>
      <trkpt lat="46.00605" lon="6.98394">
        <ele>2943.69</ele>
        <time>2012-09-28T10:28:57Z</time>
      </trkpt>
      <trkpt lat="46.00602" lon="6.98396">
        <ele>2943.69</ele>
        <time>2012-09-28T10:29:10Z</time>
      </trkpt>
      <trkpt lat="46.00602" lon="6.98397">
        <ele>2944.17</ele>
        <time>2012-09-28T10:29:12Z</time>
      </trkpt>
      <trkpt lat="46.00603" lon="6.984">
        <ele>2945.62</ele>
        <time>2012-09-28T10:29:24Z</time>
      </trkpt>
      <trkpt lat="46.00602" lon="6.98404">
        <ele>2947.06</ele>
        <time>2012-09-28T10:29:37Z</time>
      </trkpt>
      <trkpt lat="46.00603" lon="6.98407">
        <ele>2947.54</ele>
        <time>2012-09-28T10:29:51Z</time>
      </trkpt>
      <trkpt lat="46.00604" lon="6.98412">
        <ele>2948.98</ele>
        <time>2012-09-28T10:30:02Z</time>
      </trkpt>
      <trkpt lat="46.00606" lon="6.98414">
        <ele>2948.98</ele>
        <time>2012-09-28T10:30:13Z</time>
      </trkpt>
      <trkpt lat="46.00606" lon="6.98415">
        <ele>2948.98</ele>
        <time>2012-09-28T10:30:27Z</time>
      </trkpt>
      <trkpt lat="46.00607" lon="6.98416">
        <ele>2949.46</ele>
        <time>2012-09-28T10:30:41Z</time>
      </trkpt>
      <trkpt lat="46.00608" lon="6.98418">
        <ele>2948.98</ele>
        <time>2012-09-28T10:30:54Z</time>
      </trkpt>
      <trkpt lat="46.0061" lon="6.98419">
        <ele>2949.46</ele>
        <time>2012-09-28T10:31:08Z</time>
      </trkpt>
      <trkpt lat="46.0061" lon="6.98426">
        <ele>2948.5</ele>
        <time>2012-09-28T10:31:24Z</time>
      </trkpt>
      <trkpt lat="46.00607" lon="6.98431">
        <ele>2948.5</ele>
        <time>2012-09-28T10:31:40Z</time>
      </trkpt>
      <trkpt lat="46.00604" lon="6.98436">
        <ele>2949.94</ele>
        <time>2012-09-28T10:31:53Z</time>
      </trkpt>
      <trkpt lat="46.00601" lon="6.98439">
        <ele>2950.9</ele>
        <time>2012-09-28T10:32:11Z</time>
      </trkpt>
      <trkpt lat="46.00599" lon="6.98438">
        <ele>2951.38</ele>
        <time>2012-09-28T10:32:25Z</time>
      </trkpt>
      <trkpt lat="46.00597" lon="6.98439">
        <ele>2951.87</ele>
        <time>2012-09-28T10:32:40Z</time>
      </trkpt>
      <trkpt lat="46.00596" lon="6.98438">
        <ele>2952.83</ele>
        <time>2012-09-28T10:32:54Z</time>
      </trkpt>
      <trkpt lat="46.00594" lon="6.98436">
        <ele>2952.35</ele>
        <time>2012-09-28T10:33:07Z</time>
      </trkpt>
      <trkpt lat="46.00593" lon="6.98437">
        <ele>2953.79</ele>
        <time>2012-09-28T10:33:24Z</time>
      </trkpt>
      <trkpt lat="46.00592" lon="6.98437">
        <ele>2953.79</ele>
        <time>2012-09-28T10:33:38Z</time>
      </trkpt>
      <trkpt lat="46.00591" lon="6.98436">
        <ele>2953.31</ele>
        <time>2012-09-28T10:33:52Z</time>
      </trkpt>
      <trkpt lat="46.00589" lon="6.98435">
        <ele>2953.79</ele>
        <time>2012-09-28T10:34:11Z</time>
      </trkpt>
      <trkpt lat="46.00587" lon="6.98435">
        <ele>2953.79</ele>
        <time>2012-09-28T10:34:29Z</time>
      </trkpt>
      <trkpt lat="46.00584" lon="6.98431">
        <ele>2954.27</ele>
        <time>2012-09-28T10:34:44Z</time>
      </trkpt>
      <trkpt lat="46.00585" lon="6.98431">
        <ele>2954.27</ele>
        <time>2012-09-28T10:35:02Z</time>
      </trkpt>
      <trkpt lat="46.00584" lon="6.98433">
        <ele>2953.79</ele>
        <time>2012-09-28T10:35:20Z</time>
      </trkpt>
      <trkpt lat="46.00584" lon="6.98434">
        <ele>2953.79</ele>
        <time>2012-09-28T10:35:23Z</time>
      </trkpt>
      <trkpt lat="46.00583" lon="6.98435">
        <ele>2953.79</ele>
        <time>2012-09-28T10:35:37Z</time>
      </trkpt>
      <trkpt lat="46.00583" lon="6.98431">
        <ele>2953.79</ele>
        <time>2012-09-28T10:35:52Z</time>
      </trkpt>
      <trkpt lat="46.00584" lon="6.98433">
        <ele>2954.27</ele>
        <time>2012-09-28T10:36:20Z</time>
      </trkpt>
      <trkpt lat="46.00584" lon="6.98432">
        <ele>2954.27</ele>
        <time>2012-09-28T10:36:37Z</time>
      </trkpt>
      <trkpt lat="46.00585" lon="6.9843">
        <ele>2954.27</ele>
        <time>2012-09-28T10:36:51Z</time>
      </trkpt>
      <trkpt lat="46.00585" lon="6.98429">
        <ele>2954.27</ele>
        <time>2012-09-28T10:37:21Z</time>
      </trkpt>
      <trkpt lat="46.00585" lon="6.9843">
        <ele>2954.27</ele>
        <time>2012-09-28T10:37:43Z</time>
      </trkpt>
      <trkpt lat="46.00585" lon="6.9843">
        <ele>2954.27</ele>
        <time>2012-09-28T10:38:05Z</time>
      </trkpt>
      <trkpt lat="46.00586" lon="6.9843">
        <ele>2954.27</ele>
        <time>2012-09-28T10:38:37Z</time>
      </trkpt>
      <trkpt lat="46.00586" lon="6.98431">
        <ele>2954.27</ele>
        <time>2012-09-28T10:39:08Z</time>
      </trkpt>
      <trkpt lat="46.00584" lon="6.98431">
        <ele>2954.27</ele>
        <time>2012-09-28T10:39:36Z</time>
      </trkpt>
      <trkpt lat="46.00585" lon="6.98431">
        <ele>2954.27</ele>
        <time>2012-09-28T10:40:05Z</time>
      </trkpt>
      <trkpt lat="46.00586" lon="6.98432">
        <ele>2954.75</ele>
        <time>2012-09-28T10:40:42Z</time>
      </trkpt>
      <trkpt lat="46.00585" lon="6.98431">
        <ele>2954.75</ele>
        <time>2012-09-28T10:41:07Z</time>
      </trkpt>
      <trkpt lat="46.00583" lon="6.98431">
        <ele>2954.27</ele>
        <time>2012-09-28T10:41:30Z</time>
      </trkpt>
      <trkpt lat="46.00583" lon="6.98432">
        <ele>2953.79</ele>
        <time>2012-09-28T10:41:44Z</time>
      </trkpt>
      <trkpt lat="46.00583" lon="6.98432">
        <ele>2953.31</ele>
        <time>2012-09-28T10:42:00Z</time>
      </trkpt>
      <trkpt lat="46.00582" lon="6.98432">
        <ele>2953.79</ele>
        <time>2012-09-28T10:42:27Z</time>
      </trkpt>
      <trkpt lat="46.00582" lon="6.9843">
        <ele>2953.79</ele>
        <time>2012-09-28T10:42:55Z</time>
      </trkpt>
      <trkpt lat="46.00584" lon="6.98432">
        <ele>2953.31</ele>
        <time>2012-09-28T10:43:20Z</time>
      </trkpt>
      <trkpt lat="46.00584" lon="6.98432">
        <ele>2953.31</ele>
        <time>2012-09-28T10:43:45Z</time>
      </trkpt>
      <trkpt lat="46.00584" lon="6.98432">
        <ele>2952.83</ele>
        <time>2012-09-28T10:44:14Z</time>
      </trkpt>
      <trkpt lat="46.00583" lon="6.98432">
        <ele>2953.31</ele>
        <time>2012-09-28T10:44:34Z</time>
      </trkpt>
      <trkpt lat="46.00584" lon="6.98432">
        <ele>2953.31</ele>
        <time>2012-09-28T10:45:08Z</time>
      </trkpt>
      <trkpt lat="46.00584" lon="6.98431">
        <ele>2952.83</ele>
        <time>2012-09-28T10:45:38Z</time>
      </trkpt>
      <trkpt lat="46.00584" lon="6.9843">
        <ele>2953.79</ele>
        <time>2012-09-28T10:46:00Z</time>
      </trkpt>
      <trkpt lat="46.00585" lon="6.9843">
        <ele>2953.31</ele>
        <time>2012-09-28T10:46:12Z</time>
      </trkpt>
      <trkpt lat="46.00585" lon="6.98432">
        <ele>2953.79</ele>
        <time>2012-09-28T10:46:32Z</time>
      </trkpt>
      <trkpt lat="46.00583" lon="6.98431">
        <ele>2953.79</ele>
        <time>2012-09-28T10:46:47Z</time>
      </trkpt>
      <trkpt lat="46.00584" lon="6.98431">
        <ele>2953.79</ele>
        <time>2012-09-28T10:47:01Z</time>
      </trkpt>
      <trkpt lat="46.00584" lon="6.98432">
        <ele>2953.79</ele>
        <time>2012-09-28T10:47:22Z</time>
      </trkpt>
      <trkpt lat="46.00583" lon="6.98432">
        <ele>2953.31</ele>
        <time>2012-09-28T10:47:39Z</time>
      </trkpt>
      <trkpt lat="46.00583" lon="6.98433">
        <ele>2953.31</ele>
        <time>2012-09-28T10:48:18Z</time>
      </trkpt>
      <trkpt lat="46.00584" lon="6.98433">
        <ele>2953.31</ele>
        <time>2012-09-28T10:48:58Z</time>
      </trkpt>
      <trkpt lat="46.00584" lon="6.98433">
        <ele>2953.79</ele>
        <time>2012-09-28T10:49:36Z</time>
      </trkpt>
      <trkpt lat="46.00584" lon="6.98432">
        <ele>2954.27</ele>
        <time>2012-09-28T10:50:00Z</time>
      </trkpt>
      <trkpt lat="46.00584" lon="6.98432">
        <ele>2954.75</ele>
        <time>2012-09-28T10:50:24Z</time>
      </trkpt>
      <trkpt lat="46.00582" lon="6.98431">
        <ele>2954.75</ele>
        <time>2012-09-28T10:50:45Z</time>
      </trkpt>
      <trkpt lat="46.00583" lon="6.98433">
        <ele>2955.23</ele>
        <time>2012-09-28T10:51:04Z</time>
      </trkpt>
      <trkpt lat="46.00585" lon="6.98433">
        <ele>2955.71</ele>
        <time>2012-09-28T10:51:15Z</time>
      </trkpt>
      <trkpt lat="46.00587" lon="6.98434">
        <ele>2955.71</ele>
        <time>2012-09-28T10:51:30Z</time>
      </trkpt>
      <trkpt lat="46.00589" lon="6.98435">
        <ele>2954.75</ele>
        <time>2012-09-28T10:51:43Z</time>
      </trkpt>
      <trkpt lat="46.00592" lon="6.98437">
        <ele>2954.75</ele>
        <time>2012-09-28T10:51:57Z</time>
      </trkpt>
      <trkpt lat="46.00594" lon="6.98436">
        <ele>2954.27</ele>
        <time>2012-09-28T10:52:08Z</time>
      </trkpt>
      <trkpt lat="46.00595" lon="6.98437">
        <ele>2953.31</ele>
        <time>2012-09-28T10:52:22Z</time>
      </trkpt>
      <trkpt lat="46.00596" lon="6.98438">
        <ele>2953.79</ele>
        <time>2012-09-28T10:52:41Z</time>
      </trkpt>
      <trkpt lat="46.00597" lon="6.98437">
        <ele>2952.83</ele>
        <time>2012-09-28T10:52:57Z</time>
      </trkpt>
      <trkpt lat="46.00599" lon="6.98437">
        <ele>2952.35</ele>
        <time>2012-09-28T10:53:11Z</time>
      </trkpt>
      <trkpt lat="46.00603" lon="6.98437">
        <ele>2951.87</ele>
        <time>2012-09-28T10:53:27Z</time>
      </trkpt>
      <trkpt lat="46.00605" lon="6.98433">
        <ele>2950.42</ele>
        <time>2012-09-28T10:53:41Z</time>
      </trkpt>
      <trkpt lat="46.00609" lon="6.98427">
        <ele>2948.98</ele>
        <time>2012-09-28T10:53:56Z</time>
      </trkpt>
      <trkpt lat="46.00609" lon="6.9842">
        <ele>2949.46</ele>
        <time>2012-09-28T10:54:09Z</time>
      </trkpt>
      <trkpt lat="46.00607" lon="6.98417">
        <ele>2950.42</ele>
        <time>2012-09-28T10:54:22Z</time>
      </trkpt>
      <trkpt lat="46.00606" lon="6.98415">
        <ele>2949.94</ele>
        <time>2012-09-28T10:54:35Z</time>
      </trkpt>
      <trkpt lat="46.00605" lon="6.98411">
        <ele>2949.94</ele>
        <time>2012-09-28T10:54:48Z</time>
      </trkpt>
      <trkpt lat="46.00604" lon="6.98408">
        <ele>2949.46</ele>
        <time>2012-09-28T10:55:01Z</time>
      </trkpt>
      <trkpt lat="46.00606" lon="6.98404">
        <ele>2949.94</ele>
        <time>2012-09-28T10:55:21Z</time>
      </trkpt>
      <trkpt lat="46.00606" lon="6.98404">
        <ele>2949.94</ele>
        <time>2012-09-28T10:55:44Z</time>
      </trkpt>
      <trkpt lat="46.00605" lon="6.98406">
        <ele>2950.9</ele>
        <time>2012-09-28T10:56:01Z</time>
      </trkpt>
      <trkpt lat="46.00606" lon="6.98402">
        <ele>2950.42</ele>
        <time>2012-09-28T10:56:30Z</time>
      </trkpt>
      <trkpt lat="46.00604" lon="6.98404">
        <ele>2949.94</ele>
        <time>2012-09-28T10:56:58Z</time>
      </trkpt>
      <trkpt lat="46.00604" lon="6.98404">
        <ele>2948.98</ele>
        <time>2012-09-28T10:57:11Z</time>
      </trkpt>
      <trkpt lat="46.00604" lon="6.984">
        <ele>2947.54</ele>
        <time>2012-09-28T10:57:24Z</time>
      </trkpt>
      <trkpt lat="46.00603" lon="6.98397">
        <ele>2946.1</ele>
        <time>2012-09-28T10:57:38Z</time>
      </trkpt>
      <trkpt lat="46.00605" lon="6.98397">
        <ele>2946.58</ele>
        <time>2012-09-28T10:57:52Z</time>
      </trkpt>
      <trkpt lat="46.00604" lon="6.98394">
        <ele>2945.14</ele>
        <time>2012-09-28T10:58:05Z</time>
      </trkpt>
      <trkpt lat="46.00605" lon="6.98393">
        <ele>2943.69</ele>
        <time>2012-09-28T10:58:20Z</time>
      </trkpt>
      <trkpt lat="46.00607" lon="6.98392">
        <ele>2943.21</ele>
        <time>2012-09-28T10:58:35Z</time>
      </trkpt>
      <trkpt lat="46.00607" lon="6.9839">
        <ele>2942.25</ele>
        <time>2012-09-28T10:58:48Z</time>
      </trkpt>
      <trkpt lat="46.00608" lon="6.98389">
        <ele>2941.77</ele>
        <time>2012-09-28T10:59:02Z</time>
      </trkpt>
      <trkpt lat="46.00609" lon="6.98389">
        <ele>2941.77</ele>
        <time>2012-09-28T10:59:15Z</time>
      </trkpt>
      <trkpt lat="46.0061" lon="6.98386">
        <ele>2940.81</ele>
        <time>2012-09-28T10:59:29Z</time>
      </trkpt>
      <trkpt lat="46.00612" lon="6.98383">
        <ele>2939.37</ele>
        <time>2012-09-28T10:59:40Z</time>
      </trkpt>
      <trkpt lat="46.0061" lon="6.9838">
        <ele>2939.37</ele>
        <time>2012-09-28T10:59:52Z</time>
      </trkpt>
      <trkpt lat="46.00607" lon="6.98374">
        <ele>2937.45</ele>
        <time>2012-09-28T11:00:04Z</time>
      </trkpt>
      <trkpt lat="46.00606" lon="6.98368">
        <ele>2935.04</ele>
        <time>2012-09-28T11:00:16Z</time>
      </trkpt>
      <trkpt lat="46.00603" lon="6.98365">
        <ele>2934.08</ele>
        <time>2012-09-28T11:00:28Z</time>
      </trkpt>
      <trkpt lat="46.00601" lon="6.98362">
        <ele>2933.6</ele>
        <time>2012-09-28T11:00:42Z</time>
      </trkpt>
      <trkpt lat="46.006" lon="6.9836">
        <ele>2932.16</ele>
        <time>2012-09-28T11:00:58Z</time>
      </trkpt>
      <trkpt lat="46.006" lon="6.98357">
        <ele>2931.68</ele>
        <time>2012-09-28T11:01:12Z</time>
      </trkpt>
      <trkpt lat="46.00599" lon="6.98354">
        <ele>2929.75</ele>
        <time>2012-09-28T11:01:25Z</time>
      </trkpt>
      <trkpt lat="46.00598" lon="6.98352">
        <ele>2929.27</ele>
        <time>2012-09-28T11:01:38Z</time>
      </trkpt>
      <trkpt lat="46.00598" lon="6.98351">
        <ele>2928.79</ele>
        <time>2012-09-28T11:01:53Z</time>
      </trkpt>
      <trkpt lat="46.00597" lon="6.98349">
        <ele>2928.31</ele>
        <time>2012-09-28T11:02:06Z</time>
      </trkpt>
      <trkpt lat="46.00597" lon="6.98347">
        <ele>2927.35</ele>
        <time>2012-09-28T11:02:20Z</time>
      </trkpt>
      <trkpt lat="46.00598" lon="6.98344">
        <ele>2925.91</ele>
        <time>2012-09-28T11:02:34Z</time>
      </trkpt>
      <trkpt lat="46.00597" lon="6.98341">
        <ele>2925.43</ele>
        <time>2012-09-28T11:02:47Z</time>
      </trkpt>
      <trkpt lat="46.00597" lon="6.9834">
        <ele>2925.43</ele>
        <time>2012-09-28T11:02:48Z</time>
      </trkpt>
      <trkpt lat="46.00596" lon="6.98336">
        <ele>2924.95</ele>
        <time>2012-09-28T11:03:03Z</time>
      </trkpt>
      <trkpt lat="46.00598" lon="6.98333">
        <ele>2924.95</ele>
        <time>2012-09-28T11:03:15Z</time>
      </trkpt>
      <trkpt lat="46.00602" lon="6.98335">
        <ele>2925.91</ele>
        <time>2012-09-28T11:03:30Z</time>
      </trkpt>
      <trkpt lat="46.00601" lon="6.98331">
        <ele>2923.99</ele>
        <time>2012-09-28T11:03:43Z</time>
      </trkpt>
      <trkpt lat="46.00602" lon="6.98328">
        <ele>2922.54</ele>
        <time>2012-09-28T11:03:57Z</time>
      </trkpt>
      <trkpt lat="46.00602" lon="6.98327">
        <ele>2921.58</ele>
        <time>2012-09-28T11:04:10Z</time>
      </trkpt>
      <trkpt lat="46.00602" lon="6.98325">
        <ele>2921.1</ele>
        <time>2012-09-28T11:04:22Z</time>
      </trkpt>
      <trkpt lat="46.00604" lon="6.98322">
        <ele>2919.66</ele>
        <time>2012-09-28T11:04:36Z</time>
      </trkpt>
      <trkpt lat="46.00605" lon="6.98319">
        <ele>2918.22</ele>
        <time>2012-09-28T11:04:49Z</time>
      </trkpt>
      <trkpt lat="46.00605" lon="6.98318">
        <ele>2917.26</ele>
        <time>2012-09-28T11:04:59Z</time>
      </trkpt>
      <trkpt lat="46.00608" lon="6.98312">
        <ele>2916.3</ele>
        <time>2012-09-28T11:05:13Z</time>
      </trkpt>
      <trkpt lat="46.00607" lon="6.98306">
        <ele>2915.34</ele>
        <time>2012-09-28T11:05:26Z</time>
      </trkpt>
      <trkpt lat="46.00607" lon="6.98304">
        <ele>2913.89</ele>
        <time>2012-09-28T11:05:40Z</time>
      </trkpt>
      <trkpt lat="46.00608" lon="6.98304">
        <ele>2912.93</ele>
        <time>2012-09-28T11:05:53Z</time>
      </trkpt>
      <trkpt lat="46.00611" lon="6.98302">
        <ele>2911.01</ele>
        <time>2012-09-28T11:06:07Z</time>
      </trkpt>
      <trkpt lat="46.00612" lon="6.98301">
        <ele>2909.57</ele>
        <time>2012-09-28T11:06:13Z</time>
      </trkpt>
      <trkpt lat="46.00614" lon="6.98301">
        <ele>2909.09</ele>
        <time>2012-09-28T11:06:19Z</time>
      </trkpt>
      <trkpt lat="46.00618" lon="6.98299">
        <ele>2908.61</ele>
        <time>2012-09-28T11:06:33Z</time>
      </trkpt>
      <trkpt lat="46.00619" lon="6.98299">
        <ele>2908.13</ele>
        <time>2012-09-28T11:06:54Z</time>
      </trkpt>
      <trkpt lat="46.0062" lon="6.98296">
        <ele>2907.16</ele>
        <time>2012-09-28T11:07:07Z</time>
      </trkpt>
      <trkpt lat="46.00622" lon="6.98294">
        <ele>2906.2</ele>
        <time>2012-09-28T11:07:17Z</time>
      </trkpt>
      <trkpt lat="46.00625" lon="6.98288">
        <ele>2904.76</ele>
        <time>2012-09-28T11:07:29Z</time>
      </trkpt>
      <trkpt lat="46.00622" lon="6.98283">
        <ele>2904.28</ele>
        <time>2012-09-28T11:07:44Z</time>
      </trkpt>
      <trkpt lat="46.00619" lon="6.98277">
        <ele>2904.28</ele>
        <time>2012-09-28T11:07:54Z</time>
      </trkpt>
      <trkpt lat="46.00622" lon="6.98276">
        <ele>2903.8</ele>
        <time>2012-09-28T11:08:08Z</time>
      </trkpt>
      <trkpt lat="46.00626" lon="6.98275">
        <ele>2900.44</ele>
        <time>2012-09-28T11:08:22Z</time>
      </trkpt>
      <trkpt lat="46.00634" lon="6.98273">
        <ele>2898.03</ele>
        <time>2012-09-28T11:08:37Z</time>
      </trkpt>
      <trkpt lat="46.00637" lon="6.98274">
        <ele>2896.59</ele>
        <time>2012-09-28T11:08:41Z</time>
      </trkpt>
      <trkpt lat="46.00651" lon="6.98279">
        <ele>2894.19</ele>
        <time>2012-09-28T11:08:57Z</time>
      </trkpt>
      <trkpt lat="46.00658" lon="6.9828">
        <ele>2892.26</ele>
        <time>2012-09-28T11:09:06Z</time>
      </trkpt>
      <trkpt lat="46.00661" lon="6.9828">
        <ele>2891.3</ele>
        <time>2012-09-28T11:09:08Z</time>
      </trkpt>
      <trkpt lat="46.00666" lon="6.98287">
        <ele>2890.34</ele>
        <time>2012-09-28T11:09:17Z</time>
      </trkpt>
      <trkpt lat="46.00671" lon="6.98306">
        <ele>2888.9</ele>
        <time>2012-09-28T11:09:32Z</time>
      </trkpt>
      <trkpt lat="46.00672" lon="6.98311">
        <ele>2888.42</ele>
        <time>2012-09-28T11:09:40Z</time>
      </trkpt>
      <trkpt lat="46.00674" lon="6.98312">
        <ele>2888.42</ele>
        <time>2012-09-28T11:09:42Z</time>
      </trkpt>
      <trkpt lat="46.00681" lon="6.98328">
        <ele>2887.46</ele>
        <time>2012-09-28T11:09:57Z</time>
      </trkpt>
      <trkpt lat="46.00688" lon="6.98338">
        <ele>2887.46</ele>
        <time>2012-09-28T11:10:08Z</time>
      </trkpt>
      <trkpt lat="46.00692" lon="6.98346">
        <ele>2888.9</ele>
        <time>2012-09-28T11:10:21Z</time>
      </trkpt>
      <trkpt lat="46.00694" lon="6.9835">
        <ele>2888.9</ele>
        <time>2012-09-28T11:10:32Z</time>
      </trkpt>
      <trkpt lat="46.00698" lon="6.98357">
        <ele>2887.46</ele>
        <time>2012-09-28T11:10:43Z</time>
      </trkpt>
      <trkpt lat="46.00706" lon="6.98362">
        <ele>2886.02</ele>
        <time>2012-09-28T11:10:57Z</time>
      </trkpt>
      <trkpt lat="46.0071" lon="6.98368">
        <ele>2884.57</ele>
        <time>2012-09-28T11:11:10Z</time>
      </trkpt>
      <trkpt lat="46.00711" lon="6.98369">
        <ele>2884.09</ele>
        <time>2012-09-28T11:11:13Z</time>
      </trkpt>
      <trkpt lat="46.00719" lon="6.9838">
        <ele>2881.69</ele>
        <time>2012-09-28T11:11:26Z</time>
      </trkpt>
      <trkpt lat="46.00727" lon="6.98387">
        <ele>2878.81</ele>
        <time>2012-09-28T11:11:41Z</time>
      </trkpt>
      <trkpt lat="46.00731" lon="6.98394">
        <ele>2875.92</ele>
        <time>2012-09-28T11:11:58Z</time>
      </trkpt>
      <trkpt lat="46.00735" lon="6.98399">
        <ele>2873.52</ele>
        <time>2012-09-28T11:12:10Z</time>
      </trkpt>
      <trkpt lat="46.00737" lon="6.98402">
        <ele>2872.08</ele>
        <time>2012-09-28T11:12:22Z</time>
      </trkpt>
      <trkpt lat="46.0074" lon="6.98407">
        <ele>2871.6</ele>
        <time>2012-09-28T11:12:34Z</time>
      </trkpt>
      <trkpt lat="46.00739" lon="6.98409">
        <ele>2871.6</ele>
        <time>2012-09-28T11:12:48Z</time>
      </trkpt>
      <trkpt lat="46.00741" lon="6.98411">
        <ele>2870.63</ele>
        <time>2012-09-28T11:13:00Z</time>
      </trkpt>
      <trkpt lat="46.00743" lon="6.98415">
        <ele>2869.67</ele>
        <time>2012-09-28T11:13:15Z</time>
      </trkpt>
      <trkpt lat="46.00743" lon="6.98417">
        <ele>2869.67</ele>
        <time>2012-09-28T11:13:36Z</time>
      </trkpt>
      <trkpt lat="46.00744" lon="6.98416">
        <ele>2870.15</ele>
        <time>2012-09-28T11:14:04Z</time>
      </trkpt>
      <trkpt lat="46.00745" lon="6.98414">
        <ele>2869.67</ele>
        <time>2012-09-28T11:14:20Z</time>
      </trkpt>
      <trkpt lat="46.00743" lon="6.98416">
        <ele>2869.67</ele>
        <time>2012-09-28T11:14:42Z</time>
      </trkpt>
      <trkpt lat="46.00742" lon="6.98415">
        <ele>2870.15</ele>
        <time>2012-09-28T11:14:57Z</time>
      </trkpt>
      <trkpt lat="46.00742" lon="6.98416">
        <ele>2870.15</ele>
        <time>2012-09-28T11:15:19Z</time>
      </trkpt>
      <trkpt lat="46.00743" lon="6.98416">
        <ele>2869.67</ele>
        <time>2012-09-28T11:15:41Z</time>
      </trkpt>
      <trkpt lat="46.00744" lon="6.98417">
        <ele>2868.71</ele>
        <time>2012-09-28T11:16:00Z</time>
      </trkpt>
      <trkpt lat="46.00746" lon="6.9842">
        <ele>2867.27</ele>
        <time>2012-09-28T11:16:16Z</time>
      </trkpt>
      <trkpt lat="46.00749" lon="6.98421">
        <ele>2864.39</ele>
        <time>2012-09-28T11:16:32Z</time>
      </trkpt>
      <trkpt lat="46.00754" lon="6.9842">
        <ele>2861.98</ele>
        <time>2012-09-28T11:16:46Z</time>
      </trkpt>
      <trkpt lat="46.00758" lon="6.98421">
        <ele>2858.62</ele>
        <time>2012-09-28T11:16:55Z</time>
      </trkpt>
      <trkpt lat="46.00763" lon="6.98423">
        <ele>2855.25</ele>
        <time>2012-09-28T11:17:06Z</time>
      </trkpt>
      <trkpt lat="46.00765" lon="6.98422">
        <ele>2852.85</ele>
        <time>2012-09-28T11:17:19Z</time>
      </trkpt>
      <trkpt lat="46.00771" lon="6.98421">
        <ele>2849.97</ele>
        <time>2012-09-28T11:17:32Z</time>
      </trkpt>
      <trkpt lat="46.00774" lon="6.98421">
        <ele>2847.56</ele>
        <time>2012-09-28T11:17:37Z</time>
      </trkpt>
      <trkpt lat="46.00778" lon="6.98418">
        <ele>2844.68</ele>
        <time>2012-09-28T11:17:50Z</time>
      </trkpt>
      <trkpt lat="46.00779" lon="6.98409">
        <ele>2843.24</ele>
        <time>2012-09-28T11:18:05Z</time>
      </trkpt>
      <trkpt lat="46.00782" lon="6.984">
        <ele>2840.83</ele>
        <time>2012-09-28T11:18:17Z</time>
      </trkpt>
      <trkpt lat="46.00788" lon="6.98393">
        <ele>2838.43</ele>
        <time>2012-09-28T11:18:30Z</time>
      </trkpt>
      <trkpt lat="46.0079" lon="6.98388">
        <ele>2837.95</ele>
        <time>2012-09-28T11:18:41Z</time>
      </trkpt>
      <trkpt lat="46.00793" lon="6.9838">
        <ele>2835.55</ele>
        <time>2012-09-28T11:18:55Z</time>
      </trkpt>
      <trkpt lat="46.00795" lon="6.98378">
        <ele>2834.58</ele>
        <time>2012-09-28T11:19:02Z</time>
      </trkpt>
      <trkpt lat="46.008" lon="6.98376">
        <ele>2832.18</ele>
        <time>2012-09-28T11:19:14Z</time>
      </trkpt>
      <trkpt lat="46.00804" lon="6.98371">
        <ele>2830.26</ele>
        <time>2012-09-28T11:19:28Z</time>
      </trkpt>
      <trkpt lat="46.0081" lon="6.98371">
        <ele>2828.34</ele>
        <time>2012-09-28T11:19:41Z</time>
      </trkpt>
      <trkpt lat="46.00814" lon="6.9837">
        <ele>2826.41</ele>
        <time>2012-09-28T11:19:52Z</time>
      </trkpt>
      <trkpt lat="46.00818" lon="6.98377">
        <ele>2824.49</ele>
        <time>2012-09-28T11:20:05Z</time>
      </trkpt>
      <trkpt lat="46.00824" lon="6.98376">
        <ele>2822.09</ele>
        <time>2012-09-28T11:20:20Z</time>
      </trkpt>
      <trkpt lat="46.00828" lon="6.98376">
        <ele>2819.68</ele>
        <time>2012-09-28T11:20:33Z</time>
      </trkpt>
      <trkpt lat="46.0083" lon="6.98376">
        <ele>2819.68</ele>
        <time>2012-09-28T11:20:37Z</time>
      </trkpt>
      <trkpt lat="46.00834" lon="6.98379">
        <ele>2818.24</ele>
        <time>2012-09-28T11:20:54Z</time>
      </trkpt>
      <trkpt lat="46.00838" lon="6.98379">
        <ele>2816.32</ele>
        <time>2012-09-28T11:21:04Z</time>
      </trkpt>
      <trkpt lat="46.00843" lon="6.98379">
        <ele>2814.88</ele>
        <time>2012-09-28T11:21:14Z</time>
      </trkpt>
      <trkpt lat="46.00849" lon="6.98382">
        <ele>2813.92</ele>
        <time>2012-09-28T11:21:26Z</time>
      </trkpt>
      <trkpt lat="46.00851" lon="6.98381">
        <ele>2812.47</ele>
        <time>2012-09-28T11:21:30Z</time>
      </trkpt>
      <trkpt lat="46.00856" lon="6.98384">
        <ele>2811.51</ele>
        <time>2012-09-28T11:21:44Z</time>
      </trkpt>
      <trkpt lat="46.0086" lon="6.98391">
        <ele>2811.51</ele>
        <time>2012-09-28T11:21:57Z</time>
      </trkpt>
      <trkpt lat="46.00866" lon="6.98399">
        <ele>2811.03</ele>
        <time>2012-09-28T11:22:11Z</time>
      </trkpt>
      <trkpt lat="46.00872" lon="6.98401">
        <ele>2809.59</ele>
        <time>2012-09-28T11:22:25Z</time>
      </trkpt>
      <trkpt lat="46.00876" lon="6.98407">
        <ele>2809.11</ele>
        <time>2012-09-28T11:22:41Z</time>
      </trkpt>
      <trkpt lat="46.00883" lon="6.98414">
        <ele>2806.23</ele>
        <time>2012-09-28T11:22:54Z</time>
      </trkpt>
      <trkpt lat="46.00887" lon="6.98416">
        <ele>2804.78</ele>
        <time>2012-09-28T11:23:01Z</time>
      </trkpt>
      <trkpt lat="46.00891" lon="6.98418">
        <ele>2803.82</ele>
        <time>2012-09-28T11:23:06Z</time>
      </trkpt>
      <trkpt lat="46.009" lon="6.98416">
        <ele>2801.42</ele>
        <time>2012-09-28T11:23:20Z</time>
      </trkpt>
      <trkpt lat="46.00906" lon="6.98417">
        <ele>2801.42</ele>
        <time>2012-09-28T11:23:32Z</time>
      </trkpt>
      <trkpt lat="46.00907" lon="6.98411">
        <ele>2800.94</ele>
        <time>2012-09-28T11:23:51Z</time>
      </trkpt>
      <trkpt lat="46.00905" lon="6.98411">
        <ele>2799.5</ele>
        <time>2012-09-28T11:24:12Z</time>
      </trkpt>
      <trkpt lat="46.00905" lon="6.9841">
        <ele>2799.5</ele>
        <time>2012-09-28T11:24:36Z</time>
      </trkpt>
      <trkpt lat="46.00905" lon="6.98409">
        <ele>2800.46</ele>
        <time>2012-09-28T11:24:51Z</time>
      </trkpt>
      <trkpt lat="46.00906" lon="6.9841">
        <ele>2799.02</ele>
        <time>2012-09-28T11:25:12Z</time>
      </trkpt>
      <trkpt lat="46.00906" lon="6.98411">
        <ele>2800.46</ele>
        <time>2012-09-28T11:25:18Z</time>
      </trkpt>
      <trkpt lat="46.00907" lon="6.98411">
        <ele>2800.46</ele>
        <time>2012-09-28T11:25:35Z</time>
      </trkpt>
      <trkpt lat="46.00908" lon="6.98412">
        <ele>2799.98</ele>
        <time>2012-09-28T11:25:50Z</time>
      </trkpt>
      <trkpt lat="46.00907" lon="6.98411">
        <ele>2799.98</ele>
        <time>2012-09-28T11:26:09Z</time>
      </trkpt>
      <trkpt lat="46.0091" lon="6.98414">
        <ele>2798.54</ele>
        <time>2012-09-28T11:26:26Z</time>
      </trkpt>
      <trkpt lat="46.00916" lon="6.98423">
        <ele>2796.61</ele>
        <time>2012-09-28T11:26:39Z</time>
      </trkpt>
      <trkpt lat="46.00918" lon="6.98425">
        <ele>2796.61</ele>
        <time>2012-09-28T11:26:57Z</time>
      </trkpt>
      <trkpt lat="46.00922" lon="6.98422">
        <ele>2794.69</ele>
        <time>2012-09-28T11:27:10Z</time>
      </trkpt>
      <trkpt lat="46.00927" lon="6.98418">
        <ele>2793.25</ele>
        <time>2012-09-28T11:27:22Z</time>
      </trkpt>
      <trkpt lat="46.00931" lon="6.98419">
        <ele>2792.29</ele>
        <time>2012-09-28T11:27:33Z</time>
      </trkpt>
      <trkpt lat="46.00933" lon="6.98414">
        <ele>2791.81</ele>
        <time>2012-09-28T11:27:44Z</time>
      </trkpt>
      <trkpt lat="46.00933" lon="6.9841">
        <ele>2790.84</ele>
        <time>2012-09-28T11:27:54Z</time>
      </trkpt>
      <trkpt lat="46.00936" lon="6.9841">
        <ele>2789.4</ele>
        <time>2012-09-28T11:28:08Z</time>
      </trkpt>
      <trkpt lat="46.00938" lon="6.98405">
        <ele>2787.96</ele>
        <time>2012-09-28T11:28:20Z</time>
      </trkpt>
      <trkpt lat="46.0094" lon="6.98402">
        <ele>2787.48</ele>
        <time>2012-09-28T11:28:33Z</time>
      </trkpt>
      <trkpt lat="46.00944" lon="6.98401">
        <ele>2787</ele>
        <time>2012-09-28T11:28:45Z</time>
      </trkpt>
      <trkpt lat="46.00947" lon="6.98399">
        <ele>2785.08</ele>
        <time>2012-09-28T11:28:58Z</time>
      </trkpt>
      <trkpt lat="46.00952" lon="6.98397">
        <ele>2784.12</ele>
        <time>2012-09-28T11:29:12Z</time>
      </trkpt>
      <trkpt lat="46.00953" lon="6.98391">
        <ele>2783.15</ele>
        <time>2012-09-28T11:29:19Z</time>
      </trkpt>
      <trkpt lat="46.00958" lon="6.98378">
        <ele>2780.27</ele>
        <time>2012-09-28T11:29:33Z</time>
      </trkpt>
      <trkpt lat="46.00964" lon="6.98371">
        <ele>2778.35</ele>
        <time>2012-09-28T11:29:44Z</time>
      </trkpt>
      <trkpt lat="46.00963" lon="6.98363">
        <ele>2778.35</ele>
        <time>2012-09-28T11:29:50Z</time>
      </trkpt>
      <trkpt lat="46.00973" lon="6.98347">
        <ele>2776.91</ele>
        <time>2012-09-28T11:30:03Z</time>
      </trkpt>
      <trkpt lat="46.00974" lon="6.98346">
        <ele>2777.39</ele>
        <time>2012-09-28T11:30:05Z</time>
      </trkpt>
      <trkpt lat="46.00978" lon="6.98347">
        <ele>2776.91</ele>
        <time>2012-09-28T11:30:09Z</time>
      </trkpt>
      <trkpt lat="46.00982" lon="6.98345">
        <ele>2776.42</ele>
        <time>2012-09-28T11:30:13Z</time>
      </trkpt>
      <trkpt lat="46.00986" lon="6.98344">
        <ele>2774.98</ele>
        <time>2012-09-28T11:30:16Z</time>
      </trkpt>
      <trkpt lat="46.01006" lon="6.98339">
        <ele>2774.5</ele>
        <time>2012-09-28T11:30:34Z</time>
      </trkpt>
      <trkpt lat="46.01015" lon="6.98336">
        <ele>2775.94</ele>
        <time>2012-09-28T11:30:46Z</time>
      </trkpt>
      <trkpt lat="46.01023" lon="6.98336">
        <ele>2776.91</ele>
        <time>2012-09-28T11:30:57Z</time>
      </trkpt>
      <trkpt lat="46.01028" lon="6.98333">
        <ele>2775.94</ele>
        <time>2012-09-28T11:31:08Z</time>
      </trkpt>
      <trkpt lat="46.0104" lon="6.98336">
        <ele>2775.46</ele>
        <time>2012-09-28T11:31:22Z</time>
      </trkpt>
      <trkpt lat="46.01047" lon="6.98339">
        <ele>2773.54</ele>
        <time>2012-09-28T11:31:32Z</time>
      </trkpt>
      <trkpt lat="46.01051" lon="6.98342">
        <ele>2773.06</ele>
        <time>2012-09-28T11:31:44Z</time>
      </trkpt>
      <trkpt lat="46.01051" lon="6.98342">
        <ele>2773.54</ele>
        <time>2012-09-28T11:31:45Z</time>
      </trkpt>
      <trkpt lat="46.0105" lon="6.98339">
        <ele>2773.06</ele>
        <time>2012-09-28T11:31:57Z</time>
      </trkpt>
      <trkpt lat="46.0105" lon="6.9834">
        <ele>2773.06</ele>
        <time>2012-09-28T11:32:28Z</time>
      </trkpt>
      <trkpt lat="46.0105" lon="6.98341">
        <ele>2773.06</ele>
        <time>2012-09-28T11:32:31Z</time>
      </trkpt>
      <trkpt lat="46.01055" lon="6.98346">
        <ele>2771.62</ele>
        <time>2012-09-28T11:32:42Z</time>
      </trkpt>
      <trkpt lat="46.01056" lon="6.98348">
        <ele>2771.62</ele>
        <time>2012-09-28T11:32:44Z</time>
      </trkpt>
      <trkpt lat="46.01059" lon="6.98348">
        <ele>2771.14</ele>
        <time>2012-09-28T11:32:54Z</time>
      </trkpt>
      <trkpt lat="46.01061" lon="6.98347">
        <ele>2770.66</ele>
        <time>2012-09-28T11:32:56Z</time>
      </trkpt>
      <trkpt lat="46.01068" lon="6.9834">
        <ele>2774.02</ele>
        <time>2012-09-28T11:33:09Z</time>
      </trkpt>
      <trkpt lat="46.01071" lon="6.98338">
        <ele>2776.91</ele>
        <time>2012-09-28T11:33:20Z</time>
      </trkpt>
      <trkpt lat="46.01072" lon="6.98338">
        <ele>2777.39</ele>
        <time>2012-09-28T11:33:22Z</time>
      </trkpt>
      <trkpt lat="46.01075" lon="6.98336">
        <ele>2777.87</ele>
        <time>2012-09-28T11:33:27Z</time>
      </trkpt>
      <trkpt lat="46.01079" lon="6.98336">
        <ele>2778.83</ele>
        <time>2012-09-28T11:33:36Z</time>
      </trkpt>
      <trkpt lat="46.01084" lon="6.98334">
        <ele>2778.35</ele>
        <time>2012-09-28T11:33:47Z</time>
      </trkpt>
      <trkpt lat="46.01086" lon="6.98333">
        <ele>2778.35</ele>
        <time>2012-09-28T11:34:01Z</time>
      </trkpt>
      <trkpt lat="46.01085" lon="6.98335">
        <ele>2778.35</ele>
        <time>2012-09-28T11:34:30Z</time>
      </trkpt>
      <trkpt lat="46.01085" lon="6.98336">
        <ele>2778.35</ele>
        <time>2012-09-28T11:35:05Z</time>
      </trkpt>
      <trkpt lat="46.01089" lon="6.98337">
        <ele>2776.91</ele>
        <time>2012-09-28T11:35:13Z</time>
      </trkpt>
      <trkpt lat="46.01101" lon="6.98339">
        <ele>2775.94</ele>
        <time>2012-09-28T11:35:27Z</time>
      </trkpt>
      <trkpt lat="46.0111" lon="6.98338">
        <ele>2774.02</ele>
        <time>2012-09-28T11:35:37Z</time>
      </trkpt>
      <trkpt lat="46.01115" lon="6.9834">
        <ele>2773.54</ele>
        <time>2012-09-28T11:35:49Z</time>
      </trkpt>
      <trkpt lat="46.01113" lon="6.98348">
        <ele>2771.14</ele>
        <time>2012-09-28T11:36:02Z</time>
      </trkpt>
      <trkpt lat="46.01114" lon="6.98353">
        <ele>2768.73</ele>
        <time>2012-09-28T11:36:17Z</time>
      </trkpt>
      <trkpt lat="46.01117" lon="6.98355">
        <ele>2766.81</ele>
        <time>2012-09-28T11:36:32Z</time>
      </trkpt>
      <trkpt lat="46.01117" lon="6.98353">
        <ele>2767.77</ele>
        <time>2012-09-28T11:36:47Z</time>
      </trkpt>
      <trkpt lat="46.01119" lon="6.98347">
        <ele>2768.25</ele>
        <time>2012-09-28T11:36:55Z</time>
      </trkpt>
      <trkpt lat="46.0112" lon="6.98343">
        <ele>2769.21</ele>
        <time>2012-09-28T11:37:03Z</time>
      </trkpt>
      <trkpt lat="46.01125" lon="6.98336">
        <ele>2769.7</ele>
        <time>2012-09-28T11:37:11Z</time>
      </trkpt>
      <trkpt lat="46.01132" lon="6.98331">
        <ele>2771.62</ele>
        <time>2012-09-28T11:37:23Z</time>
      </trkpt>
      <trkpt lat="46.01133" lon="6.9833">
        <ele>2772.1</ele>
        <time>2012-09-28T11:37:25Z</time>
      </trkpt>
      <trkpt lat="46.01136" lon="6.98331">
        <ele>2771.14</ele>
        <time>2012-09-28T11:37:38Z</time>
      </trkpt>
      <trkpt lat="46.01136" lon="6.98331">
        <ele>2771.14</ele>
        <time>2012-09-28T11:37:52Z</time>
      </trkpt>
      <trkpt lat="46.01138" lon="6.98324">
        <ele>2770.66</ele>
        <time>2012-09-28T11:38:05Z</time>
      </trkpt>
      <trkpt lat="46.0114" lon="6.98325">
        <ele>2770.66</ele>
        <time>2012-09-28T11:38:17Z</time>
      </trkpt>
      <trkpt lat="46.01142" lon="6.98325">
        <ele>2770.66</ele>
        <time>2012-09-28T11:38:31Z</time>
      </trkpt>
      <trkpt lat="46.01143" lon="6.98328">
        <ele>2769.21</ele>
        <time>2012-09-28T11:38:44Z</time>
      </trkpt>
      <trkpt lat="46.01143" lon="6.98332">
        <ele>2768.73</ele>
        <time>2012-09-28T11:38:57Z</time>
      </trkpt>
      <trkpt lat="46.01144" lon="6.98335">
        <ele>2766.81</ele>
        <time>2012-09-28T11:39:13Z</time>
      </trkpt>
      <trkpt lat="46.01148" lon="6.98331">
        <ele>2765.85</ele>
        <time>2012-09-28T11:39:24Z</time>
      </trkpt>
      <trkpt lat="46.0115" lon="6.9833">
        <ele>2764.89</ele>
        <time>2012-09-28T11:39:30Z</time>
      </trkpt>
      <trkpt lat="46.01152" lon="6.9833">
        <ele>2765.37</ele>
        <time>2012-09-28T11:39:32Z</time>
      </trkpt>
      <trkpt lat="46.01157" lon="6.9833">
        <ele>2765.85</ele>
        <time>2012-09-28T11:39:37Z</time>
      </trkpt>
      <trkpt lat="46.01169" lon="6.98342">
        <ele>2764.89</ele>
        <time>2012-09-28T11:39:52Z</time>
      </trkpt>
      <trkpt lat="46.01173" lon="6.98347">
        <ele>2764.89</ele>
        <time>2012-09-28T11:40:06Z</time>
      </trkpt>
      <trkpt lat="46.01177" lon="6.98347">
        <ele>2764.41</ele>
        <time>2012-09-28T11:40:14Z</time>
      </trkpt>
      <trkpt lat="46.01184" lon="6.9835">
        <ele>2764.89</ele>
        <time>2012-09-28T11:40:27Z</time>
      </trkpt>
      <trkpt lat="46.01185" lon="6.9835">
        <ele>2765.37</ele>
        <time>2012-09-28T11:40:28Z</time>
      </trkpt>
      <trkpt lat="46.01193" lon="6.98352">
        <ele>2765.37</ele>
        <time>2012-09-28T11:40:41Z</time>
      </trkpt>
      <trkpt lat="46.01197" lon="6.98353">
        <ele>2764.41</ele>
        <time>2012-09-28T11:40:52Z</time>
      </trkpt>
      <trkpt lat="46.01198" lon="6.98355">
        <ele>2764.41</ele>
        <time>2012-09-28T11:40:54Z</time>
      </trkpt>
      <trkpt lat="46.01201" lon="6.98355">
        <ele>2763.93</ele>
        <time>2012-09-28T11:41:01Z</time>
      </trkpt>
      <trkpt lat="46.01207" lon="6.98358">
        <ele>2763.93</ele>
        <time>2012-09-28T11:41:12Z</time>
      </trkpt>
      <trkpt lat="46.0121" lon="6.98358">
        <ele>2763.93</ele>
        <time>2012-09-28T11:41:17Z</time>
      </trkpt>
      <trkpt lat="46.01216" lon="6.98356">
        <ele>2762.97</ele>
        <time>2012-09-28T11:41:26Z</time>
      </trkpt>
      <trkpt lat="46.01227" lon="6.98355">
        <ele>2762.49</ele>
        <time>2012-09-28T11:41:35Z</time>
      </trkpt>
      <trkpt lat="46.01237" lon="6.98356">
        <ele>2762</ele>
        <time>2012-09-28T11:41:47Z</time>
      </trkpt>
      <trkpt lat="46.01246" lon="6.98356">
        <ele>2762</ele>
        <time>2012-09-28T11:41:55Z</time>
      </trkpt>
      <trkpt lat="46.0125" lon="6.98357">
        <ele>2761.52</ele>
        <time>2012-09-28T11:41:59Z</time>
      </trkpt>
      <trkpt lat="46.01261" lon="6.98356">
        <ele>2760.56</ele>
        <time>2012-09-28T11:42:11Z</time>
      </trkpt>
      <trkpt lat="46.01264" lon="6.98356">
        <ele>2761.04</ele>
        <time>2012-09-28T11:42:15Z</time>
      </trkpt>
      <trkpt lat="46.0127" lon="6.98351">
        <ele>2761.04</ele>
        <time>2012-09-28T11:42:30Z</time>
      </trkpt>
      <trkpt lat="46.01269" lon="6.98353">
        <ele>2761.04</ele>
        <time>2012-09-28T11:42:42Z</time>
      </trkpt>
      <trkpt lat="46.01269" lon="6.98353">
        <ele>2760.56</ele>
        <time>2012-09-28T11:43:05Z</time>
      </trkpt>
      <trkpt lat="46.01275" lon="6.98354">
        <ele>2759.12</ele>
        <time>2012-09-28T11:43:15Z</time>
      </trkpt>
      <trkpt lat="46.01277" lon="6.98351">
        <ele>2759.12</ele>
        <time>2012-09-28T11:43:18Z</time>
      </trkpt>
      <trkpt lat="46.01283" lon="6.98349">
        <ele>2757.68</ele>
        <time>2012-09-28T11:43:30Z</time>
      </trkpt>
      <trkpt lat="46.01282" lon="6.98349">
        <ele>2757.68</ele>
        <time>2012-09-28T11:44:01Z</time>
      </trkpt>
      <trkpt lat="46.01282" lon="6.98355">
        <ele>2756.72</ele>
        <time>2012-09-28T11:44:26Z</time>
      </trkpt>
      <trkpt lat="46.01283" lon="6.98361">
        <ele>2754.31</ele>
        <time>2012-09-28T11:44:39Z</time>
      </trkpt>
      <trkpt lat="46.01284" lon="6.98364">
        <ele>2752.87</ele>
        <time>2012-09-28T11:44:53Z</time>
      </trkpt>
      <trkpt lat="46.01282" lon="6.98369">
        <ele>2751.91</ele>
        <time>2012-09-28T11:45:09Z</time>
      </trkpt>
      <trkpt lat="46.01278" lon="6.98374">
        <ele>2749.99</ele>
        <time>2012-09-28T11:45:22Z</time>
      </trkpt>
      <trkpt lat="46.0128" lon="6.9838">
        <ele>2747.59</ele>
        <time>2012-09-28T11:45:35Z</time>
      </trkpt>
      <trkpt lat="46.01281" lon="6.98384">
        <ele>2745.66</ele>
        <time>2012-09-28T11:45:51Z</time>
      </trkpt>
      <trkpt lat="46.01283" lon="6.98388">
        <ele>2742.78</ele>
        <time>2012-09-28T11:46:05Z</time>
      </trkpt>
      <trkpt lat="46.01283" lon="6.98392">
        <ele>2741.82</ele>
        <time>2012-09-28T11:46:22Z</time>
      </trkpt>
      <trkpt lat="46.01282" lon="6.98401">
        <ele>2738.45</ele>
        <time>2012-09-28T11:46:33Z</time>
      </trkpt>
      <trkpt lat="46.01283" lon="6.98408">
        <ele>2735.57</ele>
        <time>2012-09-28T11:46:44Z</time>
      </trkpt>
      <trkpt lat="46.01283" lon="6.98414">
        <ele>2732.68</ele>
        <time>2012-09-28T11:46:58Z</time>
      </trkpt>
      <trkpt lat="46.01284" lon="6.98415">
        <ele>2732.2</ele>
        <time>2012-09-28T11:47:13Z</time>
      </trkpt>
      <trkpt lat="46.01282" lon="6.98417">
        <ele>2732.68</ele>
        <time>2012-09-28T11:47:33Z</time>
      </trkpt>
      <trkpt lat="46.01275" lon="6.98419">
        <ele>2735.09</ele>
        <time>2012-09-28T11:47:43Z</time>
      </trkpt>
      <trkpt lat="46.01267" lon="6.98434">
        <ele>2733.65</ele>
        <time>2012-09-28T11:47:59Z</time>
      </trkpt>
      <trkpt lat="46.01266" lon="6.98437">
        <ele>2733.17</ele>
        <time>2012-09-28T11:48:02Z</time>
      </trkpt>
      <trkpt lat="46.01259" lon="6.98452">
        <ele>2730.28</ele>
        <time>2012-09-28T11:48:15Z</time>
      </trkpt>
      <trkpt lat="46.01256" lon="6.98463">
        <ele>2726.92</ele>
        <time>2012-09-28T11:48:27Z</time>
      </trkpt>
      <trkpt lat="46.01258" lon="6.98468">
        <ele>2724.99</ele>
        <time>2012-09-28T11:48:35Z</time>
      </trkpt>
      <trkpt lat="46.01263" lon="6.9847">
        <ele>2724.03</ele>
        <time>2012-09-28T11:48:49Z</time>
      </trkpt>
      <trkpt lat="46.01265" lon="6.98472">
        <ele>2723.07</ele>
        <time>2012-09-28T11:49:03Z</time>
      </trkpt>
      <trkpt lat="46.01265" lon="6.98472">
        <ele>2723.07</ele>
        <time>2012-09-28T11:49:11Z</time>
      </trkpt>
      <trkpt lat="46.01259" lon="6.98487">
        <ele>2721.63</ele>
        <time>2012-09-28T11:49:24Z</time>
      </trkpt>
      <trkpt lat="46.01259" lon="6.98488">
        <ele>2720.67</ele>
        <time>2012-09-28T11:49:25Z</time>
      </trkpt>
      <trkpt lat="46.0126" lon="6.98494">
        <ele>2720.19</ele>
        <time>2012-09-28T11:49:30Z</time>
      </trkpt>
      <trkpt lat="46.01264" lon="6.98506">
        <ele>2717.78</ele>
        <time>2012-09-28T11:49:44Z</time>
      </trkpt>
      <trkpt lat="46.01265" lon="6.98513">
        <ele>2716.34</ele>
        <time>2012-09-28T11:49:56Z</time>
      </trkpt>
      <trkpt lat="46.01266" lon="6.98514">
        <ele>2716.34</ele>
        <time>2012-09-28T11:49:57Z</time>
      </trkpt>
      <trkpt lat="46.01273" lon="6.98525">
        <ele>2712.98</ele>
        <time>2012-09-28T11:50:10Z</time>
      </trkpt>
      <trkpt lat="46.01277" lon="6.98534">
        <ele>2711.06</ele>
        <time>2012-09-28T11:50:25Z</time>
      </trkpt>
      <trkpt lat="46.0128" lon="6.98536">
        <ele>2710.09</ele>
        <time>2012-09-28T11:50:34Z</time>
      </trkpt>
      <trkpt lat="46.01284" lon="6.98548">
        <ele>2706.73</ele>
        <time>2012-09-28T11:50:46Z</time>
      </trkpt>
      <trkpt lat="46.01288" lon="6.98552">
        <ele>2704.33</ele>
        <time>2012-09-28T11:50:53Z</time>
      </trkpt>
      <trkpt lat="46.01296" lon="6.98557">
        <ele>2701.44</ele>
        <time>2012-09-28T11:51:03Z</time>
      </trkpt>
      <trkpt lat="46.01297" lon="6.98561">
        <ele>2700.48</ele>
        <time>2012-09-28T11:51:15Z</time>
      </trkpt>
      <trkpt lat="46.01299" lon="6.98562">
        <ele>2700</ele>
        <time>2012-09-28T11:51:18Z</time>
      </trkpt>
      <trkpt lat="46.01301" lon="6.98566">
        <ele>2699.04</ele>
        <time>2012-09-28T11:51:23Z</time>
      </trkpt>
      <trkpt lat="46.01304" lon="6.98573">
        <ele>2696.64</ele>
        <time>2012-09-28T11:51:35Z</time>
      </trkpt>
      <trkpt lat="46.01309" lon="6.98579">
        <ele>2693.75</ele>
        <time>2012-09-28T11:51:48Z</time>
      </trkpt>
      <trkpt lat="46.01313" lon="6.98582">
        <ele>2691.83</ele>
        <time>2012-09-28T11:52:01Z</time>
      </trkpt>
      <trkpt lat="46.01316" lon="6.98585">
        <ele>2688.46</ele>
        <time>2012-09-28T11:52:13Z</time>
      </trkpt>
      <trkpt lat="46.01318" lon="6.98584">
        <ele>2687.98</ele>
        <time>2012-09-28T11:52:17Z</time>
      </trkpt>
      <trkpt lat="46.01326" lon="6.98597">
        <ele>2684.62</ele>
        <time>2012-09-28T11:52:28Z</time>
      </trkpt>
      <trkpt lat="46.01328" lon="6.98603">
        <ele>2683.66</ele>
        <time>2012-09-28T11:52:32Z</time>
      </trkpt>
      <trkpt lat="46.01334" lon="6.98608">
        <ele>2681.25</ele>
        <time>2012-09-28T11:52:37Z</time>
      </trkpt>
      <trkpt lat="46.01341" lon="6.98616">
        <ele>2678.85</ele>
        <time>2012-09-28T11:52:44Z</time>
      </trkpt>
      <trkpt lat="46.0135" lon="6.98625">
        <ele>2676.93</ele>
        <time>2012-09-28T11:52:56Z</time>
      </trkpt>
      <trkpt lat="46.01351" lon="6.98625">
        <ele>2676.45</ele>
        <time>2012-09-28T11:53:24Z</time>
      </trkpt>
      <trkpt lat="46.01351" lon="6.98625">
        <ele>2676.45</ele>
        <time>2012-09-28T11:53:35Z</time>
      </trkpt>
      <trkpt lat="46.01356" lon="6.9863">
        <ele>2674.04</ele>
        <time>2012-09-28T11:53:47Z</time>
      </trkpt>
      <trkpt lat="46.01361" lon="6.98633">
        <ele>2671.64</ele>
        <time>2012-09-28T11:53:59Z</time>
      </trkpt>
      <trkpt lat="46.01367" lon="6.98636">
        <ele>2670.2</ele>
        <time>2012-09-28T11:54:10Z</time>
      </trkpt>
      <trkpt lat="46.01372" lon="6.98634">
        <ele>2668.76</ele>
        <time>2012-09-28T11:54:21Z</time>
      </trkpt>
      <trkpt lat="46.01378" lon="6.98632">
        <ele>2665.39</ele>
        <time>2012-09-28T11:54:31Z</time>
      </trkpt>
      <trkpt lat="46.0138" lon="6.98632">
        <ele>2664.91</ele>
        <time>2012-09-28T11:54:36Z</time>
      </trkpt>
      <trkpt lat="46.01389" lon="6.98624">
        <ele>2662.51</ele>
        <time>2012-09-28T11:54:44Z</time>
      </trkpt>
      <trkpt lat="46.01393" lon="6.98621">
        <ele>2662.99</ele>
        <time>2012-09-28T11:54:47Z</time>
      </trkpt>
      <trkpt lat="46.01398" lon="6.98619">
        <ele>2662.51</ele>
        <time>2012-09-28T11:54:51Z</time>
      </trkpt>
      <trkpt lat="46.014" lon="6.98612">
        <ele>2661.55</ele>
        <time>2012-09-28T11:55:03Z</time>
      </trkpt>
      <trkpt lat="46.014" lon="6.98613">
        <ele>2662.03</ele>
        <time>2012-09-28T11:55:05Z</time>
      </trkpt>
      <trkpt lat="46.01403" lon="6.98619">
        <ele>2661.55</ele>
        <time>2012-09-28T11:55:10Z</time>
      </trkpt>
      <trkpt lat="46.01408" lon="6.98623">
        <ele>2660.11</ele>
        <time>2012-09-28T11:55:17Z</time>
      </trkpt>
      <trkpt lat="46.0141" lon="6.98625">
        <ele>2659.62</ele>
        <time>2012-09-28T11:55:30Z</time>
      </trkpt>
      <trkpt lat="46.0141" lon="6.98626">
        <ele>2659.62</ele>
        <time>2012-09-28T11:55:55Z</time>
      </trkpt>
      <trkpt lat="46.0141" lon="6.98625">
        <ele>2659.62</ele>
        <time>2012-09-28T11:55:56Z</time>
      </trkpt>
      <trkpt lat="46.0141" lon="6.98612">
        <ele>2658.66</ele>
        <time>2012-09-28T11:56:08Z</time>
      </trkpt>
      <trkpt lat="46.01411" lon="6.98604">
        <ele>2656.74</ele>
        <time>2012-09-28T11:56:14Z</time>
      </trkpt>
      <trkpt lat="46.01413" lon="6.98599">
        <ele>2655.78</ele>
        <time>2012-09-28T11:56:21Z</time>
      </trkpt>
      <trkpt lat="46.01416" lon="6.98596">
        <ele>2654.34</ele>
        <time>2012-09-28T11:56:25Z</time>
      </trkpt>
      <trkpt lat="46.01418" lon="6.98596">
        <ele>2654.34</ele>
        <time>2012-09-28T11:56:27Z</time>
      </trkpt>
      <trkpt lat="46.01419" lon="6.98594">
        <ele>2653.86</ele>
        <time>2012-09-28T11:56:29Z</time>
      </trkpt>
      <trkpt lat="46.01426" lon="6.98582">
        <ele>2653.38</ele>
        <time>2012-09-28T11:56:38Z</time>
      </trkpt>
      <trkpt lat="46.01432" lon="6.98562">
        <ele>2652.42</ele>
        <time>2012-09-28T11:56:53Z</time>
      </trkpt>
      <trkpt lat="46.01435" lon="6.98553">
        <ele>2650.97</ele>
        <time>2012-09-28T11:56:58Z</time>
      </trkpt>
      <trkpt lat="46.01441" lon="6.98547">
        <ele>2650.49</ele>
        <time>2012-09-28T11:57:10Z</time>
      </trkpt>
      <trkpt lat="46.01442" lon="6.98549">
        <ele>2650.97</ele>
        <time>2012-09-28T11:57:14Z</time>
      </trkpt>
      <trkpt lat="46.01451" lon="6.98554">
        <ele>2649.53</ele>
        <time>2012-09-28T11:57:26Z</time>
      </trkpt>
      <trkpt lat="46.01452" lon="6.98555">
        <ele>2649.53</ele>
        <time>2012-09-28T11:57:28Z</time>
      </trkpt>
      <trkpt lat="46.01454" lon="6.98553">
        <ele>2648.57</ele>
        <time>2012-09-28T11:57:43Z</time>
      </trkpt>
      <trkpt lat="46.01455" lon="6.98553">
        <ele>2648.57</ele>
        <time>2012-09-28T11:57:47Z</time>
      </trkpt>
      <trkpt lat="46.01461" lon="6.98543">
        <ele>2646.17</ele>
        <time>2012-09-28T11:57:58Z</time>
      </trkpt>
      <trkpt lat="46.01466" lon="6.98533">
        <ele>2644.72</ele>
        <time>2012-09-28T11:58:11Z</time>
      </trkpt>
      <trkpt lat="46.01467" lon="6.98531">
        <ele>2643.76</ele>
        <time>2012-09-28T11:58:13Z</time>
      </trkpt>
      <trkpt lat="46.01472" lon="6.98532">
        <ele>2644.24</ele>
        <time>2012-09-28T11:58:27Z</time>
      </trkpt>
      <trkpt lat="46.01474" lon="6.98535">
        <ele>2643.76</ele>
        <time>2012-09-28T11:58:40Z</time>
      </trkpt>
      <trkpt lat="46.01475" lon="6.98535">
        <ele>2644.24</ele>
        <time>2012-09-28T11:58:53Z</time>
      </trkpt>
      <trkpt lat="46.01475" lon="6.98533">
        <ele>2644.24</ele>
        <time>2012-09-28T11:59:17Z</time>
      </trkpt>
      <trkpt lat="46.01475" lon="6.98534">
        <ele>2644.24</ele>
        <time>2012-09-28T11:59:51Z</time>
      </trkpt>
      <trkpt lat="46.01475" lon="6.98535">
        <ele>2644.24</ele>
        <time>2012-09-28T12:00:15Z</time>
      </trkpt>
      <trkpt lat="46.01475" lon="6.98534">
        <ele>2643.76</ele>
        <time>2012-09-28T12:00:40Z</time>
      </trkpt>
      <trkpt lat="46.01476" lon="6.98534">
        <ele>2644.24</ele>
        <time>2012-09-28T12:01:08Z</time>
      </trkpt>
      <trkpt lat="46.01477" lon="6.98536">
        <ele>2644.24</ele>
        <time>2012-09-28T12:01:39Z</time>
      </trkpt>
      <trkpt lat="46.01474" lon="6.98534">
        <ele>2643.76</ele>
        <time>2012-09-28T12:02:09Z</time>
      </trkpt>
      <trkpt lat="46.01474" lon="6.98533">
        <ele>2644.24</ele>
        <time>2012-09-28T12:02:36Z</time>
      </trkpt>
      <trkpt lat="46.01476" lon="6.98535">
        <ele>2644.24</ele>
        <time>2012-09-28T12:02:59Z</time>
      </trkpt>
      <trkpt lat="46.01478" lon="6.98537">
        <ele>2644.72</ele>
        <time>2012-09-28T12:03:02Z</time>
      </trkpt>
      <trkpt lat="46.01481" lon="6.9854">
        <ele>2645.69</ele>
        <time>2012-09-28T12:03:06Z</time>
      </trkpt>
      <trkpt lat="46.01496" lon="6.98562">
        <ele>2647.13</ele>
        <time>2012-09-28T12:03:23Z</time>
      </trkpt>
      <trkpt lat="46.01499" lon="6.9857">
        <ele>2648.09</ele>
        <time>2012-09-28T12:03:37Z</time>
      </trkpt>
      <trkpt lat="46.015" lon="6.98568">
        <ele>2648.57</ele>
        <time>2012-09-28T12:03:48Z</time>
      </trkpt>
      <trkpt lat="46.01508" lon="6.98563">
        <ele>2647.13</ele>
        <time>2012-09-28T12:04:00Z</time>
      </trkpt>
      <trkpt lat="46.01508" lon="6.98561">
        <ele>2647.13</ele>
        <time>2012-09-28T12:04:11Z</time>
      </trkpt>
      <trkpt lat="46.01507" lon="6.98558">
        <ele>2648.09</ele>
        <time>2012-09-28T12:04:13Z</time>
      </trkpt>
      <trkpt lat="46.01504" lon="6.98555">
        <ele>2647.13</ele>
        <time>2012-09-28T12:04:27Z</time>
      </trkpt>
      <trkpt lat="46.01506" lon="6.98555">
        <ele>2647.13</ele>
        <time>2012-09-28T12:04:42Z</time>
      </trkpt>
      <trkpt lat="46.01507" lon="6.98555">
        <ele>2646.65</ele>
        <time>2012-09-28T12:04:44Z</time>
      </trkpt>
      <trkpt lat="46.01512" lon="6.9855">
        <ele>2644.24</ele>
        <time>2012-09-28T12:04:56Z</time>
      </trkpt>
      <trkpt lat="46.01514" lon="6.98549">
        <ele>2643.76</ele>
        <time>2012-09-28T12:05:03Z</time>
      </trkpt>
      <trkpt lat="46.01513" lon="6.98546">
        <ele>2643.28</ele>
        <time>2012-09-28T12:05:06Z</time>
      </trkpt>
      <trkpt lat="46.01517" lon="6.98531">
        <ele>2640.88</ele>
        <time>2012-09-28T12:05:18Z</time>
      </trkpt>
      <trkpt lat="46.0152" lon="6.98526">
        <ele>2640.88</ele>
        <time>2012-09-28T12:05:32Z</time>
      </trkpt>
      <trkpt lat="46.01519" lon="6.98525">
        <ele>2640.4</ele>
        <time>2012-09-28T12:05:44Z</time>
      </trkpt>
      <trkpt lat="46.01514" lon="6.9852">
        <ele>2640.88</ele>
        <time>2012-09-28T12:05:52Z</time>
      </trkpt>
      <trkpt lat="46.01513" lon="6.98516">
        <ele>2641.36</ele>
        <time>2012-09-28T12:05:56Z</time>
      </trkpt>
      <trkpt lat="46.01511" lon="6.98513">
        <ele>2641.84</ele>
        <time>2012-09-28T12:06:00Z</time>
      </trkpt>
      <trkpt lat="46.01509" lon="6.98507">
        <ele>2642.8</ele>
        <time>2012-09-28T12:06:13Z</time>
      </trkpt>
      <trkpt lat="46.01505" lon="6.98499">
        <ele>2644.24</ele>
        <time>2012-09-28T12:06:25Z</time>
      </trkpt>
      <trkpt lat="46.01504" lon="6.98495">
        <ele>2645.69</ele>
        <time>2012-09-28T12:06:38Z</time>
      </trkpt>
      <trkpt lat="46.01503" lon="6.98493">
        <ele>2645.69</ele>
        <time>2012-09-28T12:06:44Z</time>
      </trkpt>
      <trkpt lat="46.01507" lon="6.98484">
        <ele>2645.21</ele>
        <time>2012-09-28T12:06:56Z</time>
      </trkpt>
      <trkpt lat="46.01512" lon="6.98486">
        <ele>2645.69</ele>
        <time>2012-09-28T12:07:08Z</time>
      </trkpt>
      <trkpt lat="46.01515" lon="6.98482">
        <ele>2644.24</ele>
        <time>2012-09-28T12:07:25Z</time>
      </trkpt>
      <trkpt lat="46.01514" lon="6.98478">
        <ele>2643.28</ele>
        <time>2012-09-28T12:07:40Z</time>
      </trkpt>
      <trkpt lat="46.01518" lon="6.98481">
        <ele>2641.84</ele>
        <time>2012-09-28T12:07:53Z</time>
      </trkpt>
      <trkpt lat="46.0152" lon="6.98477">
        <ele>2639.92</ele>
        <time>2012-09-28T12:08:04Z</time>
      </trkpt>
      <trkpt lat="46.0152" lon="6.98478">
        <ele>2638.96</ele>
        <time>2012-09-28T12:08:16Z</time>
      </trkpt>
      <trkpt lat="46.01521" lon="6.98477">
        <ele>2637.99</ele>
        <time>2012-09-28T12:08:29Z</time>
      </trkpt>
      <trkpt lat="46.01521" lon="6.98476">
        <ele>2637.51</ele>
        <time>2012-09-28T12:08:42Z</time>
      </trkpt>
      <trkpt lat="46.01522" lon="6.98477">
        <ele>2637.03</ele>
        <time>2012-09-28T12:08:57Z</time>
      </trkpt>
      <trkpt lat="46.01522" lon="6.98476">
        <ele>2636.55</ele>
        <time>2012-09-28T12:09:13Z</time>
      </trkpt>
      <trkpt lat="46.01522" lon="6.98475">
        <ele>2635.11</ele>
        <time>2012-09-28T12:09:27Z</time>
      </trkpt>
      <trkpt lat="46.01523" lon="6.98475">
        <ele>2634.15</ele>
        <time>2012-09-28T12:09:40Z</time>
      </trkpt>
      <trkpt lat="46.01524" lon="6.98476">
        <ele>2634.15</ele>
        <time>2012-09-28T12:09:54Z</time>
      </trkpt>
      <trkpt lat="46.01526" lon="6.98473">
        <ele>2633.19</ele>
        <time>2012-09-28T12:10:09Z</time>
      </trkpt>
      <trkpt lat="46.01526" lon="6.98473">
        <ele>2632.23</ele>
        <time>2012-09-28T12:10:26Z</time>
      </trkpt>
      <trkpt lat="46.01526" lon="6.9847">
        <ele>2631.75</ele>
        <time>2012-09-28T12:10:40Z</time>
      </trkpt>
      <trkpt lat="46.01527" lon="6.9847">
        <ele>2630.79</ele>
        <time>2012-09-28T12:10:56Z</time>
      </trkpt>
      <trkpt lat="46.01528" lon="6.98469">
        <ele>2629.82</ele>
        <time>2012-09-28T12:11:12Z</time>
      </trkpt>
      <trkpt lat="46.01528" lon="6.98468">
        <ele>2629.82</ele>
        <time>2012-09-28T12:11:29Z</time>
      </trkpt>
      <trkpt lat="46.01527" lon="6.98467">
        <ele>2629.34</ele>
        <time>2012-09-28T12:11:50Z</time>
      </trkpt>
      <trkpt lat="46.01527" lon="6.98468">
        <ele>2629.34</ele>
        <time>2012-09-28T12:12:06Z</time>
      </trkpt>
      <trkpt lat="46.01529" lon="6.98468">
        <ele>2630.3</ele>
        <time>2012-09-28T12:12:32Z</time>
      </trkpt>
      <trkpt lat="46.01528" lon="6.98468">
        <ele>2630.3</ele>
        <time>2012-09-28T12:12:49Z</time>
      </trkpt>
      <trkpt lat="46.01529" lon="6.98466">
        <ele>2629.82</ele>
        <time>2012-09-28T12:13:02Z</time>
      </trkpt>
      <trkpt lat="46.0153" lon="6.98464">
        <ele>2629.82</ele>
        <time>2012-09-28T12:13:24Z</time>
      </trkpt>
      <trkpt lat="46.01532" lon="6.98461">
        <ele>2630.3</ele>
        <time>2012-09-28T12:13:42Z</time>
      </trkpt>
      <trkpt lat="46.01534" lon="6.98457">
        <ele>2630.3</ele>
        <time>2012-09-28T12:13:59Z</time>
      </trkpt>
      <trkpt lat="46.01533" lon="6.98453">
        <ele>2631.27</ele>
        <time>2012-09-28T12:14:10Z</time>
      </trkpt>
      <trkpt lat="46.01535" lon="6.98451">
        <ele>2631.27</ele>
        <time>2012-09-28T12:14:24Z</time>
      </trkpt>
      <trkpt lat="46.01539" lon="6.98451">
        <ele>2630.79</ele>
        <time>2012-09-28T12:14:37Z</time>
      </trkpt>
      <trkpt lat="46.0154" lon="6.98452">
        <ele>2629.82</ele>
        <time>2012-09-28T12:14:57Z</time>
      </trkpt>
      <trkpt lat="46.01541" lon="6.98451">
        <ele>2629.82</ele>
        <time>2012-09-28T12:15:13Z</time>
      </trkpt>
      <trkpt lat="46.01542" lon="6.98453">
        <ele>2628.38</ele>
        <time>2012-09-28T12:15:27Z</time>
      </trkpt>
      <trkpt lat="46.01542" lon="6.98453">
        <ele>2627.9</ele>
        <time>2012-09-28T12:15:41Z</time>
      </trkpt>
      <trkpt lat="46.01544" lon="6.98452">
        <ele>2627.9</ele>
        <time>2012-09-28T12:15:55Z</time>
      </trkpt>
      <trkpt lat="46.01544" lon="6.98449">
        <ele>2626.94</ele>
        <time>2012-09-28T12:16:11Z</time>
      </trkpt>
      <trkpt lat="46.01544" lon="6.98449">
        <ele>2626.46</ele>
        <time>2012-09-28T12:16:25Z</time>
      </trkpt>
      <trkpt lat="46.01547" lon="6.98446">
        <ele>2626.94</ele>
        <time>2012-09-28T12:16:41Z</time>
      </trkpt>
      <trkpt lat="46.01549" lon="6.98444">
        <ele>2627.9</ele>
        <time>2012-09-28T12:16:51Z</time>
      </trkpt>
      <trkpt lat="46.0155" lon="6.98441">
        <ele>2627.42</ele>
        <time>2012-09-28T12:17:10Z</time>
      </trkpt>
      <trkpt lat="46.01551" lon="6.98443">
        <ele>2625.98</ele>
        <time>2012-09-28T12:17:28Z</time>
      </trkpt>
      <trkpt lat="46.01552" lon="6.98441">
        <ele>2625.02</ele>
        <time>2012-09-28T12:17:44Z</time>
      </trkpt>
      <trkpt lat="46.01553" lon="6.98441">
        <ele>2624.06</ele>
        <time>2012-09-28T12:17:59Z</time>
      </trkpt>
      <trkpt lat="46.01554" lon="6.98439">
        <ele>2625.5</ele>
        <time>2012-09-28T12:18:12Z</time>
      </trkpt>
      <trkpt lat="46.01555" lon="6.98436">
        <ele>2625.5</ele>
        <time>2012-09-28T12:18:24Z</time>
      </trkpt>
      <trkpt lat="46.01556" lon="6.98436">
        <ele>2624.06</ele>
        <time>2012-09-28T12:18:43Z</time>
      </trkpt>
      <trkpt lat="46.01557" lon="6.98438">
        <ele>2624.06</ele>
        <time>2012-09-28T12:19:00Z</time>
      </trkpt>
      <trkpt lat="46.01556" lon="6.98438">
        <ele>2623.58</ele>
        <time>2012-09-28T12:19:23Z</time>
      </trkpt>
      <trkpt lat="46.01557" lon="6.98439">
        <ele>2622.13</ele>
        <time>2012-09-28T12:19:36Z</time>
      </trkpt>
      <trkpt lat="46.01557" lon="6.98441">
        <ele>2621.65</ele>
        <time>2012-09-28T12:19:49Z</time>
      </trkpt>
      <trkpt lat="46.01558" lon="6.98442">
        <ele>2621.17</ele>
        <time>2012-09-28T12:20:00Z</time>
      </trkpt>
      <trkpt lat="46.01558" lon="6.98442">
        <ele>2621.17</ele>
        <time>2012-09-28T12:20:13Z</time>
      </trkpt>
      <trkpt lat="46.01558" lon="6.9844">
        <ele>2622.13</ele>
        <time>2012-09-28T12:20:34Z</time>
      </trkpt>
      <trkpt lat="46.01557" lon="6.98436">
        <ele>2624.06</ele>
        <time>2012-09-28T12:20:44Z</time>
      </trkpt>
      <trkpt lat="46.01554" lon="6.98433">
        <ele>2624.06</ele>
        <time>2012-09-28T12:20:59Z</time>
      </trkpt>
      <trkpt lat="46.01553" lon="6.98433">
        <ele>2625.98</ele>
        <time>2012-09-28T12:21:12Z</time>
      </trkpt>
      <trkpt lat="46.01554" lon="6.98433">
        <ele>2625.98</ele>
        <time>2012-09-28T12:21:27Z</time>
      </trkpt>
      <trkpt lat="46.01554" lon="6.98433">
        <ele>2626.46</ele>
        <time>2012-09-28T12:21:39Z</time>
      </trkpt>
      <trkpt lat="46.01552" lon="6.98433">
        <ele>2627.42</ele>
        <time>2012-09-28T12:21:50Z</time>
      </trkpt>
      <trkpt lat="46.01551" lon="6.98433">
        <ele>2628.38</ele>
        <time>2012-09-28T12:22:08Z</time>
      </trkpt>
      <trkpt lat="46.01551" lon="6.98431">
        <ele>2628.38</ele>
        <time>2012-09-28T12:22:24Z</time>
      </trkpt>
      <trkpt lat="46.01549" lon="6.98431">
        <ele>2629.82</ele>
        <time>2012-09-28T12:22:36Z</time>
      </trkpt>
      <trkpt lat="46.0155" lon="6.98426">
        <ele>2629.82</ele>
        <time>2012-09-28T12:22:51Z</time>
      </trkpt>
      <trkpt lat="46.0155" lon="6.98424">
        <ele>2629.82</ele>
        <time>2012-09-28T12:23:03Z</time>
      </trkpt>
      <trkpt lat="46.0155" lon="6.98424">
        <ele>2628.38</ele>
        <time>2012-09-28T12:23:19Z</time>
      </trkpt>
      <trkpt lat="46.01551" lon="6.98424">
        <ele>2627.9</ele>
        <time>2012-09-28T12:23:35Z</time>
      </trkpt>
      <trkpt lat="46.01551" lon="6.98424">
        <ele>2626.94</ele>
        <time>2012-09-28T12:23:55Z</time>
      </trkpt>
      <trkpt lat="46.01552" lon="6.98422">
        <ele>2626.46</ele>
        <time>2012-09-28T12:24:14Z</time>
      </trkpt>
      <trkpt lat="46.01551" lon="6.9842">
        <ele>2626.94</ele>
        <time>2012-09-28T12:24:27Z</time>
      </trkpt>
      <trkpt lat="46.01552" lon="6.98419">
        <ele>2627.9</ele>
        <time>2012-09-28T12:24:42Z</time>
      </trkpt>
      <trkpt lat="46.01553" lon="6.98416">
        <ele>2627.9</ele>
        <time>2012-09-28T12:24:57Z</time>
      </trkpt>
      <trkpt lat="46.01554" lon="6.98411">
        <ele>2626.94</ele>
        <time>2012-09-28T12:25:11Z</time>
      </trkpt>
      <trkpt lat="46.01553" lon="6.98411">
        <ele>2626.94</ele>
        <time>2012-09-28T12:25:30Z</time>
      </trkpt>
      <trkpt lat="46.01554" lon="6.98411">
        <ele>2626.46</ele>
        <time>2012-09-28T12:25:50Z</time>
      </trkpt>
      <trkpt lat="46.01553" lon="6.98411">
        <ele>2626.94</ele>
        <time>2012-09-28T12:26:02Z</time>
      </trkpt>
      <trkpt lat="46.01553" lon="6.98409">
        <ele>2627.9</ele>
        <time>2012-09-28T12:26:13Z</time>
      </trkpt>
      <trkpt lat="46.01554" lon="6.98409">
        <ele>2627.9</ele>
        <time>2012-09-28T12:26:30Z</time>
      </trkpt>
      <trkpt lat="46.01555" lon="6.98411">
        <ele>2627.42</ele>
        <time>2012-09-28T12:26:49Z</time>
      </trkpt>
      <trkpt lat="46.01555" lon="6.9841">
        <ele>2627.42</ele>
        <time>2012-09-28T12:27:18Z</time>
      </trkpt>
      <trkpt lat="46.01554" lon="6.98409">
        <ele>2627.9</ele>
        <time>2012-09-28T12:27:32Z</time>
      </trkpt>
      <trkpt lat="46.01554" lon="6.98409">
        <ele>2628.86</ele>
        <time>2012-09-28T12:27:50Z</time>
      </trkpt>
      <trkpt lat="46.01554" lon="6.98408">
        <ele>2629.34</ele>
        <time>2012-09-28T12:28:06Z</time>
      </trkpt>
      <trkpt lat="46.01552" lon="6.98407">
        <ele>2630.3</ele>
        <time>2012-09-28T12:28:23Z</time>
      </trkpt>
      <trkpt lat="46.01551" lon="6.98406">
        <ele>2630.79</ele>
        <time>2012-09-28T12:28:39Z</time>
      </trkpt>
      <trkpt lat="46.01551" lon="6.98405">
        <ele>2631.75</ele>
        <time>2012-09-28T12:28:59Z</time>
      </trkpt>
      <trkpt lat="46.0155" lon="6.98406">
        <ele>2631.75</ele>
        <time>2012-09-28T12:29:18Z</time>
      </trkpt>
      <trkpt lat="46.01552" lon="6.98404">
        <ele>2632.23</ele>
        <time>2012-09-28T12:29:38Z</time>
      </trkpt>
      <trkpt lat="46.01554" lon="6.98405">
        <ele>2631.27</ele>
        <time>2012-09-28T12:29:50Z</time>
      </trkpt>
      <trkpt lat="46.01554" lon="6.98403">
        <ele>2630.79</ele>
        <time>2012-09-28T12:30:04Z</time>
      </trkpt>
      <trkpt lat="46.01553" lon="6.98399">
        <ele>2630.3</ele>
        <time>2012-09-28T12:30:21Z</time>
      </trkpt>
      <trkpt lat="46.01553" lon="6.98394">
        <ele>2630.3</ele>
        <time>2012-09-28T12:30:33Z</time>
      </trkpt>
      <trkpt lat="46.01553" lon="6.98394">
        <ele>2629.82</ele>
        <time>2012-09-28T12:30:48Z</time>
      </trkpt>
      <trkpt lat="46.01554" lon="6.98392">
        <ele>2629.82</ele>
        <time>2012-09-28T12:31:04Z</time>
      </trkpt>
      <trkpt lat="46.01554" lon="6.98393">
        <ele>2629.82</ele>
        <time>2012-09-28T12:31:23Z</time>
      </trkpt>
      <trkpt lat="46.01554" lon="6.98396">
        <ele>2629.82</ele>
        <time>2012-09-28T12:31:40Z</time>
      </trkpt>
      <trkpt lat="46.01553" lon="6.98393">
        <ele>2629.34</ele>
        <time>2012-09-28T12:31:57Z</time>
      </trkpt>
      <trkpt lat="46.01554" lon="6.98394">
        <ele>2628.38</ele>
        <time>2012-09-28T12:32:11Z</time>
      </trkpt>
      <trkpt lat="46.01554" lon="6.98393">
        <ele>2629.82</ele>
        <time>2012-09-28T12:32:30Z</time>
      </trkpt>
      <trkpt lat="46.01555" lon="6.98393">
        <ele>2629.82</ele>
        <time>2012-09-28T12:32:49Z</time>
      </trkpt>
      <trkpt lat="46.01555" lon="6.98394">
        <ele>2630.3</ele>
        <time>2012-09-28T12:33:05Z</time>
      </trkpt>
      <trkpt lat="46.01553" lon="6.98392">
        <ele>2631.27</ele>
        <time>2012-09-28T12:33:19Z</time>
      </trkpt>
      <trkpt lat="46.01552" lon="6.9839">
        <ele>2632.23</ele>
        <time>2012-09-28T12:33:34Z</time>
      </trkpt>
      <trkpt lat="46.0155" lon="6.98389">
        <ele>2632.71</ele>
        <time>2012-09-28T12:33:50Z</time>
      </trkpt>
      <trkpt lat="46.0155" lon="6.98387">
        <ele>2633.19</ele>
        <time>2012-09-28T12:34:03Z</time>
      </trkpt>
      <trkpt lat="46.0155" lon="6.98385">
        <ele>2634.15</ele>
        <time>2012-09-28T12:34:16Z</time>
      </trkpt>
      <trkpt lat="46.0155" lon="6.98382">
        <ele>2634.15</ele>
        <time>2012-09-28T12:34:29Z</time>
      </trkpt>
      <trkpt lat="46.0155" lon="6.98378">
        <ele>2634.15</ele>
        <time>2012-09-28T12:34:45Z</time>
      </trkpt>
      <trkpt lat="46.0155" lon="6.98376">
        <ele>2634.15</ele>
        <time>2012-09-28T12:34:59Z</time>
      </trkpt>
      <trkpt lat="46.01552" lon="6.98377">
        <ele>2634.15</ele>
        <time>2012-09-28T12:35:17Z</time>
      </trkpt>
      <trkpt lat="46.01551" lon="6.98375">
        <ele>2634.15</ele>
        <time>2012-09-28T12:35:33Z</time>
      </trkpt>
      <trkpt lat="46.01551" lon="6.98374">
        <ele>2633.67</ele>
        <time>2012-09-28T12:35:51Z</time>
      </trkpt>
      <trkpt lat="46.01552" lon="6.98373">
        <ele>2633.67</ele>
        <time>2012-09-28T12:36:05Z</time>
      </trkpt>
      <trkpt lat="46.01554" lon="6.98375">
        <ele>2632.71</ele>
        <time>2012-09-28T12:36:18Z</time>
      </trkpt>
      <trkpt lat="46.01555" lon="6.98377">
        <ele>2630.79</ele>
        <time>2012-09-28T12:36:35Z</time>
      </trkpt>
      <trkpt lat="46.01555" lon="6.98378">
        <ele>2629.82</ele>
        <time>2012-09-28T12:36:53Z</time>
      </trkpt>
      <trkpt lat="46.01554" lon="6.9838">
        <ele>2629.34</ele>
        <time>2012-09-28T12:37:07Z</time>
      </trkpt>
      <trkpt lat="46.01553" lon="6.98383">
        <ele>2627.9</ele>
        <time>2012-09-28T12:37:22Z</time>
      </trkpt>
      <trkpt lat="46.01555" lon="6.98385">
        <ele>2626.46</ele>
        <time>2012-09-28T12:37:33Z</time>
      </trkpt>
      <trkpt lat="46.01554" lon="6.98385">
        <ele>2626.94</ele>
        <time>2012-09-28T12:37:58Z</time>
      </trkpt>
      <trkpt lat="46.01553" lon="6.98385">
        <ele>2626.46</ele>
        <time>2012-09-28T12:38:17Z</time>
      </trkpt>
      <trkpt lat="46.01554" lon="6.98386">
        <ele>2626.94</ele>
        <time>2012-09-28T12:38:44Z</time>
      </trkpt>
      <trkpt lat="46.01555" lon="6.98387">
        <ele>2626.46</ele>
        <time>2012-09-28T12:38:57Z</time>
      </trkpt>
      <trkpt lat="46.01556" lon="6.98385">
        <ele>2625.5</ele>
        <time>2012-09-28T12:39:11Z</time>
      </trkpt>
      <trkpt lat="46.01557" lon="6.98386">
        <ele>2625.5</ele>
        <time>2012-09-28T12:39:31Z</time>
      </trkpt>
      <trkpt lat="46.01559" lon="6.98384">
        <ele>2625.5</ele>
        <time>2012-09-28T12:39:50Z</time>
      </trkpt>
      <trkpt lat="46.01559" lon="6.98385">
        <ele>2625.02</ele>
        <time>2012-09-28T12:40:06Z</time>
      </trkpt>
      <trkpt lat="46.0156" lon="6.98383">
        <ele>2624.06</ele>
        <time>2012-09-28T12:40:27Z</time>
      </trkpt>
      <trkpt lat="46.01561" lon="6.98381">
        <ele>2624.06</ele>
        <time>2012-09-28T12:40:42Z</time>
      </trkpt>
      <trkpt lat="46.01565" lon="6.9838">
        <ele>2622.13</ele>
        <time>2012-09-28T12:40:56Z</time>
      </trkpt>
      <trkpt lat="46.01566" lon="6.98384">
        <ele>2621.17</ele>
        <time>2012-09-28T12:41:09Z</time>
      </trkpt>
      <trkpt lat="46.01568" lon="6.98387">
        <ele>2618.29</ele>
        <time>2012-09-28T12:41:21Z</time>
      </trkpt>
      <trkpt lat="46.0157" lon="6.98389">
        <ele>2616.85</ele>
        <time>2012-09-28T12:41:35Z</time>
      </trkpt>
      <trkpt lat="46.01571" lon="6.98385">
        <ele>2617.33</ele>
        <time>2012-09-28T12:41:39Z</time>
      </trkpt>
      <trkpt lat="46.01572" lon="6.9838">
        <ele>2617.81</ele>
        <time>2012-09-28T12:41:47Z</time>
      </trkpt>
      <trkpt lat="46.01576" lon="6.98377">
        <ele>2615.88</ele>
        <time>2012-09-28T12:41:58Z</time>
      </trkpt>
      <trkpt lat="46.01582" lon="6.98374">
        <ele>2613</ele>
        <time>2012-09-28T12:42:10Z</time>
      </trkpt>
      <trkpt lat="46.01585" lon="6.98371">
        <ele>2611.56</ele>
        <time>2012-09-28T12:42:25Z</time>
      </trkpt>
      <trkpt lat="46.01585" lon="6.9837">
        <ele>2611.08</ele>
        <time>2012-09-28T12:42:40Z</time>
      </trkpt>
      <trkpt lat="46.01587" lon="6.98368">
        <ele>2609.16</ele>
        <time>2012-09-28T12:42:47Z</time>
      </trkpt>
      <trkpt lat="46.01592" lon="6.98362">
        <ele>2607.71</ele>
        <time>2012-09-28T12:42:59Z</time>
      </trkpt>
      <trkpt lat="46.01595" lon="6.98357">
        <ele>2605.79</ele>
        <time>2012-09-28T12:43:10Z</time>
      </trkpt>
      <trkpt lat="46.01596" lon="6.98353">
        <ele>2603.87</ele>
        <time>2012-09-28T12:43:22Z</time>
      </trkpt>
      <trkpt lat="46.01599" lon="6.98348">
        <ele>2603.39</ele>
        <time>2012-09-28T12:43:31Z</time>
      </trkpt>
      <trkpt lat="46.01602" lon="6.98346">
        <ele>2601.95</ele>
        <time>2012-09-28T12:43:41Z</time>
      </trkpt>
      <trkpt lat="46.01609" lon="6.98346">
        <ele>2601.46</ele>
        <time>2012-09-28T12:43:52Z</time>
      </trkpt>
      <trkpt lat="46.01614" lon="6.98348">
        <ele>2600.02</ele>
        <time>2012-09-28T12:44:02Z</time>
      </trkpt>
      <trkpt lat="46.01618" lon="6.98347">
        <ele>2598.1</ele>
        <time>2012-09-28T12:44:14Z</time>
      </trkpt>
      <trkpt lat="46.01623" lon="6.98345">
        <ele>2597.14</ele>
        <time>2012-09-28T12:44:26Z</time>
      </trkpt>
      <trkpt lat="46.01627" lon="6.98346">
        <ele>2595.7</ele>
        <time>2012-09-28T12:44:38Z</time>
      </trkpt>
      <trkpt lat="46.01631" lon="6.98349">
        <ele>2594.25</ele>
        <time>2012-09-28T12:44:51Z</time>
      </trkpt>
      <trkpt lat="46.01632" lon="6.98348">
        <ele>2593.77</ele>
        <time>2012-09-28T12:45:03Z</time>
      </trkpt>
      <trkpt lat="46.01635" lon="6.98345">
        <ele>2593.77</ele>
        <time>2012-09-28T12:45:21Z</time>
      </trkpt>
      <trkpt lat="46.01639" lon="6.98344">
        <ele>2593.29</ele>
        <time>2012-09-28T12:45:32Z</time>
      </trkpt>
      <trkpt lat="46.01641" lon="6.98344">
        <ele>2591.85</ele>
        <time>2012-09-28T12:45:44Z</time>
      </trkpt>
      <trkpt lat="46.01646" lon="6.98342">
        <ele>2590.41</ele>
        <time>2012-09-28T12:45:56Z</time>
      </trkpt>
      <trkpt lat="46.01647" lon="6.98344">
        <ele>2588.97</ele>
        <time>2012-09-28T12:46:07Z</time>
      </trkpt>
      <trkpt lat="46.0165" lon="6.98347">
        <ele>2587.53</ele>
        <time>2012-09-28T12:46:23Z</time>
      </trkpt>
      <trkpt lat="46.0165" lon="6.98351">
        <ele>2587.53</ele>
        <time>2012-09-28T12:46:34Z</time>
      </trkpt>
      <trkpt lat="46.01652" lon="6.98354">
        <ele>2585.12</ele>
        <time>2012-09-28T12:46:48Z</time>
      </trkpt>
      <trkpt lat="46.01655" lon="6.98357">
        <ele>2584.16</ele>
        <time>2012-09-28T12:47:01Z</time>
      </trkpt>
      <trkpt lat="46.0166" lon="6.98354">
        <ele>2582.72</ele>
        <time>2012-09-28T12:47:14Z</time>
      </trkpt>
      <trkpt lat="46.01666" lon="6.98353">
        <ele>2581.76</ele>
        <time>2012-09-28T12:47:28Z</time>
      </trkpt>
      <trkpt lat="46.01671" lon="6.98357">
        <ele>2579.84</ele>
        <time>2012-09-28T12:47:41Z</time>
      </trkpt>
      <trkpt lat="46.01676" lon="6.98361">
        <ele>2578.87</ele>
        <time>2012-09-28T12:47:53Z</time>
      </trkpt>
      <trkpt lat="46.01679" lon="6.98364">
        <ele>2577.91</ele>
        <time>2012-09-28T12:47:58Z</time>
      </trkpt>
      <trkpt lat="46.01684" lon="6.98365">
        <ele>2577.43</ele>
        <time>2012-09-28T12:48:04Z</time>
      </trkpt>
      <trkpt lat="46.01694" lon="6.98378">
        <ele>2576.95</ele>
        <time>2012-09-28T12:48:18Z</time>
      </trkpt>
      <trkpt lat="46.01696" lon="6.98379">
        <ele>2576.95</ele>
        <time>2012-09-28T12:48:32Z</time>
      </trkpt>
      <trkpt lat="46.01696" lon="6.98383">
        <ele>2576.47</ele>
        <time>2012-09-28T12:48:35Z</time>
      </trkpt>
      <trkpt lat="46.01699" lon="6.98386">
        <ele>2575.51</ele>
        <time>2012-09-28T12:48:39Z</time>
      </trkpt>
      <trkpt lat="46.01713" lon="6.98393">
        <ele>2573.11</ele>
        <time>2012-09-28T12:48:50Z</time>
      </trkpt>
      <trkpt lat="46.01724" lon="6.98402">
        <ele>2572.14</ele>
        <time>2012-09-28T12:49:04Z</time>
      </trkpt>
      <trkpt lat="46.01724" lon="6.98403">
        <ele>2572.14</ele>
        <time>2012-09-28T12:49:18Z</time>
      </trkpt>
      <trkpt lat="46.01722" lon="6.98402">
        <ele>2572.14</ele>
        <time>2012-09-28T12:49:30Z</time>
      </trkpt>
      <trkpt lat="46.01724" lon="6.98405">
        <ele>2572.14</ele>
        <time>2012-09-28T12:49:51Z</time>
      </trkpt>
      <trkpt lat="46.01725" lon="6.98405">
        <ele>2572.14</ele>
        <time>2012-09-28T12:49:53Z</time>
      </trkpt>
      <trkpt lat="46.01726" lon="6.9841">
        <ele>2570.7</ele>
        <time>2012-09-28T12:49:57Z</time>
      </trkpt>
      <trkpt lat="46.01728" lon="6.98414">
        <ele>2569.26</ele>
        <time>2012-09-28T12:50:00Z</time>
      </trkpt>
      <trkpt lat="46.0173" lon="6.9842">
        <ele>2567.34</ele>
        <time>2012-09-28T12:50:04Z</time>
      </trkpt>
      <trkpt lat="46.01733" lon="6.98425">
        <ele>2566.38</ele>
        <time>2012-09-28T12:50:08Z</time>
      </trkpt>
      <trkpt lat="46.01733" lon="6.98431">
        <ele>2563.97</ele>
        <time>2012-09-28T12:50:11Z</time>
      </trkpt>
      <trkpt lat="46.01734" lon="6.98435">
        <ele>2563.01</ele>
        <time>2012-09-28T12:50:13Z</time>
      </trkpt>
      <trkpt lat="46.01741" lon="6.98445">
        <ele>2563.01</ele>
        <time>2012-09-28T12:50:20Z</time>
      </trkpt>
      <trkpt lat="46.01752" lon="6.98454">
        <ele>2563.01</ele>
        <time>2012-09-28T12:50:31Z</time>
      </trkpt>
      <trkpt lat="46.01756" lon="6.98453">
        <ele>2562.05</ele>
        <time>2012-09-28T12:50:42Z</time>
      </trkpt>
      <trkpt lat="46.01762" lon="6.98453">
        <ele>2561.57</ele>
        <time>2012-09-28T12:50:53Z</time>
      </trkpt>
      <trkpt lat="46.01763" lon="6.98453">
        <ele>2561.57</ele>
        <time>2012-09-28T12:50:56Z</time>
      </trkpt>
      <trkpt lat="46.01769" lon="6.9845">
        <ele>2559.65</ele>
        <time>2012-09-28T12:51:03Z</time>
      </trkpt>
      <trkpt lat="46.01775" lon="6.98442">
        <ele>2559.17</ele>
        <time>2012-09-28T12:51:09Z</time>
      </trkpt>
      <trkpt lat="46.01776" lon="6.98438">
        <ele>2560.61</ele>
        <time>2012-09-28T12:51:12Z</time>
      </trkpt>
      <trkpt lat="46.01779" lon="6.98439">
        <ele>2561.09</ele>
        <time>2012-09-28T12:51:14Z</time>
      </trkpt>
      <trkpt lat="46.01788" lon="6.98445">
        <ele>2558.21</ele>
        <time>2012-09-28T12:51:24Z</time>
      </trkpt>
      <trkpt lat="46.01788" lon="6.98443">
        <ele>2557.24</ele>
        <time>2012-09-28T12:51:37Z</time>
      </trkpt>
      <trkpt lat="46.0179" lon="6.98439">
        <ele>2556.76</ele>
        <time>2012-09-28T12:51:44Z</time>
      </trkpt>
      <trkpt lat="46.01802" lon="6.98437">
        <ele>2554.36</ele>
        <time>2012-09-28T12:51:54Z</time>
      </trkpt>
      <trkpt lat="46.01807" lon="6.98444">
        <ele>2555.8</ele>
        <time>2012-09-28T12:52:03Z</time>
      </trkpt>
      <trkpt lat="46.01807" lon="6.98444">
        <ele>2555.8</ele>
        <time>2012-09-28T12:52:05Z</time>
      </trkpt>
      <trkpt lat="46.01812" lon="6.98449">
        <ele>2553.88</ele>
        <time>2012-09-28T12:52:09Z</time>
      </trkpt>
      <trkpt lat="46.01815" lon="6.98456">
        <ele>2551.96</ele>
        <time>2012-09-28T12:52:13Z</time>
      </trkpt>
      <trkpt lat="46.01817" lon="6.98458">
        <ele>2551</ele>
        <time>2012-09-28T12:52:15Z</time>
      </trkpt>
      <trkpt lat="46.01821" lon="6.9846">
        <ele>2549.55</ele>
        <time>2012-09-28T12:52:17Z</time>
      </trkpt>
      <trkpt lat="46.01828" lon="6.98465">
        <ele>2548.11</ele>
        <time>2012-09-28T12:52:21Z</time>
      </trkpt>
      <trkpt lat="46.01829" lon="6.9847">
        <ele>2547.15</ele>
        <time>2012-09-28T12:52:25Z</time>
      </trkpt>
      <trkpt lat="46.01833" lon="6.98471">
        <ele>2545.23</ele>
        <time>2012-09-28T12:52:27Z</time>
      </trkpt>
      <trkpt lat="46.01838" lon="6.98482">
        <ele>2542.82</ele>
        <time>2012-09-28T12:52:33Z</time>
      </trkpt>
      <trkpt lat="46.0184" lon="6.98485">
        <ele>2541.38</ele>
        <time>2012-09-28T12:52:35Z</time>
      </trkpt>
      <trkpt lat="46.01843" lon="6.98495">
        <ele>2538.5</ele>
        <time>2012-09-28T12:52:41Z</time>
      </trkpt>
      <trkpt lat="46.01845" lon="6.98501">
        <ele>2536.1</ele>
        <time>2012-09-28T12:52:44Z</time>
      </trkpt>
      <trkpt lat="46.01852" lon="6.98507">
        <ele>2534.65</ele>
        <time>2012-09-28T12:52:48Z</time>
      </trkpt>
      <trkpt lat="46.01859" lon="6.98518">
        <ele>2531.29</ele>
        <time>2012-09-28T12:52:56Z</time>
      </trkpt>
      <trkpt lat="46.01867" lon="6.98531">
        <ele>2527.92</ele>
        <time>2012-09-28T12:53:03Z</time>
      </trkpt>
      <trkpt lat="46.01869" lon="6.98533">
        <ele>2526.48</ele>
        <time>2012-09-28T12:53:04Z</time>
      </trkpt>
      <trkpt lat="46.0188" lon="6.98542">
        <ele>2525.52</ele>
        <time>2012-09-28T12:53:09Z</time>
      </trkpt>
      <trkpt lat="46.01882" lon="6.98547">
        <ele>2525.52</ele>
        <time>2012-09-28T12:53:13Z</time>
      </trkpt>
      <trkpt lat="46.01884" lon="6.9855">
        <ele>2524.56</ele>
        <time>2012-09-28T12:53:15Z</time>
      </trkpt>
      <trkpt lat="46.01887" lon="6.98555">
        <ele>2522.64</ele>
        <time>2012-09-28T12:53:18Z</time>
      </trkpt>
      <trkpt lat="46.01888" lon="6.98556">
        <ele>2521.19</ele>
        <time>2012-09-28T12:53:19Z</time>
      </trkpt>
      <trkpt lat="46.01896" lon="6.98564">
        <ele>2518.31</ele>
        <time>2012-09-28T12:53:24Z</time>
      </trkpt>
      <trkpt lat="46.01897" lon="6.98565">
        <ele>2518.31</ele>
        <time>2012-09-28T12:53:25Z</time>
      </trkpt>
      <trkpt lat="46.01902" lon="6.98573">
        <ele>2515.43</ele>
        <time>2012-09-28T12:53:29Z</time>
      </trkpt>
      <trkpt lat="46.01917" lon="6.98593">
        <ele>2511.58</ele>
        <time>2012-09-28T12:53:39Z</time>
      </trkpt>
      <trkpt lat="46.01918" lon="6.98599">
        <ele>2511.1</ele>
        <time>2012-09-28T12:53:44Z</time>
      </trkpt>
      <trkpt lat="46.01922" lon="6.9861">
        <ele>2507.26</ele>
        <time>2012-09-28T12:53:49Z</time>
      </trkpt>
      <trkpt lat="46.01922" lon="6.98612">
        <ele>2507.74</ele>
        <time>2012-09-28T12:53:50Z</time>
      </trkpt>
      <trkpt lat="46.01928" lon="6.98617">
        <ele>2504.37</ele>
        <time>2012-09-28T12:53:55Z</time>
      </trkpt>
      <trkpt lat="46.01929" lon="6.98618">
        <ele>2504.37</ele>
        <time>2012-09-28T12:53:56Z</time>
      </trkpt>
      <trkpt lat="46.01934" lon="6.9863">
        <ele>2501.01</ele>
        <time>2012-09-28T12:54:01Z</time>
      </trkpt>
      <trkpt lat="46.01943" lon="6.98645">
        <ele>2501.01</ele>
        <time>2012-09-28T12:54:12Z</time>
      </trkpt>
      <trkpt lat="46.01942" lon="6.98646">
        <ele>2501.01</ele>
        <time>2012-09-28T12:54:20Z</time>
      </trkpt>
      <trkpt lat="46.01943" lon="6.98654">
        <ele>2498.6</ele>
        <time>2012-09-28T12:54:24Z</time>
      </trkpt>
      <trkpt lat="46.01946" lon="6.98664">
        <ele>2496.68</ele>
        <time>2012-09-28T12:54:28Z</time>
      </trkpt>
      <trkpt lat="46.0195" lon="6.98666">
        <ele>2496.68</ele>
        <time>2012-09-28T12:54:32Z</time>
      </trkpt>
      <trkpt lat="46.01953" lon="6.98666">
        <ele>2495.72</ele>
        <time>2012-09-28T12:54:34Z</time>
      </trkpt>
      <trkpt lat="46.01958" lon="6.98669">
        <ele>2493.32</ele>
        <time>2012-09-28T12:54:37Z</time>
      </trkpt>
      <trkpt lat="46.01965" lon="6.98673">
        <ele>2491.87</ele>
        <time>2012-09-28T12:54:41Z</time>
      </trkpt>
      <trkpt lat="46.01981" lon="6.98705">
        <ele>2489.95</ele>
        <time>2012-09-28T12:54:52Z</time>
      </trkpt>
      <trkpt lat="46.01986" lon="6.98715">
        <ele>2488.99</ele>
        <time>2012-09-28T12:54:56Z</time>
      </trkpt>
      <trkpt lat="46.01988" lon="6.9872">
        <ele>2488.51</ele>
        <time>2012-09-28T12:54:58Z</time>
      </trkpt>
      <trkpt lat="46.0199" lon="6.98753">
        <ele>2487.07</ele>
        <time>2012-09-28T12:55:07Z</time>
      </trkpt>
      <trkpt lat="46.01991" lon="6.98767">
        <ele>2487.55</ele>
        <time>2012-09-28T12:55:11Z</time>
      </trkpt>
      <trkpt lat="46.01992" lon="6.988">
        <ele>2484.18</ele>
        <time>2012-09-28T12:55:21Z</time>
      </trkpt>
      <trkpt lat="46.01993" lon="6.98804">
        <ele>2484.66</ele>
        <time>2012-09-28T12:55:22Z</time>
      </trkpt>
      <trkpt lat="46.01993" lon="6.98807">
        <ele>2485.15</ele>
        <time>2012-09-28T12:55:23Z</time>
      </trkpt>
      <trkpt lat="46.01995" lon="6.98837">
        <ele>2482.74</ele>
        <time>2012-09-28T12:55:31Z</time>
      </trkpt>
      <trkpt lat="46.01996" lon="6.98848">
        <ele>2483.22</ele>
        <time>2012-09-28T12:55:43Z</time>
      </trkpt>
      <trkpt lat="46.01996" lon="6.98849">
        <ele>2482.74</ele>
        <time>2012-09-28T12:56:03Z</time>
      </trkpt>
      <trkpt lat="46.01996" lon="6.9885">
        <ele>2482.74</ele>
        <time>2012-09-28T12:56:06Z</time>
      </trkpt>
      <trkpt lat="46.02005" lon="6.98864">
        <ele>2480.82</ele>
        <time>2012-09-28T12:56:13Z</time>
      </trkpt>
      <trkpt lat="46.02007" lon="6.98868">
        <ele>2478.9</ele>
        <time>2012-09-28T12:56:15Z</time>
      </trkpt>
      <trkpt lat="46.02007" lon="6.98876">
        <ele>2477.45</ele>
        <time>2012-09-28T12:56:19Z</time>
      </trkpt>
      <trkpt lat="46.02006" lon="6.98881">
        <ele>2476.49</ele>
        <time>2012-09-28T12:56:21Z</time>
      </trkpt>
      <trkpt lat="46.0201" lon="6.98895">
        <ele>2472.65</ele>
        <time>2012-09-28T12:56:30Z</time>
      </trkpt>
      <trkpt lat="46.0201" lon="6.98902">
        <ele>2471.21</ele>
        <time>2012-09-28T12:56:42Z</time>
      </trkpt>
      <trkpt lat="46.02014" lon="6.98914">
        <ele>2468.32</ele>
        <time>2012-09-28T12:56:51Z</time>
      </trkpt>
      <trkpt lat="46.02014" lon="6.98926">
        <ele>2466.88</ele>
        <time>2012-09-28T12:56:57Z</time>
      </trkpt>
      <trkpt lat="46.02014" lon="6.98932">
        <ele>2465.92</ele>
        <time>2012-09-28T12:57:00Z</time>
      </trkpt>
      <trkpt lat="46.02017" lon="6.98945">
        <ele>2464</ele>
        <time>2012-09-28T12:57:06Z</time>
      </trkpt>
      <trkpt lat="46.02015" lon="6.9896">
        <ele>2463.52</ele>
        <time>2012-09-28T12:57:14Z</time>
      </trkpt>
      <trkpt lat="46.02016" lon="6.98968">
        <ele>2462.55</ele>
        <time>2012-09-28T12:57:18Z</time>
      </trkpt>
      <trkpt lat="46.02017" lon="6.98973">
        <ele>2462.55</ele>
        <time>2012-09-28T12:57:21Z</time>
      </trkpt>
      <trkpt lat="46.02016" lon="6.98987">
        <ele>2461.11</ele>
        <time>2012-09-28T12:57:28Z</time>
      </trkpt>
      <trkpt lat="46.02018" lon="6.98996">
        <ele>2459.67</ele>
        <time>2012-09-28T12:57:32Z</time>
      </trkpt>
      <trkpt lat="46.02018" lon="6.99007">
        <ele>2458.23</ele>
        <time>2012-09-28T12:57:35Z</time>
      </trkpt>
      <trkpt lat="46.02021" lon="6.99034">
        <ele>2456.31</ele>
        <time>2012-09-28T12:57:45Z</time>
      </trkpt>
      <trkpt lat="46.02024" lon="6.99043">
        <ele>2454.38</ele>
        <time>2012-09-28T12:57:50Z</time>
      </trkpt>
      <trkpt lat="46.02025" lon="6.99046">
        <ele>2453.9</ele>
        <time>2012-09-28T12:57:52Z</time>
      </trkpt>
      <trkpt lat="46.02028" lon="6.99053">
        <ele>2451.98</ele>
        <time>2012-09-28T12:57:57Z</time>
      </trkpt>
      <trkpt lat="46.02029" lon="6.99056">
        <ele>2451.98</ele>
        <time>2012-09-28T12:57:59Z</time>
      </trkpt>
      <trkpt lat="46.0203" lon="6.99068">
        <ele>2450.06</ele>
        <time>2012-09-28T12:58:04Z</time>
      </trkpt>
      <trkpt lat="46.02031" lon="6.99075">
        <ele>2450.06</ele>
        <time>2012-09-28T12:58:08Z</time>
      </trkpt>
      <trkpt lat="46.02032" lon="6.99093">
        <ele>2447.65</ele>
        <time>2012-09-28T12:58:18Z</time>
      </trkpt>
      <trkpt lat="46.02035" lon="6.99103">
        <ele>2446.69</ele>
        <time>2012-09-28T12:58:23Z</time>
      </trkpt>
      <trkpt lat="46.02036" lon="6.99107">
        <ele>2446.69</ele>
        <time>2012-09-28T12:58:26Z</time>
      </trkpt>
      <trkpt lat="46.02033" lon="6.99131">
        <ele>2445.25</ele>
        <time>2012-09-28T12:58:39Z</time>
      </trkpt>
      <trkpt lat="46.02031" lon="6.99148">
        <ele>2444.29</ele>
        <time>2012-09-28T12:58:48Z</time>
      </trkpt>
      <trkpt lat="46.02024" lon="6.99176">
        <ele>2443.33</ele>
        <time>2012-09-28T12:59:03Z</time>
      </trkpt>
      <trkpt lat="46.02016" lon="6.99208">
        <ele>2442.85</ele>
        <time>2012-09-28T12:59:19Z</time>
      </trkpt>
      <trkpt lat="46.02014" lon="6.99242">
        <ele>2442.37</ele>
        <time>2012-09-28T12:59:36Z</time>
      </trkpt>
      <trkpt lat="46.0201" lon="6.99255">
        <ele>2441.89</ele>
        <time>2012-09-28T12:59:44Z</time>
      </trkpt>
      <trkpt lat="46.0202" lon="6.99271">
        <ele>2440.92</ele>
        <time>2012-09-28T12:59:56Z</time>
      </trkpt>
      <trkpt lat="46.02022" lon="6.99279">
        <ele>2439.96</ele>
        <time>2012-09-28T13:00:03Z</time>
      </trkpt>
      <trkpt lat="46.02026" lon="6.99282">
        <ele>2439.48</ele>
        <time>2012-09-28T13:00:16Z</time>
      </trkpt>
      <trkpt lat="46.02031" lon="6.99282">
        <ele>2439.48</ele>
        <time>2012-09-28T13:00:27Z</time>
      </trkpt>
      <trkpt lat="46.02024" lon="6.99286">
        <ele>2439</ele>
        <time>2012-09-28T13:00:38Z</time>
      </trkpt>
      <trkpt lat="46.02026" lon="6.99287">
        <ele>2438.04</ele>
        <time>2012-09-28T13:00:59Z</time>
      </trkpt>
      <trkpt lat="46.02025" lon="6.99281">
        <ele>2438.52</ele>
        <time>2012-09-28T13:01:20Z</time>
      </trkpt>
      <trkpt lat="46.02027" lon="6.99277">
        <ele>2438.04</ele>
        <time>2012-09-28T13:01:37Z</time>
      </trkpt>
      <trkpt lat="46.02024" lon="6.9928">
        <ele>2438.04</ele>
        <time>2012-09-28T13:01:58Z</time>
      </trkpt>
      <trkpt lat="46.02027" lon="6.99283">
        <ele>2438.04</ele>
        <time>2012-09-28T13:02:19Z</time>
      </trkpt>
      <trkpt lat="46.02026" lon="6.99281">
        <ele>2438.04</ele>
        <time>2012-09-28T13:02:45Z</time>
      </trkpt>
      <trkpt lat="46.02025" lon="6.99279">
        <ele>2438.04</ele>
        <time>2012-09-28T13:03:12Z</time>
      </trkpt>
      <trkpt lat="46.02026" lon="6.99279">
        <ele>2438.04</ele>
        <time>2012-09-28T13:03:39Z</time>
      </trkpt>
      <trkpt lat="46.02029" lon="6.9928">
        <ele>2438.04</ele>
        <time>2012-09-28T13:04:05Z</time>
      </trkpt>
      <trkpt lat="46.02027" lon="6.99282">
        <ele>2437.56</ele>
        <time>2012-09-28T13:04:36Z</time>
      </trkpt>
      <trkpt lat="46.02026" lon="6.99287">
        <ele>2437.56</ele>
        <time>2012-09-28T13:05:07Z</time>
      </trkpt>
      <trkpt lat="46.02033" lon="6.99287">
        <ele>2437.56</ele>
        <time>2012-09-28T13:05:27Z</time>
      </trkpt>
      <trkpt lat="46.0203" lon="6.99284">
        <ele>2437.56</ele>
        <time>2012-09-28T13:05:56Z</time>
      </trkpt>
      <trkpt lat="46.02034" lon="6.99285">
        <ele>2437.56</ele>
        <time>2012-09-28T13:06:19Z</time>
      </trkpt>
      <trkpt lat="46.02031" lon="6.99284">
        <ele>2437.08</ele>
        <time>2012-09-28T13:06:40Z</time>
      </trkpt>
      <trkpt lat="46.02033" lon="6.99285">
        <ele>2437.56</ele>
        <time>2012-09-28T13:07:02Z</time>
      </trkpt>
      <trkpt lat="46.02027" lon="6.99285">
        <ele>2437.56</ele>
        <time>2012-09-28T13:07:29Z</time>
      </trkpt>
      <trkpt lat="46.02029" lon="6.99284">
        <ele>2437.08</ele>
        <time>2012-09-28T13:07:57Z</time>
      </trkpt>
      <trkpt lat="46.02024" lon="6.99283">
        <ele>2437.08</ele>
        <time>2012-09-28T13:08:17Z</time>
      </trkpt>
      <trkpt lat="46.02024" lon="6.99282">
        <ele>2437.08</ele>
        <time>2012-09-28T13:08:46Z</time>
      </trkpt>
      <trkpt lat="46.0203" lon="6.99282">
        <ele>2437.08</ele>
        <time>2012-09-28T13:09:06Z</time>
      </trkpt>
      <trkpt lat="46.02027" lon="6.99284">
        <ele>2437.08</ele>
        <time>2012-09-28T13:09:32Z</time>
      </trkpt>
      <trkpt lat="46.02028" lon="6.99283">
        <ele>2437.08</ele>
        <time>2012-09-28T13:09:59Z</time>
      </trkpt>
      <trkpt lat="46.02028" lon="6.99282">
        <ele>2437.08</ele>
        <time>2012-09-28T13:10:16Z</time>
      </trkpt>
      <trkpt lat="46.02028" lon="6.99283">
        <ele>2437.08</ele>
        <time>2012-09-28T13:10:29Z</time>
      </trkpt>
      <trkpt lat="46.02027" lon="6.99283">
        <ele>2437.08</ele>
        <time>2012-09-28T13:11:03Z</time>
      </trkpt>
      <trkpt lat="46.02023" lon="6.99281">
        <ele>2436.6</ele>
        <time>2012-09-28T13:11:19Z</time>
      </trkpt>
      <trkpt lat="46.02022" lon="6.99278">
        <ele>2436.6</ele>
        <time>2012-09-28T13:11:44Z</time>
      </trkpt>
      <trkpt lat="46.02023" lon="6.99272">
        <ele>2436.6</ele>
        <time>2012-09-28T13:12:12Z</time>
      </trkpt>
      <trkpt lat="46.02024" lon="6.99273">
        <ele>2436.6</ele>
        <time>2012-09-28T13:12:35Z</time>
      </trkpt>
      <trkpt lat="46.02025" lon="6.99274">
        <ele>2436.6</ele>
        <time>2012-09-28T13:13:05Z</time>
      </trkpt>
      <trkpt lat="46.02026" lon="6.99279">
        <ele>2436.6</ele>
        <time>2012-09-28T13:13:24Z</time>
      </trkpt>
      <trkpt lat="46.02027" lon="6.99282">
        <ele>2437.56</ele>
        <time>2012-09-28T13:13:36Z</time>
      </trkpt>
      <trkpt lat="46.02027" lon="6.99281">
        <ele>2438.04</ele>
        <time>2012-09-28T13:13:55Z</time>
      </trkpt>
      <trkpt lat="46.02026" lon="6.99279">
        <ele>2437.56</ele>
        <time>2012-09-28T13:14:18Z</time>
      </trkpt>
      <trkpt lat="46.02028" lon="6.9928">
        <ele>2437.56</ele>
        <time>2012-09-28T13:14:21Z</time>
      </trkpt>
      <trkpt lat="46.02029" lon="6.99281">
        <ele>2438.04</ele>
        <time>2012-09-28T13:14:23Z</time>
      </trkpt>
      <trkpt lat="46.02032" lon="6.99288">
        <ele>2438.04</ele>
        <time>2012-09-28T13:14:28Z</time>
      </trkpt>
      <trkpt lat="46.0203" lon="6.99292">
        <ele>2437.56</ele>
        <time>2012-09-28T13:14:32Z</time>
      </trkpt>
      <trkpt lat="46.02027" lon="6.99299">
        <ele>2438.04</ele>
        <time>2012-09-28T13:14:38Z</time>
      </trkpt>
      <trkpt lat="46.02027" lon="6.99304">
        <ele>2439</ele>
        <time>2012-09-28T13:14:53Z</time>
      </trkpt>
      <trkpt lat="46.02027" lon="6.99307">
        <ele>2439</ele>
        <time>2012-09-28T13:15:09Z</time>
      </trkpt>
      <trkpt lat="46.02028" lon="6.99308">
        <ele>2439</ele>
        <time>2012-09-28T13:15:11Z</time>
      </trkpt>
      <trkpt lat="46.02032" lon="6.99316">
        <ele>2437.08</ele>
        <time>2012-09-28T13:15:16Z</time>
      </trkpt>
      <trkpt lat="46.02035" lon="6.99323">
        <ele>2435.16</ele>
        <time>2012-09-28T13:15:22Z</time>
      </trkpt>
      <trkpt lat="46.02041" lon="6.9933">
        <ele>2433.23</ele>
        <time>2012-09-28T13:15:35Z</time>
      </trkpt>
      <trkpt lat="46.02042" lon="6.99336">
        <ele>2432.27</ele>
        <time>2012-09-28T13:15:39Z</time>
      </trkpt>
      <trkpt lat="46.02047" lon="6.9935">
        <ele>2431.31</ele>
        <time>2012-09-28T13:15:50Z</time>
      </trkpt>
      <trkpt lat="46.0205" lon="6.99357">
        <ele>2431.31</ele>
        <time>2012-09-28T13:15:55Z</time>
      </trkpt>
      <trkpt lat="46.02055" lon="6.99369">
        <ele>2429.87</ele>
        <time>2012-09-28T13:16:09Z</time>
      </trkpt>
      <trkpt lat="46.02061" lon="6.99371">
        <ele>2429.87</ele>
        <time>2012-09-28T13:16:21Z</time>
      </trkpt>
      <trkpt lat="46.02064" lon="6.99376">
        <ele>2429.39</ele>
        <time>2012-09-28T13:16:33Z</time>
      </trkpt>
      <trkpt lat="46.02064" lon="6.99373">
        <ele>2429.39</ele>
        <time>2012-09-28T13:16:43Z</time>
      </trkpt>
      <trkpt lat="46.02064" lon="6.99373">
        <ele>2429.87</ele>
        <time>2012-09-28T13:16:59Z</time>
      </trkpt>
      <trkpt lat="46.02061" lon="6.99371">
        <ele>2429.39</ele>
        <time>2012-09-28T13:17:14Z</time>
      </trkpt>
      <trkpt lat="46.02067" lon="6.99374">
        <ele>2429.39</ele>
        <time>2012-09-28T13:17:33Z</time>
      </trkpt>
      <trkpt lat="46.02065" lon="6.99376">
        <ele>2428.91</ele>
        <time>2012-09-28T13:17:44Z</time>
      </trkpt>
      <trkpt lat="46.02064" lon="6.99381">
        <ele>2428.91</ele>
        <time>2012-09-28T13:18:02Z</time>
      </trkpt>
      <trkpt lat="46.02063" lon="6.9938">
        <ele>2428.91</ele>
        <time>2012-09-28T13:18:23Z</time>
      </trkpt>
      <trkpt lat="46.02064" lon="6.99378">
        <ele>2428.91</ele>
        <time>2012-09-28T13:18:36Z</time>
      </trkpt>
      <trkpt lat="46.02064" lon="6.9938">
        <ele>2429.39</ele>
        <time>2012-09-28T13:18:38Z</time>
      </trkpt>
      <trkpt lat="46.02064" lon="6.99383">
        <ele>2428.91</ele>
        <time>2012-09-28T13:18:40Z</time>
      </trkpt>
      <trkpt lat="46.02065" lon="6.99387">
        <ele>2429.39</ele>
        <time>2012-09-28T13:18:48Z</time>
      </trkpt>
      <trkpt lat="46.02057" lon="6.99394">
        <ele>2430.35</ele>
        <time>2012-09-28T13:18:56Z</time>
      </trkpt>
      <trkpt lat="46.02045" lon="6.994">
        <ele>2433.71</ele>
        <time>2012-09-28T13:19:08Z</time>
      </trkpt>
      <trkpt lat="46.0204" lon="6.99399">
        <ele>2434.2</ele>
        <time>2012-09-28T13:19:12Z</time>
      </trkpt>
      <trkpt lat="46.02031" lon="6.99395">
        <ele>2434.68</ele>
        <time>2012-09-28T13:19:19Z</time>
      </trkpt>
      <trkpt lat="46.02026" lon="6.99397">
        <ele>2436.6</ele>
        <time>2012-09-28T13:19:26Z</time>
      </trkpt>
      <trkpt lat="46.02023" lon="6.994">
        <ele>2437.08</ele>
        <time>2012-09-28T13:19:30Z</time>
      </trkpt>
      <trkpt lat="46.02016" lon="6.99409">
        <ele>2439.48</ele>
        <time>2012-09-28T13:19:40Z</time>
      </trkpt>
      <trkpt lat="46.02011" lon="6.99411">
        <ele>2439.48</ele>
        <time>2012-09-28T13:19:44Z</time>
      </trkpt>
      <trkpt lat="46.02002" lon="6.99419">
        <ele>2440.44</ele>
        <time>2012-09-28T13:19:53Z</time>
      </trkpt>
      <trkpt lat="46.02001" lon="6.99421">
        <ele>2441.41</ele>
        <time>2012-09-28T13:19:55Z</time>
      </trkpt>
      <trkpt lat="46.01993" lon="6.99439">
        <ele>2443.81</ele>
        <time>2012-09-28T13:20:09Z</time>
      </trkpt>
      <trkpt lat="46.01994" lon="6.99442">
        <ele>2443.81</ele>
        <time>2012-09-28T13:20:11Z</time>
      </trkpt>
      <trkpt lat="46.01991" lon="6.99447">
        <ele>2444.77</ele>
        <time>2012-09-28T13:20:15Z</time>
      </trkpt>
      <trkpt lat="46.0199" lon="6.99451">
        <ele>2445.25</ele>
        <time>2012-09-28T13:20:18Z</time>
      </trkpt>
      <trkpt lat="46.01985" lon="6.99457">
        <ele>2446.21</ele>
        <time>2012-09-28T13:20:32Z</time>
      </trkpt>
      <trkpt lat="46.01986" lon="6.99455">
        <ele>2446.21</ele>
        <time>2012-09-28T13:20:45Z</time>
      </trkpt>
      <trkpt lat="46.01986" lon="6.99456">
        <ele>2446.21</ele>
        <time>2012-09-28T13:20:56Z</time>
      </trkpt>
      <trkpt lat="46.01987" lon="6.99458">
        <ele>2446.21</ele>
        <time>2012-09-28T13:21:21Z</time>
      </trkpt>
      <trkpt lat="46.01987" lon="6.99458">
        <ele>2446.69</ele>
        <time>2012-09-28T13:21:29Z</time>
      </trkpt>
      <trkpt lat="46.01991" lon="6.99463">
        <ele>2445.73</ele>
        <time>2012-09-28T13:21:41Z</time>
      </trkpt>
      <trkpt lat="46.01987" lon="6.99458">
        <ele>2446.21</ele>
        <time>2012-09-28T13:22:04Z</time>
      </trkpt>
      <trkpt lat="46.01988" lon="6.99458">
        <ele>2446.21</ele>
        <time>2012-09-28T13:22:21Z</time>
      </trkpt>
      <trkpt lat="46.01989" lon="6.99462">
        <ele>2446.21</ele>
        <time>2012-09-28T13:22:49Z</time>
      </trkpt>
      <trkpt lat="46.01989" lon="6.9946">
        <ele>2446.21</ele>
        <time>2012-09-28T13:23:16Z</time>
      </trkpt>
      <trkpt lat="46.0199" lon="6.99459">
        <ele>2446.21</ele>
        <time>2012-09-28T13:23:44Z</time>
      </trkpt>
      <trkpt lat="46.0199" lon="6.9946">
        <ele>2446.21</ele>
        <time>2012-09-28T13:24:05Z</time>
      </trkpt>
      <trkpt lat="46.01989" lon="6.99461">
        <ele>2446.21</ele>
        <time>2012-09-28T13:24:30Z</time>
      </trkpt>
      <trkpt lat="46.01992" lon="6.99462">
        <ele>2445.73</ele>
        <time>2012-09-28T13:24:39Z</time>
      </trkpt>
      <trkpt lat="46.01993" lon="6.99461">
        <ele>2444.77</ele>
        <time>2012-09-28T13:24:48Z</time>
      </trkpt>
      <trkpt lat="46.01993" lon="6.99464">
        <ele>2444.77</ele>
        <time>2012-09-28T13:24:50Z</time>
      </trkpt>
      <trkpt lat="46.01995" lon="6.99468">
        <ele>2443.81</ele>
        <time>2012-09-28T13:24:56Z</time>
      </trkpt>
      <trkpt lat="46.01997" lon="6.99483">
        <ele>2440.92</ele>
        <time>2012-09-28T13:25:02Z</time>
      </trkpt>
      <trkpt lat="46.01999" lon="6.99488">
        <ele>2440.44</ele>
        <time>2012-09-28T13:25:04Z</time>
      </trkpt>
      <trkpt lat="46.02" lon="6.99493">
        <ele>2439</ele>
        <time>2012-09-28T13:25:06Z</time>
      </trkpt>
      <trkpt lat="46.02002" lon="6.99498">
        <ele>2439</ele>
        <time>2012-09-28T13:25:08Z</time>
      </trkpt>
      <trkpt lat="46.02003" lon="6.99502">
        <ele>2437.56</ele>
        <time>2012-09-28T13:25:10Z</time>
      </trkpt>
      <trkpt lat="46.02004" lon="6.99508">
        <ele>2435.16</ele>
        <time>2012-09-28T13:25:14Z</time>
      </trkpt>
      <trkpt lat="46.02004" lon="6.99513">
        <ele>2433.71</ele>
        <time>2012-09-28T13:25:17Z</time>
      </trkpt>
      <trkpt lat="46.02006" lon="6.99518">
        <ele>2431.79</ele>
        <time>2012-09-28T13:25:20Z</time>
      </trkpt>
      <trkpt lat="46.02011" lon="6.99525">
        <ele>2429.87</ele>
        <time>2012-09-28T13:25:27Z</time>
      </trkpt>
      <trkpt lat="46.02014" lon="6.99533">
        <ele>2428.43</ele>
        <time>2012-09-28T13:25:32Z</time>
      </trkpt>
      <trkpt lat="46.02017" lon="6.99543">
        <ele>2426.02</ele>
        <time>2012-09-28T13:25:37Z</time>
      </trkpt>
      <trkpt lat="46.02023" lon="6.99559">
        <ele>2422.18</ele>
        <time>2012-09-28T13:25:45Z</time>
      </trkpt>
      <trkpt lat="46.02024" lon="6.99561">
        <ele>2422.66</ele>
        <time>2012-09-28T13:25:46Z</time>
      </trkpt>
      <trkpt lat="46.02025" lon="6.99563">
        <ele>2421.7</ele>
        <time>2012-09-28T13:25:47Z</time>
      </trkpt>
      <trkpt lat="46.02033" lon="6.99578">
        <ele>2418.81</ele>
        <time>2012-09-28T13:25:53Z</time>
      </trkpt>
      <trkpt lat="46.02039" lon="6.99591">
        <ele>2418.33</ele>
        <time>2012-09-28T13:26:04Z</time>
      </trkpt>
      <trkpt lat="46.02048" lon="6.99606">
        <ele>2414.97</ele>
        <time>2012-09-28T13:26:13Z</time>
      </trkpt>
      <trkpt lat="46.02053" lon="6.99615">
        <ele>2412.57</ele>
        <time>2012-09-28T13:26:19Z</time>
      </trkpt>
      <trkpt lat="46.02057" lon="6.99625">
        <ele>2409.2</ele>
        <time>2012-09-28T13:26:25Z</time>
      </trkpt>
      <trkpt lat="46.02059" lon="6.99626">
        <ele>2408.72</ele>
        <time>2012-09-28T13:26:36Z</time>
      </trkpt>
      <trkpt lat="46.0206" lon="6.99628">
        <ele>2408.72</ele>
        <time>2012-09-28T13:26:39Z</time>
      </trkpt>
      <trkpt lat="46.02063" lon="6.99636">
        <ele>2404.39</ele>
        <time>2012-09-28T13:26:47Z</time>
      </trkpt>
      <trkpt lat="46.02065" lon="6.99643">
        <ele>2402.47</ele>
        <time>2012-09-28T13:26:54Z</time>
      </trkpt>
      <trkpt lat="46.02067" lon="6.99649">
        <ele>2400.07</ele>
        <time>2012-09-28T13:27:01Z</time>
      </trkpt>
      <trkpt lat="46.02068" lon="6.99654">
        <ele>2398.15</ele>
        <time>2012-09-28T13:27:05Z</time>
      </trkpt>
      <trkpt lat="46.02069" lon="6.99657">
        <ele>2397.18</ele>
        <time>2012-09-28T13:27:07Z</time>
      </trkpt>
      <trkpt lat="46.02072" lon="6.99661">
        <ele>2396.7</ele>
        <time>2012-09-28T13:27:10Z</time>
      </trkpt>
      <trkpt lat="46.02071" lon="6.99663">
        <ele>2396.22</ele>
        <time>2012-09-28T13:27:12Z</time>
      </trkpt>
      <trkpt lat="46.02074" lon="6.99673">
        <ele>2394.3</ele>
        <time>2012-09-28T13:27:19Z</time>
      </trkpt>
      <trkpt lat="46.02078" lon="6.99685">
        <ele>2390.94</ele>
        <time>2012-09-28T13:27:29Z</time>
      </trkpt>
      <trkpt lat="46.02079" lon="6.99696">
        <ele>2388.05</ele>
        <time>2012-09-28T13:27:38Z</time>
      </trkpt>
      <trkpt lat="46.02081" lon="6.99706">
        <ele>2386.61</ele>
        <time>2012-09-28T13:27:45Z</time>
      </trkpt>
      <trkpt lat="46.02087" lon="6.99724">
        <ele>2384.21</ele>
        <time>2012-09-28T13:27:56Z</time>
      </trkpt>
      <trkpt lat="46.02087" lon="6.99719">
        <ele>2384.21</ele>
        <time>2012-09-28T13:28:07Z</time>
      </trkpt>
      <trkpt lat="46.02089" lon="6.9973">
        <ele>2383.25</ele>
        <time>2012-09-28T13:28:14Z</time>
      </trkpt>
      <trkpt lat="46.02092" lon="6.9974">
        <ele>2381.32</ele>
        <time>2012-09-28T13:28:20Z</time>
      </trkpt>
      <trkpt lat="46.02096" lon="6.99748">
        <ele>2379.4</ele>
        <time>2012-09-28T13:28:23Z</time>
      </trkpt>
      <trkpt lat="46.02101" lon="6.99757">
        <ele>2378.44</ele>
        <time>2012-09-28T13:28:31Z</time>
      </trkpt>
      <trkpt lat="46.02105" lon="6.99758">
        <ele>2377.96</ele>
        <time>2012-09-28T13:28:34Z</time>
      </trkpt>
      <trkpt lat="46.02107" lon="6.9976">
        <ele>2377.96</ele>
        <time>2012-09-28T13:28:36Z</time>
      </trkpt>
      <trkpt lat="46.02113" lon="6.99764">
        <ele>2375.55</ele>
        <time>2012-09-28T13:28:49Z</time>
      </trkpt>
      <trkpt lat="46.02117" lon="6.99767">
        <ele>2374.11</ele>
        <time>2012-09-28T13:29:05Z</time>
      </trkpt>
      <trkpt lat="46.02118" lon="6.99765">
        <ele>2374.59</ele>
        <time>2012-09-28T13:29:17Z</time>
      </trkpt>
      <trkpt lat="46.02119" lon="6.99765">
        <ele>2375.55</ele>
        <time>2012-09-28T13:29:32Z</time>
      </trkpt>
      <trkpt lat="46.0212" lon="6.99764">
        <ele>2375.55</ele>
        <time>2012-09-28T13:29:47Z</time>
      </trkpt>
      <trkpt lat="46.02118" lon="6.99762">
        <ele>2376.04</ele>
        <time>2012-09-28T13:30:04Z</time>
      </trkpt>
      <trkpt lat="46.02119" lon="6.99762">
        <ele>2376.04</ele>
        <time>2012-09-28T13:30:21Z</time>
      </trkpt>
      <trkpt lat="46.02118" lon="6.99764">
        <ele>2375.55</ele>
        <time>2012-09-28T13:30:39Z</time>
      </trkpt>
      <trkpt lat="46.02116" lon="6.99767">
        <ele>2373.63</ele>
        <time>2012-09-28T13:30:48Z</time>
      </trkpt>
      <trkpt lat="46.02127" lon="6.99773">
        <ele>2371.23</ele>
        <time>2012-09-28T13:30:57Z</time>
      </trkpt>
      <trkpt lat="46.02131" lon="6.99775">
        <ele>2370.27</ele>
        <time>2012-09-28T13:31:02Z</time>
      </trkpt>
      <trkpt lat="46.02141" lon="6.99776">
        <ele>2367.38</ele>
        <time>2012-09-28T13:31:11Z</time>
      </trkpt>
      <trkpt lat="46.02144" lon="6.99777">
        <ele>2366.9</ele>
        <time>2012-09-28T13:31:14Z</time>
      </trkpt>
      <trkpt lat="46.02156" lon="6.99777">
        <ele>2364.5</ele>
        <time>2012-09-28T13:31:27Z</time>
      </trkpt>
      <trkpt lat="46.02162" lon="6.9978">
        <ele>2361.14</ele>
        <time>2012-09-28T13:31:36Z</time>
      </trkpt>
      <trkpt lat="46.02169" lon="6.99782">
        <ele>2357.29</ele>
        <time>2012-09-28T13:31:48Z</time>
      </trkpt>
      <trkpt lat="46.02175" lon="6.99785">
        <ele>2354.41</ele>
        <time>2012-09-28T13:31:56Z</time>
      </trkpt>
      <trkpt lat="46.02182" lon="6.99784">
        <ele>2351.04</ele>
        <time>2012-09-28T13:32:03Z</time>
      </trkpt>
      <trkpt lat="46.02183" lon="6.99783">
        <ele>2351.04</ele>
        <time>2012-09-28T13:32:04Z</time>
      </trkpt>
      <trkpt lat="46.02188" lon="6.99781">
        <ele>2349.6</ele>
        <time>2012-09-28T13:32:09Z</time>
      </trkpt>
      <trkpt lat="46.02193" lon="6.99779">
        <ele>2347.68</ele>
        <time>2012-09-28T13:32:14Z</time>
      </trkpt>
      <trkpt lat="46.02192" lon="6.99781">
        <ele>2346.23</ele>
        <time>2012-09-28T13:32:28Z</time>
      </trkpt>
      <trkpt lat="46.02191" lon="6.99787">
        <ele>2343.83</ele>
        <time>2012-09-28T13:32:43Z</time>
      </trkpt>
      <trkpt lat="46.02188" lon="6.99794">
        <ele>2341.43</ele>
        <time>2012-09-28T13:32:56Z</time>
      </trkpt>
      <trkpt lat="46.02186" lon="6.99795">
        <ele>2339.51</ele>
        <time>2012-09-28T13:33:09Z</time>
      </trkpt>
      <trkpt lat="46.02185" lon="6.99802">
        <ele>2338.54</ele>
        <time>2012-09-28T13:33:16Z</time>
      </trkpt>
      <trkpt lat="46.02187" lon="6.99808">
        <ele>2336.62</ele>
        <time>2012-09-28T13:33:30Z</time>
      </trkpt>
      <trkpt lat="46.02188" lon="6.99809">
        <ele>2336.62</ele>
        <time>2012-09-28T13:33:32Z</time>
      </trkpt>
      <trkpt lat="46.02191" lon="6.99809">
        <ele>2336.62</ele>
        <time>2012-09-28T13:33:45Z</time>
      </trkpt>
      <trkpt lat="46.0219" lon="6.99806">
        <ele>2336.62</ele>
        <time>2012-09-28T13:34:05Z</time>
      </trkpt>
      <trkpt lat="46.02188" lon="6.99807">
        <ele>2336.62</ele>
        <time>2012-09-28T13:34:20Z</time>
      </trkpt>
      <trkpt lat="46.02185" lon="6.99811">
        <ele>2336.62</ele>
        <time>2012-09-28T13:34:32Z</time>
      </trkpt>
      <trkpt lat="46.02183" lon="6.99818">
        <ele>2334.22</ele>
        <time>2012-09-28T13:34:44Z</time>
      </trkpt>
      <trkpt lat="46.02181" lon="6.99822">
        <ele>2332.78</ele>
        <time>2012-09-28T13:34:57Z</time>
      </trkpt>
      <trkpt lat="46.02176" lon="6.99828">
        <ele>2331.33</ele>
        <time>2012-09-28T13:35:09Z</time>
      </trkpt>
      <trkpt lat="46.02169" lon="6.99834">
        <ele>2329.41</ele>
        <time>2012-09-28T13:35:21Z</time>
      </trkpt>
      <trkpt lat="46.02163" lon="6.99838">
        <ele>2329.41</ele>
        <time>2012-09-28T13:35:31Z</time>
      </trkpt>
      <trkpt lat="46.02161" lon="6.99844">
        <ele>2327.97</ele>
        <time>2012-09-28T13:35:40Z</time>
      </trkpt>
      <trkpt lat="46.02157" lon="6.99846">
        <ele>2327.49</ele>
        <time>2012-09-28T13:35:56Z</time>
      </trkpt>
      <trkpt lat="46.02153" lon="6.99849">
        <ele>2328.45</ele>
        <time>2012-09-28T13:36:09Z</time>
      </trkpt>
      <trkpt lat="46.02153" lon="6.99847">
        <ele>2329.41</ele>
        <time>2012-09-28T13:36:11Z</time>
      </trkpt>
      <trkpt lat="46.0215" lon="6.99847">
        <ele>2329.89</ele>
        <time>2012-09-28T13:36:16Z</time>
      </trkpt>
      <trkpt lat="46.02142" lon="6.99851">
        <ele>2330.85</ele>
        <time>2012-09-28T13:36:28Z</time>
      </trkpt>
      <trkpt lat="46.02134" lon="6.99856">
        <ele>2329.89</ele>
        <time>2012-09-28T13:36:39Z</time>
      </trkpt>
      <trkpt lat="46.02131" lon="6.99858">
        <ele>2329.89</ele>
        <time>2012-09-28T13:36:48Z</time>
      </trkpt>
      <trkpt lat="46.02127" lon="6.99862">
        <ele>2330.37</ele>
        <time>2012-09-28T13:36:57Z</time>
      </trkpt>
      <trkpt lat="46.02124" lon="6.99868">
        <ele>2329.89</ele>
        <time>2012-09-28T13:37:09Z</time>
      </trkpt>
      <trkpt lat="46.02126" lon="6.99874">
        <ele>2327.01</ele>
        <time>2012-09-28T13:37:20Z</time>
      </trkpt>
      <trkpt lat="46.02127" lon="6.99876">
        <ele>2326.05</ele>
        <time>2012-09-28T13:37:22Z</time>
      </trkpt>
      <trkpt lat="46.0213" lon="6.9988">
        <ele>2323.16</ele>
        <time>2012-09-28T13:37:30Z</time>
      </trkpt>
      <trkpt lat="46.02126" lon="6.99885">
        <ele>2321.24</ele>
        <time>2012-09-28T13:37:41Z</time>
      </trkpt>
      <trkpt lat="46.02124" lon="6.99887">
        <ele>2321.24</ele>
        <time>2012-09-28T13:37:43Z</time>
      </trkpt>
      <trkpt lat="46.02123" lon="6.99889">
        <ele>2321.24</ele>
        <time>2012-09-28T13:37:45Z</time>
      </trkpt>
      <trkpt lat="46.0212" lon="6.99892">
        <ele>2320.28</ele>
        <time>2012-09-28T13:37:48Z</time>
      </trkpt>
      <trkpt lat="46.02112" lon="6.9991">
        <ele>2317.88</ele>
        <time>2012-09-28T13:38:01Z</time>
      </trkpt>
      <trkpt lat="46.02111" lon="6.99915">
        <ele>2316.43</ele>
        <time>2012-09-28T13:38:13Z</time>
      </trkpt>
      <trkpt lat="46.02109" lon="6.99915">
        <ele>2315.47</ele>
        <time>2012-09-28T13:38:15Z</time>
      </trkpt>
      <trkpt lat="46.02105" lon="6.99927">
        <ele>2312.59</ele>
        <time>2012-09-28T13:38:27Z</time>
      </trkpt>
      <trkpt lat="46.02104" lon="6.9993">
        <ele>2312.11</ele>
        <time>2012-09-28T13:38:30Z</time>
      </trkpt>
      <trkpt lat="46.02098" lon="6.99937">
        <ele>2310.67</ele>
        <time>2012-09-28T13:38:37Z</time>
      </trkpt>
      <trkpt lat="46.02088" lon="6.99951">
        <ele>2307.3</ele>
        <time>2012-09-28T13:38:49Z</time>
      </trkpt>
      <trkpt lat="46.02083" lon="6.99962">
        <ele>2306.82</ele>
        <time>2012-09-28T13:38:58Z</time>
      </trkpt>
      <trkpt lat="46.02083" lon="6.99965">
        <ele>2305.86</ele>
        <time>2012-09-28T13:39:01Z</time>
      </trkpt>
      <trkpt lat="46.0208" lon="6.99977">
        <ele>2304.42</ele>
        <time>2012-09-28T13:39:10Z</time>
      </trkpt>
      <trkpt lat="46.02075" lon="6.99988">
        <ele>2303.94</ele>
        <time>2012-09-28T13:39:19Z</time>
      </trkpt>
      <trkpt lat="46.02067" lon="6.99997">
        <ele>2303.94</ele>
        <time>2012-09-28T13:39:28Z</time>
      </trkpt>
      <trkpt lat="46.02064" lon="7.00002">
        <ele>2303.46</ele>
        <time>2012-09-28T13:39:32Z</time>
      </trkpt>
      <trkpt lat="46.02065" lon="7.00007">
        <ele>2302.98</ele>
        <time>2012-09-28T13:39:44Z</time>
      </trkpt>
      <trkpt lat="46.02066" lon="7.00008">
        <ele>2302.98</ele>
        <time>2012-09-28T13:40:04Z</time>
      </trkpt>
      <trkpt lat="46.02066" lon="7.00008">
        <ele>2302.98</ele>
        <time>2012-09-28T13:40:07Z</time>
      </trkpt>
      <trkpt lat="46.02072" lon="7.00014">
        <ele>2301.05</ele>
        <time>2012-09-28T13:40:14Z</time>
      </trkpt>
      <trkpt lat="46.02072" lon="7.00016">
        <ele>2300.57</ele>
        <time>2012-09-28T13:40:16Z</time>
      </trkpt>
      <trkpt lat="46.02073" lon="7.00021">
        <ele>2298.65</ele>
        <time>2012-09-28T13:40:20Z</time>
      </trkpt>
      <trkpt lat="46.02074" lon="7.0003">
        <ele>2294.8</ele>
        <time>2012-09-28T13:40:28Z</time>
      </trkpt>
      <trkpt lat="46.02075" lon="7.0003">
        <ele>2294.8</ele>
        <time>2012-09-28T13:40:29Z</time>
      </trkpt>
      <trkpt lat="46.02081" lon="7.0003">
        <ele>2293.36</ele>
        <time>2012-09-28T13:40:34Z</time>
      </trkpt>
      <trkpt lat="46.02092" lon="7.00032">
        <ele>2291.44</ele>
        <time>2012-09-28T13:40:43Z</time>
      </trkpt>
      <trkpt lat="46.021" lon="7.00038">
        <ele>2288.56</ele>
        <time>2012-09-28T13:40:55Z</time>
      </trkpt>
      <trkpt lat="46.02101" lon="7.0004">
        <ele>2288.08</ele>
        <time>2012-09-28T13:40:57Z</time>
      </trkpt>
      <trkpt lat="46.02109" lon="7.00044">
        <ele>2284.23</ele>
        <time>2012-09-28T13:41:09Z</time>
      </trkpt>
      <trkpt lat="46.0211" lon="7.00044">
        <ele>2283.75</ele>
        <time>2012-09-28T13:41:12Z</time>
      </trkpt>
      <trkpt lat="46.02112" lon="7.00045">
        <ele>2283.27</ele>
        <time>2012-09-28T13:41:14Z</time>
      </trkpt>
      <trkpt lat="46.02119" lon="7.00043">
        <ele>2281.35</ele>
        <time>2012-09-28T13:41:22Z</time>
      </trkpt>
      <trkpt lat="46.02126" lon="7.00045">
        <ele>2279.9</ele>
        <time>2012-09-28T13:41:28Z</time>
      </trkpt>
      <trkpt lat="46.02125" lon="7.00049">
        <ele>2278.94</ele>
        <time>2012-09-28T13:41:31Z</time>
      </trkpt>
      <trkpt lat="46.02125" lon="7.00056">
        <ele>2277.02</ele>
        <time>2012-09-28T13:41:38Z</time>
      </trkpt>
      <trkpt lat="46.02127" lon="7.00061">
        <ele>2275.58</ele>
        <time>2012-09-28T13:41:43Z</time>
      </trkpt>
      <trkpt lat="46.02134" lon="7.00063">
        <ele>2273.17</ele>
        <time>2012-09-28T13:41:50Z</time>
      </trkpt>
      <trkpt lat="46.02137" lon="7.00067">
        <ele>2272.21</ele>
        <time>2012-09-28T13:41:56Z</time>
      </trkpt>
      <trkpt lat="46.02139" lon="7.00067">
        <ele>2271.25</ele>
        <time>2012-09-28T13:41:58Z</time>
      </trkpt>
      <trkpt lat="46.02141" lon="7.0007">
        <ele>2270.29</ele>
        <time>2012-09-28T13:42:03Z</time>
      </trkpt>
      <trkpt lat="46.02145" lon="7.00078">
        <ele>2266.93</ele>
        <time>2012-09-28T13:42:14Z</time>
      </trkpt>
      <trkpt lat="46.02146" lon="7.00079">
        <ele>2266.45</ele>
        <time>2012-09-28T13:42:16Z</time>
      </trkpt>
      <trkpt lat="46.02152" lon="7.00087">
        <ele>2263.56</ele>
        <time>2012-09-28T13:42:24Z</time>
      </trkpt>
      <trkpt lat="46.02152" lon="7.00089">
        <ele>2263.08</ele>
        <time>2012-09-28T13:42:26Z</time>
      </trkpt>
      <trkpt lat="46.02152" lon="7.00102">
        <ele>2259.24</ele>
        <time>2012-09-28T13:42:37Z</time>
      </trkpt>
      <trkpt lat="46.02153" lon="7.00103">
        <ele>2258.75</ele>
        <time>2012-09-28T13:42:40Z</time>
      </trkpt>
      <trkpt lat="46.02165" lon="7.00101">
        <ele>2255.87</ele>
        <time>2012-09-28T13:42:51Z</time>
      </trkpt>
      <trkpt lat="46.02165" lon="7.00102">
        <ele>2255.87</ele>
        <time>2012-09-28T13:42:57Z</time>
      </trkpt>
      <trkpt lat="46.02174" lon="7.00109">
        <ele>2253.95</ele>
        <time>2012-09-28T13:43:06Z</time>
      </trkpt>
      <trkpt lat="46.0218" lon="7.00127">
        <ele>2250.58</ele>
        <time>2012-09-28T13:43:17Z</time>
      </trkpt>
      <trkpt lat="46.0219" lon="7.00137">
        <ele>2247.22</ele>
        <time>2012-09-28T13:43:25Z</time>
      </trkpt>
      <trkpt lat="46.02191" lon="7.00139">
        <ele>2246.74</ele>
        <time>2012-09-28T13:43:27Z</time>
      </trkpt>
      <trkpt lat="46.02192" lon="7.00141">
        <ele>2245.78</ele>
        <time>2012-09-28T13:43:30Z</time>
      </trkpt>
      <trkpt lat="46.02196" lon="7.00154">
        <ele>2241.93</ele>
        <time>2012-09-28T13:43:38Z</time>
      </trkpt>
      <trkpt lat="46.02197" lon="7.00155">
        <ele>2241.93</ele>
        <time>2012-09-28T13:43:39Z</time>
      </trkpt>
      <trkpt lat="46.02199" lon="7.00156">
        <ele>2240.97</ele>
        <time>2012-09-28T13:43:41Z</time>
      </trkpt>
      <trkpt lat="46.02199" lon="7.00161">
        <ele>2240.01</ele>
        <time>2012-09-28T13:43:44Z</time>
      </trkpt>
      <trkpt lat="46.02199" lon="7.00167">
        <ele>2238.57</ele>
        <time>2012-09-28T13:43:47Z</time>
      </trkpt>
      <trkpt lat="46.02203" lon="7.00171">
        <ele>2237.61</ele>
        <time>2012-09-28T13:43:57Z</time>
      </trkpt>
      <trkpt lat="46.02204" lon="7.00171">
        <ele>2237.13</ele>
        <time>2012-09-28T13:44:08Z</time>
      </trkpt>
      <trkpt lat="46.02211" lon="7.00174">
        <ele>2233.76</ele>
        <time>2012-09-28T13:44:17Z</time>
      </trkpt>
      <trkpt lat="46.02214" lon="7.00169">
        <ele>2232.8</ele>
        <time>2012-09-28T13:44:21Z</time>
      </trkpt>
      <trkpt lat="46.02216" lon="7.00164">
        <ele>2231.84</ele>
        <time>2012-09-28T13:44:24Z</time>
      </trkpt>
      <trkpt lat="46.02226" lon="7.00158">
        <ele>2229.92</ele>
        <time>2012-09-28T13:44:37Z</time>
      </trkpt>
      <trkpt lat="46.02232" lon="7.00158">
        <ele>2227.99</ele>
        <time>2012-09-28T13:44:48Z</time>
      </trkpt>
      <trkpt lat="46.02237" lon="7.00154">
        <ele>2226.07</ele>
        <time>2012-09-28T13:44:52Z</time>
      </trkpt>
      <trkpt lat="46.02247" lon="7.00156">
        <ele>2225.11</ele>
        <time>2012-09-28T13:44:58Z</time>
      </trkpt>
      <trkpt lat="46.02254" lon="7.00159">
        <ele>2224.15</ele>
        <time>2012-09-28T13:45:03Z</time>
      </trkpt>
      <trkpt lat="46.02263" lon="7.00167">
        <ele>2222.22</ele>
        <time>2012-09-28T13:45:09Z</time>
      </trkpt>
      <trkpt lat="46.02271" lon="7.00175">
        <ele>2220.3</ele>
        <time>2012-09-28T13:45:15Z</time>
      </trkpt>
      <trkpt lat="46.02282" lon="7.00177">
        <ele>2221.74</ele>
        <time>2012-09-28T13:45:21Z</time>
      </trkpt>
      <trkpt lat="46.02286" lon="7.00178">
        <ele>2222.22</ele>
        <time>2012-09-28T13:45:29Z</time>
      </trkpt>
      <trkpt lat="46.02293" lon="7.00185">
        <ele>2218.86</ele>
        <time>2012-09-28T13:45:37Z</time>
      </trkpt>
      <trkpt lat="46.02301" lon="7.00189">
        <ele>2219.82</ele>
        <time>2012-09-28T13:45:42Z</time>
      </trkpt>
      <trkpt lat="46.02308" lon="7.00202">
        <ele>2217.9</ele>
        <time>2012-09-28T13:45:48Z</time>
      </trkpt>
      <trkpt lat="46.02316" lon="7.00215">
        <ele>2217.42</ele>
        <time>2012-09-28T13:45:53Z</time>
      </trkpt>
      <trkpt lat="46.02325" lon="7.00241">
        <ele>2216.46</ele>
        <time>2012-09-28T13:46:01Z</time>
      </trkpt>
      <trkpt lat="46.02328" lon="7.00244">
        <ele>2216.46</ele>
        <time>2012-09-28T13:46:03Z</time>
      </trkpt>
      <trkpt lat="46.02342" lon="7.00256">
        <ele>2216.94</ele>
        <time>2012-09-28T13:46:16Z</time>
      </trkpt>
      <trkpt lat="46.0235" lon="7.00263">
        <ele>2215.98</ele>
        <time>2012-09-28T13:46:23Z</time>
      </trkpt>
      <trkpt lat="46.02354" lon="7.00268">
        <ele>2215.5</ele>
        <time>2012-09-28T13:46:28Z</time>
      </trkpt>
      <trkpt lat="46.02366" lon="7.00291">
        <ele>2213.57</ele>
        <time>2012-09-28T13:46:43Z</time>
      </trkpt>
      <trkpt lat="46.02368" lon="7.00292">
        <ele>2213.09</ele>
        <time>2012-09-28T13:46:45Z</time>
      </trkpt>
      <trkpt lat="46.02382" lon="7.00315">
        <ele>2209.25</ele>
        <time>2012-09-28T13:46:59Z</time>
      </trkpt>
      <trkpt lat="46.02383" lon="7.00316">
        <ele>2209.73</ele>
        <time>2012-09-28T13:47:00Z</time>
      </trkpt>
      <trkpt lat="46.02383" lon="7.00319">
        <ele>2210.21</ele>
        <time>2012-09-28T13:47:15Z</time>
      </trkpt>
      <trkpt lat="46.02386" lon="7.00321">
        <ele>2209.73</ele>
        <time>2012-09-28T13:47:28Z</time>
      </trkpt>
      <trkpt lat="46.02388" lon="7.00319">
        <ele>2209.73</ele>
        <time>2012-09-28T13:47:41Z</time>
      </trkpt>
      <trkpt lat="46.02393" lon="7.00329">
        <ele>2207.32</ele>
        <time>2012-09-28T13:47:47Z</time>
      </trkpt>
      <trkpt lat="46.02394" lon="7.00331">
        <ele>2207.32</ele>
        <time>2012-09-28T13:47:49Z</time>
      </trkpt>
      <trkpt lat="46.02395" lon="7.00332">
        <ele>2206.84</ele>
        <time>2012-09-28T13:47:59Z</time>
      </trkpt>
      <trkpt lat="46.02395" lon="7.00328">
        <ele>2206.84</ele>
        <time>2012-09-28T13:48:10Z</time>
      </trkpt>
      <trkpt lat="46.02394" lon="7.0033">
        <ele>2206.84</ele>
        <time>2012-09-28T13:48:25Z</time>
      </trkpt>
      <trkpt lat="46.02397" lon="7.00332">
        <ele>2206.36</ele>
        <time>2012-09-28T13:48:44Z</time>
      </trkpt>
      <trkpt lat="46.02404" lon="7.00328">
        <ele>2206.36</ele>
        <time>2012-09-28T13:49:04Z</time>
      </trkpt>
      <trkpt lat="46.02396" lon="7.00335">
        <ele>2206.36</ele>
        <time>2012-09-28T13:49:20Z</time>
      </trkpt>
      <trkpt lat="46.02397" lon="7.00342">
        <ele>2203.96</ele>
        <time>2012-09-28T13:49:25Z</time>
      </trkpt>
      <trkpt lat="46.02398" lon="7.00344">
        <ele>2203.96</ele>
        <time>2012-09-28T13:49:26Z</time>
      </trkpt>
      <trkpt lat="46.024" lon="7.0036">
        <ele>2200.59</ele>
        <time>2012-09-28T13:49:37Z</time>
      </trkpt>
      <trkpt lat="46.02404" lon="7.00371">
        <ele>2197.71</ele>
        <time>2012-09-28T13:49:44Z</time>
      </trkpt>
      <trkpt lat="46.02406" lon="7.00379">
        <ele>2196.75</ele>
        <time>2012-09-28T13:49:55Z</time>
      </trkpt>
      <trkpt lat="46.02408" lon="7.00392">
        <ele>2193.87</ele>
        <time>2012-09-28T13:50:06Z</time>
      </trkpt>
      <trkpt lat="46.02415" lon="7.00403">
        <ele>2190.98</ele>
        <time>2012-09-28T13:50:14Z</time>
      </trkpt>
      <trkpt lat="46.02417" lon="7.00419">
        <ele>2188.1</ele>
        <time>2012-09-28T13:50:25Z</time>
      </trkpt>
      <trkpt lat="46.0242" lon="7.00429">
        <ele>2184.73</ele>
        <time>2012-09-28T13:50:36Z</time>
      </trkpt>
      <trkpt lat="46.02422" lon="7.00438">
        <ele>2181.85</ele>
        <time>2012-09-28T13:50:49Z</time>
      </trkpt>
      <trkpt lat="46.02424" lon="7.00436">
        <ele>2182.33</ele>
        <time>2012-09-28T13:51:07Z</time>
      </trkpt>
      <trkpt lat="46.02424" lon="7.00432">
        <ele>2182.81</ele>
        <time>2012-09-28T13:51:20Z</time>
      </trkpt>
      <trkpt lat="46.02424" lon="7.00442">
        <ele>2180.41</ele>
        <time>2012-09-28T13:51:33Z</time>
      </trkpt>
      <trkpt lat="46.0243" lon="7.00455">
        <ele>2177.52</ele>
        <time>2012-09-28T13:51:45Z</time>
      </trkpt>
      <trkpt lat="46.02432" lon="7.00463">
        <ele>2175.12</ele>
        <time>2012-09-28T13:51:58Z</time>
      </trkpt>
      <trkpt lat="46.02434" lon="7.00471">
        <ele>2171.76</ele>
        <time>2012-09-28T13:52:10Z</time>
      </trkpt>
      <trkpt lat="46.0244" lon="7.00478">
        <ele>2168.87</ele>
        <time>2012-09-28T13:52:20Z</time>
      </trkpt>
      <trkpt lat="46.0244" lon="7.00479">
        <ele>2168.39</ele>
        <time>2012-09-28T13:52:21Z</time>
      </trkpt>
      <trkpt lat="46.02444" lon="7.00491">
        <ele>2165.51</ele>
        <time>2012-09-28T13:52:34Z</time>
      </trkpt>
      <trkpt lat="46.02444" lon="7.00493">
        <ele>2165.51</ele>
        <time>2012-09-28T13:52:37Z</time>
      </trkpt>
      <trkpt lat="46.02441" lon="7.00495">
        <ele>2164.06</ele>
        <time>2012-09-28T13:52:49Z</time>
      </trkpt>
      <trkpt lat="46.02441" lon="7.00492">
        <ele>2164.06</ele>
        <time>2012-09-28T13:53:03Z</time>
      </trkpt>
      <trkpt lat="46.02442" lon="7.00491">
        <ele>2164.06</ele>
        <time>2012-09-28T13:53:17Z</time>
      </trkpt>
      <trkpt lat="46.0244" lon="7.0049">
        <ele>2163.58</ele>
        <time>2012-09-28T13:53:47Z</time>
      </trkpt>
      <trkpt lat="46.0244" lon="7.00492">
        <ele>2163.58</ele>
        <time>2012-09-28T13:54:09Z</time>
      </trkpt>
      <trkpt lat="46.02443" lon="7.00491">
        <ele>2163.1</ele>
        <time>2012-09-28T13:54:46Z</time>
      </trkpt>
      <trkpt lat="46.02443" lon="7.00492">
        <ele>2163.58</ele>
        <time>2012-09-28T13:55:12Z</time>
      </trkpt>
      <trkpt lat="46.02439" lon="7.00492">
        <ele>2164.06</ele>
        <time>2012-09-28T13:55:26Z</time>
      </trkpt>
      <trkpt lat="46.02441" lon="7.00491">
        <ele>2164.06</ele>
        <time>2012-09-28T13:55:39Z</time>
      </trkpt>
      <trkpt lat="46.02439" lon="7.0049">
        <ele>2164.06</ele>
        <time>2012-09-28T13:56:00Z</time>
      </trkpt>
      <trkpt lat="46.02441" lon="7.00489">
        <ele>2164.06</ele>
        <time>2012-09-28T13:56:18Z</time>
      </trkpt>
      <trkpt lat="46.0244" lon="7.00489">
        <ele>2164.06</ele>
        <time>2012-09-28T13:56:42Z</time>
      </trkpt>
      <trkpt lat="46.02439" lon="7.00491">
        <ele>2164.06</ele>
        <time>2012-09-28T13:57:06Z</time>
      </trkpt>
      <trkpt lat="46.02441" lon="7.00492">
        <ele>2164.06</ele>
        <time>2012-09-28T13:57:12Z</time>
      </trkpt>
      <trkpt lat="46.02452" lon="7.00501">
        <ele>2163.1</ele>
        <time>2012-09-28T13:57:23Z</time>
      </trkpt>
      <trkpt lat="46.02458" lon="7.00503">
        <ele>2162.14</ele>
        <time>2012-09-28T13:57:34Z</time>
      </trkpt>
      <trkpt lat="46.02459" lon="7.00503">
        <ele>2162.62</ele>
        <time>2012-09-28T13:57:50Z</time>
      </trkpt>
      <trkpt lat="46.0246" lon="7.00499">
        <ele>2163.58</ele>
        <time>2012-09-28T13:57:54Z</time>
      </trkpt>
      <trkpt lat="46.02465" lon="7.00496">
        <ele>2163.1</ele>
        <time>2012-09-28T13:58:07Z</time>
      </trkpt>
      <trkpt lat="46.02465" lon="7.00502">
        <ele>2161.18</ele>
        <time>2012-09-28T13:58:19Z</time>
      </trkpt>
      <trkpt lat="46.02467" lon="7.00502">
        <ele>2160.22</ele>
        <time>2012-09-28T13:58:27Z</time>
      </trkpt>
      <trkpt lat="46.02468" lon="7.00506">
        <ele>2159.74</ele>
        <time>2012-09-28T13:58:31Z</time>
      </trkpt>
      <trkpt lat="46.0247" lon="7.00514">
        <ele>2157.34</ele>
        <time>2012-09-28T13:58:41Z</time>
      </trkpt>
      <trkpt lat="46.02472" lon="7.00519">
        <ele>2155.41</ele>
        <time>2012-09-28T13:58:53Z</time>
      </trkpt>
      <trkpt lat="46.02473" lon="7.0052">
        <ele>2154.45</ele>
        <time>2012-09-28T13:58:55Z</time>
      </trkpt>
      <trkpt lat="46.02479" lon="7.00523">
        <ele>2153.49</ele>
        <time>2012-09-28T13:59:01Z</time>
      </trkpt>
      <trkpt lat="46.02492" lon="7.00537">
        <ele>2151.09</ele>
        <time>2012-09-28T13:59:10Z</time>
      </trkpt>
      <trkpt lat="46.02495" lon="7.00536">
        <ele>2152.05</ele>
        <time>2012-09-28T13:59:18Z</time>
      </trkpt>
      <trkpt lat="46.02498" lon="7.0054">
        <ele>2151.09</ele>
        <time>2012-09-28T13:59:24Z</time>
      </trkpt>
      <trkpt lat="46.02504" lon="7.00546">
        <ele>2151.09</ele>
        <time>2012-09-28T13:59:35Z</time>
      </trkpt>
      <trkpt lat="46.02504" lon="7.00547">
        <ele>2150.13</ele>
        <time>2012-09-28T13:59:48Z</time>
      </trkpt>
      <trkpt lat="46.02507" lon="7.00555">
        <ele>2147.24</ele>
        <time>2012-09-28T14:00:01Z</time>
      </trkpt>
      <trkpt lat="46.02509" lon="7.0056">
        <ele>2143.88</ele>
        <time>2012-09-28T14:00:08Z</time>
      </trkpt>
      <trkpt lat="46.0251" lon="7.00561">
        <ele>2143.4</ele>
        <time>2012-09-28T14:00:09Z</time>
      </trkpt>
      <trkpt lat="46.02513" lon="7.00563">
        <ele>2143.88</ele>
        <time>2012-09-28T14:00:13Z</time>
      </trkpt>
      <trkpt lat="46.02519" lon="7.00569">
        <ele>2143.88</ele>
        <time>2012-09-28T14:00:25Z</time>
      </trkpt>
      <trkpt lat="46.02524" lon="7.00572">
        <ele>2142.92</ele>
        <time>2012-09-28T14:00:36Z</time>
      </trkpt>
      <trkpt lat="46.02533" lon="7.00577">
        <ele>2141.47</ele>
        <time>2012-09-28T14:00:46Z</time>
      </trkpt>
      <trkpt lat="46.02534" lon="7.00581">
        <ele>2141.47</ele>
        <time>2012-09-28T14:00:50Z</time>
      </trkpt>
      <trkpt lat="46.02545" lon="7.00588">
        <ele>2141.47</ele>
        <time>2012-09-28T14:01:04Z</time>
      </trkpt>
      <trkpt lat="46.02549" lon="7.00588">
        <ele>2142.44</ele>
        <time>2012-09-28T14:01:16Z</time>
      </trkpt>
      <trkpt lat="46.02551" lon="7.00587">
        <ele>2142.44</ele>
        <time>2012-09-28T14:01:19Z</time>
      </trkpt>
      <trkpt lat="46.02557" lon="7.00587">
        <ele>2142.92</ele>
        <time>2012-09-28T14:01:31Z</time>
      </trkpt>
      <trkpt lat="46.02558" lon="7.0059">
        <ele>2142.44</ele>
        <time>2012-09-28T14:01:34Z</time>
      </trkpt>
      <trkpt lat="46.02561" lon="7.00591">
        <ele>2141.95</ele>
        <time>2012-09-28T14:01:37Z</time>
      </trkpt>
      <trkpt lat="46.02564" lon="7.00601">
        <ele>2141.47</ele>
        <time>2012-09-28T14:01:49Z</time>
      </trkpt>
      <trkpt lat="46.02567" lon="7.00602">
        <ele>2140.99</ele>
        <time>2012-09-28T14:01:56Z</time>
      </trkpt>
      <trkpt lat="46.0257" lon="7.00603">
        <ele>2140.03</ele>
        <time>2012-09-28T14:01:59Z</time>
      </trkpt>
      <trkpt lat="46.02579" lon="7.00607">
        <ele>2139.07</ele>
        <time>2012-09-28T14:02:06Z</time>
      </trkpt>
      <trkpt lat="46.02585" lon="7.00609">
        <ele>2139.07</ele>
        <time>2012-09-28T14:02:10Z</time>
      </trkpt>
      <trkpt lat="46.02588" lon="7.00609">
        <ele>2138.11</ele>
        <time>2012-09-28T14:02:13Z</time>
      </trkpt>
      <trkpt lat="46.02591" lon="7.00611">
        <ele>2137.63</ele>
        <time>2012-09-28T14:02:16Z</time>
      </trkpt>
      <trkpt lat="46.02593" lon="7.00615">
        <ele>2136.67</ele>
        <time>2012-09-28T14:02:24Z</time>
      </trkpt>
      <trkpt lat="46.02586" lon="7.00635">
        <ele>2136.19</ele>
        <time>2012-09-28T14:02:38Z</time>
      </trkpt>
      <trkpt lat="46.02587" lon="7.00636">
        <ele>2136.67</ele>
        <time>2012-09-28T14:02:39Z</time>
      </trkpt>
      <trkpt lat="46.02587" lon="7.00642">
        <ele>2136.19</ele>
        <time>2012-09-28T14:02:56Z</time>
      </trkpt>
      <trkpt lat="46.02587" lon="7.00642">
        <ele>2136.19</ele>
        <time>2012-09-28T14:03:11Z</time>
      </trkpt>
      <trkpt lat="46.02585" lon="7.00642">
        <ele>2136.19</ele>
        <time>2012-09-28T14:03:23Z</time>
      </trkpt>
      <trkpt lat="46.02585" lon="7.00642">
        <ele>2136.19</ele>
        <time>2012-09-28T14:03:25Z</time>
      </trkpt>
      <trkpt lat="46.02583" lon="7.00638">
        <ele>2136.19</ele>
        <time>2012-09-28T14:03:29Z</time>
      </trkpt>
      <trkpt lat="46.02581" lon="7.00637">
        <ele>2136.19</ele>
        <time>2012-09-28T14:03:41Z</time>
      </trkpt>
      <trkpt lat="46.02581" lon="7.00638">
        <ele>2136.19</ele>
        <time>2012-09-28T14:04:13Z</time>
      </trkpt>
      <trkpt lat="46.02581" lon="7.00638">
        <ele>2136.19</ele>
        <time>2012-09-28T14:04:38Z</time>
      </trkpt>
      <trkpt lat="46.02582" lon="7.00639">
        <ele>2136.19</ele>
        <time>2012-09-28T14:05:08Z</time>
      </trkpt>
      <trkpt lat="46.02581" lon="7.00641">
        <ele>2136.19</ele>
        <time>2012-09-28T14:05:33Z</time>
      </trkpt>
      <trkpt lat="46.0258" lon="7.00639">
        <ele>2136.19</ele>
        <time>2012-09-28T14:05:56Z</time>
      </trkpt>
      <trkpt lat="46.02586" lon="7.00642">
        <ele>2135.71</ele>
        <time>2012-09-28T14:06:25Z</time>
      </trkpt>
      <trkpt lat="46.02581" lon="7.00638">
        <ele>2135.71</ele>
        <time>2012-09-28T14:06:46Z</time>
      </trkpt>
      <trkpt lat="46.02581" lon="7.00636">
        <ele>2135.71</ele>
        <time>2012-09-28T14:07:02Z</time>
      </trkpt>
      <trkpt lat="46.02583" lon="7.00629">
        <ele>2136.19</ele>
        <time>2012-09-28T14:07:07Z</time>
      </trkpt>
      <trkpt lat="46.02584" lon="7.0063">
        <ele>2136.19</ele>
        <time>2012-09-28T14:07:09Z</time>
      </trkpt>
      <trkpt lat="46.02588" lon="7.0064">
        <ele>2136.19</ele>
        <time>2012-09-28T14:07:19Z</time>
      </trkpt>
      <trkpt lat="46.02586" lon="7.00634">
        <ele>2136.19</ele>
        <time>2012-09-28T14:07:24Z</time>
      </trkpt>
      <trkpt lat="46.02597" lon="7.00615">
        <ele>2135.71</ele>
        <time>2012-09-28T14:07:35Z</time>
      </trkpt>
      <trkpt lat="46.02603" lon="7.00613">
        <ele>2135.23</ele>
        <time>2012-09-28T14:07:38Z</time>
      </trkpt>
      <trkpt lat="46.02619" lon="7.006">
        <ele>2132.34</ele>
        <time>2012-09-28T14:07:48Z</time>
      </trkpt>
      <trkpt lat="46.0262" lon="7.006">
        <ele>2132.82</ele>
        <time>2012-09-28T14:07:50Z</time>
      </trkpt>
      <trkpt lat="46.02625" lon="7.00598">
        <ele>2131.38</ele>
        <time>2012-09-28T14:07:54Z</time>
      </trkpt>
      <trkpt lat="46.0263" lon="7.00594">
        <ele>2133.3</ele>
        <time>2012-09-28T14:08:05Z</time>
      </trkpt>
      <trkpt lat="46.02631" lon="7.00591">
        <ele>2134.26</ele>
        <time>2012-09-28T14:08:13Z</time>
      </trkpt>
      <trkpt lat="46.02635" lon="7.00587">
        <ele>2133.3</ele>
        <time>2012-09-28T14:08:16Z</time>
      </trkpt>
      <trkpt lat="46.02635" lon="7.00582">
        <ele>2134.26</ele>
        <time>2012-09-28T14:08:23Z</time>
      </trkpt>
      <trkpt lat="46.02631" lon="7.00572">
        <ele>2137.63</ele>
        <time>2012-09-28T14:08:37Z</time>
      </trkpt>
      <trkpt lat="46.02632" lon="7.00564">
        <ele>2140.51</ele>
        <time>2012-09-28T14:08:48Z</time>
      </trkpt>
      <trkpt lat="46.02635" lon="7.00555">
        <ele>2141.95</ele>
        <time>2012-09-28T14:08:58Z</time>
      </trkpt>
      <trkpt lat="46.02635" lon="7.00554">
        <ele>2142.44</ele>
        <time>2012-09-28T14:08:59Z</time>
      </trkpt>
      <trkpt lat="46.0264" lon="7.00548">
        <ele>2140.51</ele>
        <time>2012-09-28T14:09:11Z</time>
      </trkpt>
      <trkpt lat="46.02642" lon="7.00548">
        <ele>2139.55</ele>
        <time>2012-09-28T14:09:15Z</time>
      </trkpt>
      <trkpt lat="46.02654" lon="7.00537">
        <ele>2136.67</ele>
        <time>2012-09-28T14:09:25Z</time>
      </trkpt>
      <trkpt lat="46.02661" lon="7.0053">
        <ele>2137.15</ele>
        <time>2012-09-28T14:09:31Z</time>
      </trkpt>
      <trkpt lat="46.02676" lon="7.00521">
        <ele>2137.63</ele>
        <time>2012-09-28T14:09:45Z</time>
      </trkpt>
      <trkpt lat="46.02686" lon="7.00515">
        <ele>2138.11</ele>
        <time>2012-09-28T14:09:57Z</time>
      </trkpt>
      <trkpt lat="46.02695" lon="7.00506">
        <ele>2138.59</ele>
        <time>2012-09-28T14:10:08Z</time>
      </trkpt>
      <trkpt lat="46.02704" lon="7.00497">
        <ele>2138.11</ele>
        <time>2012-09-28T14:10:20Z</time>
      </trkpt>
      <trkpt lat="46.02708" lon="7.00495">
        <ele>2137.63</ele>
        <time>2012-09-28T14:10:31Z</time>
      </trkpt>
      <trkpt lat="46.02709" lon="7.00495">
        <ele>2137.15</ele>
        <time>2012-09-28T14:10:46Z</time>
      </trkpt>
      <trkpt lat="46.02709" lon="7.00496">
        <ele>2137.63</ele>
        <time>2012-09-28T14:10:59Z</time>
      </trkpt>
      <trkpt lat="46.02711" lon="7.00498">
        <ele>2137.15</ele>
        <time>2012-09-28T14:11:27Z</time>
      </trkpt>
      <trkpt lat="46.0271" lon="7.00498">
        <ele>2137.15</ele>
        <time>2012-09-28T14:11:56Z</time>
      </trkpt>
      <trkpt lat="46.0271" lon="7.00494">
        <ele>2137.63</ele>
        <time>2012-09-28T14:12:21Z</time>
      </trkpt>
      <trkpt lat="46.02715" lon="7.00493">
        <ele>2135.23</ele>
        <time>2012-09-28T14:12:32Z</time>
      </trkpt>
      <trkpt lat="46.0272" lon="7.00488">
        <ele>2133.3</ele>
        <time>2012-09-28T14:12:43Z</time>
      </trkpt>
      <trkpt lat="46.02722" lon="7.00488">
        <ele>2132.34</ele>
        <time>2012-09-28T14:12:46Z</time>
      </trkpt>
      <trkpt lat="46.02727" lon="7.0048">
        <ele>2132.34</ele>
        <time>2012-09-28T14:12:55Z</time>
      </trkpt>
      <trkpt lat="46.02733" lon="7.00474">
        <ele>2129.94</ele>
        <time>2012-09-28T14:13:05Z</time>
      </trkpt>
      <trkpt lat="46.0274" lon="7.00462">
        <ele>2127.53</ele>
        <time>2012-09-28T14:13:15Z</time>
      </trkpt>
      <trkpt lat="46.02746" lon="7.00454">
        <ele>2123.69</ele>
        <time>2012-09-28T14:13:24Z</time>
      </trkpt>
      <trkpt lat="46.02751" lon="7.00451">
        <ele>2121.29</ele>
        <time>2012-09-28T14:13:32Z</time>
      </trkpt>
      <trkpt lat="46.02753" lon="7.00443">
        <ele>2118.88</ele>
        <time>2012-09-28T14:13:37Z</time>
      </trkpt>
      <trkpt lat="46.02756" lon="7.00432">
        <ele>2115.52</ele>
        <time>2012-09-28T14:13:46Z</time>
      </trkpt>
      <trkpt lat="46.02759" lon="7.00429">
        <ele>2113.6</ele>
        <time>2012-09-28T14:13:55Z</time>
      </trkpt>
      <trkpt lat="46.02761" lon="7.00433">
        <ele>2111.67</ele>
        <time>2012-09-28T14:14:01Z</time>
      </trkpt>
      <trkpt lat="46.02765" lon="7.00439">
        <ele>2109.27</ele>
        <time>2012-09-28T14:14:07Z</time>
      </trkpt>
      <trkpt lat="46.02766" lon="7.00441">
        <ele>2108.79</ele>
        <time>2012-09-28T14:14:09Z</time>
      </trkpt>
      <trkpt lat="46.02767" lon="7.00438">
        <ele>2107.83</ele>
        <time>2012-09-28T14:14:12Z</time>
      </trkpt>
      <trkpt lat="46.02769" lon="7.00436">
        <ele>2106.39</ele>
        <time>2012-09-28T14:14:15Z</time>
      </trkpt>
      <trkpt lat="46.0277" lon="7.00423">
        <ele>2104.46</ele>
        <time>2012-09-28T14:14:26Z</time>
      </trkpt>
      <trkpt lat="46.0277" lon="7.00413">
        <ele>2102.54</ele>
        <time>2012-09-28T14:14:38Z</time>
      </trkpt>
      <trkpt lat="46.0277" lon="7.00412">
        <ele>2102.06</ele>
        <time>2012-09-28T14:14:39Z</time>
      </trkpt>
      <trkpt lat="46.02771" lon="7.00407">
        <ele>2101.1</ele>
        <time>2012-09-28T14:14:41Z</time>
      </trkpt>
      <trkpt lat="46.02771" lon="7.004">
        <ele>2100.14</ele>
        <time>2012-09-28T14:14:43Z</time>
      </trkpt>
      <trkpt lat="46.02771" lon="7.00396">
        <ele>2100.62</ele>
        <time>2012-09-28T14:14:46Z</time>
      </trkpt>
      <trkpt lat="46.02768" lon="7.0039">
        <ele>2102.06</ele>
        <time>2012-09-28T14:14:59Z</time>
      </trkpt>
      <trkpt lat="46.02769" lon="7.00385">
        <ele>2103.02</ele>
        <time>2012-09-28T14:15:09Z</time>
      </trkpt>
      <trkpt lat="46.0277" lon="7.00379">
        <ele>2101.58</ele>
        <time>2012-09-28T14:15:13Z</time>
      </trkpt>
      <trkpt lat="46.02769" lon="7.00368">
        <ele>2099.18</ele>
        <time>2012-09-28T14:15:26Z</time>
      </trkpt>
      <trkpt lat="46.02769" lon="7.00367">
        <ele>2098.7</ele>
        <time>2012-09-28T14:15:27Z</time>
      </trkpt>
      <trkpt lat="46.02771" lon="7.00359">
        <ele>2096.77</ele>
        <time>2012-09-28T14:15:33Z</time>
      </trkpt>
      <trkpt lat="46.02773" lon="7.00351">
        <ele>2094.85</ele>
        <time>2012-09-28T14:15:37Z</time>
      </trkpt>
      <trkpt lat="46.02773" lon="7.00349">
        <ele>2094.37</ele>
        <time>2012-09-28T14:15:38Z</time>
      </trkpt>
      <trkpt lat="46.02775" lon="7.00334">
        <ele>2090.52</ele>
        <time>2012-09-28T14:15:46Z</time>
      </trkpt>
      <trkpt lat="46.02774" lon="7.00309">
        <ele>2092.93</ele>
        <time>2012-09-28T14:15:55Z</time>
      </trkpt>
      <trkpt lat="46.0277" lon="7.00303">
        <ele>2094.37</ele>
        <time>2012-09-28T14:16:04Z</time>
      </trkpt>
      <trkpt lat="46.02768" lon="7.00301">
        <ele>2095.33</ele>
        <time>2012-09-28T14:16:12Z</time>
      </trkpt>
      <trkpt lat="46.02767" lon="7.0029">
        <ele>2095.81</ele>
        <time>2012-09-28T14:16:23Z</time>
      </trkpt>
      <trkpt lat="46.02765" lon="7.00281">
        <ele>2096.29</ele>
        <time>2012-09-28T14:16:36Z</time>
      </trkpt>
      <trkpt lat="46.02762" lon="7.0028">
        <ele>2094.85</ele>
        <time>2012-09-28T14:16:46Z</time>
      </trkpt>
      <trkpt lat="46.02763" lon="7.00274">
        <ele>2092.45</ele>
        <time>2012-09-28T14:16:59Z</time>
      </trkpt>
      <trkpt lat="46.02763" lon="7.00273">
        <ele>2092.45</ele>
        <time>2012-09-28T14:17:01Z</time>
      </trkpt>
      <trkpt lat="46.0276" lon="7.00261">
        <ele>2090.04</ele>
        <time>2012-09-28T14:17:06Z</time>
      </trkpt>
      <trkpt lat="46.02759" lon="7.00256">
        <ele>2089.08</ele>
        <time>2012-09-28T14:17:08Z</time>
      </trkpt>
      <trkpt lat="46.02757" lon="7.00244">
        <ele>2088.6</ele>
        <time>2012-09-28T14:17:12Z</time>
      </trkpt>
      <trkpt lat="46.02753" lon="7.00238">
        <ele>2090.52</ele>
        <time>2012-09-28T14:17:18Z</time>
      </trkpt>
      <trkpt lat="46.02748" lon="7.00228">
        <ele>2091.97</ele>
        <time>2012-09-28T14:17:28Z</time>
      </trkpt>
      <trkpt lat="46.02748" lon="7.00224">
        <ele>2090.52</ele>
        <time>2012-09-28T14:17:31Z</time>
      </trkpt>
      <trkpt lat="46.02743" lon="7.00213">
        <ele>2093.41</ele>
        <time>2012-09-28T14:17:43Z</time>
      </trkpt>
      <trkpt lat="46.02742" lon="7.00212">
        <ele>2094.37</ele>
        <time>2012-09-28T14:17:48Z</time>
      </trkpt>
      <trkpt lat="46.02741" lon="7.00208">
        <ele>2095.81</ele>
        <time>2012-09-28T14:17:52Z</time>
      </trkpt>
      <trkpt lat="46.02742" lon="7.0019">
        <ele>2094.85</ele>
        <time>2012-09-28T14:18:05Z</time>
      </trkpt>
      <trkpt lat="46.02742" lon="7.0018">
        <ele>2093.89</ele>
        <time>2012-09-28T14:18:15Z</time>
      </trkpt>
      <trkpt lat="46.02742" lon="7.00168">
        <ele>2094.85</ele>
        <time>2012-09-28T14:18:24Z</time>
      </trkpt>
      <trkpt lat="46.0274" lon="7.00146">
        <ele>2095.81</ele>
        <time>2012-09-28T14:18:37Z</time>
      </trkpt>
      <trkpt lat="46.0274" lon="7.00139">
        <ele>2095.81</ele>
        <time>2012-09-28T14:18:44Z</time>
      </trkpt>
      <trkpt lat="46.02739" lon="7.0013">
        <ele>2096.29</ele>
        <time>2012-09-28T14:18:50Z</time>
      </trkpt>
      <trkpt lat="46.02736" lon="7.00113">
        <ele>2097.73</ele>
        <time>2012-09-28T14:19:03Z</time>
      </trkpt>
      <trkpt lat="46.02733" lon="7.00103">
        <ele>2098.7</ele>
        <time>2012-09-28T14:19:10Z</time>
      </trkpt>
      <trkpt lat="46.02732" lon="7.001">
        <ele>2099.66</ele>
        <time>2012-09-28T14:19:13Z</time>
      </trkpt>
      <trkpt lat="46.0273" lon="7.00093">
        <ele>2100.14</ele>
        <time>2012-09-28T14:19:18Z</time>
      </trkpt>
      <trkpt lat="46.02726" lon="7.00077">
        <ele>2102.06</ele>
        <time>2012-09-28T14:19:32Z</time>
      </trkpt>
      <trkpt lat="46.02725" lon="7.00077">
        <ele>2102.06</ele>
        <time>2012-09-28T14:19:33Z</time>
      </trkpt>
      <trkpt lat="46.02724" lon="7.00069">
        <ele>2103.5</ele>
        <time>2012-09-28T14:19:43Z</time>
      </trkpt>
      <trkpt lat="46.02723" lon="7.00064">
        <ele>2103.5</ele>
        <time>2012-09-28T14:19:47Z</time>
      </trkpt>
      <trkpt lat="46.02722" lon="7.00061">
        <ele>2104.46</ele>
        <time>2012-09-28T14:19:49Z</time>
      </trkpt>
      <trkpt lat="46.02722" lon="7.00058">
        <ele>2104.46</ele>
        <time>2012-09-28T14:19:51Z</time>
      </trkpt>
      <trkpt lat="46.02721" lon="7.00055">
        <ele>2104.94</ele>
        <time>2012-09-28T14:20:00Z</time>
      </trkpt>
      <trkpt lat="46.02719" lon="7.00048">
        <ele>2106.87</ele>
        <time>2012-09-28T14:20:13Z</time>
      </trkpt>
      <trkpt lat="46.0272" lon="7.00047">
        <ele>2106.87</ele>
        <time>2012-09-28T14:20:18Z</time>
      </trkpt>
      <trkpt lat="46.0272" lon="7.00033">
        <ele>2109.27</ele>
        <time>2012-09-28T14:20:32Z</time>
      </trkpt>
      <trkpt lat="46.02719" lon="7.0003">
        <ele>2109.27</ele>
        <time>2012-09-28T14:20:39Z</time>
      </trkpt>
      <trkpt lat="46.02718" lon="7.00013">
        <ele>2109.27</ele>
        <time>2012-09-28T14:20:49Z</time>
      </trkpt>
      <trkpt lat="46.0272" lon="7.00004">
        <ele>2109.27</ele>
        <time>2012-09-28T14:21:00Z</time>
      </trkpt>
      <trkpt lat="46.02721" lon="7">
        <ele>2108.31</ele>
        <time>2012-09-28T14:21:03Z</time>
      </trkpt>
      <trkpt lat="46.02722" lon="6.9999">
        <ele>2108.31</ele>
        <time>2012-09-28T14:21:15Z</time>
      </trkpt>
      <trkpt lat="46.02722" lon="6.99988">
        <ele>2108.31</ele>
        <time>2012-09-28T14:21:20Z</time>
      </trkpt>
      <trkpt lat="46.02722" lon="6.99984">
        <ele>2108.79</ele>
        <time>2012-09-28T14:21:23Z</time>
      </trkpt>
      <trkpt lat="46.02726" lon="6.99972">
        <ele>2109.75</ele>
        <time>2012-09-28T14:21:30Z</time>
      </trkpt>
      <trkpt lat="46.02727" lon="6.99969">
        <ele>2109.75</ele>
        <time>2012-09-28T14:21:32Z</time>
      </trkpt>
      <trkpt lat="46.02728" lon="6.99963">
        <ele>2110.71</ele>
        <time>2012-09-28T14:21:38Z</time>
      </trkpt>
      <trkpt lat="46.02729" lon="6.99961">
        <ele>2111.19</ele>
        <time>2012-09-28T14:21:40Z</time>
      </trkpt>
      <trkpt lat="46.02734" lon="6.99953">
        <ele>2112.15</ele>
        <time>2012-09-28T14:21:49Z</time>
      </trkpt>
      <trkpt lat="46.02737" lon="6.99942">
        <ele>2113.12</ele>
        <time>2012-09-28T14:21:57Z</time>
      </trkpt>
      <trkpt lat="46.02738" lon="6.99933">
        <ele>2114.08</ele>
        <time>2012-09-28T14:22:03Z</time>
      </trkpt>
      <trkpt lat="46.02742" lon="6.99927">
        <ele>2115.04</ele>
        <time>2012-09-28T14:22:10Z</time>
      </trkpt>
      <trkpt lat="46.02746" lon="6.99921">
        <ele>2115.52</ele>
        <time>2012-09-28T14:22:15Z</time>
      </trkpt>
      <trkpt lat="46.0275" lon="6.99915">
        <ele>2116.48</ele>
        <time>2012-09-28T14:22:20Z</time>
      </trkpt>
      <trkpt lat="46.02751" lon="6.99912">
        <ele>2116.96</ele>
        <time>2012-09-28T14:22:22Z</time>
      </trkpt>
      <trkpt lat="46.02752" lon="6.99909">
        <ele>2117.44</ele>
        <time>2012-09-28T14:22:24Z</time>
      </trkpt>
      <trkpt lat="46.02759" lon="6.99886">
        <ele>2120.81</ele>
        <time>2012-09-28T14:22:39Z</time>
      </trkpt>
      <trkpt lat="46.02759" lon="6.99874">
        <ele>2121.77</ele>
        <time>2012-09-28T14:22:51Z</time>
      </trkpt>
      <trkpt lat="46.02758" lon="6.99872">
        <ele>2121.77</ele>
        <time>2012-09-28T14:23:03Z</time>
      </trkpt>
      <trkpt lat="46.02758" lon="6.99868">
        <ele>2119.36</ele>
        <time>2012-09-28T14:23:16Z</time>
      </trkpt>
      <trkpt lat="46.02757" lon="6.99854">
        <ele>2117.44</ele>
        <time>2012-09-28T14:23:28Z</time>
      </trkpt>
      <trkpt lat="46.02757" lon="6.99851">
        <ele>2116.96</ele>
        <time>2012-09-28T14:23:32Z</time>
      </trkpt>
      <trkpt lat="46.0276" lon="6.9985">
        <ele>2116.48</ele>
        <time>2012-09-28T14:23:37Z</time>
      </trkpt>
      <trkpt lat="46.02763" lon="6.9985">
        <ele>2116</ele>
        <time>2012-09-28T14:23:40Z</time>
      </trkpt>
      <trkpt lat="46.02764" lon="6.99845">
        <ele>2118.4</ele>
        <time>2012-09-28T14:23:46Z</time>
      </trkpt>
      <trkpt lat="46.02765" lon="6.99843">
        <ele>2117.92</ele>
        <time>2012-09-28T14:23:54Z</time>
      </trkpt>
      <trkpt lat="46.02775" lon="6.9984">
        <ele>2118.4</ele>
        <time>2012-09-28T14:24:05Z</time>
      </trkpt>
      <trkpt lat="46.0278" lon="6.99832">
        <ele>2117.44</ele>
        <time>2012-09-28T14:24:18Z</time>
      </trkpt>
      <trkpt lat="46.0278" lon="6.99825">
        <ele>2116</ele>
        <time>2012-09-28T14:24:31Z</time>
      </trkpt>
      <trkpt lat="46.0278" lon="6.99819">
        <ele>2115.52</ele>
        <time>2012-09-28T14:24:35Z</time>
      </trkpt>
      <trkpt lat="46.02781" lon="6.99812">
        <ele>2115.04</ele>
        <time>2012-09-28T14:24:42Z</time>
      </trkpt>
      <trkpt lat="46.02783" lon="6.99802">
        <ele>2115.52</ele>
        <time>2012-09-28T14:24:53Z</time>
      </trkpt>
      <trkpt lat="46.02788" lon="6.99798">
        <ele>2114.08</ele>
        <time>2012-09-28T14:25:02Z</time>
      </trkpt>
      <trkpt lat="46.02792" lon="6.9979">
        <ele>2114.56</ele>
        <time>2012-09-28T14:25:11Z</time>
      </trkpt>
      <trkpt lat="46.02802" lon="6.99783">
        <ele>2114.08</ele>
        <time>2012-09-28T14:25:24Z</time>
      </trkpt>
      <trkpt lat="46.02807" lon="6.99781">
        <ele>2113.12</ele>
        <time>2012-09-28T14:25:29Z</time>
      </trkpt>
      <trkpt lat="46.0282" lon="6.99765">
        <ele>2113.12</ele>
        <time>2012-09-28T14:25:41Z</time>
      </trkpt>
      <trkpt lat="46.02822" lon="6.99763">
        <ele>2112.63</ele>
        <time>2012-09-28T14:25:43Z</time>
      </trkpt>
      <trkpt lat="46.02829" lon="6.99751">
        <ele>2112.63</ele>
        <time>2012-09-28T14:25:50Z</time>
      </trkpt>
      <trkpt lat="46.02834" lon="6.99724">
        <ele>2111.67</ele>
        <time>2012-09-28T14:26:02Z</time>
      </trkpt>
      <trkpt lat="46.02838" lon="6.99722">
        <ele>2110.23</ele>
        <time>2012-09-28T14:26:08Z</time>
      </trkpt>
      <trkpt lat="46.02842" lon="6.99719">
        <ele>2109.27</ele>
        <time>2012-09-28T14:26:12Z</time>
      </trkpt>
      <trkpt lat="46.02851" lon="6.99694">
        <ele>2109.75</ele>
        <time>2012-09-28T14:26:23Z</time>
      </trkpt>
      <trkpt lat="46.02854" lon="6.99688">
        <ele>2109.75</ele>
        <time>2012-09-28T14:26:27Z</time>
      </trkpt>
      <trkpt lat="46.02861" lon="6.99677">
        <ele>2111.19</ele>
        <time>2012-09-28T14:26:36Z</time>
      </trkpt>
      <trkpt lat="46.02865" lon="6.99668">
        <ele>2112.63</ele>
        <time>2012-09-28T14:26:43Z</time>
      </trkpt>
      <trkpt lat="46.02866" lon="6.99654">
        <ele>2112.15</ele>
        <time>2012-09-28T14:26:56Z</time>
      </trkpt>
      <trkpt lat="46.02868" lon="6.99642">
        <ele>2111.67</ele>
        <time>2012-09-28T14:27:02Z</time>
      </trkpt>
      <trkpt lat="46.02869" lon="6.99632">
        <ele>2111.19</ele>
        <time>2012-09-28T14:27:09Z</time>
      </trkpt>
      <trkpt lat="46.02874" lon="6.99625">
        <ele>2111.19</ele>
        <time>2012-09-28T14:27:19Z</time>
      </trkpt>
      <trkpt lat="46.02876" lon="6.99624">
        <ele>2110.23</ele>
        <time>2012-09-28T14:27:22Z</time>
      </trkpt>
      <trkpt lat="46.02881" lon="6.99621">
        <ele>2109.75</ele>
        <time>2012-09-28T14:27:27Z</time>
      </trkpt>
      <trkpt lat="46.02892" lon="6.99615">
        <ele>2108.31</ele>
        <time>2012-09-28T14:27:36Z</time>
      </trkpt>
      <trkpt lat="46.02899" lon="6.99613">
        <ele>2106.87</ele>
        <time>2012-09-28T14:27:40Z</time>
      </trkpt>
      <trkpt lat="46.02911" lon="6.99607">
        <ele>2104.94</ele>
        <time>2012-09-28T14:27:46Z</time>
      </trkpt>
      <trkpt lat="46.02913" lon="6.99604">
        <ele>2106.39</ele>
        <time>2012-09-28T14:27:49Z</time>
      </trkpt>
      <trkpt lat="46.02915" lon="6.99604">
        <ele>2105.42</ele>
        <time>2012-09-28T14:27:52Z</time>
      </trkpt>
      <trkpt lat="46.02928" lon="6.99601">
        <ele>2103.98</ele>
        <time>2012-09-28T14:28:00Z</time>
      </trkpt>
      <trkpt lat="46.02931" lon="6.99601">
        <ele>2103.5</ele>
        <time>2012-09-28T14:28:04Z</time>
      </trkpt>
      <trkpt lat="46.0294" lon="6.99602">
        <ele>2101.58</ele>
        <time>2012-09-28T14:28:17Z</time>
      </trkpt>
      <trkpt lat="46.02943" lon="6.99603">
        <ele>2100.14</ele>
        <time>2012-09-28T14:28:21Z</time>
      </trkpt>
      <trkpt lat="46.02945" lon="6.99605">
        <ele>2099.66</ele>
        <time>2012-09-28T14:28:26Z</time>
      </trkpt>
      <trkpt lat="46.02952" lon="6.99611">
        <ele>2096.77</ele>
        <time>2012-09-28T14:28:30Z</time>
      </trkpt>
      <trkpt lat="46.02957" lon="6.99611">
        <ele>2096.77</ele>
        <time>2012-09-28T14:28:33Z</time>
      </trkpt>
      <trkpt lat="46.02958" lon="6.99605">
        <ele>2098.21</ele>
        <time>2012-09-28T14:28:37Z</time>
      </trkpt>
      <trkpt lat="46.0296" lon="6.99602">
        <ele>2099.66</ele>
        <time>2012-09-28T14:28:40Z</time>
      </trkpt>
      <trkpt lat="46.02963" lon="6.9959">
        <ele>2099.66</ele>
        <time>2012-09-28T14:28:47Z</time>
      </trkpt>
      <trkpt lat="46.02964" lon="6.99581">
        <ele>2101.58</ele>
        <time>2012-09-28T14:28:54Z</time>
      </trkpt>
      <trkpt lat="46.0297" lon="6.9956">
        <ele>2103.02</ele>
        <time>2012-09-28T14:29:08Z</time>
      </trkpt>
      <trkpt lat="46.02975" lon="6.99541">
        <ele>2105.91</ele>
        <time>2012-09-28T14:29:22Z</time>
      </trkpt>
      <trkpt lat="46.02975" lon="6.99538">
        <ele>2106.39</ele>
        <time>2012-09-28T14:29:24Z</time>
      </trkpt>
      <trkpt lat="46.0298" lon="6.99531">
        <ele>2106.87</ele>
        <time>2012-09-28T14:29:35Z</time>
      </trkpt>
      <trkpt lat="46.02981" lon="6.99529">
        <ele>2106.87</ele>
        <time>2012-09-28T14:29:55Z</time>
      </trkpt>
      <trkpt lat="46.02981" lon="6.99526">
        <ele>2105.91</ele>
        <time>2012-09-28T14:30:20Z</time>
      </trkpt>
      <trkpt lat="46.02981" lon="6.99524">
        <ele>2105.91</ele>
        <time>2012-09-28T14:30:22Z</time>
      </trkpt>
      <trkpt lat="46.02984" lon="6.99513">
        <ele>2103.5</ele>
        <time>2012-09-28T14:30:35Z</time>
      </trkpt>
      <trkpt lat="46.02991" lon="6.99497">
        <ele>2101.1</ele>
        <time>2012-09-28T14:30:45Z</time>
      </trkpt>
      <trkpt lat="46.03" lon="6.99475">
        <ele>2099.18</ele>
        <time>2012-09-28T14:30:57Z</time>
      </trkpt>
      <trkpt lat="46.03001" lon="6.99472">
        <ele>2098.7</ele>
        <time>2012-09-28T14:31:10Z</time>
      </trkpt>
      <trkpt lat="46.02998" lon="6.99476">
        <ele>2099.18</ele>
        <time>2012-09-28T14:31:30Z</time>
      </trkpt>
      <trkpt lat="46.03" lon="6.99476">
        <ele>2098.21</ele>
        <time>2012-09-28T14:31:54Z</time>
      </trkpt>
      <trkpt lat="46.02998" lon="6.99475">
        <ele>2099.18</ele>
        <time>2012-09-28T14:32:11Z</time>
      </trkpt>
      <trkpt lat="46.03" lon="6.99473">
        <ele>2098.7</ele>
        <time>2012-09-28T14:32:27Z</time>
      </trkpt>
      <trkpt lat="46.03003" lon="6.99449">
        <ele>2098.21</ele>
        <time>2012-09-28T14:32:40Z</time>
      </trkpt>
      <trkpt lat="46.03005" lon="6.99423">
        <ele>2097.25</ele>
        <time>2012-09-28T14:32:49Z</time>
      </trkpt>
      <trkpt lat="46.03009" lon="6.99409">
        <ele>2095.33</ele>
        <time>2012-09-28T14:32:55Z</time>
      </trkpt>
      <trkpt lat="46.03009" lon="6.99403">
        <ele>2096.29</ele>
        <time>2012-09-28T14:32:58Z</time>
      </trkpt>
      <trkpt lat="46.03024" lon="6.99372">
        <ele>2097.25</ele>
        <time>2012-09-28T14:33:09Z</time>
      </trkpt>
      <trkpt lat="46.03029" lon="6.99365">
        <ele>2097.73</ele>
        <time>2012-09-28T14:33:13Z</time>
      </trkpt>
      <trkpt lat="46.03036" lon="6.99354">
        <ele>2098.21</ele>
        <time>2012-09-28T14:33:18Z</time>
      </trkpt>
      <trkpt lat="46.03048" lon="6.9934">
        <ele>2095.33</ele>
        <time>2012-09-28T14:33:31Z</time>
      </trkpt>
      <trkpt lat="46.03051" lon="6.99339">
        <ele>2094.85</ele>
        <time>2012-09-28T14:33:33Z</time>
      </trkpt>
      <trkpt lat="46.03053" lon="6.99332">
        <ele>2092.93</ele>
        <time>2012-09-28T14:33:40Z</time>
      </trkpt>
      <trkpt lat="46.03056" lon="6.99326">
        <ele>2091</ele>
        <time>2012-09-28T14:33:44Z</time>
      </trkpt>
      <trkpt lat="46.03059" lon="6.99321">
        <ele>2091</ele>
        <time>2012-09-28T14:33:46Z</time>
      </trkpt>
      <trkpt lat="46.03061" lon="6.99317">
        <ele>2090.04</ele>
        <time>2012-09-28T14:33:48Z</time>
      </trkpt>
      <trkpt lat="46.03082" lon="6.99299">
        <ele>2089.08</ele>
        <time>2012-09-28T14:33:58Z</time>
      </trkpt>
      <trkpt lat="46.03086" lon="6.99296">
        <ele>2087.64</ele>
        <time>2012-09-28T14:34:01Z</time>
      </trkpt>
      <trkpt lat="46.03089" lon="6.99294">
        <ele>2087.64</ele>
        <time>2012-09-28T14:34:04Z</time>
      </trkpt>
      <trkpt lat="46.03095" lon="6.99286">
        <ele>2084.28</ele>
        <time>2012-09-28T14:34:13Z</time>
      </trkpt>
      <trkpt lat="46.03096" lon="6.99283">
        <ele>2083.31</ele>
        <time>2012-09-28T14:34:16Z</time>
      </trkpt>
      <trkpt lat="46.03102" lon="6.99271">
        <ele>2081.87</ele>
        <time>2012-09-28T14:34:21Z</time>
      </trkpt>
      <trkpt lat="46.03131" lon="6.99259">
        <ele>2078.99</ele>
        <time>2012-09-28T14:34:34Z</time>
      </trkpt>
      <trkpt lat="46.03137" lon="6.99259">
        <ele>2079.47</ele>
        <time>2012-09-28T14:34:40Z</time>
      </trkpt>
      <trkpt lat="46.03142" lon="6.99261">
        <ele>2078.03</ele>
        <time>2012-09-28T14:34:43Z</time>
      </trkpt>
      <trkpt lat="46.03151" lon="6.9926">
        <ele>2077.07</ele>
        <time>2012-09-28T14:34:51Z</time>
      </trkpt>
      <trkpt lat="46.03154" lon="6.99261">
        <ele>2076.59</ele>
        <time>2012-09-28T14:34:53Z</time>
      </trkpt>
      <trkpt lat="46.0316" lon="6.9926">
        <ele>2078.03</ele>
        <time>2012-09-28T14:35:02Z</time>
      </trkpt>
      <trkpt lat="46.0317" lon="6.99263">
        <ele>2077.55</ele>
        <time>2012-09-28T14:35:11Z</time>
      </trkpt>
      <trkpt lat="46.03172" lon="6.99264">
        <ele>2077.55</ele>
        <time>2012-09-28T14:35:13Z</time>
      </trkpt>
      <trkpt lat="46.03182" lon="6.99255">
        <ele>2077.55</ele>
        <time>2012-09-28T14:35:22Z</time>
      </trkpt>
      <trkpt lat="46.03182" lon="6.99246">
        <ele>2078.51</ele>
        <time>2012-09-28T14:35:28Z</time>
      </trkpt>
      <trkpt lat="46.03182" lon="6.99235">
        <ele>2077.55</ele>
        <time>2012-09-28T14:35:34Z</time>
      </trkpt>
      <trkpt lat="46.03183" lon="6.99227">
        <ele>2077.07</ele>
        <time>2012-09-28T14:35:38Z</time>
      </trkpt>
      <trkpt lat="46.03182" lon="6.99219">
        <ele>2077.55</ele>
        <time>2012-09-28T14:35:43Z</time>
      </trkpt>
      <trkpt lat="46.03179" lon="6.99211">
        <ele>2077.07</ele>
        <time>2012-09-28T14:35:49Z</time>
      </trkpt>
      <trkpt lat="46.03176" lon="6.99193">
        <ele>2075.14</ele>
        <time>2012-09-28T14:35:59Z</time>
      </trkpt>
      <trkpt lat="46.03176" lon="6.99187">
        <ele>2075.62</ele>
        <time>2012-09-28T14:36:02Z</time>
      </trkpt>
      <trkpt lat="46.03173" lon="6.99174">
        <ele>2076.1</ele>
        <time>2012-09-28T14:36:13Z</time>
      </trkpt>
      <trkpt lat="46.03171" lon="6.99167">
        <ele>2076.59</ele>
        <time>2012-09-28T14:36:17Z</time>
      </trkpt>
      <trkpt lat="46.03164" lon="6.9915">
        <ele>2078.51</ele>
        <time>2012-09-28T14:36:30Z</time>
      </trkpt>
      <trkpt lat="46.03164" lon="6.99148">
        <ele>2078.99</ele>
        <time>2012-09-28T14:36:32Z</time>
      </trkpt>
      <trkpt lat="46.03162" lon="6.99136">
        <ele>2080.43</ele>
        <time>2012-09-28T14:36:44Z</time>
      </trkpt>
      <trkpt lat="46.03161" lon="6.99136">
        <ele>2080.91</ele>
        <time>2012-09-28T14:36:46Z</time>
      </trkpt>
      <trkpt lat="46.0316" lon="6.99132">
        <ele>2082.83</ele>
        <time>2012-09-28T14:36:54Z</time>
      </trkpt>
      <trkpt lat="46.03155" lon="6.99123">
        <ele>2083.79</ele>
        <time>2012-09-28T14:37:07Z</time>
      </trkpt>
      <trkpt lat="46.03156" lon="6.9912">
        <ele>2083.79</ele>
        <time>2012-09-28T14:37:21Z</time>
      </trkpt>
      <trkpt lat="46.03155" lon="6.9911">
        <ele>2084.28</ele>
        <time>2012-09-28T14:37:38Z</time>
      </trkpt>
      <trkpt lat="46.03154" lon="6.99097">
        <ele>2083.79</ele>
        <time>2012-09-28T14:37:50Z</time>
      </trkpt>
      <trkpt lat="46.03155" lon="6.99091">
        <ele>2082.83</ele>
        <time>2012-09-28T14:37:56Z</time>
      </trkpt>
      <trkpt lat="46.03156" lon="6.99088">
        <ele>2082.83</ele>
        <time>2012-09-28T14:37:58Z</time>
      </trkpt>
      <trkpt lat="46.03154" lon="6.99071">
        <ele>2080.91</ele>
        <time>2012-09-28T14:38:10Z</time>
      </trkpt>
      <trkpt lat="46.03152" lon="6.99067">
        <ele>2081.87</ele>
        <time>2012-09-28T14:38:13Z</time>
      </trkpt>
      <trkpt lat="46.0315" lon="6.99059">
        <ele>2082.35</ele>
        <time>2012-09-28T14:38:18Z</time>
      </trkpt>
      <trkpt lat="46.03146" lon="6.99044">
        <ele>2082.35</ele>
        <time>2012-09-28T14:38:30Z</time>
      </trkpt>
      <trkpt lat="46.03146" lon="6.99041">
        <ele>2082.35</ele>
        <time>2012-09-28T14:38:33Z</time>
      </trkpt>
      <trkpt lat="46.03145" lon="6.99036">
        <ele>2083.31</ele>
        <time>2012-09-28T14:38:36Z</time>
      </trkpt>
      <trkpt lat="46.03141" lon="6.99034">
        <ele>2084.28</ele>
        <time>2012-09-28T14:38:42Z</time>
      </trkpt>
      <trkpt lat="46.03141" lon="6.99031">
        <ele>2084.28</ele>
        <time>2012-09-28T14:38:44Z</time>
      </trkpt>
      <trkpt lat="46.03135" lon="6.99026">
        <ele>2085.72</ele>
        <time>2012-09-28T14:38:53Z</time>
      </trkpt>
      <trkpt lat="46.0313" lon="6.99011">
        <ele>2087.16</ele>
        <time>2012-09-28T14:39:06Z</time>
      </trkpt>
      <trkpt lat="46.03129" lon="6.99007">
        <ele>2087.64</ele>
        <time>2012-09-28T14:39:11Z</time>
      </trkpt>
      <trkpt lat="46.03126" lon="6.98995">
        <ele>2088.6</ele>
        <time>2012-09-28T14:39:19Z</time>
      </trkpt>
      <trkpt lat="46.03125" lon="6.98992">
        <ele>2088.6</ele>
        <time>2012-09-28T14:39:21Z</time>
      </trkpt>
      <trkpt lat="46.03123" lon="6.98989">
        <ele>2089.56</ele>
        <time>2012-09-28T14:39:23Z</time>
      </trkpt>
      <trkpt lat="46.0312" lon="6.98969">
        <ele>2091.49</ele>
        <time>2012-09-28T14:39:37Z</time>
      </trkpt>
      <trkpt lat="46.03118" lon="6.98964">
        <ele>2091.97</ele>
        <time>2012-09-28T14:39:41Z</time>
      </trkpt>
      <trkpt lat="46.03113" lon="6.9895">
        <ele>2094.85</ele>
        <time>2012-09-28T14:39:54Z</time>
      </trkpt>
      <trkpt lat="46.03113" lon="6.98941">
        <ele>2096.29</ele>
        <time>2012-09-28T14:40:06Z</time>
      </trkpt>
      <trkpt lat="46.03112" lon="6.98936">
        <ele>2097.25</ele>
        <time>2012-09-28T14:40:13Z</time>
      </trkpt>
      <trkpt lat="46.03114" lon="6.98929">
        <ele>2098.21</ele>
        <time>2012-09-28T14:40:19Z</time>
      </trkpt>
      <trkpt lat="46.03119" lon="6.98921">
        <ele>2098.7</ele>
        <time>2012-09-28T14:40:27Z</time>
      </trkpt>
      <trkpt lat="46.03112" lon="6.98904">
        <ele>2101.1</ele>
        <time>2012-09-28T14:40:41Z</time>
      </trkpt>
      <trkpt lat="46.03099" lon="6.98889">
        <ele>2103.5</ele>
        <time>2012-09-28T14:40:56Z</time>
      </trkpt>
      <trkpt lat="46.03098" lon="6.98887">
        <ele>2103.02</ele>
        <time>2012-09-28T14:41:06Z</time>
      </trkpt>
      <trkpt lat="46.03089" lon="6.98879">
        <ele>2104.46</ele>
        <time>2012-09-28T14:41:15Z</time>
      </trkpt>
      <trkpt lat="46.03085" lon="6.98876">
        <ele>2104.46</ele>
        <time>2012-09-28T14:41:19Z</time>
      </trkpt>
      <trkpt lat="46.03074" lon="6.98863">
        <ele>2107.35</ele>
        <time>2012-09-28T14:41:33Z</time>
      </trkpt>
      <trkpt lat="46.03064" lon="6.98852">
        <ele>2109.27</ele>
        <time>2012-09-28T14:41:45Z</time>
      </trkpt>
      <trkpt lat="46.03057" lon="6.98845">
        <ele>2110.23</ele>
        <time>2012-09-28T14:41:53Z</time>
      </trkpt>
      <trkpt lat="46.03053" lon="6.98841">
        <ele>2110.23</ele>
        <time>2012-09-28T14:41:57Z</time>
      </trkpt>
      <trkpt lat="46.0305" lon="6.98838">
        <ele>2110.71</ele>
        <time>2012-09-28T14:42:00Z</time>
      </trkpt>
      <trkpt lat="46.03042" lon="6.98829">
        <ele>2111.67</ele>
        <time>2012-09-28T14:42:10Z</time>
      </trkpt>
      <trkpt lat="46.03038" lon="6.98826">
        <ele>2112.15</ele>
        <time>2012-09-28T14:42:16Z</time>
      </trkpt>
      <trkpt lat="46.03036" lon="6.98822">
        <ele>2111.67</ele>
        <time>2012-09-28T14:42:20Z</time>
      </trkpt>
      <trkpt lat="46.03026" lon="6.98798">
        <ele>2114.08</ele>
        <time>2012-09-28T14:42:37Z</time>
      </trkpt>
      <trkpt lat="46.03026" lon="6.98796">
        <ele>2115.04</ele>
        <time>2012-09-28T14:42:39Z</time>
      </trkpt>
      <trkpt lat="46.03024" lon="6.9879">
        <ele>2114.08</ele>
        <time>2012-09-28T14:42:44Z</time>
      </trkpt>
      <trkpt lat="46.03021" lon="6.98778">
        <ele>2114.56</ele>
        <time>2012-09-28T14:42:56Z</time>
      </trkpt>
      <trkpt lat="46.03013" lon="6.98762">
        <ele>2114.08</ele>
        <time>2012-09-28T14:43:10Z</time>
      </trkpt>
      <trkpt lat="46.03004" lon="6.98747">
        <ele>2114.56</ele>
        <time>2012-09-28T14:43:21Z</time>
      </trkpt>
      <trkpt lat="46.03003" lon="6.98746">
        <ele>2114.56</ele>
        <time>2012-09-28T14:43:22Z</time>
      </trkpt>
      <trkpt lat="46.03001" lon="6.98743">
        <ele>2115.52</ele>
        <time>2012-09-28T14:43:25Z</time>
      </trkpt>
      <trkpt lat="46.02988" lon="6.98725">
        <ele>2116.48</ele>
        <time>2012-09-28T14:43:40Z</time>
      </trkpt>
      <trkpt lat="46.02979" lon="6.98699">
        <ele>2117.92</ele>
        <time>2012-09-28T14:43:55Z</time>
      </trkpt>
      <trkpt lat="46.02964" lon="6.98677">
        <ele>2120.32</ele>
        <time>2012-09-28T14:44:12Z</time>
      </trkpt>
      <trkpt lat="46.0295" lon="6.98668">
        <ele>2122.73</ele>
        <time>2012-09-28T14:44:26Z</time>
      </trkpt>
      <trkpt lat="46.02945" lon="6.98658">
        <ele>2123.21</ele>
        <time>2012-09-28T14:44:33Z</time>
      </trkpt>
      <trkpt lat="46.02932" lon="6.98638">
        <ele>2125.13</ele>
        <time>2012-09-28T14:44:50Z</time>
      </trkpt>
      <trkpt lat="46.02931" lon="6.9863">
        <ele>2124.65</ele>
        <time>2012-09-28T14:44:56Z</time>
      </trkpt>
      <trkpt lat="46.02929" lon="6.98627">
        <ele>2124.65</ele>
        <time>2012-09-28T14:44:59Z</time>
      </trkpt>
      <trkpt lat="46.02926" lon="6.98615">
        <ele>2125.61</ele>
        <time>2012-09-28T14:45:07Z</time>
      </trkpt>
      <trkpt lat="46.02919" lon="6.98597">
        <ele>2128.98</ele>
        <time>2012-09-28T14:45:21Z</time>
      </trkpt>
      <trkpt lat="46.02913" lon="6.98584">
        <ele>2128.98</ele>
        <time>2012-09-28T14:45:35Z</time>
      </trkpt>
      <trkpt lat="46.02904" lon="6.98567">
        <ele>2129.94</ele>
        <time>2012-09-28T14:45:47Z</time>
      </trkpt>
      <trkpt lat="46.02902" lon="6.9856">
        <ele>2129.46</ele>
        <time>2012-09-28T14:45:51Z</time>
      </trkpt>
      <trkpt lat="46.02899" lon="6.98547">
        <ele>2131.86</ele>
        <time>2012-09-28T14:45:59Z</time>
      </trkpt>
      <trkpt lat="46.02893" lon="6.98529">
        <ele>2132.82</ele>
        <time>2012-09-28T14:46:10Z</time>
      </trkpt>
      <trkpt lat="46.02886" lon="6.98516">
        <ele>2132.34</ele>
        <time>2012-09-28T14:46:19Z</time>
      </trkpt>
      <trkpt lat="46.02883" lon="6.98512">
        <ele>2132.34</ele>
        <time>2012-09-28T14:46:23Z</time>
      </trkpt>
      <trkpt lat="46.02877" lon="6.98502">
        <ele>2131.38</ele>
        <time>2012-09-28T14:46:30Z</time>
      </trkpt>
      <trkpt lat="46.02875" lon="6.985">
        <ele>2130.9</ele>
        <time>2012-09-28T14:46:32Z</time>
      </trkpt>
      <trkpt lat="46.02872" lon="6.98496">
        <ele>2131.38</ele>
        <time>2012-09-28T14:46:35Z</time>
      </trkpt>
      <trkpt lat="46.02869" lon="6.98489">
        <ele>2131.86</ele>
        <time>2012-09-28T14:46:40Z</time>
      </trkpt>
      <trkpt lat="46.02863" lon="6.9847">
        <ele>2133.78</ele>
        <time>2012-09-28T14:46:53Z</time>
      </trkpt>
      <trkpt lat="46.02861" lon="6.98465">
        <ele>2133.78</ele>
        <time>2012-09-28T14:46:57Z</time>
      </trkpt>
      <trkpt lat="46.0286" lon="6.98461">
        <ele>2133.78</ele>
        <time>2012-09-28T14:47:00Z</time>
      </trkpt>
      <trkpt lat="46.02859" lon="6.98457">
        <ele>2133.3</ele>
        <time>2012-09-28T14:47:02Z</time>
      </trkpt>
      <trkpt lat="46.02852" lon="6.98435">
        <ele>2133.78</ele>
        <time>2012-09-28T14:47:15Z</time>
      </trkpt>
      <trkpt lat="46.02848" lon="6.98425">
        <ele>2133.78</ele>
        <time>2012-09-28T14:47:21Z</time>
      </trkpt>
      <trkpt lat="46.02843" lon="6.98414">
        <ele>2134.74</ele>
        <time>2012-09-28T14:47:34Z</time>
      </trkpt>
      <trkpt lat="46.02844" lon="6.98411">
        <ele>2133.78</ele>
        <time>2012-09-28T14:47:38Z</time>
      </trkpt>
      <trkpt lat="46.02831" lon="6.98386">
        <ele>2135.23</ele>
        <time>2012-09-28T14:47:54Z</time>
      </trkpt>
      <trkpt lat="46.02824" lon="6.98379">
        <ele>2136.19</ele>
        <time>2012-09-28T14:48:03Z</time>
      </trkpt>
      <trkpt lat="46.02823" lon="6.98375">
        <ele>2136.67</ele>
        <time>2012-09-28T14:48:06Z</time>
      </trkpt>
      <trkpt lat="46.02823" lon="6.98372">
        <ele>2137.15</ele>
        <time>2012-09-28T14:48:08Z</time>
      </trkpt>
      <trkpt lat="46.02817" lon="6.98352">
        <ele>2136.67</ele>
        <time>2012-09-28T14:48:19Z</time>
      </trkpt>
      <trkpt lat="46.02816" lon="6.98345">
        <ele>2136.67</ele>
        <time>2012-09-28T14:48:23Z</time>
      </trkpt>
      <trkpt lat="46.02814" lon="6.98341">
        <ele>2136.19</ele>
        <time>2012-09-28T14:48:27Z</time>
      </trkpt>
      <trkpt lat="46.02813" lon="6.98334">
        <ele>2136.19</ele>
        <time>2012-09-28T14:48:31Z</time>
      </trkpt>
      <trkpt lat="46.02811" lon="6.98329">
        <ele>2136.19</ele>
        <time>2012-09-28T14:48:34Z</time>
      </trkpt>
      <trkpt lat="46.02812" lon="6.98321">
        <ele>2135.71</ele>
        <time>2012-09-28T14:48:39Z</time>
      </trkpt>
      <trkpt lat="46.02808" lon="6.98299">
        <ele>2134.74</ele>
        <time>2012-09-28T14:48:51Z</time>
      </trkpt>
      <trkpt lat="46.02807" lon="6.98285">
        <ele>2135.23</ele>
        <time>2012-09-28T14:48:55Z</time>
      </trkpt>
      <trkpt lat="46.02804" lon="6.98275">
        <ele>2135.23</ele>
        <time>2012-09-28T14:48:59Z</time>
      </trkpt>
      <trkpt lat="46.02802" lon="6.98241">
        <ele>2134.74</ele>
        <time>2012-09-28T14:49:09Z</time>
      </trkpt>
      <trkpt lat="46.02801" lon="6.98229">
        <ele>2133.78</ele>
        <time>2012-09-28T14:49:12Z</time>
      </trkpt>
      <trkpt lat="46.02804" lon="6.98199">
        <ele>2133.78</ele>
        <time>2012-09-28T14:49:22Z</time>
      </trkpt>
      <trkpt lat="46.02804" lon="6.98175">
        <ele>2131.86</ele>
        <time>2012-09-28T14:49:31Z</time>
      </trkpt>
      <trkpt lat="46.02804" lon="6.98171">
        <ele>2130.9</ele>
        <time>2012-09-28T14:49:33Z</time>
      </trkpt>
      <trkpt lat="46.02803" lon="6.98159">
        <ele>2130.42</ele>
        <time>2012-09-28T14:49:41Z</time>
      </trkpt>
      <trkpt lat="46.02807" lon="6.98146">
        <ele>2128.02</ele>
        <time>2012-09-28T14:49:47Z</time>
      </trkpt>
      <trkpt lat="46.02808" lon="6.98142">
        <ele>2128.5</ele>
        <time>2012-09-28T14:49:48Z</time>
      </trkpt>
      <trkpt lat="46.02812" lon="6.9811">
        <ele>2132.34</ele>
        <time>2012-09-28T14:49:59Z</time>
      </trkpt>
      <trkpt lat="46.02814" lon="6.9808">
        <ele>2135.23</ele>
        <time>2012-09-28T14:50:09Z</time>
      </trkpt>
      <trkpt lat="46.02815" lon="6.98069">
        <ele>2136.19</ele>
        <time>2012-09-28T14:50:19Z</time>
      </trkpt>
      <trkpt lat="46.02814" lon="6.98067">
        <ele>2136.19</ele>
        <time>2012-09-28T14:50:21Z</time>
      </trkpt>
      <trkpt lat="46.02814" lon="6.98059">
        <ele>2136.67</ele>
        <time>2012-09-28T14:50:26Z</time>
      </trkpt>
      <trkpt lat="46.02818" lon="6.9804">
        <ele>2138.11</ele>
        <time>2012-09-28T14:50:39Z</time>
      </trkpt>
      <trkpt lat="46.02819" lon="6.98038">
        <ele>2137.63</ele>
        <time>2012-09-28T14:50:40Z</time>
      </trkpt>
      <trkpt lat="46.02809" lon="6.98023">
        <ele>2139.55</ele>
        <time>2012-09-28T14:50:54Z</time>
      </trkpt>
      <trkpt lat="46.02807" lon="6.98018">
        <ele>2139.55</ele>
        <time>2012-09-28T14:50:57Z</time>
      </trkpt>
      <trkpt lat="46.02792" lon="6.98002">
        <ele>2140.51</ele>
        <time>2012-09-28T14:51:12Z</time>
      </trkpt>
      <trkpt lat="46.02786" lon="6.97989">
        <ele>2140.51</ele>
        <time>2012-09-28T14:51:26Z</time>
      </trkpt>
      <trkpt lat="46.0278" lon="6.97982">
        <ele>2141.47</ele>
        <time>2012-09-28T14:51:32Z</time>
      </trkpt>
      <trkpt lat="46.02775" lon="6.97975">
        <ele>2141.47</ele>
        <time>2012-09-28T14:51:39Z</time>
      </trkpt>
      <trkpt lat="46.02773" lon="6.97969">
        <ele>2140.99</ele>
        <time>2012-09-28T14:51:43Z</time>
      </trkpt>
      <trkpt lat="46.02769" lon="6.97958">
        <ele>2141.95</ele>
        <time>2012-09-28T14:51:50Z</time>
      </trkpt>
      <trkpt lat="46.02757" lon="6.97936">
        <ele>2144.36</ele>
        <time>2012-09-28T14:52:07Z</time>
      </trkpt>
      <trkpt lat="46.02752" lon="6.97926">
        <ele>2147.72</ele>
        <time>2012-09-28T14:52:17Z</time>
      </trkpt>
      <trkpt lat="46.02745" lon="6.97915">
        <ele>2145.8</ele>
        <time>2012-09-28T14:52:30Z</time>
      </trkpt>
      <trkpt lat="46.02739" lon="6.97898">
        <ele>2148.2</ele>
        <time>2012-09-28T14:52:47Z</time>
      </trkpt>
      <trkpt lat="46.02737" lon="6.97889">
        <ele>2150.13</ele>
        <time>2012-09-28T14:52:55Z</time>
      </trkpt>
      <trkpt lat="46.02738" lon="6.97873">
        <ele>2152.53</ele>
        <time>2012-09-28T14:53:10Z</time>
      </trkpt>
      <trkpt lat="46.02737" lon="6.97867">
        <ele>2154.45</ele>
        <time>2012-09-28T14:53:16Z</time>
      </trkpt>
      <trkpt lat="46.02735" lon="6.97862">
        <ele>2154.93</ele>
        <time>2012-09-28T14:53:20Z</time>
      </trkpt>
      <trkpt lat="46.02729" lon="6.97851">
        <ele>2154.45</ele>
        <time>2012-09-28T14:53:28Z</time>
      </trkpt>
      <trkpt lat="46.02721" lon="6.97825">
        <ele>2153.49</ele>
        <time>2012-09-28T14:53:42Z</time>
      </trkpt>
      <trkpt lat="46.02714" lon="6.978">
        <ele>2156.86</ele>
        <time>2012-09-28T14:53:57Z</time>
      </trkpt>
      <trkpt lat="46.02712" lon="6.97793">
        <ele>2156.86</ele>
        <time>2012-09-28T14:54:01Z</time>
      </trkpt>
      <trkpt lat="46.02711" lon="6.97788">
        <ele>2157.34</ele>
        <time>2012-09-28T14:54:04Z</time>
      </trkpt>
      <trkpt lat="46.02708" lon="6.97779">
        <ele>2158.3</ele>
        <time>2012-09-28T14:54:10Z</time>
      </trkpt>
      <trkpt lat="46.02706" lon="6.97768">
        <ele>2159.74</ele>
        <time>2012-09-28T14:54:17Z</time>
      </trkpt>
      <trkpt lat="46.02706" lon="6.97759">
        <ele>2160.22</ele>
        <time>2012-09-28T14:54:22Z</time>
      </trkpt>
      <trkpt lat="46.027" lon="6.97739">
        <ele>2163.1</ele>
        <time>2012-09-28T14:54:36Z</time>
      </trkpt>
      <trkpt lat="46.02695" lon="6.9773">
        <ele>2163.58</ele>
        <time>2012-09-28T14:54:43Z</time>
      </trkpt>
      <trkpt lat="46.02693" lon="6.97722">
        <ele>2164.06</ele>
        <time>2012-09-28T14:54:48Z</time>
      </trkpt>
      <trkpt lat="46.02688" lon="6.97705">
        <ele>2165.99</ele>
        <time>2012-09-28T14:55:00Z</time>
      </trkpt>
      <trkpt lat="46.02687" lon="6.977">
        <ele>2166.47</ele>
        <time>2012-09-28T14:55:03Z</time>
      </trkpt>
      <trkpt lat="46.02687" lon="6.97679">
        <ele>2169.83</ele>
        <time>2012-09-28T14:55:17Z</time>
      </trkpt>
      <trkpt lat="46.02686" lon="6.97672">
        <ele>2170.79</ele>
        <time>2012-09-28T14:55:22Z</time>
      </trkpt>
      <trkpt lat="46.02683" lon="6.97661">
        <ele>2172.72</ele>
        <time>2012-09-28T14:55:30Z</time>
      </trkpt>
      <trkpt lat="46.02673" lon="6.97649">
        <ele>2175.12</ele>
        <time>2012-09-28T14:55:44Z</time>
      </trkpt>
      <trkpt lat="46.0267" lon="6.97642">
        <ele>2176.56</ele>
        <time>2012-09-28T14:55:58Z</time>
      </trkpt>
      <trkpt lat="46.02669" lon="6.9764">
        <ele>2177.04</ele>
        <time>2012-09-28T14:56:12Z</time>
      </trkpt>
      <trkpt lat="46.02667" lon="6.97638">
        <ele>2177.52</ele>
        <time>2012-09-28T14:56:16Z</time>
      </trkpt>
      <trkpt lat="46.02663" lon="6.97633">
        <ele>2178.97</ele>
        <time>2012-09-28T14:56:22Z</time>
      </trkpt>
      <trkpt lat="46.02657" lon="6.97625">
        <ele>2181.37</ele>
        <time>2012-09-28T14:56:33Z</time>
      </trkpt>
      <trkpt lat="46.02653" lon="6.97616">
        <ele>2183.29</ele>
        <time>2012-09-28T14:56:43Z</time>
      </trkpt>
      <trkpt lat="46.02649" lon="6.97607">
        <ele>2185.21</ele>
        <time>2012-09-28T14:56:52Z</time>
      </trkpt>
      <trkpt lat="46.02644" lon="6.97589">
        <ele>2188.58</ele>
        <time>2012-09-28T14:57:08Z</time>
      </trkpt>
      <trkpt lat="46.02643" lon="6.97588">
        <ele>2189.06</ele>
        <time>2012-09-28T14:57:09Z</time>
      </trkpt>
      <trkpt lat="46.02641" lon="6.97575">
        <ele>2190.98</ele>
        <time>2012-09-28T14:57:21Z</time>
      </trkpt>
      <trkpt lat="46.02641" lon="6.97571">
        <ele>2190.98</ele>
        <time>2012-09-28T14:57:23Z</time>
      </trkpt>
      <trkpt lat="46.02641" lon="6.97567">
        <ele>2191.46</ele>
        <time>2012-09-28T14:57:26Z</time>
      </trkpt>
      <trkpt lat="46.02642" lon="6.97563">
        <ele>2191.94</ele>
        <time>2012-09-28T14:57:29Z</time>
      </trkpt>
      <trkpt lat="46.02641" lon="6.9756">
        <ele>2192.42</ele>
        <time>2012-09-28T14:57:31Z</time>
      </trkpt>
      <trkpt lat="46.02644" lon="6.97538">
        <ele>2193.87</ele>
        <time>2012-09-28T14:57:45Z</time>
      </trkpt>
      <trkpt lat="46.02642" lon="6.97528">
        <ele>2193.87</ele>
        <time>2012-09-28T14:57:58Z</time>
      </trkpt>
      <trkpt lat="46.0264" lon="6.97521">
        <ele>2195.31</ele>
        <time>2012-09-28T14:58:03Z</time>
      </trkpt>
      <trkpt lat="46.02638" lon="6.97515">
        <ele>2196.27</ele>
        <time>2012-09-28T14:58:08Z</time>
      </trkpt>
      <trkpt lat="46.02635" lon="6.9751">
        <ele>2197.71</ele>
        <time>2012-09-28T14:58:13Z</time>
      </trkpt>
      <trkpt lat="46.02631" lon="6.97504">
        <ele>2198.19</ele>
        <time>2012-09-28T14:58:18Z</time>
      </trkpt>
      <trkpt lat="46.02629" lon="6.97493">
        <ele>2200.11</ele>
        <time>2012-09-28T14:58:25Z</time>
      </trkpt>
      <trkpt lat="46.0263" lon="6.97477">
        <ele>2203.48</ele>
        <time>2012-09-28T14:58:39Z</time>
      </trkpt>
      <trkpt lat="46.02639" lon="6.97469">
        <ele>2206.36</ele>
        <time>2012-09-28T14:58:53Z</time>
      </trkpt>
      <trkpt lat="46.02646" lon="6.97463">
        <ele>2209.73</ele>
        <time>2012-09-28T14:59:06Z</time>
      </trkpt>
      <trkpt lat="46.02648" lon="6.97454">
        <ele>2212.13</ele>
        <time>2012-09-28T14:59:17Z</time>
      </trkpt>
      <trkpt lat="46.02647" lon="6.97439">
        <ele>2215.5</ele>
        <time>2012-09-28T14:59:31Z</time>
      </trkpt>
      <trkpt lat="46.0265" lon="6.97435">
        <ele>2215.5</ele>
        <time>2012-09-28T14:59:47Z</time>
      </trkpt>
      <trkpt lat="46.02649" lon="6.97435">
        <ele>2215.5</ele>
        <time>2012-09-28T14:59:49Z</time>
      </trkpt>
      <trkpt lat="46.02647" lon="6.97432">
        <ele>2215.5</ele>
        <time>2012-09-28T14:59:53Z</time>
      </trkpt>
      <trkpt lat="46.02636" lon="6.97428">
        <ele>2216.94</ele>
        <time>2012-09-28T15:00:02Z</time>
      </trkpt>
      <trkpt lat="46.02625" lon="6.97402">
        <ele>2216.46</ele>
        <time>2012-09-28T15:00:18Z</time>
      </trkpt>
      <trkpt lat="46.02612" lon="6.97374">
        <ele>2217.9</ele>
        <time>2012-09-28T15:00:35Z</time>
      </trkpt>
      <trkpt lat="46.02604" lon="6.9734">
        <ele>2220.3</ele>
        <time>2012-09-28T15:00:54Z</time>
      </trkpt>
      <trkpt lat="46.02602" lon="6.97312">
        <ele>2218.38</ele>
        <time>2012-09-28T15:01:08Z</time>
      </trkpt>
      <trkpt lat="46.02599" lon="6.97296">
        <ele>2217.9</ele>
        <time>2012-09-28T15:01:16Z</time>
      </trkpt>
      <trkpt lat="46.02599" lon="6.97286">
        <ele>2217.42</ele>
        <time>2012-09-28T15:01:22Z</time>
      </trkpt>
      <trkpt lat="46.02598" lon="6.97276">
        <ele>2217.42</ele>
        <time>2012-09-28T15:01:27Z</time>
      </trkpt>
      <trkpt lat="46.02598" lon="6.97268">
        <ele>2217.42</ele>
        <time>2012-09-28T15:01:31Z</time>
      </trkpt>
      <trkpt lat="46.02595" lon="6.97246">
        <ele>2215.98</ele>
        <time>2012-09-28T15:01:42Z</time>
      </trkpt>
      <trkpt lat="46.02596" lon="6.97232">
        <ele>2213.57</ele>
        <time>2012-09-28T15:01:49Z</time>
      </trkpt>
      <trkpt lat="46.02596" lon="6.97224">
        <ele>2212.13</ele>
        <time>2012-09-28T15:01:52Z</time>
      </trkpt>
      <trkpt lat="46.02595" lon="6.97192">
        <ele>2211.65</ele>
        <time>2012-09-28T15:02:07Z</time>
      </trkpt>
      <trkpt lat="46.02603" lon="6.97164">
        <ele>2211.17</ele>
        <time>2012-09-28T15:02:22Z</time>
      </trkpt>
      <trkpt lat="46.02607" lon="6.97136">
        <ele>2210.21</ele>
        <time>2012-09-28T15:02:37Z</time>
      </trkpt>
      <trkpt lat="46.02606" lon="6.97136">
        <ele>2210.21</ele>
        <time>2012-09-28T15:02:44Z</time>
      </trkpt>
      <trkpt lat="46.02614" lon="6.97123">
        <ele>2210.69</ele>
        <time>2012-09-28T15:02:53Z</time>
      </trkpt>
      <trkpt lat="46.02627" lon="6.97089">
        <ele>2211.17</ele>
        <time>2012-09-28T15:03:12Z</time>
      </trkpt>
      <trkpt lat="46.02627" lon="6.97082">
        <ele>2211.65</ele>
        <time>2012-09-28T15:03:15Z</time>
      </trkpt>
      <trkpt lat="46.02626" lon="6.97053">
        <ele>2208.77</ele>
        <time>2012-09-28T15:03:29Z</time>
      </trkpt>
      <trkpt lat="46.02629" lon="6.9704">
        <ele>2208.29</ele>
        <time>2012-09-28T15:03:36Z</time>
      </trkpt>
      <trkpt lat="46.0263" lon="6.97024">
        <ele>2207.32</ele>
        <time>2012-09-28T15:03:50Z</time>
      </trkpt>
      <trkpt lat="46.02627" lon="6.97025">
        <ele>2207.32</ele>
        <time>2012-09-28T15:04:13Z</time>
      </trkpt>
      <trkpt lat="46.02622" lon="6.9703">
        <ele>2207.32</ele>
        <time>2012-09-28T15:04:25Z</time>
      </trkpt>
      <trkpt lat="46.0262" lon="6.97028">
        <ele>2207.81</ele>
        <time>2012-09-28T15:04:46Z</time>
      </trkpt>
      <trkpt lat="46.02617" lon="6.97025">
        <ele>2207.32</ele>
        <time>2012-09-28T15:04:49Z</time>
      </trkpt>
      <trkpt lat="46.02609" lon="6.97023">
        <ele>2206.84</ele>
        <time>2012-09-28T15:05:03Z</time>
      </trkpt>
      <trkpt lat="46.02609" lon="6.97023">
        <ele>2206.84</ele>
        <time>2012-09-28T15:05:35Z</time>
      </trkpt>
      <trkpt lat="46.0261" lon="6.9702">
        <ele>2206.84</ele>
        <time>2012-09-28T15:06:11Z</time>
      </trkpt>
      <trkpt lat="46.02611" lon="6.97023">
        <ele>2206.36</ele>
        <time>2012-09-28T15:06:25Z</time>
      </trkpt>
      <trkpt lat="46.02616" lon="6.97025">
        <ele>2206.84</ele>
        <time>2012-09-28T15:06:29Z</time>
      </trkpt>
      <trkpt lat="46.02626" lon="6.97031">
        <ele>2206.84</ele>
        <time>2012-09-28T15:06:38Z</time>
      </trkpt>
      <trkpt lat="46.02629" lon="6.9703">
        <ele>2207.81</ele>
        <time>2012-09-28T15:06:50Z</time>
      </trkpt>
      <trkpt lat="46.02629" lon="6.97031">
        <ele>2206.84</ele>
        <time>2012-09-28T15:07:03Z</time>
      </trkpt>
      <trkpt lat="46.02628" lon="6.97032">
        <ele>2206.84</ele>
        <time>2012-09-28T15:07:32Z</time>
      </trkpt>
      <trkpt lat="46.0263" lon="6.97034">
        <ele>2206.84</ele>
        <time>2012-09-28T15:07:58Z</time>
      </trkpt>
      <trkpt lat="46.02631" lon="6.97033">
        <ele>2206.36</ele>
        <time>2012-09-28T15:08:11Z</time>
      </trkpt>
      <trkpt lat="46.02631" lon="6.97033">
        <ele>2206.84</ele>
        <time>2012-09-28T15:08:24Z</time>
      </trkpt>
      <trkpt lat="46.02631" lon="6.97031">
        <ele>2206.84</ele>
        <time>2012-09-28T15:08:49Z</time>
      </trkpt>
      <trkpt lat="46.0263" lon="6.97032">
        <ele>2205.4</ele>
        <time>2012-09-28T15:09:13Z</time>
      </trkpt>
      <trkpt lat="46.0263" lon="6.97029">
        <ele>2206.36</ele>
        <time>2012-09-28T15:09:15Z</time>
      </trkpt>
      <trkpt lat="46.02631" lon="6.97025">
        <ele>2205.88</ele>
        <time>2012-09-28T15:09:27Z</time>
      </trkpt>
      <trkpt lat="46.02631" lon="6.97026">
        <ele>2205.4</ele>
        <time>2012-09-28T15:09:56Z</time>
      </trkpt>
      <trkpt lat="46.0263" lon="6.97025">
        <ele>2206.84</ele>
        <time>2012-09-28T15:10:19Z</time>
      </trkpt>
      <trkpt lat="46.0263" lon="6.97027">
        <ele>2206.36</ele>
        <time>2012-09-28T15:10:39Z</time>
      </trkpt>
      <trkpt lat="46.02628" lon="6.97028">
        <ele>2207.32</ele>
        <time>2012-09-28T15:10:57Z</time>
      </trkpt>
      <trkpt lat="46.02623" lon="6.97025">
        <ele>2206.84</ele>
        <time>2012-09-28T15:11:02Z</time>
      </trkpt>
      <trkpt lat="46.02603" lon="6.97009">
        <ele>2204.92</ele>
        <time>2012-09-28T15:11:19Z</time>
      </trkpt>
      <trkpt lat="46.02591" lon="6.97002">
        <ele>2200.59</ele>
        <time>2012-09-28T15:11:24Z</time>
      </trkpt>
      <trkpt lat="46.02589" lon="6.97001">
        <ele>2200.59</ele>
        <time>2012-09-28T15:11:25Z</time>
      </trkpt>
      <trkpt lat="46.02582" lon="6.96998">
        <ele>2198.67</ele>
        <time>2012-09-28T15:11:28Z</time>
      </trkpt>
      <trkpt lat="46.02571" lon="6.96992">
        <ele>2196.75</ele>
        <time>2012-09-28T15:11:35Z</time>
      </trkpt>
      <trkpt lat="46.02559" lon="6.9699">
        <ele>2194.35</ele>
        <time>2012-09-28T15:11:40Z</time>
      </trkpt>
      <trkpt lat="46.02555" lon="6.96986">
        <ele>2194.83</ele>
        <time>2012-09-28T15:11:42Z</time>
      </trkpt>
      <trkpt lat="46.0255" lon="6.96981">
        <ele>2192.9</ele>
        <time>2012-09-28T15:11:45Z</time>
      </trkpt>
      <trkpt lat="46.02547" lon="6.96979">
        <ele>2192.42</ele>
        <time>2012-09-28T15:11:46Z</time>
      </trkpt>
      <trkpt lat="46.02543" lon="6.96976">
        <ele>2191.46</ele>
        <time>2012-09-28T15:11:48Z</time>
      </trkpt>
      <trkpt lat="46.02537" lon="6.96975">
        <ele>2190.02</ele>
        <time>2012-09-28T15:11:51Z</time>
      </trkpt>
      <trkpt lat="46.02536" lon="6.96974">
        <ele>2189.54</ele>
        <time>2012-09-28T15:11:52Z</time>
      </trkpt>
      <trkpt lat="46.02545" lon="6.96969">
        <ele>2186.66</ele>
        <time>2012-09-28T15:11:58Z</time>
      </trkpt>
      <trkpt lat="46.02562" lon="6.96964">
        <ele>2184.73</ele>
        <time>2012-09-28T15:12:07Z</time>
      </trkpt>
      <trkpt lat="46.02562" lon="6.96962">
        <ele>2184.73</ele>
        <time>2012-09-28T15:12:09Z</time>
      </trkpt>
      <trkpt lat="46.02552" lon="6.96954">
        <ele>2183.29</ele>
        <time>2012-09-28T15:12:15Z</time>
      </trkpt>
      <trkpt lat="46.02546" lon="6.9695">
        <ele>2181.37</ele>
        <time>2012-09-28T15:12:18Z</time>
      </trkpt>
      <trkpt lat="46.02533" lon="6.96947">
        <ele>2178.48</ele>
        <time>2012-09-28T15:12:23Z</time>
      </trkpt>
      <trkpt lat="46.02511" lon="6.96941">
        <ele>2174.16</ele>
        <time>2012-09-28T15:12:32Z</time>
      </trkpt>
      <trkpt lat="46.0251" lon="6.96938">
        <ele>2174.16</ele>
        <time>2012-09-28T15:12:33Z</time>
      </trkpt>
      <trkpt lat="46.025" lon="6.96928">
        <ele>2171.76</ele>
        <time>2012-09-28T15:12:38Z</time>
      </trkpt>
      <trkpt lat="46.02492" lon="6.96923">
        <ele>2169.83</ele>
        <time>2012-09-28T15:12:41Z</time>
      </trkpt>
      <trkpt lat="46.02481" lon="6.96914">
        <ele>2166.47</ele>
        <time>2012-09-28T15:12:46Z</time>
      </trkpt>
      <trkpt lat="46.02479" lon="6.96912">
        <ele>2166.47</ele>
        <time>2012-09-28T15:12:47Z</time>
      </trkpt>
      <trkpt lat="46.02465" lon="6.96903">
        <ele>2162.62</ele>
        <time>2012-09-28T15:12:53Z</time>
      </trkpt>
      <trkpt lat="46.02464" lon="6.96902">
        <ele>2162.62</ele>
        <time>2012-09-28T15:12:54Z</time>
      </trkpt>
      <trkpt lat="46.02456" lon="6.96898">
        <ele>2161.66</ele>
        <time>2012-09-28T15:13:02Z</time>
      </trkpt>
      <trkpt lat="46.02466" lon="6.96891">
        <ele>2160.22</ele>
        <time>2012-09-28T15:13:10Z</time>
      </trkpt>
      <trkpt lat="46.0247" lon="6.96887">
        <ele>2158.78</ele>
        <time>2012-09-28T15:13:13Z</time>
      </trkpt>
      <trkpt lat="46.02481" lon="6.96867">
        <ele>2154.93</ele>
        <time>2012-09-28T15:13:21Z</time>
      </trkpt>
      <trkpt lat="46.02473" lon="6.96862">
        <ele>2153.97</ele>
        <time>2012-09-28T15:13:26Z</time>
      </trkpt>
      <trkpt lat="46.02464" lon="6.96857">
        <ele>2151.09</ele>
        <time>2012-09-28T15:13:30Z</time>
      </trkpt>
      <trkpt lat="46.02457" lon="6.96853">
        <ele>2149.65</ele>
        <time>2012-09-28T15:13:33Z</time>
      </trkpt>
      <trkpt lat="46.02439" lon="6.96851">
        <ele>2147.72</ele>
        <time>2012-09-28T15:13:40Z</time>
      </trkpt>
      <trkpt lat="46.02431" lon="6.96838">
        <ele>2145.32</ele>
        <time>2012-09-28T15:13:47Z</time>
      </trkpt>
      <trkpt lat="46.02426" lon="6.96826">
        <ele>2142.44</ele>
        <time>2012-09-28T15:13:55Z</time>
      </trkpt>
      <trkpt lat="46.0242" lon="6.96816">
        <ele>2140.03</ele>
        <time>2012-09-28T15:14:01Z</time>
      </trkpt>
      <trkpt lat="46.02418" lon="6.96813">
        <ele>2140.03</ele>
        <time>2012-09-28T15:14:14Z</time>
      </trkpt>
      <trkpt lat="46.02403" lon="6.96804">
        <ele>2137.15</ele>
        <time>2012-09-28T15:14:25Z</time>
      </trkpt>
      <trkpt lat="46.024" lon="6.96802">
        <ele>2136.19</ele>
        <time>2012-09-28T15:14:27Z</time>
      </trkpt>
      <trkpt lat="46.02387" lon="6.96795">
        <ele>2133.78</ele>
        <time>2012-09-28T15:14:34Z</time>
      </trkpt>
      <trkpt lat="46.02385" lon="6.96793">
        <ele>2132.82</ele>
        <time>2012-09-28T15:14:36Z</time>
      </trkpt>
      <trkpt lat="46.02382" lon="6.96781">
        <ele>2129.46</ele>
        <time>2012-09-28T15:14:41Z</time>
      </trkpt>
      <trkpt lat="46.0238" lon="6.96779">
        <ele>2130.9</ele>
        <time>2012-09-28T15:14:42Z</time>
      </trkpt>
      <trkpt lat="46.02376" lon="6.96773">
        <ele>2129.46</ele>
        <time>2012-09-28T15:14:45Z</time>
      </trkpt>
      <trkpt lat="46.02366" lon="6.96754">
        <ele>2125.13</ele>
        <time>2012-09-28T15:14:53Z</time>
      </trkpt>
      <trkpt lat="46.02364" lon="6.96753">
        <ele>2125.13</ele>
        <time>2012-09-28T15:14:54Z</time>
      </trkpt>
      <trkpt lat="46.0236" lon="6.96748">
        <ele>2124.65</ele>
        <time>2012-09-28T15:14:59Z</time>
      </trkpt>
      <trkpt lat="46.02353" lon="6.96736">
        <ele>2121.29</ele>
        <time>2012-09-28T15:15:07Z</time>
      </trkpt>
      <trkpt lat="46.02338" lon="6.9673">
        <ele>2118.88</ele>
        <time>2012-09-28T15:15:14Z</time>
      </trkpt>
      <trkpt lat="46.02325" lon="6.9672">
        <ele>2116.48</ele>
        <time>2012-09-28T15:15:21Z</time>
      </trkpt>
      <trkpt lat="46.02323" lon="6.96719">
        <ele>2116</ele>
        <time>2012-09-28T15:15:22Z</time>
      </trkpt>
      <trkpt lat="46.0232" lon="6.96715">
        <ele>2115.04</ele>
        <time>2012-09-28T15:15:24Z</time>
      </trkpt>
      <trkpt lat="46.02312" lon="6.9671">
        <ele>2113.6</ele>
        <time>2012-09-28T15:15:30Z</time>
      </trkpt>
      <trkpt lat="46.02308" lon="6.96708">
        <ele>2112.63</ele>
        <time>2012-09-28T15:15:33Z</time>
      </trkpt>
      <trkpt lat="46.02292" lon="6.96698">
        <ele>2109.75</ele>
        <time>2012-09-28T15:15:47Z</time>
      </trkpt>
      <trkpt lat="46.02291" lon="6.96697">
        <ele>2109.27</ele>
        <time>2012-09-28T15:15:48Z</time>
      </trkpt>
      <trkpt lat="46.02283" lon="6.96694">
        <ele>2108.31</ele>
        <time>2012-09-28T15:15:55Z</time>
      </trkpt>
      <trkpt lat="46.02288" lon="6.96689">
        <ele>2106.87</ele>
        <time>2012-09-28T15:16:00Z</time>
      </trkpt>
      <trkpt lat="46.02305" lon="6.96677">
        <ele>2103.5</ele>
        <time>2012-09-28T15:16:14Z</time>
      </trkpt>
      <trkpt lat="46.02306" lon="6.96676">
        <ele>2103.5</ele>
        <time>2012-09-28T15:16:15Z</time>
      </trkpt>
      <trkpt lat="46.02325" lon="6.96673">
        <ele>2099.66</ele>
        <time>2012-09-28T15:16:28Z</time>
      </trkpt>
      <trkpt lat="46.02328" lon="6.96674">
        <ele>2099.66</ele>
        <time>2012-09-28T15:16:30Z</time>
      </trkpt>
      <trkpt lat="46.02322" lon="6.96659">
        <ele>2096.29</ele>
        <time>2012-09-28T15:16:40Z</time>
      </trkpt>
      <trkpt lat="46.0232" lon="6.96655">
        <ele>2095.81</ele>
        <time>2012-09-28T15:16:42Z</time>
      </trkpt>
      <trkpt lat="46.02316" lon="6.96651">
        <ele>2094.37</ele>
        <time>2012-09-28T15:16:46Z</time>
      </trkpt>
      <trkpt lat="46.02312" lon="6.96646">
        <ele>2092.93</ele>
        <time>2012-09-28T15:16:50Z</time>
      </trkpt>
      <trkpt lat="46.02311" lon="6.96645">
        <ele>2092.93</ele>
        <time>2012-09-28T15:16:51Z</time>
      </trkpt>
      <trkpt lat="46.02299" lon="6.96637">
        <ele>2090.04</ele>
        <time>2012-09-28T15:17:03Z</time>
      </trkpt>
      <trkpt lat="46.02296" lon="6.9663">
        <ele>2089.08</ele>
        <time>2012-09-28T15:17:08Z</time>
      </trkpt>
      <trkpt lat="46.02288" lon="6.96618">
        <ele>2085.72</ele>
        <time>2012-09-28T15:17:19Z</time>
      </trkpt>
      <trkpt lat="46.0228" lon="6.96606">
        <ele>2082.83</ele>
        <time>2012-09-28T15:17:29Z</time>
      </trkpt>
      <trkpt lat="46.02278" lon="6.96605">
        <ele>2082.35</ele>
        <time>2012-09-28T15:17:31Z</time>
      </trkpt>
      <trkpt lat="46.02285" lon="6.96597">
        <ele>2080.91</ele>
        <time>2012-09-28T15:17:38Z</time>
      </trkpt>
      <trkpt lat="46.02297" lon="6.96585">
        <ele>2078.99</ele>
        <time>2012-09-28T15:17:50Z</time>
      </trkpt>
      <trkpt lat="46.02298" lon="6.96584">
        <ele>2078.03</ele>
        <time>2012-09-28T15:17:51Z</time>
      </trkpt>
      <trkpt lat="46.02298" lon="6.96577">
        <ele>2076.59</ele>
        <time>2012-09-28T15:17:55Z</time>
      </trkpt>
      <trkpt lat="46.02295" lon="6.96566">
        <ele>2074.66</ele>
        <time>2012-09-28T15:18:00Z</time>
      </trkpt>
      <trkpt lat="46.02291" lon="6.96557">
        <ele>2072.74</ele>
        <time>2012-09-28T15:18:04Z</time>
      </trkpt>
      <trkpt lat="46.0229" lon="6.96554">
        <ele>2072.26</ele>
        <time>2012-09-28T15:18:05Z</time>
      </trkpt>
      <trkpt lat="46.02285" lon="6.9655">
        <ele>2071.3</ele>
        <time>2012-09-28T15:18:09Z</time>
      </trkpt>
      <trkpt lat="46.02282" lon="6.96548">
        <ele>2069.86</ele>
        <time>2012-09-28T15:18:13Z</time>
      </trkpt>
      <trkpt lat="46.02286" lon="6.96541">
        <ele>2068.41</ele>
        <time>2012-09-28T15:18:19Z</time>
      </trkpt>
      <trkpt lat="46.02289" lon="6.96532">
        <ele>2066.97</ele>
        <time>2012-09-28T15:18:24Z</time>
      </trkpt>
      <trkpt lat="46.02291" lon="6.96529">
        <ele>2066.97</ele>
        <time>2012-09-28T15:18:26Z</time>
      </trkpt>
      <trkpt lat="46.02302" lon="6.96525">
        <ele>2064.57</ele>
        <time>2012-09-28T15:18:36Z</time>
      </trkpt>
      <trkpt lat="46.02303" lon="6.9652">
        <ele>2063.61</ele>
        <time>2012-09-28T15:18:40Z</time>
      </trkpt>
      <trkpt lat="46.02303" lon="6.96517">
        <ele>2063.13</ele>
        <time>2012-09-28T15:18:42Z</time>
      </trkpt>
      <trkpt lat="46.02301" lon="6.96495">
        <ele>2059.28</ele>
        <time>2012-09-28T15:18:53Z</time>
      </trkpt>
      <trkpt lat="46.02297" lon="6.96484">
        <ele>2057.36</ele>
        <time>2012-09-28T15:18:59Z</time>
      </trkpt>
      <trkpt lat="46.02296" lon="6.96478">
        <ele>2055.92</ele>
        <time>2012-09-28T15:19:03Z</time>
      </trkpt>
      <trkpt lat="46.02289" lon="6.96462">
        <ele>2053.03</ele>
        <time>2012-09-28T15:19:10Z</time>
      </trkpt>
      <trkpt lat="46.02288" lon="6.96459">
        <ele>2053.03</ele>
        <time>2012-09-28T15:19:11Z</time>
      </trkpt>
      <trkpt lat="46.02287" lon="6.96451">
        <ele>2051.11</ele>
        <time>2012-09-28T15:19:14Z</time>
      </trkpt>
      <trkpt lat="46.02284" lon="6.96448">
        <ele>2050.63</ele>
        <time>2012-09-28T15:19:16Z</time>
      </trkpt>
      <trkpt lat="46.02281" lon="6.96446">
        <ele>2050.15</ele>
        <time>2012-09-28T15:19:19Z</time>
      </trkpt>
      <trkpt lat="46.02277" lon="6.9644">
        <ele>2048.71</ele>
        <time>2012-09-28T15:19:26Z</time>
      </trkpt>
      <trkpt lat="46.02275" lon="6.96432">
        <ele>2047.26</ele>
        <time>2012-09-28T15:19:31Z</time>
      </trkpt>
      <trkpt lat="46.02273" lon="6.96423">
        <ele>2046.78</ele>
        <time>2012-09-28T15:19:45Z</time>
      </trkpt>
      <trkpt lat="46.0227" lon="6.96415">
        <ele>2044.86</ele>
        <time>2012-09-28T15:19:49Z</time>
      </trkpt>
      <trkpt lat="46.02269" lon="6.96408">
        <ele>2043.42</ele>
        <time>2012-09-28T15:19:52Z</time>
      </trkpt>
      <trkpt lat="46.02268" lon="6.96406">
        <ele>2042.94</ele>
        <time>2012-09-28T15:19:53Z</time>
      </trkpt>
      <trkpt lat="46.02266" lon="6.96392">
        <ele>2039.57</ele>
        <time>2012-09-28T15:19:58Z</time>
      </trkpt>
      <trkpt lat="46.02261" lon="6.96364">
        <ele>2035.73</ele>
        <time>2012-09-28T15:20:08Z</time>
      </trkpt>
      <trkpt lat="46.0226" lon="6.96361">
        <ele>2035.73</ele>
        <time>2012-09-28T15:20:09Z</time>
      </trkpt>
      <trkpt lat="46.0226" lon="6.96356">
        <ele>2034.29</ele>
        <time>2012-09-28T15:20:11Z</time>
      </trkpt>
      <trkpt lat="46.02259" lon="6.9635">
        <ele>2034.29</ele>
        <time>2012-09-28T15:20:15Z</time>
      </trkpt>
      <trkpt lat="46.02252" lon="6.96341">
        <ele>2032.36</ele>
        <time>2012-09-28T15:20:22Z</time>
      </trkpt>
      <trkpt lat="46.0225" lon="6.96337">
        <ele>2030.92</ele>
        <time>2012-09-28T15:20:25Z</time>
      </trkpt>
      <trkpt lat="46.02244" lon="6.96335">
        <ele>2029.48</ele>
        <time>2012-09-28T15:20:34Z</time>
      </trkpt>
      <trkpt lat="46.02242" lon="6.96331">
        <ele>2027.56</ele>
        <time>2012-09-28T15:20:40Z</time>
      </trkpt>
      <trkpt lat="46.02241" lon="6.96329">
        <ele>2027.56</ele>
        <time>2012-09-28T15:20:42Z</time>
      </trkpt>
      <trkpt lat="46.02236" lon="6.96325">
        <ele>2026.12</ele>
        <time>2012-09-28T15:20:47Z</time>
      </trkpt>
      <trkpt lat="46.02233" lon="6.96323">
        <ele>2025.64</ele>
        <time>2012-09-28T15:20:51Z</time>
      </trkpt>
      <trkpt lat="46.02222" lon="6.96316">
        <ele>2024.19</ele>
        <time>2012-09-28T15:21:02Z</time>
      </trkpt>
      <trkpt lat="46.02218" lon="6.96311">
        <ele>2024.19</ele>
        <time>2012-09-28T15:21:06Z</time>
      </trkpt>
      <trkpt lat="46.02211" lon="6.96307">
        <ele>2023.71</ele>
        <time>2012-09-28T15:21:12Z</time>
      </trkpt>
      <trkpt lat="46.02207" lon="6.96295">
        <ele>2021.79</ele>
        <time>2012-09-28T15:21:22Z</time>
      </trkpt>
      <trkpt lat="46.02197" lon="6.96286">
        <ele>2019.87</ele>
        <time>2012-09-28T15:21:33Z</time>
      </trkpt>
      <trkpt lat="46.0219" lon="6.96278">
        <ele>2019.39</ele>
        <time>2012-09-28T15:21:43Z</time>
      </trkpt>
      <trkpt lat="46.02187" lon="6.96272">
        <ele>2018.43</ele>
        <time>2012-09-28T15:21:47Z</time>
      </trkpt>
      <trkpt lat="46.0218" lon="6.96264">
        <ele>2016.5</ele>
        <time>2012-09-28T15:21:53Z</time>
      </trkpt>
      <trkpt lat="46.02177" lon="6.96261">
        <ele>2015.06</ele>
        <time>2012-09-28T15:21:56Z</time>
      </trkpt>
      <trkpt lat="46.02174" lon="6.96256">
        <ele>2014.1</ele>
        <time>2012-09-28T15:21:59Z</time>
      </trkpt>
      <trkpt lat="46.0217" lon="6.96249">
        <ele>2012.66</ele>
        <time>2012-09-28T15:22:07Z</time>
      </trkpt>
      <trkpt lat="46.02159" lon="6.9624">
        <ele>2009.77</ele>
        <time>2012-09-28T15:22:17Z</time>
      </trkpt>
      <trkpt lat="46.02156" lon="6.96238">
        <ele>2008.81</ele>
        <time>2012-09-28T15:22:21Z</time>
      </trkpt>
      <trkpt lat="46.02151" lon="6.96229">
        <ele>2008.33</ele>
        <time>2012-09-28T15:22:31Z</time>
      </trkpt>
      <trkpt lat="46.02143" lon="6.96222">
        <ele>2006.41</ele>
        <time>2012-09-28T15:22:40Z</time>
      </trkpt>
      <trkpt lat="46.02127" lon="6.96205">
        <ele>2004.01</ele>
        <time>2012-09-28T15:22:55Z</time>
      </trkpt>
      <trkpt lat="46.02118" lon="6.96194">
        <ele>2001.6</ele>
        <time>2012-09-28T15:23:07Z</time>
      </trkpt>
      <trkpt lat="46.02109" lon="6.96191">
        <ele>1999.68</ele>
        <time>2012-09-28T15:23:13Z</time>
      </trkpt>
      <trkpt lat="46.02098" lon="6.96185">
        <ele>1998.72</ele>
        <time>2012-09-28T15:23:21Z</time>
      </trkpt>
      <trkpt lat="46.02089" lon="6.96181">
        <ele>1996.32</ele>
        <time>2012-09-28T15:23:30Z</time>
      </trkpt>
      <trkpt lat="46.02086" lon="6.96181">
        <ele>1995.83</ele>
        <time>2012-09-28T15:23:32Z</time>
      </trkpt>
      <trkpt lat="46.02083" lon="6.96178">
        <ele>1995.83</ele>
        <time>2012-09-28T15:23:36Z</time>
      </trkpt>
      <trkpt lat="46.0208" lon="6.96178">
        <ele>1995.35</ele>
        <time>2012-09-28T15:23:39Z</time>
      </trkpt>
      <trkpt lat="46.02075" lon="6.96173">
        <ele>1993.91</ele>
        <time>2012-09-28T15:23:45Z</time>
      </trkpt>
      <trkpt lat="46.02068" lon="6.96166">
        <ele>1992.95</ele>
        <time>2012-09-28T15:23:55Z</time>
      </trkpt>
      <trkpt lat="46.02066" lon="6.96156">
        <ele>1991.03</ele>
        <time>2012-09-28T15:24:02Z</time>
      </trkpt>
      <trkpt lat="46.02063" lon="6.96145">
        <ele>1989.59</ele>
        <time>2012-09-28T15:24:07Z</time>
      </trkpt>
      <trkpt lat="46.02055" lon="6.96134">
        <ele>1987.18</ele>
        <time>2012-09-28T15:24:12Z</time>
      </trkpt>
      <trkpt lat="46.02042" lon="6.96122">
        <ele>1984.3</ele>
        <time>2012-09-28T15:24:19Z</time>
      </trkpt>
      <trkpt lat="46.02032" lon="6.96114">
        <ele>1982.38</ele>
        <time>2012-09-28T15:24:24Z</time>
      </trkpt>
      <trkpt lat="46.02024" lon="6.96108">
        <ele>1982.86</ele>
        <time>2012-09-28T15:24:32Z</time>
      </trkpt>
      <trkpt lat="46.02021" lon="6.961">
        <ele>1981.41</ele>
        <time>2012-09-28T15:24:37Z</time>
      </trkpt>
      <trkpt lat="46.02007" lon="6.9608">
        <ele>1978.05</ele>
        <time>2012-09-28T15:24:52Z</time>
      </trkpt>
      <trkpt lat="46.02003" lon="6.96071">
        <ele>1977.09</ele>
        <time>2012-09-28T15:24:58Z</time>
      </trkpt>
      <trkpt lat="46.01996" lon="6.9606">
        <ele>1975.65</ele>
        <time>2012-09-28T15:25:07Z</time>
      </trkpt>
      <trkpt lat="46.01994" lon="6.9606">
        <ele>1976.13</ele>
        <time>2012-09-28T15:25:09Z</time>
      </trkpt>
      <trkpt lat="46.01991" lon="6.96055">
        <ele>1974.69</ele>
        <time>2012-09-28T15:25:13Z</time>
      </trkpt>
      <trkpt lat="46.01988" lon="6.96045">
        <ele>1973.72</ele>
        <time>2012-09-28T15:25:19Z</time>
      </trkpt>
      <trkpt lat="46.01985" lon="6.96043">
        <ele>1972.28</ele>
        <time>2012-09-28T15:25:22Z</time>
      </trkpt>
      <trkpt lat="46.01984" lon="6.96041">
        <ele>1972.28</ele>
        <time>2012-09-28T15:25:24Z</time>
      </trkpt>
      <trkpt lat="46.01975" lon="6.9603">
        <ele>1970.84</ele>
        <time>2012-09-28T15:25:32Z</time>
      </trkpt>
      <trkpt lat="46.01971" lon="6.96028">
        <ele>1970.36</ele>
        <time>2012-09-28T15:25:36Z</time>
      </trkpt>
      <trkpt lat="46.01965" lon="6.96015">
        <ele>1967.48</ele>
        <time>2012-09-28T15:25:51Z</time>
      </trkpt>
      <trkpt lat="46.01964" lon="6.96015">
        <ele>1967.48</ele>
        <time>2012-09-28T15:25:55Z</time>
      </trkpt>
      <trkpt lat="46.01955" lon="6.96013">
        <ele>1967.48</ele>
        <time>2012-09-28T15:26:03Z</time>
      </trkpt>
      <trkpt lat="46.01939" lon="6.95995">
        <ele>1966.51</ele>
        <time>2012-09-28T15:26:21Z</time>
      </trkpt>
      <trkpt lat="46.01926" lon="6.95974">
        <ele>1964.59</ele>
        <time>2012-09-28T15:26:35Z</time>
      </trkpt>
      <trkpt lat="46.01914" lon="6.9596">
        <ele>1961.23</ele>
        <time>2012-09-28T15:26:43Z</time>
      </trkpt>
      <trkpt lat="46.01912" lon="6.95959">
        <ele>1960.75</ele>
        <time>2012-09-28T15:26:44Z</time>
      </trkpt>
      <trkpt lat="46.01899" lon="6.95944">
        <ele>1957.86</ele>
        <time>2012-09-28T15:26:52Z</time>
      </trkpt>
      <trkpt lat="46.0189" lon="6.95934">
        <ele>1955.94</ele>
        <time>2012-09-28T15:26:57Z</time>
      </trkpt>
      <trkpt lat="46.01886" lon="6.95932">
        <ele>1955.94</ele>
        <time>2012-09-28T15:27:00Z</time>
      </trkpt>
      <trkpt lat="46.0188" lon="6.95929">
        <ele>1955.94</ele>
        <time>2012-09-28T15:27:05Z</time>
      </trkpt>
      <trkpt lat="46.01878" lon="6.95927">
        <ele>1955.46</ele>
        <time>2012-09-28T15:27:07Z</time>
      </trkpt>
      <trkpt lat="46.01872" lon="6.95923">
        <ele>1955.46</ele>
        <time>2012-09-28T15:27:14Z</time>
      </trkpt>
      <trkpt lat="46.01868" lon="6.95924">
        <ele>1955.46</ele>
        <time>2012-09-28T15:27:18Z</time>
      </trkpt>
      <trkpt lat="46.01856" lon="6.95911">
        <ele>1953.06</ele>
        <time>2012-09-28T15:27:30Z</time>
      </trkpt>
      <trkpt lat="46.01843" lon="6.95892">
        <ele>1950.17</ele>
        <time>2012-09-28T15:27:45Z</time>
      </trkpt>
      <trkpt lat="46.01826" lon="6.95878">
        <ele>1946.33</ele>
        <time>2012-09-28T15:27:58Z</time>
      </trkpt>
      <trkpt lat="46.01817" lon="6.95868">
        <ele>1944.4</ele>
        <time>2012-09-28T15:28:07Z</time>
      </trkpt>
      <trkpt lat="46.0181" lon="6.95861">
        <ele>1942.96</ele>
        <time>2012-09-28T15:28:15Z</time>
      </trkpt>
      <trkpt lat="46.0181" lon="6.95857">
        <ele>1942.48</ele>
        <time>2012-09-28T15:28:28Z</time>
      </trkpt>
      <trkpt lat="46.01809" lon="6.95855">
        <ele>1942.48</ele>
        <time>2012-09-28T15:28:34Z</time>
      </trkpt>
      <trkpt lat="46.01801" lon="6.95852">
        <ele>1940.08</ele>
        <time>2012-09-28T15:28:40Z</time>
      </trkpt>
      <trkpt lat="46.01793" lon="6.95848">
        <ele>1939.6</ele>
        <time>2012-09-28T15:28:45Z</time>
      </trkpt>
      <trkpt lat="46.01777" lon="6.95837">
        <ele>1937.19</ele>
        <time>2012-09-28T15:28:58Z</time>
      </trkpt>
      <trkpt lat="46.01765" lon="6.95833">
        <ele>1935.27</ele>
        <time>2012-09-28T15:29:14Z</time>
      </trkpt>
      <trkpt lat="46.01758" lon="6.95828">
        <ele>1933.83</ele>
        <time>2012-09-28T15:29:26Z</time>
      </trkpt>
      <trkpt lat="46.01752" lon="6.95825">
        <ele>1932.39</ele>
        <time>2012-09-28T15:29:30Z</time>
      </trkpt>
      <trkpt lat="46.01744" lon="6.95821">
        <ele>1931.43</ele>
        <time>2012-09-28T15:29:36Z</time>
      </trkpt>
      <trkpt lat="46.01733" lon="6.95812">
        <ele>1927.1</ele>
        <time>2012-09-28T15:29:46Z</time>
      </trkpt>
      <trkpt lat="46.01726" lon="6.95808">
        <ele>1926.14</ele>
        <time>2012-09-28T15:29:57Z</time>
      </trkpt>
      <trkpt lat="46.01724" lon="6.95805">
        <ele>1925.66</ele>
        <time>2012-09-28T15:30:04Z</time>
      </trkpt>
      <trkpt lat="46.0172" lon="6.95799">
        <ele>1924.22</ele>
        <time>2012-09-28T15:30:08Z</time>
      </trkpt>
      <trkpt lat="46.0171" lon="6.95788">
        <ele>1920.85</ele>
        <time>2012-09-28T15:30:15Z</time>
      </trkpt>
      <trkpt lat="46.01701" lon="6.95776">
        <ele>1917.97</ele>
        <time>2012-09-28T15:30:23Z</time>
      </trkpt>
      <trkpt lat="46.01692" lon="6.95773">
        <ele>1917.49</ele>
        <time>2012-09-28T15:30:29Z</time>
      </trkpt>
      <trkpt lat="46.01688" lon="6.95771">
        <ele>1916.04</ele>
        <time>2012-09-28T15:30:33Z</time>
      </trkpt>
      <trkpt lat="46.01678" lon="6.95766">
        <ele>1911.72</ele>
        <time>2012-09-28T15:30:43Z</time>
      </trkpt>
      <trkpt lat="46.0167" lon="6.95758">
        <ele>1908.83</ele>
        <time>2012-09-28T15:30:49Z</time>
      </trkpt>
      <trkpt lat="46.01669" lon="6.95757">
        <ele>1908.35</ele>
        <time>2012-09-28T15:30:50Z</time>
      </trkpt>
      <trkpt lat="46.01665" lon="6.95754">
        <ele>1907.39</ele>
        <time>2012-09-28T15:30:54Z</time>
      </trkpt>
      <trkpt lat="46.01657" lon="6.95745">
        <ele>1903.55</ele>
        <time>2012-09-28T15:31:05Z</time>
      </trkpt>
      <trkpt lat="46.01654" lon="6.95743">
        <ele>1902.11</ele>
        <time>2012-09-28T15:31:08Z</time>
      </trkpt>
      <trkpt lat="46.01648" lon="6.95744">
        <ele>1898.74</ele>
        <time>2012-09-28T15:31:13Z</time>
      </trkpt>
      <trkpt lat="46.01639" lon="6.95749">
        <ele>1898.26</ele>
        <time>2012-09-28T15:31:20Z</time>
      </trkpt>
      <trkpt lat="46.01618" lon="6.95749">
        <ele>1898.26</ele>
        <time>2012-09-28T15:31:39Z</time>
      </trkpt>
      <trkpt lat="46.01604" lon="6.95741">
        <ele>1896.34</ele>
        <time>2012-09-28T15:31:51Z</time>
      </trkpt>
      <trkpt lat="46.01589" lon="6.95724">
        <ele>1893.45</ele>
        <time>2012-09-28T15:32:05Z</time>
      </trkpt>
      <trkpt lat="46.01573" lon="6.95708">
        <ele>1890.09</ele>
        <time>2012-09-28T15:32:20Z</time>
      </trkpt>
      <trkpt lat="46.01559" lon="6.95698">
        <ele>1889.61</ele>
        <time>2012-09-28T15:32:31Z</time>
      </trkpt>
      <trkpt lat="46.01553" lon="6.95696">
        <ele>1888.65</ele>
        <time>2012-09-28T15:32:36Z</time>
      </trkpt>
      <trkpt lat="46.01551" lon="6.95693">
        <ele>1887.69</ele>
        <time>2012-09-28T15:32:39Z</time>
      </trkpt>
      <trkpt lat="46.01538" lon="6.95683">
        <ele>1883.84</ele>
        <time>2012-09-28T15:32:47Z</time>
      </trkpt>
      <trkpt lat="46.01536" lon="6.95681">
        <ele>1883.84</ele>
        <time>2012-09-28T15:32:48Z</time>
      </trkpt>
      <trkpt lat="46.01526" lon="6.95672">
        <ele>1880</ele>
        <time>2012-09-28T15:32:53Z</time>
      </trkpt>
      <trkpt lat="46.01513" lon="6.95661">
        <ele>1879.51</ele>
        <time>2012-09-28T15:33:03Z</time>
      </trkpt>
      <trkpt lat="46.01493" lon="6.95648">
        <ele>1876.63</ele>
        <time>2012-09-28T15:33:18Z</time>
      </trkpt>
      <trkpt lat="46.01477" lon="6.95641">
        <ele>1873.27</ele>
        <time>2012-09-28T15:33:29Z</time>
      </trkpt>
      <trkpt lat="46.01475" lon="6.9564">
        <ele>1872.79</ele>
        <time>2012-09-28T15:33:30Z</time>
      </trkpt>
      <trkpt lat="46.01468" lon="6.95632">
        <ele>1870.86</ele>
        <time>2012-09-28T15:33:35Z</time>
      </trkpt>
      <trkpt lat="46.01459" lon="6.95623">
        <ele>1867.5</ele>
        <time>2012-09-28T15:33:40Z</time>
      </trkpt>
      <trkpt lat="46.01455" lon="6.95619">
        <ele>1867.5</ele>
        <time>2012-09-28T15:33:42Z</time>
      </trkpt>
      <trkpt lat="46.01448" lon="6.95614">
        <ele>1866.06</ele>
        <time>2012-09-28T15:33:46Z</time>
      </trkpt>
      <trkpt lat="46.01441" lon="6.95603">
        <ele>1863.65</ele>
        <time>2012-09-28T15:33:51Z</time>
      </trkpt>
      <trkpt lat="46.01442" lon="6.95584">
        <ele>1861.25</ele>
        <time>2012-09-28T15:34:00Z</time>
      </trkpt>
      <trkpt lat="46.0145" lon="6.95577">
        <ele>1859.33</ele>
        <time>2012-09-28T15:34:05Z</time>
      </trkpt>
      <trkpt lat="46.01453" lon="6.95573">
        <ele>1857.89</ele>
        <time>2012-09-28T15:34:07Z</time>
      </trkpt>
      <trkpt lat="46.01456" lon="6.95565">
        <ele>1857.4</ele>
        <time>2012-09-28T15:34:10Z</time>
      </trkpt>
      <trkpt lat="46.01455" lon="6.9556">
        <ele>1855.48</ele>
        <time>2012-09-28T15:34:12Z</time>
      </trkpt>
      <trkpt lat="46.0145" lon="6.95552">
        <ele>1853.56</ele>
        <time>2012-09-28T15:34:16Z</time>
      </trkpt>
      <trkpt lat="46.01434" lon="6.95544">
        <ele>1849.71</ele>
        <time>2012-09-28T15:34:24Z</time>
      </trkpt>
      <trkpt lat="46.01431" lon="6.95542">
        <ele>1849.23</ele>
        <time>2012-09-28T15:34:25Z</time>
      </trkpt>
      <trkpt lat="46.01428" lon="6.95542">
        <ele>1847.79</ele>
        <time>2012-09-28T15:34:26Z</time>
      </trkpt>
      <trkpt lat="46.01407" lon="6.95538">
        <ele>1845.39</ele>
        <time>2012-09-28T15:34:37Z</time>
      </trkpt>
      <trkpt lat="46.01399" lon="6.95534">
        <ele>1842.5</ele>
        <time>2012-09-28T15:34:42Z</time>
      </trkpt>
      <trkpt lat="46.01391" lon="6.95529">
        <ele>1840.1</ele>
        <time>2012-09-28T15:34:47Z</time>
      </trkpt>
      <trkpt lat="46.01381" lon="6.95522">
        <ele>1836.26</ele>
        <time>2012-09-28T15:34:53Z</time>
      </trkpt>
      <trkpt lat="46.01379" lon="6.95521">
        <ele>1835.77</ele>
        <time>2012-09-28T15:34:54Z</time>
      </trkpt>
      <trkpt lat="46.01364" lon="6.95513">
        <ele>1832.41</ele>
        <time>2012-09-28T15:35:04Z</time>
      </trkpt>
      <trkpt lat="46.0136" lon="6.9551">
        <ele>1832.41</ele>
        <time>2012-09-28T15:35:08Z</time>
      </trkpt>
      <trkpt lat="46.0136" lon="6.95504">
        <ele>1831.93</ele>
        <time>2012-09-28T15:35:11Z</time>
      </trkpt>
      <trkpt lat="46.0137" lon="6.95497">
        <ele>1830.01</ele>
        <time>2012-09-28T15:35:20Z</time>
      </trkpt>
      <trkpt lat="46.01383" lon="6.9549">
        <ele>1827.12</ele>
        <time>2012-09-28T15:35:29Z</time>
      </trkpt>
      <trkpt lat="46.01397" lon="6.95478">
        <ele>1822.8</ele>
        <time>2012-09-28T15:35:36Z</time>
      </trkpt>
      <trkpt lat="46.01399" lon="6.95476">
        <ele>1822.8</ele>
        <time>2012-09-28T15:35:37Z</time>
      </trkpt>
      <trkpt lat="46.01396" lon="6.95459">
        <ele>1819.43</ele>
        <time>2012-09-28T15:35:45Z</time>
      </trkpt>
      <trkpt lat="46.01394" lon="6.95459">
        <ele>1819.43</ele>
        <time>2012-09-28T15:35:46Z</time>
      </trkpt>
      <trkpt lat="46.01378" lon="6.95459">
        <ele>1816.55</ele>
        <time>2012-09-28T15:35:54Z</time>
      </trkpt>
      <trkpt lat="46.01378" lon="6.95446">
        <ele>1815.11</ele>
        <time>2012-09-28T15:35:59Z</time>
      </trkpt>
      <trkpt lat="46.01385" lon="6.95432">
        <ele>1811.26</ele>
        <time>2012-09-28T15:36:05Z</time>
      </trkpt>
      <trkpt lat="46.01389" lon="6.95422">
        <ele>1809.34</ele>
        <time>2012-09-28T15:36:09Z</time>
      </trkpt>
      <trkpt lat="46.01392" lon="6.95413">
        <ele>1807.9</ele>
        <time>2012-09-28T15:36:12Z</time>
      </trkpt>
      <trkpt lat="46.01398" lon="6.95396">
        <ele>1804.53</ele>
        <time>2012-09-28T15:36:17Z</time>
      </trkpt>
      <trkpt lat="46.01399" lon="6.95393">
        <ele>1804.53</ele>
        <time>2012-09-28T15:36:18Z</time>
      </trkpt>
      <trkpt lat="46.01404" lon="6.95382">
        <ele>1802.13</ele>
        <time>2012-09-28T15:36:24Z</time>
      </trkpt>
      <trkpt lat="46.01407" lon="6.95374">
        <ele>1800.69</ele>
        <time>2012-09-28T15:36:29Z</time>
      </trkpt>
      <trkpt lat="46.01409" lon="6.9537">
        <ele>1799.73</ele>
        <time>2012-09-28T15:36:31Z</time>
      </trkpt>
      <trkpt lat="46.01411" lon="6.95365">
        <ele>1798.28</ele>
        <time>2012-09-28T15:36:33Z</time>
      </trkpt>
      <trkpt lat="46.01412" lon="6.95348">
        <ele>1795.88</ele>
        <time>2012-09-28T15:36:39Z</time>
      </trkpt>
      <trkpt lat="46.01403" lon="6.95335">
        <ele>1793</ele>
        <time>2012-09-28T15:36:44Z</time>
      </trkpt>
      <trkpt lat="46.01383" lon="6.9533">
        <ele>1789.63</ele>
        <time>2012-09-28T15:36:53Z</time>
      </trkpt>
      <trkpt lat="46.01378" lon="6.95332">
        <ele>1789.15</ele>
        <time>2012-09-28T15:37:04Z</time>
      </trkpt>
      <trkpt lat="46.01371" lon="6.95334">
        <ele>1787.23</ele>
        <time>2012-09-28T15:37:08Z</time>
      </trkpt>
      <trkpt lat="46.01361" lon="6.95337">
        <ele>1783.38</ele>
        <time>2012-09-28T15:37:13Z</time>
      </trkpt>
      <trkpt lat="46.01352" lon="6.95339">
        <ele>1780.98</ele>
        <time>2012-09-28T15:37:18Z</time>
      </trkpt>
      <trkpt lat="46.01337" lon="6.95344">
        <ele>1777.61</ele>
        <time>2012-09-28T15:37:25Z</time>
      </trkpt>
      <trkpt lat="46.01329" lon="6.95346">
        <ele>1774.73</ele>
        <time>2012-09-28T15:37:29Z</time>
      </trkpt>
      <trkpt lat="46.01326" lon="6.95347">
        <ele>1774.73</ele>
        <time>2012-09-28T15:37:30Z</time>
      </trkpt>
      <trkpt lat="46.01317" lon="6.95348">
        <ele>1772.81</ele>
        <time>2012-09-28T15:37:35Z</time>
      </trkpt>
      <trkpt lat="46.01316" lon="6.95348">
        <ele>1772.81</ele>
        <time>2012-09-28T15:37:36Z</time>
      </trkpt>
      <trkpt lat="46.01313" lon="6.95351">
        <ele>1771.85</ele>
        <time>2012-09-28T15:37:43Z</time>
      </trkpt>
      <trkpt lat="46.01304" lon="6.95348">
        <ele>1769.44</ele>
        <time>2012-09-28T15:37:51Z</time>
      </trkpt>
      <trkpt lat="46.01294" lon="6.95345">
        <ele>1766.56</ele>
        <time>2012-09-28T15:38:00Z</time>
      </trkpt>
      <trkpt lat="46.01281" lon="6.95342">
        <ele>1763.2</ele>
        <time>2012-09-28T15:38:10Z</time>
      </trkpt>
      <trkpt lat="46.01263" lon="6.95328">
        <ele>1760.31</ele>
        <time>2012-09-28T15:38:24Z</time>
      </trkpt>
      <trkpt lat="46.01246" lon="6.95309">
        <ele>1756.95</ele>
        <time>2012-09-28T15:38:39Z</time>
      </trkpt>
      <trkpt lat="46.01227" lon="6.95292">
        <ele>1754.54</ele>
        <time>2012-09-28T15:38:55Z</time>
      </trkpt>
      <trkpt lat="46.01215" lon="6.9528">
        <ele>1751.18</ele>
        <time>2012-09-28T15:39:06Z</time>
      </trkpt>
      <trkpt lat="46.01206" lon="6.95266">
        <ele>1747.81</ele>
        <time>2012-09-28T15:39:14Z</time>
      </trkpt>
      <trkpt lat="46.01205" lon="6.95264">
        <ele>1746.85</ele>
        <time>2012-09-28T15:39:15Z</time>
      </trkpt>
      <trkpt lat="46.012" lon="6.95249">
        <ele>1744.93</ele>
        <time>2012-09-28T15:39:21Z</time>
      </trkpt>
      <trkpt lat="46.01193" lon="6.95241">
        <ele>1743.01</ele>
        <time>2012-09-28T15:39:25Z</time>
      </trkpt>
      <trkpt lat="46.01186" lon="6.95239">
        <ele>1741.08</ele>
        <time>2012-09-28T15:39:28Z</time>
      </trkpt>
      <trkpt lat="46.0117" lon="6.95238">
        <ele>1738.2</ele>
        <time>2012-09-28T15:39:35Z</time>
      </trkpt>
      <trkpt lat="46.01161" lon="6.95238">
        <ele>1735.8</ele>
        <time>2012-09-28T15:39:39Z</time>
      </trkpt>
      <trkpt lat="46.01142" lon="6.95237">
        <ele>1731.95</ele>
        <time>2012-09-28T15:39:47Z</time>
      </trkpt>
      <trkpt lat="46.01121" lon="6.95234">
        <ele>1729.07</ele>
        <time>2012-09-28T15:39:55Z</time>
      </trkpt>
      <trkpt lat="46.01105" lon="6.95228">
        <ele>1726.67</ele>
        <time>2012-09-28T15:40:01Z</time>
      </trkpt>
      <trkpt lat="46.01087" lon="6.95216">
        <ele>1723.78</ele>
        <time>2012-09-28T15:40:08Z</time>
      </trkpt>
      <trkpt lat="46.01076" lon="6.95211">
        <ele>1721.86</ele>
        <time>2012-09-28T15:40:12Z</time>
      </trkpt>
      <trkpt lat="46.01059" lon="6.95205">
        <ele>1719.94</ele>
        <time>2012-09-28T15:40:22Z</time>
      </trkpt>
      <trkpt lat="46.01059" lon="6.95208">
        <ele>1719.46</ele>
        <time>2012-09-28T15:40:36Z</time>
      </trkpt>
      <trkpt lat="46.01057" lon="6.95208">
        <ele>1718.97</ele>
        <time>2012-09-28T15:40:41Z</time>
      </trkpt>
      <trkpt lat="46.01037" lon="6.95214">
        <ele>1716.09</ele>
        <time>2012-09-28T15:40:52Z</time>
      </trkpt>
      <trkpt lat="46.01018" lon="6.95222">
        <ele>1712.25</ele>
        <time>2012-09-28T15:41:00Z</time>
      </trkpt>
      <trkpt lat="46.01015" lon="6.95223">
        <ele>1712.25</ele>
        <time>2012-09-28T15:41:01Z</time>
      </trkpt>
      <trkpt lat="46.00998" lon="6.95226">
        <ele>1709.36</ele>
        <time>2012-09-28T15:41:08Z</time>
      </trkpt>
      <trkpt lat="46.00994" lon="6.95222">
        <ele>1708.88</ele>
        <time>2012-09-28T15:41:10Z</time>
      </trkpt>
      <trkpt lat="46.00992" lon="6.95216">
        <ele>1707.92</ele>
        <time>2012-09-28T15:41:13Z</time>
      </trkpt>
      <trkpt lat="46.0099" lon="6.95211">
        <ele>1707.44</ele>
        <time>2012-09-28T15:41:19Z</time>
      </trkpt>
      <trkpt lat="46.00987" lon="6.95207">
        <ele>1705.52</ele>
        <time>2012-09-28T15:41:24Z</time>
      </trkpt>
      <trkpt lat="46.00982" lon="6.95198">
        <ele>1701.67</ele>
        <time>2012-09-28T15:41:32Z</time>
      </trkpt>
      <trkpt lat="46.0098" lon="6.95193">
        <ele>1699.75</ele>
        <time>2012-09-28T15:41:36Z</time>
      </trkpt>
      <trkpt lat="46.00975" lon="6.95187">
        <ele>1696.86</ele>
        <time>2012-09-28T15:41:41Z</time>
      </trkpt>
      <trkpt lat="46.0097" lon="6.95179">
        <ele>1693.98</ele>
        <time>2012-09-28T15:41:47Z</time>
      </trkpt>
      <trkpt lat="46.00968" lon="6.95176">
        <ele>1693.02</ele>
        <time>2012-09-28T15:41:49Z</time>
      </trkpt>
      <trkpt lat="46.00963" lon="6.95167">
        <ele>1689.65</ele>
        <time>2012-09-28T15:41:55Z</time>
      </trkpt>
      <trkpt lat="46.00957" lon="6.95156">
        <ele>1686.77</ele>
        <time>2012-09-28T15:42:02Z</time>
      </trkpt>
      <trkpt lat="46.00952" lon="6.95149">
        <ele>1684.37</ele>
        <time>2012-09-28T15:42:06Z</time>
      </trkpt>
      <trkpt lat="46.00947" lon="6.9514">
        <ele>1681</ele>
        <time>2012-09-28T15:42:12Z</time>
      </trkpt>
      <trkpt lat="46.00944" lon="6.95134">
        <ele>1678.6</ele>
        <time>2012-09-28T15:42:17Z</time>
      </trkpt>
      <trkpt lat="46.00941" lon="6.95127">
        <ele>1676.2</ele>
        <time>2012-09-28T15:42:21Z</time>
      </trkpt>
      <trkpt lat="46.00939" lon="6.95123">
        <ele>1675.23</ele>
        <time>2012-09-28T15:42:23Z</time>
      </trkpt>
      <trkpt lat="46.00933" lon="6.95114">
        <ele>1671.87</ele>
        <time>2012-09-28T15:42:29Z</time>
      </trkpt>
      <trkpt lat="46.00924" lon="6.95103">
        <ele>1668.02</ele>
        <time>2012-09-28T15:42:37Z</time>
      </trkpt>
      <trkpt lat="46.00922" lon="6.95102">
        <ele>1667.54</ele>
        <time>2012-09-28T15:42:38Z</time>
      </trkpt>
      <trkpt lat="46.00915" lon="6.95099">
        <ele>1665.62</ele>
        <time>2012-09-28T15:42:44Z</time>
      </trkpt>
      <trkpt lat="46.0091" lon="6.95097">
        <ele>1664.18</ele>
        <time>2012-09-28T15:42:49Z</time>
      </trkpt>
      <trkpt lat="46.00901" lon="6.95094">
        <ele>1660.81</ele>
        <time>2012-09-28T15:42:58Z</time>
      </trkpt>
      <trkpt lat="46.009" lon="6.95093">
        <ele>1660.33</ele>
        <time>2012-09-28T15:42:59Z</time>
      </trkpt>
      <trkpt lat="46.00897" lon="6.95093">
        <ele>1659.37</ele>
        <time>2012-09-28T15:43:02Z</time>
      </trkpt>
      <trkpt lat="46.00895" lon="6.95093">
        <ele>1658.41</ele>
        <time>2012-09-28T15:43:05Z</time>
      </trkpt>
      <trkpt lat="46.00889" lon="6.95089">
        <ele>1656.49</ele>
        <time>2012-09-28T15:43:10Z</time>
      </trkpt>
      <trkpt lat="46.00883" lon="6.9509">
        <ele>1654.57</ele>
        <time>2012-09-28T15:43:13Z</time>
      </trkpt>
      <trkpt lat="46.00869" lon="6.95086">
        <ele>1652.16</ele>
        <time>2012-09-28T15:43:21Z</time>
      </trkpt>
      <trkpt lat="46.00869" lon="6.95067">
        <ele>1649.28</ele>
        <time>2012-09-28T15:43:30Z</time>
      </trkpt>
      <trkpt lat="46.00878" lon="6.95055">
        <ele>1645.91</ele>
        <time>2012-09-28T15:43:37Z</time>
      </trkpt>
      <trkpt lat="46.0088" lon="6.95054">
        <ele>1646.4</ele>
        <time>2012-09-28T15:43:38Z</time>
      </trkpt>
      <trkpt lat="46.00891" lon="6.95042">
        <ele>1643.03</ele>
        <time>2012-09-28T15:43:47Z</time>
      </trkpt>
      <trkpt lat="46.00902" lon="6.95025">
        <ele>1639.19</ele>
        <time>2012-09-28T15:43:56Z</time>
      </trkpt>
      <trkpt lat="46.00914" lon="6.95009">
        <ele>1635.82</ele>
        <time>2012-09-28T15:44:04Z</time>
      </trkpt>
      <trkpt lat="46.00929" lon="6.94992">
        <ele>1632.94</ele>
        <time>2012-09-28T15:44:13Z</time>
      </trkpt>
      <trkpt lat="46.00924" lon="6.94983">
        <ele>1630.53</ele>
        <time>2012-09-28T15:44:20Z</time>
      </trkpt>
      <trkpt lat="46.00916" lon="6.94988">
        <ele>1628.13</ele>
        <time>2012-09-28T15:44:25Z</time>
      </trkpt>
      <trkpt lat="46.00897" lon="6.94985">
        <ele>1625.25</ele>
        <time>2012-09-28T15:44:34Z</time>
      </trkpt>
      <trkpt lat="46.00883" lon="6.94976">
        <ele>1621.4</ele>
        <time>2012-09-28T15:44:41Z</time>
      </trkpt>
      <trkpt lat="46.0088" lon="6.94975">
        <ele>1621.4</ele>
        <time>2012-09-28T15:44:42Z</time>
      </trkpt>
      <trkpt lat="46.00867" lon="6.94972">
        <ele>1618.52</ele>
        <time>2012-09-28T15:44:48Z</time>
      </trkpt>
      <trkpt lat="46.00865" lon="6.94972">
        <ele>1618.04</ele>
        <time>2012-09-28T15:44:49Z</time>
      </trkpt>
      <trkpt lat="46.00854" lon="6.94968">
        <ele>1615.15</ele>
        <time>2012-09-28T15:44:54Z</time>
      </trkpt>
      <trkpt lat="46.00845" lon="6.94965">
        <ele>1614.19</ele>
        <time>2012-09-28T15:44:58Z</time>
      </trkpt>
      <trkpt lat="46.00839" lon="6.9496">
        <ele>1612.27</ele>
        <time>2012-09-28T15:45:01Z</time>
      </trkpt>
      <trkpt lat="46.0083" lon="6.94949">
        <ele>1609.38</ele>
        <time>2012-09-28T15:45:06Z</time>
      </trkpt>
      <trkpt lat="46.00828" lon="6.94948">
        <ele>1609.38</ele>
        <time>2012-09-28T15:45:07Z</time>
      </trkpt>
      <trkpt lat="46.00826" lon="6.94947">
        <ele>1609.38</ele>
        <time>2012-09-28T15:45:08Z</time>
      </trkpt>
      <trkpt lat="46.00821" lon="6.94948">
        <ele>1607.94</ele>
        <time>2012-09-28T15:45:10Z</time>
      </trkpt>
      <trkpt lat="46.00817" lon="6.94951">
        <ele>1607.46</ele>
        <time>2012-09-28T15:45:12Z</time>
      </trkpt>
      <trkpt lat="46.00811" lon="6.94956">
        <ele>1605.06</ele>
        <time>2012-09-28T15:45:15Z</time>
      </trkpt>
      <trkpt lat="46.00808" lon="6.9496">
        <ele>1604.58</ele>
        <time>2012-09-28T15:45:17Z</time>
      </trkpt>
      <trkpt lat="46.00797" lon="6.9496">
        <ele>1601.21</ele>
        <time>2012-09-28T15:45:22Z</time>
      </trkpt>
      <trkpt lat="46.00795" lon="6.94955">
        <ele>1600.73</ele>
        <time>2012-09-28T15:45:24Z</time>
      </trkpt>
      <trkpt lat="46.008" lon="6.94935">
        <ele>1597.37</ele>
        <time>2012-09-28T15:45:34Z</time>
      </trkpt>
      <trkpt lat="46.00805" lon="6.94924">
        <ele>1596.41</ele>
        <time>2012-09-28T15:45:38Z</time>
      </trkpt>
      <trkpt lat="46.00815" lon="6.94912">
        <ele>1593.52</ele>
        <time>2012-09-28T15:45:44Z</time>
      </trkpt>
      <trkpt lat="46.00821" lon="6.94909">
        <ele>1592.08</ele>
        <time>2012-09-28T15:45:47Z</time>
      </trkpt>
      <trkpt lat="46.00834" lon="6.94912">
        <ele>1588.72</ele>
        <time>2012-09-28T15:45:53Z</time>
      </trkpt>
      <trkpt lat="46.00836" lon="6.94913">
        <ele>1588.24</ele>
        <time>2012-09-28T15:45:54Z</time>
      </trkpt>
      <trkpt lat="46.00847" lon="6.9491">
        <ele>1587.27</ele>
        <time>2012-09-28T15:46:00Z</time>
      </trkpt>
      <trkpt lat="46.00848" lon="6.94904">
        <ele>1586.31</ele>
        <time>2012-09-28T15:46:04Z</time>
      </trkpt>
      <trkpt lat="46.00837" lon="6.94894">
        <ele>1583.43</ele>
        <time>2012-09-28T15:46:14Z</time>
      </trkpt>
      <trkpt lat="46.00823" lon="6.94885">
        <ele>1579.58</ele>
        <time>2012-09-28T15:46:22Z</time>
      </trkpt>
      <trkpt lat="46.00821" lon="6.94884">
        <ele>1579.58</ele>
        <time>2012-09-28T15:46:23Z</time>
      </trkpt>
      <trkpt lat="46.00809" lon="6.94878">
        <ele>1575.74</ele>
        <time>2012-09-28T15:46:30Z</time>
      </trkpt>
      <trkpt lat="46.00805" lon="6.94876">
        <ele>1575.74</ele>
        <time>2012-09-28T15:46:34Z</time>
      </trkpt>
      <trkpt lat="46.00795" lon="6.94876">
        <ele>1572.37</ele>
        <time>2012-09-28T15:46:45Z</time>
      </trkpt>
      <trkpt lat="46.00789" lon="6.94878">
        <ele>1570.93</ele>
        <time>2012-09-28T15:46:50Z</time>
      </trkpt>
      <trkpt lat="46.00786" lon="6.94879">
        <ele>1569.97</ele>
        <time>2012-09-28T15:46:53Z</time>
      </trkpt>
      <trkpt lat="46.00784" lon="6.94882">
        <ele>1569.01</ele>
        <time>2012-09-28T15:46:56Z</time>
      </trkpt>
      <trkpt lat="46.00774" lon="6.94885">
        <ele>1566.12</ele>
        <time>2012-09-28T15:47:06Z</time>
      </trkpt>
      <trkpt lat="46.00765" lon="6.94885">
        <ele>1563.72</ele>
        <time>2012-09-28T15:47:14Z</time>
      </trkpt>
      <trkpt lat="46.00758" lon="6.94882">
        <ele>1562.28</ele>
        <time>2012-09-28T15:47:19Z</time>
      </trkpt>
      <trkpt lat="46.00739" lon="6.94885">
        <ele>1559.4</ele>
        <time>2012-09-28T15:47:33Z</time>
      </trkpt>
      <trkpt lat="46.00729" lon="6.94888">
        <ele>1558.43</ele>
        <time>2012-09-28T15:47:39Z</time>
      </trkpt>
      <trkpt lat="46.00702" lon="6.94895">
        <ele>1557.47</ele>
        <time>2012-09-28T15:47:58Z</time>
      </trkpt>
      <trkpt lat="46.00679" lon="6.94901">
        <ele>1555.07</ele>
        <time>2012-09-28T15:48:14Z</time>
      </trkpt>
      <trkpt lat="46.00662" lon="6.94895">
        <ele>1551.71</ele>
        <time>2012-09-28T15:48:26Z</time>
      </trkpt>
      <trkpt lat="46.00644" lon="6.94898">
        <ele>1548.34</ele>
        <time>2012-09-28T15:48:36Z</time>
      </trkpt>
      <trkpt lat="46.00642" lon="6.94899">
        <ele>1548.34</ele>
        <time>2012-09-28T15:48:37Z</time>
      </trkpt>
      <trkpt lat="46.00624" lon="6.94897">
        <ele>1544.5</ele>
        <time>2012-09-28T15:48:44Z</time>
      </trkpt>
      <trkpt lat="46.00622" lon="6.94896">
        <ele>1544.5</ele>
        <time>2012-09-28T15:48:45Z</time>
      </trkpt>
      <trkpt lat="46.00612" lon="6.94893">
        <ele>1542.57</ele>
        <time>2012-09-28T15:48:49Z</time>
      </trkpt>
      <trkpt lat="46.00601" lon="6.94887">
        <ele>1540.65</ele>
        <time>2012-09-28T15:48:54Z</time>
      </trkpt>
      <trkpt lat="46.00585" lon="6.94875">
        <ele>1536.32</ele>
        <time>2012-09-28T15:49:01Z</time>
      </trkpt>
      <trkpt lat="46.00576" lon="6.94868">
        <ele>1535.36</ele>
        <time>2012-09-28T15:49:05Z</time>
      </trkpt>
      <trkpt lat="46.00569" lon="6.94863">
        <ele>1532.48</ele>
        <time>2012-09-28T15:49:08Z</time>
      </trkpt>
      <trkpt lat="46.00555" lon="6.9485">
        <ele>1529.11</ele>
        <time>2012-09-28T15:49:14Z</time>
      </trkpt>
      <trkpt lat="46.00529" lon="6.94835">
        <ele>1526.71</ele>
        <time>2012-09-28T15:49:24Z</time>
      </trkpt>
      <trkpt lat="46.00518" lon="6.94833">
        <ele>1523.83</ele>
        <time>2012-09-28T15:49:28Z</time>
      </trkpt>
      <trkpt lat="46.00496" lon="6.94828">
        <ele>1519.98</ele>
        <time>2012-09-28T15:49:34Z</time>
      </trkpt>
      <trkpt lat="46.00467" lon="6.94811">
        <ele>1515.18</ele>
        <time>2012-09-28T15:49:43Z</time>
      </trkpt>
      <trkpt lat="46.00463" lon="6.94809">
        <ele>1515.18</ele>
        <time>2012-09-28T15:49:44Z</time>
      </trkpt>
      <trkpt lat="46.00444" lon="6.94793">
        <ele>1511.81</ele>
        <time>2012-09-28T15:49:51Z</time>
      </trkpt>
      <trkpt lat="46.00441" lon="6.94791">
        <ele>1511.81</ele>
        <time>2012-09-28T15:49:52Z</time>
      </trkpt>
      <trkpt lat="46.00428" lon="6.94775">
        <ele>1507.97</ele>
        <time>2012-09-28T15:49:57Z</time>
      </trkpt>
      <trkpt lat="46.00425" lon="6.94772">
        <ele>1508.45</ele>
        <time>2012-09-28T15:49:58Z</time>
      </trkpt>
      <trkpt lat="46.0041" lon="6.94756">
        <ele>1504.6</ele>
        <time>2012-09-28T15:50:04Z</time>
      </trkpt>
      <trkpt lat="46.00408" lon="6.94754">
        <ele>1505.08</ele>
        <time>2012-09-28T15:50:05Z</time>
      </trkpt>
      <trkpt lat="46.00399" lon="6.94744">
        <ele>1503.16</ele>
        <time>2012-09-28T15:50:09Z</time>
      </trkpt>
      <trkpt lat="46.00391" lon="6.94737">
        <ele>1501.72</ele>
        <time>2012-09-28T15:50:12Z</time>
      </trkpt>
      <trkpt lat="46.00378" lon="6.94699">
        <ele>1499.31</ele>
        <time>2012-09-28T15:50:22Z</time>
      </trkpt>
      <trkpt lat="46.00379" lon="6.94678">
        <ele>1498.35</ele>
        <time>2012-09-28T15:50:27Z</time>
      </trkpt>
      <trkpt lat="46.0039" lon="6.94658">
        <ele>1495.95</ele>
        <time>2012-09-28T15:50:33Z</time>
      </trkpt>
      <trkpt lat="46.0039" lon="6.94624">
        <ele>1494.03</ele>
        <time>2012-09-28T15:50:49Z</time>
      </trkpt>
      <trkpt lat="46.00392" lon="6.94604">
        <ele>1492.58</ele>
        <time>2012-09-28T15:51:06Z</time>
      </trkpt>
      <trkpt lat="46.0039" lon="6.94606">
        <ele>1492.58</ele>
        <time>2012-09-28T15:51:21Z</time>
      </trkpt>
      <trkpt lat="46.00389" lon="6.94608">
        <ele>1491.62</ele>
        <time>2012-09-28T15:51:38Z</time>
      </trkpt>
      <trkpt lat="46.00389" lon="6.94605">
        <ele>1492.58</ele>
        <time>2012-09-28T15:51:57Z</time>
      </trkpt>
      <trkpt lat="46.00391" lon="6.94606">
        <ele>1492.58</ele>
        <time>2012-09-28T15:52:15Z</time>
      </trkpt>
    </trkseg>
  </trk>
</gpx>